<?xml version="1.0" encoding="UTF-8" standalone="no" ?>
<gpx xmlns="http://www.topografix.com/GPX/1/1" xmlns:xsi="http://www.w3.org/2001/XMLSchema-instance" xsi:schemaLocation="http://www.topografix.com/GPX/1/1 http://www.topografix.com/GPX/1/1/gpx.xsd" version="1.1" creator="VisuGPX - https://www.visugpx.com">
  <metadata>
    <name>Marathon des Causses (Les Templiers)</name>
    <desc><![CDATA[Marathon des Causses. Le 24 octobre 2015
Festival des Templiers 2015 à Millau.]]></desc>
  </metadata>
  <trk>
    <name><![CDATA[Templiers-24-10-2015 on GPSies.com]]></name>
    <trkseg>
      <trkpt lat="44.11351" lon="3.08723">
        <ele>360</ele>
        <time>2015-10-24T10:30:44Z</time>
      </trkpt>
      <trkpt lat="44.11351" lon="3.08721">
        <ele>360</ele>
        <time>2015-10-24T10:30:51Z</time>
      </trkpt>
      <trkpt lat="44.11355" lon="3.08717">
        <ele>360</ele>
        <time>2015-10-24T10:31:01Z</time>
      </trkpt>
      <trkpt lat="44.11359" lon="3.08715">
        <ele>360</ele>
        <time>2015-10-24T10:31:09Z</time>
      </trkpt>
      <trkpt lat="44.11364" lon="3.0871">
        <ele>360</ele>
        <time>2015-10-24T10:31:17Z</time>
      </trkpt>
      <trkpt lat="44.11368" lon="3.08703">
        <ele>360</ele>
        <time>2015-10-24T10:31:24Z</time>
      </trkpt>
      <trkpt lat="44.11373" lon="3.08697">
        <ele>360</ele>
        <time>2015-10-24T10:31:30Z</time>
      </trkpt>
      <trkpt lat="44.1138" lon="3.08685">
        <ele>360</ele>
        <time>2015-10-24T10:31:35Z</time>
      </trkpt>
      <trkpt lat="44.11381" lon="3.08682">
        <ele>360</ele>
        <time>2015-10-24T10:31:36Z</time>
      </trkpt>
      <trkpt lat="44.11388" lon="3.08666">
        <ele>360</ele>
        <time>2015-10-24T10:31:41Z</time>
      </trkpt>
      <trkpt lat="44.114" lon="3.08664">
        <ele>360</ele>
        <time>2015-10-24T10:31:46Z</time>
      </trkpt>
      <trkpt lat="44.11414" lon="3.08667">
        <ele>360</ele>
        <time>2015-10-24T10:31:52Z</time>
      </trkpt>
      <trkpt lat="44.11427" lon="3.08671">
        <ele>360</ele>
        <time>2015-10-24T10:31:58Z</time>
      </trkpt>
      <trkpt lat="44.11441" lon="3.08675">
        <ele>360</ele>
        <time>2015-10-24T10:32:04Z</time>
      </trkpt>
      <trkpt lat="44.11451" lon="3.08679">
        <ele>360</ele>
        <time>2015-10-24T10:32:08Z</time>
      </trkpt>
      <trkpt lat="44.11464" lon="3.08683">
        <ele>360</ele>
        <time>2015-10-24T10:32:13Z</time>
      </trkpt>
      <trkpt lat="44.11469" lon="3.08685">
        <ele>360</ele>
        <time>2015-10-24T10:32:15Z</time>
      </trkpt>
      <trkpt lat="44.11474" lon="3.08691">
        <ele>360</ele>
        <time>2015-10-24T10:32:18Z</time>
      </trkpt>
      <trkpt lat="44.1148" lon="3.08699">
        <ele>360</ele>
        <time>2015-10-24T10:32:22Z</time>
      </trkpt>
      <trkpt lat="44.11493" lon="3.08706">
        <ele>360</ele>
        <time>2015-10-24T10:32:27Z</time>
      </trkpt>
      <trkpt lat="44.11497" lon="3.08711">
        <ele>360</ele>
        <time>2015-10-24T10:32:30Z</time>
      </trkpt>
      <trkpt lat="44.11504" lon="3.08721">
        <ele>361</ele>
        <time>2015-10-24T10:32:35Z</time>
      </trkpt>
      <trkpt lat="44.11515" lon="3.08726">
        <ele>361</ele>
        <time>2015-10-24T10:32:39Z</time>
      </trkpt>
      <trkpt lat="44.1153" lon="3.08734">
        <ele>361</ele>
        <time>2015-10-24T10:32:45Z</time>
      </trkpt>
      <trkpt lat="44.11545" lon="3.08744">
        <ele>361</ele>
        <time>2015-10-24T10:32:51Z</time>
      </trkpt>
      <trkpt lat="44.11562" lon="3.08752">
        <ele>362</ele>
        <time>2015-10-24T10:32:57Z</time>
      </trkpt>
      <trkpt lat="44.1157" lon="3.08758">
        <ele>363</ele>
        <time>2015-10-24T10:33:00Z</time>
      </trkpt>
      <trkpt lat="44.11587" lon="3.08766">
        <ele>363</ele>
        <time>2015-10-24T10:33:06Z</time>
      </trkpt>
      <trkpt lat="44.11592" lon="3.08769">
        <ele>363</ele>
        <time>2015-10-24T10:33:08Z</time>
      </trkpt>
      <trkpt lat="44.11605" lon="3.08776">
        <ele>362</ele>
        <time>2015-10-24T10:33:13Z</time>
      </trkpt>
      <trkpt lat="44.11617" lon="3.08785">
        <ele>362</ele>
        <time>2015-10-24T10:33:18Z</time>
      </trkpt>
      <trkpt lat="44.11627" lon="3.08791">
        <ele>362</ele>
        <time>2015-10-24T10:33:22Z</time>
      </trkpt>
      <trkpt lat="44.11637" lon="3.08798">
        <ele>362</ele>
        <time>2015-10-24T10:33:26Z</time>
      </trkpt>
      <trkpt lat="44.11646" lon="3.08803">
        <ele>362</ele>
        <time>2015-10-24T10:33:30Z</time>
      </trkpt>
      <trkpt lat="44.11656" lon="3.08809">
        <ele>362</ele>
        <time>2015-10-24T10:33:34Z</time>
      </trkpt>
      <trkpt lat="44.11666" lon="3.08818">
        <ele>362</ele>
        <time>2015-10-24T10:33:39Z</time>
      </trkpt>
      <trkpt lat="44.11677" lon="3.08823">
        <ele>362</ele>
        <time>2015-10-24T10:33:43Z</time>
      </trkpt>
      <trkpt lat="44.11688" lon="3.08831">
        <ele>362</ele>
        <time>2015-10-24T10:33:48Z</time>
      </trkpt>
      <trkpt lat="44.11696" lon="3.08835">
        <ele>363</ele>
        <time>2015-10-24T10:33:51Z</time>
      </trkpt>
      <trkpt lat="44.11712" lon="3.08844">
        <ele>363</ele>
        <time>2015-10-24T10:33:57Z</time>
      </trkpt>
      <trkpt lat="44.11724" lon="3.08853">
        <ele>363</ele>
        <time>2015-10-24T10:34:02Z</time>
      </trkpt>
      <trkpt lat="44.11734" lon="3.08863">
        <ele>363</ele>
        <time>2015-10-24T10:34:07Z</time>
      </trkpt>
      <trkpt lat="44.11742" lon="3.08871">
        <ele>363</ele>
        <time>2015-10-24T10:34:11Z</time>
      </trkpt>
      <trkpt lat="44.11751" lon="3.08883">
        <ele>363</ele>
        <time>2015-10-24T10:34:16Z</time>
      </trkpt>
      <trkpt lat="44.11759" lon="3.08893">
        <ele>363</ele>
        <time>2015-10-24T10:34:20Z</time>
      </trkpt>
      <trkpt lat="44.11767" lon="3.08904">
        <ele>363</ele>
        <time>2015-10-24T10:34:24Z</time>
      </trkpt>
      <trkpt lat="44.11775" lon="3.08917">
        <ele>365</ele>
        <time>2015-10-24T10:34:29Z</time>
      </trkpt>
      <trkpt lat="44.11786" lon="3.0893">
        <ele>365</ele>
        <time>2015-10-24T10:34:35Z</time>
      </trkpt>
      <trkpt lat="44.11796" lon="3.08944">
        <ele>365</ele>
        <time>2015-10-24T10:34:41Z</time>
      </trkpt>
      <trkpt lat="44.11798" lon="3.08946">
        <ele>365</ele>
        <time>2015-10-24T10:34:42Z</time>
      </trkpt>
      <trkpt lat="44.11811" lon="3.08959">
        <ele>366</ele>
        <time>2015-10-24T10:34:48Z</time>
      </trkpt>
      <trkpt lat="44.11821" lon="3.08975">
        <ele>366</ele>
        <time>2015-10-24T10:34:54Z</time>
      </trkpt>
      <trkpt lat="44.11833" lon="3.08989">
        <ele>367</ele>
        <time>2015-10-24T10:35:00Z</time>
      </trkpt>
      <trkpt lat="44.11839" lon="3.08996">
        <ele>366</ele>
        <time>2015-10-24T10:35:04Z</time>
      </trkpt>
      <trkpt lat="44.11848" lon="3.09012">
        <ele>367</ele>
        <time>2015-10-24T10:35:10Z</time>
      </trkpt>
      <trkpt lat="44.11863" lon="3.09021">
        <ele>366</ele>
        <time>2015-10-24T10:35:16Z</time>
      </trkpt>
      <trkpt lat="44.11866" lon="3.09023">
        <ele>366</ele>
        <time>2015-10-24T10:35:17Z</time>
      </trkpt>
      <trkpt lat="44.11877" lon="3.09036">
        <ele>366</ele>
        <time>2015-10-24T10:35:23Z</time>
      </trkpt>
      <trkpt lat="44.11886" lon="3.09049">
        <ele>366</ele>
        <time>2015-10-24T10:35:28Z</time>
      </trkpt>
      <trkpt lat="44.11895" lon="3.09066">
        <ele>365</ele>
        <time>2015-10-24T10:35:34Z</time>
      </trkpt>
      <trkpt lat="44.11902" lon="3.09079">
        <ele>365</ele>
        <time>2015-10-24T10:35:39Z</time>
      </trkpt>
      <trkpt lat="44.1191" lon="3.09092">
        <ele>367</ele>
        <time>2015-10-24T10:35:44Z</time>
      </trkpt>
      <trkpt lat="44.11916" lon="3.09104">
        <ele>369</ele>
        <time>2015-10-24T10:35:48Z</time>
      </trkpt>
      <trkpt lat="44.11924" lon="3.09117">
        <ele>365</ele>
        <time>2015-10-24T10:35:53Z</time>
      </trkpt>
      <trkpt lat="44.11928" lon="3.09123">
        <ele>366</ele>
        <time>2015-10-24T10:35:55Z</time>
      </trkpt>
      <trkpt lat="44.11936" lon="3.09136">
        <ele>366</ele>
        <time>2015-10-24T10:36:00Z</time>
      </trkpt>
      <trkpt lat="44.11945" lon="3.09146">
        <ele>367</ele>
        <time>2015-10-24T10:36:04Z</time>
      </trkpt>
      <trkpt lat="44.11954" lon="3.09154">
        <ele>366</ele>
        <time>2015-10-24T10:36:08Z</time>
      </trkpt>
      <trkpt lat="44.1196" lon="3.09166">
        <ele>366</ele>
        <time>2015-10-24T10:36:13Z</time>
      </trkpt>
      <trkpt lat="44.11961" lon="3.09169">
        <ele>372</ele>
        <time>2015-10-24T10:36:14Z</time>
      </trkpt>
      <trkpt lat="44.1197" lon="3.09189">
        <ele>373</ele>
        <time>2015-10-24T10:36:21Z</time>
      </trkpt>
      <trkpt lat="44.11976" lon="3.09204">
        <ele>373</ele>
        <time>2015-10-24T10:36:26Z</time>
      </trkpt>
      <trkpt lat="44.1198" lon="3.09214">
        <ele>374</ele>
        <time>2015-10-24T10:36:29Z</time>
      </trkpt>
      <trkpt lat="44.11984" lon="3.09228">
        <ele>374</ele>
        <time>2015-10-24T10:36:34Z</time>
      </trkpt>
      <trkpt lat="44.11987" lon="3.09244">
        <ele>375</ele>
        <time>2015-10-24T10:36:39Z</time>
      </trkpt>
      <trkpt lat="44.11988" lon="3.09247">
        <ele>375</ele>
        <time>2015-10-24T10:36:40Z</time>
      </trkpt>
      <trkpt lat="44.11997" lon="3.09265">
        <ele>379</ele>
        <time>2015-10-24T10:36:46Z</time>
      </trkpt>
      <trkpt lat="44.12001" lon="3.09283">
        <ele>373</ele>
        <time>2015-10-24T10:36:51Z</time>
      </trkpt>
      <trkpt lat="44.12009" lon="3.09295">
        <ele>374</ele>
        <time>2015-10-24T10:36:56Z</time>
      </trkpt>
      <trkpt lat="44.12012" lon="3.09301">
        <ele>374</ele>
        <time>2015-10-24T10:36:58Z</time>
      </trkpt>
      <trkpt lat="44.12022" lon="3.09314">
        <ele>375</ele>
        <time>2015-10-24T10:37:03Z</time>
      </trkpt>
      <trkpt lat="44.12032" lon="3.09326">
        <ele>374</ele>
        <time>2015-10-24T10:37:08Z</time>
      </trkpt>
      <trkpt lat="44.12046" lon="3.09342">
        <ele>377</ele>
        <time>2015-10-24T10:37:14Z</time>
      </trkpt>
      <trkpt lat="44.12056" lon="3.09356">
        <ele>376</ele>
        <time>2015-10-24T10:37:19Z</time>
      </trkpt>
      <trkpt lat="44.12063" lon="3.09369">
        <ele>376</ele>
        <time>2015-10-24T10:37:23Z</time>
      </trkpt>
      <trkpt lat="44.12065" lon="3.09372">
        <ele>376</ele>
        <time>2015-10-24T10:37:24Z</time>
      </trkpt>
      <trkpt lat="44.12074" lon="3.09387">
        <ele>376</ele>
        <time>2015-10-24T10:37:29Z</time>
      </trkpt>
      <trkpt lat="44.12076" lon="3.09391">
        <ele>376</ele>
        <time>2015-10-24T10:37:30Z</time>
      </trkpt>
      <trkpt lat="44.12087" lon="3.09409">
        <ele>371</ele>
        <time>2015-10-24T10:37:36Z</time>
      </trkpt>
      <trkpt lat="44.12095" lon="3.09426">
        <ele>372</ele>
        <time>2015-10-24T10:37:41Z</time>
      </trkpt>
      <trkpt lat="44.12103" lon="3.09442">
        <ele>371</ele>
        <time>2015-10-24T10:37:46Z</time>
      </trkpt>
      <trkpt lat="44.12109" lon="3.09453">
        <ele>371</ele>
        <time>2015-10-24T10:37:50Z</time>
      </trkpt>
      <trkpt lat="44.12114" lon="3.09465">
        <ele>372</ele>
        <time>2015-10-24T10:37:54Z</time>
      </trkpt>
      <trkpt lat="44.12118" lon="3.09473">
        <ele>372</ele>
        <time>2015-10-24T10:37:57Z</time>
      </trkpt>
      <trkpt lat="44.12127" lon="3.09487">
        <ele>371</ele>
        <time>2015-10-24T10:38:02Z</time>
      </trkpt>
      <trkpt lat="44.12137" lon="3.09501">
        <ele>375</ele>
        <time>2015-10-24T10:38:07Z</time>
      </trkpt>
      <trkpt lat="44.12142" lon="3.09509">
        <ele>375</ele>
        <time>2015-10-24T10:38:10Z</time>
      </trkpt>
      <trkpt lat="44.12147" lon="3.09518">
        <ele>375</ele>
        <time>2015-10-24T10:38:13Z</time>
      </trkpt>
      <trkpt lat="44.12159" lon="3.09533">
        <ele>376</ele>
        <time>2015-10-24T10:38:19Z</time>
      </trkpt>
      <trkpt lat="44.12162" lon="3.09539">
        <ele>376</ele>
        <time>2015-10-24T10:38:21Z</time>
      </trkpt>
      <trkpt lat="44.12175" lon="3.09554">
        <ele>370</ele>
        <time>2015-10-24T10:38:27Z</time>
      </trkpt>
      <trkpt lat="44.12188" lon="3.09565">
        <ele>371</ele>
        <time>2015-10-24T10:38:32Z</time>
      </trkpt>
      <trkpt lat="44.12199" lon="3.09574">
        <ele>370</ele>
        <time>2015-10-24T10:38:36Z</time>
      </trkpt>
      <trkpt lat="44.12202" lon="3.09576">
        <ele>370</ele>
        <time>2015-10-24T10:38:37Z</time>
      </trkpt>
      <trkpt lat="44.12213" lon="3.09588">
        <ele>374</ele>
        <time>2015-10-24T10:38:42Z</time>
      </trkpt>
      <trkpt lat="44.1222" lon="3.09595">
        <ele>374</ele>
        <time>2015-10-24T10:38:45Z</time>
      </trkpt>
      <trkpt lat="44.12232" lon="3.09607">
        <ele>374</ele>
        <time>2015-10-24T10:38:50Z</time>
      </trkpt>
      <trkpt lat="44.12241" lon="3.09622">
        <ele>375</ele>
        <time>2015-10-24T10:38:56Z</time>
      </trkpt>
      <trkpt lat="44.12249" lon="3.09635">
        <ele>376</ele>
        <time>2015-10-24T10:39:01Z</time>
      </trkpt>
      <trkpt lat="44.12258" lon="3.09647">
        <ele>372</ele>
        <time>2015-10-24T10:39:06Z</time>
      </trkpt>
      <trkpt lat="44.1226" lon="3.09649">
        <ele>372</ele>
        <time>2015-10-24T10:39:07Z</time>
      </trkpt>
      <trkpt lat="44.12274" lon="3.0966">
        <ele>371</ele>
        <time>2015-10-24T10:39:12Z</time>
      </trkpt>
      <trkpt lat="44.12278" lon="3.09666">
        <ele>371</ele>
        <time>2015-10-24T10:39:14Z</time>
      </trkpt>
      <trkpt lat="44.12288" lon="3.09681">
        <ele>374</ele>
        <time>2015-10-24T10:39:20Z</time>
      </trkpt>
      <trkpt lat="44.1229" lon="3.09684">
        <ele>374</ele>
        <time>2015-10-24T10:39:21Z</time>
      </trkpt>
      <trkpt lat="44.123" lon="3.09698">
        <ele>374</ele>
        <time>2015-10-24T10:39:27Z</time>
      </trkpt>
      <trkpt lat="44.12315" lon="3.09714">
        <ele>374</ele>
        <time>2015-10-24T10:39:34Z</time>
      </trkpt>
      <trkpt lat="44.12325" lon="3.09729">
        <ele>374</ele>
        <time>2015-10-24T10:39:40Z</time>
      </trkpt>
      <trkpt lat="44.12327" lon="3.09732">
        <ele>374</ele>
        <time>2015-10-24T10:39:41Z</time>
      </trkpt>
      <trkpt lat="44.12338" lon="3.09745">
        <ele>370</ele>
        <time>2015-10-24T10:39:46Z</time>
      </trkpt>
      <trkpt lat="44.12342" lon="3.09755">
        <ele>372</ele>
        <time>2015-10-24T10:39:49Z</time>
      </trkpt>
      <trkpt lat="44.12347" lon="3.09769">
        <ele>372</ele>
        <time>2015-10-24T10:39:53Z</time>
      </trkpt>
      <trkpt lat="44.12354" lon="3.09786">
        <ele>372</ele>
        <time>2015-10-24T10:39:58Z</time>
      </trkpt>
      <trkpt lat="44.12356" lon="3.09794">
        <ele>373</ele>
        <time>2015-10-24T10:40:00Z</time>
      </trkpt>
      <trkpt lat="44.12362" lon="3.09815">
        <ele>374</ele>
        <time>2015-10-24T10:40:06Z</time>
      </trkpt>
      <trkpt lat="44.12367" lon="3.09828">
        <ele>374</ele>
        <time>2015-10-24T10:40:10Z</time>
      </trkpt>
      <trkpt lat="44.12372" lon="3.09842">
        <ele>378</ele>
        <time>2015-10-24T10:40:14Z</time>
      </trkpt>
      <trkpt lat="44.12378" lon="3.09856">
        <ele>377</ele>
        <time>2015-10-24T10:40:18Z</time>
      </trkpt>
      <trkpt lat="44.1238" lon="3.09867">
        <ele>378</ele>
        <time>2015-10-24T10:40:21Z</time>
      </trkpt>
      <trkpt lat="44.1238" lon="3.0988">
        <ele>378</ele>
        <time>2015-10-24T10:40:25Z</time>
      </trkpt>
      <trkpt lat="44.12381" lon="3.09884">
        <ele>378</ele>
        <time>2015-10-24T10:40:26Z</time>
      </trkpt>
      <trkpt lat="44.12386" lon="3.09901">
        <ele>378</ele>
        <time>2015-10-24T10:40:31Z</time>
      </trkpt>
      <trkpt lat="44.12395" lon="3.09917">
        <ele>376</ele>
        <time>2015-10-24T10:40:36Z</time>
      </trkpt>
      <trkpt lat="44.12396" lon="3.0992">
        <ele>381</ele>
        <time>2015-10-24T10:40:37Z</time>
      </trkpt>
      <trkpt lat="44.12405" lon="3.09936">
        <ele>382</ele>
        <time>2015-10-24T10:40:42Z</time>
      </trkpt>
      <trkpt lat="44.12412" lon="3.09952">
        <ele>384</ele>
        <time>2015-10-24T10:40:47Z</time>
      </trkpt>
      <trkpt lat="44.12418" lon="3.09965">
        <ele>375</ele>
        <time>2015-10-24T10:40:51Z</time>
      </trkpt>
      <trkpt lat="44.12424" lon="3.09975">
        <ele>376</ele>
        <time>2015-10-24T10:40:54Z</time>
      </trkpt>
      <trkpt lat="44.12435" lon="3.09992">
        <ele>377</ele>
        <time>2015-10-24T10:41:00Z</time>
      </trkpt>
      <trkpt lat="44.12447" lon="3.10003">
        <ele>383</ele>
        <time>2015-10-24T10:41:05Z</time>
      </trkpt>
      <trkpt lat="44.12458" lon="3.10014">
        <ele>382</ele>
        <time>2015-10-24T10:41:10Z</time>
      </trkpt>
      <trkpt lat="44.12468" lon="3.10023">
        <ele>381</ele>
        <time>2015-10-24T10:41:15Z</time>
      </trkpt>
      <trkpt lat="44.12479" lon="3.10029">
        <ele>381</ele>
        <time>2015-10-24T10:41:19Z</time>
      </trkpt>
      <trkpt lat="44.12488" lon="3.10034">
        <ele>381</ele>
        <time>2015-10-24T10:41:22Z</time>
      </trkpt>
      <trkpt lat="44.12493" lon="3.10036">
        <ele>381</ele>
        <time>2015-10-24T10:41:24Z</time>
      </trkpt>
      <trkpt lat="44.12505" lon="3.10043">
        <ele>374</ele>
        <time>2015-10-24T10:41:29Z</time>
      </trkpt>
      <trkpt lat="44.12513" lon="3.10047">
        <ele>374</ele>
        <time>2015-10-24T10:41:33Z</time>
      </trkpt>
      <trkpt lat="44.12522" lon="3.1005">
        <ele>374</ele>
        <time>2015-10-24T10:41:37Z</time>
      </trkpt>
      <trkpt lat="44.12535" lon="3.10056">
        <ele>374</ele>
        <time>2015-10-24T10:41:42Z</time>
      </trkpt>
      <trkpt lat="44.12547" lon="3.10059">
        <ele>374</ele>
        <time>2015-10-24T10:41:46Z</time>
      </trkpt>
      <trkpt lat="44.1256" lon="3.10064">
        <ele>373</ele>
        <time>2015-10-24T10:41:51Z</time>
      </trkpt>
      <trkpt lat="44.12581" lon="3.10065">
        <ele>373</ele>
        <time>2015-10-24T10:41:56Z</time>
      </trkpt>
      <trkpt lat="44.12598" lon="3.10065">
        <ele>371</ele>
        <time>2015-10-24T10:42:01Z</time>
      </trkpt>
      <trkpt lat="44.12611" lon="3.10064">
        <ele>371</ele>
        <time>2015-10-24T10:42:06Z</time>
      </trkpt>
      <trkpt lat="44.12625" lon="3.10066">
        <ele>371</ele>
        <time>2015-10-24T10:42:11Z</time>
      </trkpt>
      <trkpt lat="44.1264" lon="3.10067">
        <ele>371</ele>
        <time>2015-10-24T10:42:16Z</time>
      </trkpt>
      <trkpt lat="44.12657" lon="3.10066">
        <ele>371</ele>
        <time>2015-10-24T10:42:22Z</time>
      </trkpt>
      <trkpt lat="44.12673" lon="3.10065">
        <ele>372</ele>
        <time>2015-10-24T10:42:27Z</time>
      </trkpt>
      <trkpt lat="44.12682" lon="3.10066">
        <ele>372</ele>
        <time>2015-10-24T10:42:31Z</time>
      </trkpt>
      <trkpt lat="44.12697" lon="3.10065">
        <ele>371</ele>
        <time>2015-10-24T10:42:37Z</time>
      </trkpt>
      <trkpt lat="44.12708" lon="3.10064">
        <ele>371</ele>
        <time>2015-10-24T10:42:41Z</time>
      </trkpt>
      <trkpt lat="44.1272" lon="3.10063">
        <ele>371</ele>
        <time>2015-10-24T10:42:46Z</time>
      </trkpt>
      <trkpt lat="44.12732" lon="3.10063">
        <ele>372</ele>
        <time>2015-10-24T10:42:50Z</time>
      </trkpt>
      <trkpt lat="44.12739" lon="3.10061">
        <ele>372</ele>
        <time>2015-10-24T10:42:53Z</time>
      </trkpt>
      <trkpt lat="44.12753" lon="3.10056">
        <ele>374</ele>
        <time>2015-10-24T10:42:58Z</time>
      </trkpt>
      <trkpt lat="44.12762" lon="3.10055">
        <ele>374</ele>
        <time>2015-10-24T10:43:01Z</time>
      </trkpt>
      <trkpt lat="44.12779" lon="3.10058">
        <ele>374</ele>
        <time>2015-10-24T10:43:08Z</time>
      </trkpt>
      <trkpt lat="44.12792" lon="3.10054">
        <ele>374</ele>
        <time>2015-10-24T10:43:13Z</time>
      </trkpt>
      <trkpt lat="44.12806" lon="3.10055">
        <ele>375</ele>
        <time>2015-10-24T10:43:19Z</time>
      </trkpt>
      <trkpt lat="44.12816" lon="3.10052">
        <ele>375</ele>
        <time>2015-10-24T10:43:25Z</time>
      </trkpt>
      <trkpt lat="44.12826" lon="3.10051">
        <ele>375</ele>
        <time>2015-10-24T10:43:30Z</time>
      </trkpt>
      <trkpt lat="44.12835" lon="3.10049">
        <ele>378</ele>
        <time>2015-10-24T10:43:35Z</time>
      </trkpt>
      <trkpt lat="44.12839" lon="3.10049">
        <ele>378</ele>
        <time>2015-10-24T10:43:38Z</time>
      </trkpt>
      <trkpt lat="44.12849" lon="3.10047">
        <ele>378</ele>
        <time>2015-10-24T10:43:43Z</time>
      </trkpt>
      <trkpt lat="44.12855" lon="3.10046">
        <ele>378</ele>
        <time>2015-10-24T10:43:47Z</time>
      </trkpt>
      <trkpt lat="44.12867" lon="3.10044">
        <ele>378</ele>
        <time>2015-10-24T10:43:53Z</time>
      </trkpt>
      <trkpt lat="44.12875" lon="3.10043">
        <ele>378</ele>
        <time>2015-10-24T10:43:57Z</time>
      </trkpt>
      <trkpt lat="44.12886" lon="3.10037">
        <ele>377</ele>
        <time>2015-10-24T10:44:02Z</time>
      </trkpt>
      <trkpt lat="44.12888" lon="3.10037">
        <ele>377</ele>
        <time>2015-10-24T10:44:03Z</time>
      </trkpt>
      <trkpt lat="44.12899" lon="3.10031">
        <ele>377</ele>
        <time>2015-10-24T10:44:08Z</time>
      </trkpt>
      <trkpt lat="44.12909" lon="3.10029">
        <ele>377</ele>
        <time>2015-10-24T10:44:12Z</time>
      </trkpt>
      <trkpt lat="44.12921" lon="3.10027">
        <ele>377</ele>
        <time>2015-10-24T10:44:17Z</time>
      </trkpt>
      <trkpt lat="44.12932" lon="3.10032">
        <ele>378</ele>
        <time>2015-10-24T10:44:22Z</time>
      </trkpt>
      <trkpt lat="44.12937" lon="3.1004">
        <ele>379</ele>
        <time>2015-10-24T10:44:26Z</time>
      </trkpt>
      <trkpt lat="44.12939" lon="3.10045">
        <ele>379</ele>
        <time>2015-10-24T10:44:28Z</time>
      </trkpt>
      <trkpt lat="44.12943" lon="3.10058">
        <ele>381</ele>
        <time>2015-10-24T10:44:34Z</time>
      </trkpt>
      <trkpt lat="44.1294" lon="3.10069">
        <ele>382</ele>
        <time>2015-10-24T10:44:40Z</time>
      </trkpt>
      <trkpt lat="44.12935" lon="3.10075">
        <ele>383</ele>
        <time>2015-10-24T10:44:44Z</time>
      </trkpt>
      <trkpt lat="44.12931" lon="3.10079">
        <ele>383</ele>
        <time>2015-10-24T10:44:47Z</time>
      </trkpt>
      <trkpt lat="44.12923" lon="3.10086">
        <ele>388</ele>
        <time>2015-10-24T10:44:52Z</time>
      </trkpt>
      <trkpt lat="44.12917" lon="3.1009">
        <ele>388</ele>
        <time>2015-10-24T10:44:57Z</time>
      </trkpt>
      <trkpt lat="44.12913" lon="3.10093">
        <ele>388</ele>
        <time>2015-10-24T10:45:00Z</time>
      </trkpt>
      <trkpt lat="44.12904" lon="3.10097">
        <ele>389</ele>
        <time>2015-10-24T10:45:07Z</time>
      </trkpt>
      <trkpt lat="44.12895" lon="3.10104">
        <ele>390</ele>
        <time>2015-10-24T10:45:15Z</time>
      </trkpt>
      <trkpt lat="44.12891" lon="3.10116">
        <ele>391</ele>
        <time>2015-10-24T10:45:22Z</time>
      </trkpt>
      <trkpt lat="44.12892" lon="3.10132">
        <ele>392</ele>
        <time>2015-10-24T10:45:31Z</time>
      </trkpt>
      <trkpt lat="44.12896" lon="3.10142">
        <ele>394</ele>
        <time>2015-10-24T10:45:37Z</time>
      </trkpt>
      <trkpt lat="44.12897" lon="3.10144">
        <ele>394</ele>
        <time>2015-10-24T10:45:38Z</time>
      </trkpt>
      <trkpt lat="44.12902" lon="3.10149">
        <ele>395</ele>
        <time>2015-10-24T10:45:41Z</time>
      </trkpt>
      <trkpt lat="44.1291" lon="3.10156">
        <ele>397</ele>
        <time>2015-10-24T10:45:45Z</time>
      </trkpt>
      <trkpt lat="44.12912" lon="3.10165">
        <ele>398</ele>
        <time>2015-10-24T10:45:48Z</time>
      </trkpt>
      <trkpt lat="44.12914" lon="3.10171">
        <ele>401</ele>
        <time>2015-10-24T10:45:50Z</time>
      </trkpt>
      <trkpt lat="44.1292" lon="3.10181">
        <ele>403</ele>
        <time>2015-10-24T10:45:55Z</time>
      </trkpt>
      <trkpt lat="44.12927" lon="3.1019">
        <ele>404</ele>
        <time>2015-10-24T10:45:59Z</time>
      </trkpt>
      <trkpt lat="44.12935" lon="3.10205">
        <ele>406</ele>
        <time>2015-10-24T10:46:05Z</time>
      </trkpt>
      <trkpt lat="44.1294" lon="3.10213">
        <ele>407</ele>
        <time>2015-10-24T10:46:09Z</time>
      </trkpt>
      <trkpt lat="44.12942" lon="3.10216">
        <ele>407</ele>
        <time>2015-10-24T10:46:11Z</time>
      </trkpt>
      <trkpt lat="44.12949" lon="3.10223">
        <ele>408</ele>
        <time>2015-10-24T10:46:16Z</time>
      </trkpt>
      <trkpt lat="44.12953" lon="3.10231">
        <ele>408</ele>
        <time>2015-10-24T10:46:20Z</time>
      </trkpt>
      <trkpt lat="44.12957" lon="3.1024">
        <ele>409</ele>
        <time>2015-10-24T10:46:25Z</time>
      </trkpt>
      <trkpt lat="44.12959" lon="3.10243">
        <ele>409</ele>
        <time>2015-10-24T10:46:27Z</time>
      </trkpt>
      <trkpt lat="44.12956" lon="3.10247">
        <ele>409</ele>
        <time>2015-10-24T10:46:33Z</time>
      </trkpt>
      <trkpt lat="44.12947" lon="3.10246">
        <ele>410</ele>
        <time>2015-10-24T10:46:39Z</time>
      </trkpt>
      <trkpt lat="44.1294" lon="3.10245">
        <ele>410</ele>
        <time>2015-10-24T10:46:44Z</time>
      </trkpt>
      <trkpt lat="44.1293" lon="3.10245">
        <ele>412</ele>
        <time>2015-10-24T10:46:51Z</time>
      </trkpt>
      <trkpt lat="44.12921" lon="3.10245">
        <ele>414</ele>
        <time>2015-10-24T10:46:58Z</time>
      </trkpt>
      <trkpt lat="44.12911" lon="3.10246">
        <ele>413</ele>
        <time>2015-10-24T10:47:06Z</time>
      </trkpt>
      <trkpt lat="44.12904" lon="3.10247">
        <ele>412</ele>
        <time>2015-10-24T10:47:12Z</time>
      </trkpt>
      <trkpt lat="44.12895" lon="3.10249">
        <ele>410</ele>
        <time>2015-10-24T10:47:17Z</time>
      </trkpt>
      <trkpt lat="44.12888" lon="3.10252">
        <ele>420</ele>
        <time>2015-10-24T10:47:22Z</time>
      </trkpt>
      <trkpt lat="44.1288" lon="3.10256">
        <ele>421</ele>
        <time>2015-10-24T10:47:29Z</time>
      </trkpt>
      <trkpt lat="44.12868" lon="3.1026">
        <ele>420</ele>
        <time>2015-10-24T10:47:37Z</time>
      </trkpt>
      <trkpt lat="44.12859" lon="3.10271">
        <ele>420</ele>
        <time>2015-10-24T10:47:46Z</time>
      </trkpt>
      <trkpt lat="44.12856" lon="3.10279">
        <ele>421</ele>
        <time>2015-10-24T10:47:51Z</time>
      </trkpt>
      <trkpt lat="44.12853" lon="3.10289">
        <ele>423</ele>
        <time>2015-10-24T10:47:56Z</time>
      </trkpt>
      <trkpt lat="44.12857" lon="3.10295">
        <ele>424</ele>
        <time>2015-10-24T10:48:02Z</time>
      </trkpt>
      <trkpt lat="44.12863" lon="3.10292">
        <ele>424</ele>
        <time>2015-10-24T10:48:06Z</time>
      </trkpt>
      <trkpt lat="44.12875" lon="3.10285">
        <ele>423</ele>
        <time>2015-10-24T10:48:12Z</time>
      </trkpt>
      <trkpt lat="44.12883" lon="3.10282">
        <ele>423</ele>
        <time>2015-10-24T10:48:16Z</time>
      </trkpt>
      <trkpt lat="44.1289" lon="3.10281">
        <ele>423</ele>
        <time>2015-10-24T10:48:19Z</time>
      </trkpt>
      <trkpt lat="44.12898" lon="3.10282">
        <ele>424</ele>
        <time>2015-10-24T10:48:24Z</time>
      </trkpt>
      <trkpt lat="44.12908" lon="3.10283">
        <ele>424</ele>
        <time>2015-10-24T10:48:30Z</time>
      </trkpt>
      <trkpt lat="44.12918" lon="3.10286">
        <ele>425</ele>
        <time>2015-10-24T10:48:35Z</time>
      </trkpt>
      <trkpt lat="44.12927" lon="3.10289">
        <ele>426</ele>
        <time>2015-10-24T10:48:38Z</time>
      </trkpt>
      <trkpt lat="44.12934" lon="3.10293">
        <ele>427</ele>
        <time>2015-10-24T10:48:41Z</time>
      </trkpt>
      <trkpt lat="44.12943" lon="3.10299">
        <ele>427</ele>
        <time>2015-10-24T10:48:45Z</time>
      </trkpt>
      <trkpt lat="44.12952" lon="3.10304">
        <ele>428</ele>
        <time>2015-10-24T10:48:50Z</time>
      </trkpt>
      <trkpt lat="44.12964" lon="3.1031">
        <ele>428</ele>
        <time>2015-10-24T10:48:55Z</time>
      </trkpt>
      <trkpt lat="44.12973" lon="3.10314">
        <ele>429</ele>
        <time>2015-10-24T10:48:58Z</time>
      </trkpt>
      <trkpt lat="44.12983" lon="3.10318">
        <ele>430</ele>
        <time>2015-10-24T10:49:02Z</time>
      </trkpt>
      <trkpt lat="44.1299" lon="3.10321">
        <ele>431</ele>
        <time>2015-10-24T10:49:06Z</time>
      </trkpt>
      <trkpt lat="44.12997" lon="3.10324">
        <ele>432</ele>
        <time>2015-10-24T10:49:10Z</time>
      </trkpt>
      <trkpt lat="44.12999" lon="3.10325">
        <ele>432</ele>
        <time>2015-10-24T10:49:12Z</time>
      </trkpt>
      <trkpt lat="44.13007" lon="3.10329">
        <ele>432</ele>
        <time>2015-10-24T10:49:18Z</time>
      </trkpt>
      <trkpt lat="44.13017" lon="3.10332">
        <ele>430</ele>
        <time>2015-10-24T10:49:23Z</time>
      </trkpt>
      <trkpt lat="44.13025" lon="3.10336">
        <ele>446</ele>
        <time>2015-10-24T10:49:28Z</time>
      </trkpt>
      <trkpt lat="44.13032" lon="3.10338">
        <ele>447</ele>
        <time>2015-10-24T10:49:32Z</time>
      </trkpt>
      <trkpt lat="44.13037" lon="3.1034">
        <ele>447</ele>
        <time>2015-10-24T10:49:36Z</time>
      </trkpt>
      <trkpt lat="44.13045" lon="3.10341">
        <ele>448</ele>
        <time>2015-10-24T10:49:40Z</time>
      </trkpt>
      <trkpt lat="44.13052" lon="3.10341">
        <ele>447</ele>
        <time>2015-10-24T10:49:43Z</time>
      </trkpt>
      <trkpt lat="44.13056" lon="3.10342">
        <ele>447</ele>
        <time>2015-10-24T10:49:45Z</time>
      </trkpt>
      <trkpt lat="44.1307" lon="3.10344">
        <ele>445</ele>
        <time>2015-10-24T10:49:51Z</time>
      </trkpt>
      <trkpt lat="44.13085" lon="3.10348">
        <ele>443</ele>
        <time>2015-10-24T10:49:56Z</time>
      </trkpt>
      <trkpt lat="44.13099" lon="3.10352">
        <ele>446</ele>
        <time>2015-10-24T10:50:01Z</time>
      </trkpt>
      <trkpt lat="44.13102" lon="3.10353">
        <ele>446</ele>
        <time>2015-10-24T10:50:02Z</time>
      </trkpt>
      <trkpt lat="44.13117" lon="3.10352">
        <ele>447</ele>
        <time>2015-10-24T10:50:08Z</time>
      </trkpt>
      <trkpt lat="44.13119" lon="3.10351">
        <ele>447</ele>
        <time>2015-10-24T10:50:09Z</time>
      </trkpt>
      <trkpt lat="44.13135" lon="3.10356">
        <ele>447</ele>
        <time>2015-10-24T10:50:15Z</time>
      </trkpt>
      <trkpt lat="44.13146" lon="3.10359">
        <ele>446</ele>
        <time>2015-10-24T10:50:20Z</time>
      </trkpt>
      <trkpt lat="44.13155" lon="3.1036">
        <ele>446</ele>
        <time>2015-10-24T10:50:25Z</time>
      </trkpt>
      <trkpt lat="44.13163" lon="3.10361">
        <ele>446</ele>
        <time>2015-10-24T10:50:29Z</time>
      </trkpt>
      <trkpt lat="44.13172" lon="3.10363">
        <ele>445</ele>
        <time>2015-10-24T10:50:33Z</time>
      </trkpt>
      <trkpt lat="44.13186" lon="3.10362">
        <ele>446</ele>
        <time>2015-10-24T10:50:38Z</time>
      </trkpt>
      <trkpt lat="44.13198" lon="3.10358">
        <ele>445</ele>
        <time>2015-10-24T10:50:43Z</time>
      </trkpt>
      <trkpt lat="44.13202" lon="3.10358">
        <ele>446</ele>
        <time>2015-10-24T10:50:47Z</time>
      </trkpt>
      <trkpt lat="44.13208" lon="3.10362">
        <ele>446</ele>
        <time>2015-10-24T10:50:52Z</time>
      </trkpt>
      <trkpt lat="44.13216" lon="3.10367">
        <ele>447</ele>
        <time>2015-10-24T10:51:00Z</time>
      </trkpt>
      <trkpt lat="44.13227" lon="3.10373">
        <ele>448</ele>
        <time>2015-10-24T10:51:07Z</time>
      </trkpt>
      <trkpt lat="44.13239" lon="3.10377">
        <ele>450</ele>
        <time>2015-10-24T10:51:15Z</time>
      </trkpt>
      <trkpt lat="44.13251" lon="3.10382">
        <ele>451</ele>
        <time>2015-10-24T10:51:23Z</time>
      </trkpt>
      <trkpt lat="44.13258" lon="3.10384">
        <ele>452</ele>
        <time>2015-10-24T10:51:28Z</time>
      </trkpt>
      <trkpt lat="44.13268" lon="3.10387">
        <ele>453</ele>
        <time>2015-10-24T10:51:36Z</time>
      </trkpt>
      <trkpt lat="44.13276" lon="3.10389">
        <ele>453</ele>
        <time>2015-10-24T10:51:43Z</time>
      </trkpt>
      <trkpt lat="44.13278" lon="3.10389">
        <ele>452</ele>
        <time>2015-10-24T10:51:49Z</time>
      </trkpt>
      <trkpt lat="44.13286" lon="3.10389">
        <ele>452</ele>
        <time>2015-10-24T10:51:55Z</time>
      </trkpt>
      <trkpt lat="44.13291" lon="3.1039">
        <ele>452</ele>
        <time>2015-10-24T10:52:01Z</time>
      </trkpt>
      <trkpt lat="44.133" lon="3.10389">
        <ele>453</ele>
        <time>2015-10-24T10:52:09Z</time>
      </trkpt>
      <trkpt lat="44.13305" lon="3.10388">
        <ele>452</ele>
        <time>2015-10-24T10:52:15Z</time>
      </trkpt>
      <trkpt lat="44.13312" lon="3.10387">
        <ele>453</ele>
        <time>2015-10-24T10:52:21Z</time>
      </trkpt>
      <trkpt lat="44.13318" lon="3.10388">
        <ele>453</ele>
        <time>2015-10-24T10:52:28Z</time>
      </trkpt>
      <trkpt lat="44.13324" lon="3.10389">
        <ele>454</ele>
        <time>2015-10-24T10:52:34Z</time>
      </trkpt>
      <trkpt lat="44.13333" lon="3.10389">
        <ele>454</ele>
        <time>2015-10-24T10:52:39Z</time>
      </trkpt>
      <trkpt lat="44.13343" lon="3.10393">
        <ele>453</ele>
        <time>2015-10-24T10:52:48Z</time>
      </trkpt>
      <trkpt lat="44.13344" lon="3.10393">
        <ele>453</ele>
        <time>2015-10-24T10:52:49Z</time>
      </trkpt>
      <trkpt lat="44.1335" lon="3.10396">
        <ele>453</ele>
        <time>2015-10-24T10:52:56Z</time>
      </trkpt>
      <trkpt lat="44.13356" lon="3.104">
        <ele>454</ele>
        <time>2015-10-24T10:53:05Z</time>
      </trkpt>
      <trkpt lat="44.13355" lon="3.10404">
        <ele>455</ele>
        <time>2015-10-24T10:53:11Z</time>
      </trkpt>
      <trkpt lat="44.13353" lon="3.10405">
        <ele>456</ele>
        <time>2015-10-24T10:53:15Z</time>
      </trkpt>
      <trkpt lat="44.13353" lon="3.10411">
        <ele>457</ele>
        <time>2015-10-24T10:53:21Z</time>
      </trkpt>
      <trkpt lat="44.13356" lon="3.10415">
        <ele>456</ele>
        <time>2015-10-24T10:53:27Z</time>
      </trkpt>
      <trkpt lat="44.1336" lon="3.10416">
        <ele>455</ele>
        <time>2015-10-24T10:53:31Z</time>
      </trkpt>
      <trkpt lat="44.13365" lon="3.10416">
        <ele>454</ele>
        <time>2015-10-24T10:53:35Z</time>
      </trkpt>
      <trkpt lat="44.13375" lon="3.10415">
        <ele>453</ele>
        <time>2015-10-24T10:53:43Z</time>
      </trkpt>
      <trkpt lat="44.13381" lon="3.10419">
        <ele>472</ele>
        <time>2015-10-24T10:53:49Z</time>
      </trkpt>
      <trkpt lat="44.13384" lon="3.1043">
        <ele>472</ele>
        <time>2015-10-24T10:53:55Z</time>
      </trkpt>
      <trkpt lat="44.13388" lon="3.10441">
        <ele>473</ele>
        <time>2015-10-24T10:54:01Z</time>
      </trkpt>
      <trkpt lat="44.1339" lon="3.10448">
        <ele>474</ele>
        <time>2015-10-24T10:54:04Z</time>
      </trkpt>
      <trkpt lat="44.13392" lon="3.10463">
        <ele>476</ele>
        <time>2015-10-24T10:54:09Z</time>
      </trkpt>
      <trkpt lat="44.13396" lon="3.10475">
        <ele>477</ele>
        <time>2015-10-24T10:54:14Z</time>
      </trkpt>
      <trkpt lat="44.1341" lon="3.10488">
        <ele>478</ele>
        <time>2015-10-24T10:54:19Z</time>
      </trkpt>
      <trkpt lat="44.13413" lon="3.10489">
        <ele>478</ele>
        <time>2015-10-24T10:54:20Z</time>
      </trkpt>
      <trkpt lat="44.13423" lon="3.10503">
        <ele>480</ele>
        <time>2015-10-24T10:54:26Z</time>
      </trkpt>
      <trkpt lat="44.13433" lon="3.10511">
        <ele>481</ele>
        <time>2015-10-24T10:54:30Z</time>
      </trkpt>
      <trkpt lat="44.13443" lon="3.10518">
        <ele>481</ele>
        <time>2015-10-24T10:54:34Z</time>
      </trkpt>
      <trkpt lat="44.13455" lon="3.10526">
        <ele>481</ele>
        <time>2015-10-24T10:54:39Z</time>
      </trkpt>
      <trkpt lat="44.13465" lon="3.10533">
        <ele>482</ele>
        <time>2015-10-24T10:54:44Z</time>
      </trkpt>
      <trkpt lat="44.13479" lon="3.10541">
        <ele>482</ele>
        <time>2015-10-24T10:54:50Z</time>
      </trkpt>
      <trkpt lat="44.13488" lon="3.10546">
        <ele>482</ele>
        <time>2015-10-24T10:54:54Z</time>
      </trkpt>
      <trkpt lat="44.13495" lon="3.10551">
        <ele>483</ele>
        <time>2015-10-24T10:54:58Z</time>
      </trkpt>
      <trkpt lat="44.13504" lon="3.10554">
        <ele>483</ele>
        <time>2015-10-24T10:55:02Z</time>
      </trkpt>
      <trkpt lat="44.13513" lon="3.10561">
        <ele>484</ele>
        <time>2015-10-24T10:55:07Z</time>
      </trkpt>
      <trkpt lat="44.13515" lon="3.10562">
        <ele>484</ele>
        <time>2015-10-24T10:55:08Z</time>
      </trkpt>
      <trkpt lat="44.13526" lon="3.10569">
        <ele>484</ele>
        <time>2015-10-24T10:55:14Z</time>
      </trkpt>
      <trkpt lat="44.13535" lon="3.10571">
        <ele>484</ele>
        <time>2015-10-24T10:55:18Z</time>
      </trkpt>
      <trkpt lat="44.13544" lon="3.10574">
        <ele>484</ele>
        <time>2015-10-24T10:55:23Z</time>
      </trkpt>
      <trkpt lat="44.13549" lon="3.10579">
        <ele>484</ele>
        <time>2015-10-24T10:55:27Z</time>
      </trkpt>
      <trkpt lat="44.13551" lon="3.10581">
        <ele>484</ele>
        <time>2015-10-24T10:55:28Z</time>
      </trkpt>
      <trkpt lat="44.13565" lon="3.1059">
        <ele>488</ele>
        <time>2015-10-24T10:55:33Z</time>
      </trkpt>
      <trkpt lat="44.13579" lon="3.10596">
        <ele>488</ele>
        <time>2015-10-24T10:55:38Z</time>
      </trkpt>
      <trkpt lat="44.1359" lon="3.10603">
        <ele>487</ele>
        <time>2015-10-24T10:55:43Z</time>
      </trkpt>
      <trkpt lat="44.13592" lon="3.10604">
        <ele>487</ele>
        <time>2015-10-24T10:55:44Z</time>
      </trkpt>
      <trkpt lat="44.13603" lon="3.10608">
        <ele>487</ele>
        <time>2015-10-24T10:55:48Z</time>
      </trkpt>
      <trkpt lat="44.13616" lon="3.10616">
        <ele>487</ele>
        <time>2015-10-24T10:55:53Z</time>
      </trkpt>
      <trkpt lat="44.13629" lon="3.10624">
        <ele>487</ele>
        <time>2015-10-24T10:55:58Z</time>
      </trkpt>
      <trkpt lat="44.13641" lon="3.10631">
        <ele>487</ele>
        <time>2015-10-24T10:56:03Z</time>
      </trkpt>
      <trkpt lat="44.13651" lon="3.10635">
        <ele>488</ele>
        <time>2015-10-24T10:56:07Z</time>
      </trkpt>
      <trkpt lat="44.13658" lon="3.10641">
        <ele>488</ele>
        <time>2015-10-24T10:56:10Z</time>
      </trkpt>
      <trkpt lat="44.13669" lon="3.10645">
        <ele>485</ele>
        <time>2015-10-24T10:56:13Z</time>
      </trkpt>
      <trkpt lat="44.13678" lon="3.1065">
        <ele>485</ele>
        <time>2015-10-24T10:56:16Z</time>
      </trkpt>
      <trkpt lat="44.1368" lon="3.10653">
        <ele>485</ele>
        <time>2015-10-24T10:56:17Z</time>
      </trkpt>
      <trkpt lat="44.13698" lon="3.10665">
        <ele>484</ele>
        <time>2015-10-24T10:56:23Z</time>
      </trkpt>
      <trkpt lat="44.13701" lon="3.10666">
        <ele>483</ele>
        <time>2015-10-24T10:56:24Z</time>
      </trkpt>
      <trkpt lat="44.13706" lon="3.1067">
        <ele>488</ele>
        <time>2015-10-24T10:56:26Z</time>
      </trkpt>
      <trkpt lat="44.13723" lon="3.10677">
        <ele>486</ele>
        <time>2015-10-24T10:56:31Z</time>
      </trkpt>
      <trkpt lat="44.13739" lon="3.10685">
        <ele>485</ele>
        <time>2015-10-24T10:56:36Z</time>
      </trkpt>
      <trkpt lat="44.13756" lon="3.10689">
        <ele>480</ele>
        <time>2015-10-24T10:56:40Z</time>
      </trkpt>
      <trkpt lat="44.13778" lon="3.10691">
        <ele>479</ele>
        <time>2015-10-24T10:56:45Z</time>
      </trkpt>
      <trkpt lat="44.13794" lon="3.10693">
        <ele>479</ele>
        <time>2015-10-24T10:56:50Z</time>
      </trkpt>
      <trkpt lat="44.13801" lon="3.10695">
        <ele>478</ele>
        <time>2015-10-24T10:56:53Z</time>
      </trkpt>
      <trkpt lat="44.13815" lon="3.10693">
        <ele>477</ele>
        <time>2015-10-24T10:56:58Z</time>
      </trkpt>
      <trkpt lat="44.1382" lon="3.10694">
        <ele>477</ele>
        <time>2015-10-24T10:57:00Z</time>
      </trkpt>
      <trkpt lat="44.1383" lon="3.10696">
        <ele>477</ele>
        <time>2015-10-24T10:57:03Z</time>
      </trkpt>
      <trkpt lat="44.13835" lon="3.10694">
        <ele>473</ele>
        <time>2015-10-24T10:57:05Z</time>
      </trkpt>
      <trkpt lat="44.13839" lon="3.10702">
        <ele>473</ele>
        <time>2015-10-24T10:57:09Z</time>
      </trkpt>
      <trkpt lat="44.13835" lon="3.10714">
        <ele>473</ele>
        <time>2015-10-24T10:57:16Z</time>
      </trkpt>
      <trkpt lat="44.13835" lon="3.10715">
        <ele>474</ele>
        <time>2015-10-24T10:57:22Z</time>
      </trkpt>
      <trkpt lat="44.13835" lon="3.1072">
        <ele>474</ele>
        <time>2015-10-24T10:57:40Z</time>
      </trkpt>
      <trkpt lat="44.13831" lon="3.10732">
        <ele>479</ele>
        <time>2015-10-24T10:57:48Z</time>
      </trkpt>
      <trkpt lat="44.13829" lon="3.1074">
        <ele>479</ele>
        <time>2015-10-24T10:57:53Z</time>
      </trkpt>
      <trkpt lat="44.13826" lon="3.10745">
        <ele>478</ele>
        <time>2015-10-24T10:57:57Z</time>
      </trkpt>
      <trkpt lat="44.13824" lon="3.10756">
        <ele>483</ele>
        <time>2015-10-24T10:58:04Z</time>
      </trkpt>
      <trkpt lat="44.13823" lon="3.10766">
        <ele>486</ele>
        <time>2015-10-24T10:58:10Z</time>
      </trkpt>
      <trkpt lat="44.13823" lon="3.10776">
        <ele>488</ele>
        <time>2015-10-24T10:58:19Z</time>
      </trkpt>
      <trkpt lat="44.13822" lon="3.10785">
        <ele>490</ele>
        <time>2015-10-24T10:58:27Z</time>
      </trkpt>
      <trkpt lat="44.13822" lon="3.10794">
        <ele>491</ele>
        <time>2015-10-24T10:58:34Z</time>
      </trkpt>
      <trkpt lat="44.13824" lon="3.10804">
        <ele>492</ele>
        <time>2015-10-24T10:58:40Z</time>
      </trkpt>
      <trkpt lat="44.13826" lon="3.10815">
        <ele>493</ele>
        <time>2015-10-24T10:58:47Z</time>
      </trkpt>
      <trkpt lat="44.13828" lon="3.10829">
        <ele>494</ele>
        <time>2015-10-24T10:58:55Z</time>
      </trkpt>
      <trkpt lat="44.13832" lon="3.10843">
        <ele>500</ele>
        <time>2015-10-24T10:59:03Z</time>
      </trkpt>
      <trkpt lat="44.13839" lon="3.10854">
        <ele>496</ele>
        <time>2015-10-24T10:59:10Z</time>
      </trkpt>
      <trkpt lat="44.13844" lon="3.10862">
        <ele>497</ele>
        <time>2015-10-24T10:59:13Z</time>
      </trkpt>
      <trkpt lat="44.13853" lon="3.10873">
        <ele>498</ele>
        <time>2015-10-24T10:59:18Z</time>
      </trkpt>
      <trkpt lat="44.1386" lon="3.10884">
        <ele>499</ele>
        <time>2015-10-24T10:59:22Z</time>
      </trkpt>
      <trkpt lat="44.1386" lon="3.10886">
        <ele>499</ele>
        <time>2015-10-24T10:59:23Z</time>
      </trkpt>
      <trkpt lat="44.13865" lon="3.10898">
        <ele>500</ele>
        <time>2015-10-24T10:59:30Z</time>
      </trkpt>
      <trkpt lat="44.13868" lon="3.10911">
        <ele>501</ele>
        <time>2015-10-24T10:59:38Z</time>
      </trkpt>
      <trkpt lat="44.1387" lon="3.10917">
        <ele>501</ele>
        <time>2015-10-24T10:59:41Z</time>
      </trkpt>
      <trkpt lat="44.13872" lon="3.10923">
        <ele>513</ele>
        <time>2015-10-24T10:59:45Z</time>
      </trkpt>
      <trkpt lat="44.13877" lon="3.1094">
        <ele>514</ele>
        <time>2015-10-24T10:59:55Z</time>
      </trkpt>
      <trkpt lat="44.13882" lon="3.10954">
        <ele>514</ele>
        <time>2015-10-24T11:00:02Z</time>
      </trkpt>
      <trkpt lat="44.13888" lon="3.10965">
        <ele>515</ele>
        <time>2015-10-24T11:00:06Z</time>
      </trkpt>
      <trkpt lat="44.13895" lon="3.10975">
        <ele>514</ele>
        <time>2015-10-24T11:00:10Z</time>
      </trkpt>
      <trkpt lat="44.139" lon="3.10987">
        <ele>514</ele>
        <time>2015-10-24T11:00:15Z</time>
      </trkpt>
      <trkpt lat="44.13903" lon="3.11">
        <ele>523</ele>
        <time>2015-10-24T11:00:23Z</time>
      </trkpt>
      <trkpt lat="44.13904" lon="3.11012">
        <ele>525</ele>
        <time>2015-10-24T11:00:30Z</time>
      </trkpt>
      <trkpt lat="44.13904" lon="3.11022">
        <ele>529</ele>
        <time>2015-10-24T11:00:36Z</time>
      </trkpt>
      <trkpt lat="44.13904" lon="3.11023">
        <ele>530</ele>
        <time>2015-10-24T11:00:37Z</time>
      </trkpt>
      <trkpt lat="44.13904" lon="3.11031">
        <ele>532</ele>
        <time>2015-10-24T11:00:42Z</time>
      </trkpt>
      <trkpt lat="44.13904" lon="3.11036">
        <ele>534</ele>
        <time>2015-10-24T11:00:46Z</time>
      </trkpt>
      <trkpt lat="44.13905" lon="3.11049">
        <ele>536</ele>
        <time>2015-10-24T11:00:56Z</time>
      </trkpt>
      <trkpt lat="44.13906" lon="3.11055">
        <ele>537</ele>
        <time>2015-10-24T11:01:00Z</time>
      </trkpt>
      <trkpt lat="44.13907" lon="3.11062">
        <ele>537</ele>
        <time>2015-10-24T11:01:04Z</time>
      </trkpt>
      <trkpt lat="44.13907" lon="3.11065">
        <ele>537</ele>
        <time>2015-10-24T11:01:06Z</time>
      </trkpt>
      <trkpt lat="44.13907" lon="3.11068">
        <ele>537</ele>
        <time>2015-10-24T11:01:08Z</time>
      </trkpt>
      <trkpt lat="44.13908" lon="3.11076">
        <ele>537</ele>
        <time>2015-10-24T11:01:14Z</time>
      </trkpt>
      <trkpt lat="44.1391" lon="3.1108">
        <ele>536</ele>
        <time>2015-10-24T11:01:18Z</time>
      </trkpt>
      <trkpt lat="44.13913" lon="3.11089">
        <ele>542</ele>
        <time>2015-10-24T11:01:24Z</time>
      </trkpt>
      <trkpt lat="44.13914" lon="3.11094">
        <ele>546</ele>
        <time>2015-10-24T11:01:28Z</time>
      </trkpt>
      <trkpt lat="44.13914" lon="3.11097">
        <ele>548</ele>
        <time>2015-10-24T11:01:30Z</time>
      </trkpt>
      <trkpt lat="44.13917" lon="3.11104">
        <ele>553</ele>
        <time>2015-10-24T11:01:37Z</time>
      </trkpt>
      <trkpt lat="44.13919" lon="3.11108">
        <ele>533</ele>
        <time>2015-10-24T11:01:41Z</time>
      </trkpt>
      <trkpt lat="44.13923" lon="3.11115">
        <ele>534</ele>
        <time>2015-10-24T11:01:48Z</time>
      </trkpt>
      <trkpt lat="44.13926" lon="3.11121">
        <ele>534</ele>
        <time>2015-10-24T11:01:53Z</time>
      </trkpt>
      <trkpt lat="44.1393" lon="3.11129">
        <ele>536</ele>
        <time>2015-10-24T11:02:01Z</time>
      </trkpt>
      <trkpt lat="44.13934" lon="3.11135">
        <ele>537</ele>
        <time>2015-10-24T11:02:07Z</time>
      </trkpt>
      <trkpt lat="44.13939" lon="3.11145">
        <ele>538</ele>
        <time>2015-10-24T11:02:16Z</time>
      </trkpt>
      <trkpt lat="44.13942" lon="3.11155">
        <ele>539</ele>
        <time>2015-10-24T11:02:23Z</time>
      </trkpt>
      <trkpt lat="44.13944" lon="3.11162">
        <ele>539</ele>
        <time>2015-10-24T11:02:29Z</time>
      </trkpt>
      <trkpt lat="44.13945" lon="3.11171">
        <ele>551</ele>
        <time>2015-10-24T11:02:36Z</time>
      </trkpt>
      <trkpt lat="44.13945" lon="3.11179">
        <ele>551</ele>
        <time>2015-10-24T11:02:42Z</time>
      </trkpt>
      <trkpt lat="44.13946" lon="3.11188">
        <ele>551</ele>
        <time>2015-10-24T11:02:49Z</time>
      </trkpt>
      <trkpt lat="44.13946" lon="3.11194">
        <ele>552</ele>
        <time>2015-10-24T11:02:55Z</time>
      </trkpt>
      <trkpt lat="44.13947" lon="3.11204">
        <ele>552</ele>
        <time>2015-10-24T11:03:02Z</time>
      </trkpt>
      <trkpt lat="44.13944" lon="3.11207">
        <ele>553</ele>
        <time>2015-10-24T11:03:08Z</time>
      </trkpt>
      <trkpt lat="44.1394" lon="3.11201">
        <ele>554</ele>
        <time>2015-10-24T11:03:14Z</time>
      </trkpt>
      <trkpt lat="44.13937" lon="3.11197">
        <ele>554</ele>
        <time>2015-10-24T11:03:18Z</time>
      </trkpt>
      <trkpt lat="44.13937" lon="3.11195">
        <ele>554</ele>
        <time>2015-10-24T11:03:27Z</time>
      </trkpt>
      <trkpt lat="44.13933" lon="3.11193">
        <ele>554</ele>
        <time>2015-10-24T11:03:35Z</time>
      </trkpt>
      <trkpt lat="44.13931" lon="3.11191">
        <ele>555</ele>
        <time>2015-10-24T11:03:40Z</time>
      </trkpt>
      <trkpt lat="44.13929" lon="3.11189">
        <ele>555</ele>
        <time>2015-10-24T11:03:45Z</time>
      </trkpt>
      <trkpt lat="44.13925" lon="3.11187">
        <ele>556</ele>
        <time>2015-10-24T11:03:52Z</time>
      </trkpt>
      <trkpt lat="44.1392" lon="3.11185">
        <ele>556</ele>
        <time>2015-10-24T11:03:58Z</time>
      </trkpt>
      <trkpt lat="44.13915" lon="3.11183">
        <ele>576</ele>
        <time>2015-10-24T11:04:05Z</time>
      </trkpt>
      <trkpt lat="44.13909" lon="3.11181">
        <ele>576</ele>
        <time>2015-10-24T11:04:12Z</time>
      </trkpt>
      <trkpt lat="44.13905" lon="3.11179">
        <ele>577</ele>
        <time>2015-10-24T11:04:15Z</time>
      </trkpt>
      <trkpt lat="44.13899" lon="3.11176">
        <ele>579</ele>
        <time>2015-10-24T11:04:21Z</time>
      </trkpt>
      <trkpt lat="44.1389" lon="3.11168">
        <ele>582</ele>
        <time>2015-10-24T11:04:31Z</time>
      </trkpt>
      <trkpt lat="44.13882" lon="3.11165">
        <ele>571</ele>
        <time>2015-10-24T11:04:40Z</time>
      </trkpt>
      <trkpt lat="44.13877" lon="3.11161">
        <ele>572</ele>
        <time>2015-10-24T11:04:46Z</time>
      </trkpt>
      <trkpt lat="44.13872" lon="3.11157">
        <ele>574</ele>
        <time>2015-10-24T11:04:53Z</time>
      </trkpt>
      <trkpt lat="44.13867" lon="3.11154">
        <ele>575</ele>
        <time>2015-10-24T11:04:59Z</time>
      </trkpt>
      <trkpt lat="44.13862" lon="3.11151">
        <ele>577</ele>
        <time>2015-10-24T11:05:07Z</time>
      </trkpt>
      <trkpt lat="44.13857" lon="3.11148">
        <ele>578</ele>
        <time>2015-10-24T11:05:14Z</time>
      </trkpt>
      <trkpt lat="44.13854" lon="3.11147">
        <ele>579</ele>
        <time>2015-10-24T11:05:20Z</time>
      </trkpt>
      <trkpt lat="44.13851" lon="3.11144">
        <ele>579</ele>
        <time>2015-10-24T11:05:25Z</time>
      </trkpt>
      <trkpt lat="44.13847" lon="3.11142">
        <ele>580</ele>
        <time>2015-10-24T11:05:31Z</time>
      </trkpt>
      <trkpt lat="44.13843" lon="3.1114">
        <ele>580</ele>
        <time>2015-10-24T11:05:37Z</time>
      </trkpt>
      <trkpt lat="44.13838" lon="3.11138">
        <ele>580</ele>
        <time>2015-10-24T11:05:44Z</time>
      </trkpt>
      <trkpt lat="44.13833" lon="3.11136">
        <ele>604</ele>
        <time>2015-10-24T11:05:51Z</time>
      </trkpt>
      <trkpt lat="44.13828" lon="3.11133">
        <ele>604</ele>
        <time>2015-10-24T11:06:00Z</time>
      </trkpt>
      <trkpt lat="44.13822" lon="3.1113">
        <ele>604</ele>
        <time>2015-10-24T11:06:08Z</time>
      </trkpt>
      <trkpt lat="44.13817" lon="3.11126">
        <ele>605</ele>
        <time>2015-10-24T11:06:16Z</time>
      </trkpt>
      <trkpt lat="44.13812" lon="3.11124">
        <ele>605</ele>
        <time>2015-10-24T11:06:23Z</time>
      </trkpt>
      <trkpt lat="44.13809" lon="3.11121">
        <ele>605</ele>
        <time>2015-10-24T11:06:29Z</time>
      </trkpt>
      <trkpt lat="44.13802" lon="3.1112">
        <ele>606</ele>
        <time>2015-10-24T11:06:35Z</time>
      </trkpt>
      <trkpt lat="44.13798" lon="3.11116">
        <ele>607</ele>
        <time>2015-10-24T11:06:42Z</time>
      </trkpt>
      <trkpt lat="44.13792" lon="3.11111">
        <ele>607</ele>
        <time>2015-10-24T11:06:49Z</time>
      </trkpt>
      <trkpt lat="44.13785" lon="3.11107">
        <ele>609</ele>
        <time>2015-10-24T11:06:57Z</time>
      </trkpt>
      <trkpt lat="44.13779" lon="3.11103">
        <ele>610</ele>
        <time>2015-10-24T11:07:04Z</time>
      </trkpt>
      <trkpt lat="44.13772" lon="3.111">
        <ele>611</ele>
        <time>2015-10-24T11:07:13Z</time>
      </trkpt>
      <trkpt lat="44.13765" lon="3.11098">
        <ele>612</ele>
        <time>2015-10-24T11:07:21Z</time>
      </trkpt>
      <trkpt lat="44.1376" lon="3.11097">
        <ele>613</ele>
        <time>2015-10-24T11:07:27Z</time>
      </trkpt>
      <trkpt lat="44.13753" lon="3.11096">
        <ele>614</ele>
        <time>2015-10-24T11:07:35Z</time>
      </trkpt>
      <trkpt lat="44.13747" lon="3.11096">
        <ele>625</ele>
        <time>2015-10-24T11:07:41Z</time>
      </trkpt>
      <trkpt lat="44.13745" lon="3.11096">
        <ele>625</ele>
        <time>2015-10-24T11:07:43Z</time>
      </trkpt>
      <trkpt lat="44.1374" lon="3.11096">
        <ele>627</ele>
        <time>2015-10-24T11:07:48Z</time>
      </trkpt>
      <trkpt lat="44.13732" lon="3.11098">
        <ele>629</ele>
        <time>2015-10-24T11:07:57Z</time>
      </trkpt>
      <trkpt lat="44.13726" lon="3.111">
        <ele>632</ele>
        <time>2015-10-24T11:08:04Z</time>
      </trkpt>
      <trkpt lat="44.13721" lon="3.11103">
        <ele>633</ele>
        <time>2015-10-24T11:08:11Z</time>
      </trkpt>
      <trkpt lat="44.13717" lon="3.11103">
        <ele>634</ele>
        <time>2015-10-24T11:08:17Z</time>
      </trkpt>
      <trkpt lat="44.13711" lon="3.11105">
        <ele>635</ele>
        <time>2015-10-24T11:08:26Z</time>
      </trkpt>
      <trkpt lat="44.13706" lon="3.11107">
        <ele>636</ele>
        <time>2015-10-24T11:08:33Z</time>
      </trkpt>
      <trkpt lat="44.13701" lon="3.11109">
        <ele>637</ele>
        <time>2015-10-24T11:08:40Z</time>
      </trkpt>
      <trkpt lat="44.13695" lon="3.11112">
        <ele>638</ele>
        <time>2015-10-24T11:08:47Z</time>
      </trkpt>
      <trkpt lat="44.13689" lon="3.11114">
        <ele>638</ele>
        <time>2015-10-24T11:08:55Z</time>
      </trkpt>
      <trkpt lat="44.13681" lon="3.11118">
        <ele>640</ele>
        <time>2015-10-24T11:09:04Z</time>
      </trkpt>
      <trkpt lat="44.13675" lon="3.11122">
        <ele>641</ele>
        <time>2015-10-24T11:09:11Z</time>
      </trkpt>
      <trkpt lat="44.13673" lon="3.11126">
        <ele>642</ele>
        <time>2015-10-24T11:09:16Z</time>
      </trkpt>
      <trkpt lat="44.13668" lon="3.1113">
        <ele>644</ele>
        <time>2015-10-24T11:09:23Z</time>
      </trkpt>
      <trkpt lat="44.13665" lon="3.11133">
        <ele>651</ele>
        <time>2015-10-24T11:09:28Z</time>
      </trkpt>
      <trkpt lat="44.1366" lon="3.11135">
        <ele>652</ele>
        <time>2015-10-24T11:09:34Z</time>
      </trkpt>
      <trkpt lat="44.13655" lon="3.11139">
        <ele>653</ele>
        <time>2015-10-24T11:09:41Z</time>
      </trkpt>
      <trkpt lat="44.13651" lon="3.11141">
        <ele>654</ele>
        <time>2015-10-24T11:09:46Z</time>
      </trkpt>
      <trkpt lat="44.13648" lon="3.11144">
        <ele>654</ele>
        <time>2015-10-24T11:09:53Z</time>
      </trkpt>
      <trkpt lat="44.13644" lon="3.11146">
        <ele>655</ele>
        <time>2015-10-24T11:09:58Z</time>
      </trkpt>
      <trkpt lat="44.1364" lon="3.11148">
        <ele>654</ele>
        <time>2015-10-24T11:10:03Z</time>
      </trkpt>
      <trkpt lat="44.13636" lon="3.1115">
        <ele>655</ele>
        <time>2015-10-24T11:10:08Z</time>
      </trkpt>
      <trkpt lat="44.13631" lon="3.11152">
        <ele>655</ele>
        <time>2015-10-24T11:10:14Z</time>
      </trkpt>
      <trkpt lat="44.13625" lon="3.11153">
        <ele>655</ele>
        <time>2015-10-24T11:10:21Z</time>
      </trkpt>
      <trkpt lat="44.1362" lon="3.11156">
        <ele>656</ele>
        <time>2015-10-24T11:10:27Z</time>
      </trkpt>
      <trkpt lat="44.13612" lon="3.11158">
        <ele>657</ele>
        <time>2015-10-24T11:10:36Z</time>
      </trkpt>
      <trkpt lat="44.13606" lon="3.11159">
        <ele>659</ele>
        <time>2015-10-24T11:10:42Z</time>
      </trkpt>
      <trkpt lat="44.13601" lon="3.1116">
        <ele>660</ele>
        <time>2015-10-24T11:10:49Z</time>
      </trkpt>
      <trkpt lat="44.13596" lon="3.11161">
        <ele>662</ele>
        <time>2015-10-24T11:10:55Z</time>
      </trkpt>
      <trkpt lat="44.1359" lon="3.11165">
        <ele>666</ele>
        <time>2015-10-24T11:11:01Z</time>
      </trkpt>
      <trkpt lat="44.13584" lon="3.11168">
        <ele>673</ele>
        <time>2015-10-24T11:11:09Z</time>
      </trkpt>
      <trkpt lat="44.1358" lon="3.11172">
        <ele>677</ele>
        <time>2015-10-24T11:11:17Z</time>
      </trkpt>
      <trkpt lat="44.13578" lon="3.11175">
        <ele>679</ele>
        <time>2015-10-24T11:11:22Z</time>
      </trkpt>
      <trkpt lat="44.13572" lon="3.11177">
        <ele>682</ele>
        <time>2015-10-24T11:11:31Z</time>
      </trkpt>
      <trkpt lat="44.13568" lon="3.11179">
        <ele>684</ele>
        <time>2015-10-24T11:11:38Z</time>
      </trkpt>
      <trkpt lat="44.13565" lon="3.1118">
        <ele>685</ele>
        <time>2015-10-24T11:11:44Z</time>
      </trkpt>
      <trkpt lat="44.1356" lon="3.11181">
        <ele>687</ele>
        <time>2015-10-24T11:11:51Z</time>
      </trkpt>
      <trkpt lat="44.13556" lon="3.11183">
        <ele>688</ele>
        <time>2015-10-24T11:11:58Z</time>
      </trkpt>
      <trkpt lat="44.13552" lon="3.11185">
        <ele>689</ele>
        <time>2015-10-24T11:12:06Z</time>
      </trkpt>
      <trkpt lat="44.13548" lon="3.11187">
        <ele>690</ele>
        <time>2015-10-24T11:12:13Z</time>
      </trkpt>
      <trkpt lat="44.13544" lon="3.1119">
        <ele>691</ele>
        <time>2015-10-24T11:12:20Z</time>
      </trkpt>
      <trkpt lat="44.13539" lon="3.11192">
        <ele>691</ele>
        <time>2015-10-24T11:12:28Z</time>
      </trkpt>
      <trkpt lat="44.13533" lon="3.11195">
        <ele>692</ele>
        <time>2015-10-24T11:12:37Z</time>
      </trkpt>
      <trkpt lat="44.13528" lon="3.11196">
        <ele>692</ele>
        <time>2015-10-24T11:12:45Z</time>
      </trkpt>
      <trkpt lat="44.13523" lon="3.11196">
        <ele>692</ele>
        <time>2015-10-24T11:12:53Z</time>
      </trkpt>
      <trkpt lat="44.13522" lon="3.11197">
        <ele>692</ele>
        <time>2015-10-24T11:13:05Z</time>
      </trkpt>
      <trkpt lat="44.13516" lon="3.11201">
        <ele>693</ele>
        <time>2015-10-24T11:13:13Z</time>
      </trkpt>
      <trkpt lat="44.1351" lon="3.11203">
        <ele>694</ele>
        <time>2015-10-24T11:13:20Z</time>
      </trkpt>
      <trkpt lat="44.13502" lon="3.11203">
        <ele>694</ele>
        <time>2015-10-24T11:13:29Z</time>
      </trkpt>
      <trkpt lat="44.13495" lon="3.11202">
        <ele>696</ele>
        <time>2015-10-24T11:13:36Z</time>
      </trkpt>
      <trkpt lat="44.13488" lon="3.11204">
        <ele>696</ele>
        <time>2015-10-24T11:13:43Z</time>
      </trkpt>
      <trkpt lat="44.13483" lon="3.11208">
        <ele>698</ele>
        <time>2015-10-24T11:13:51Z</time>
      </trkpt>
      <trkpt lat="44.13479" lon="3.1121">
        <ele>699</ele>
        <time>2015-10-24T11:13:57Z</time>
      </trkpt>
      <trkpt lat="44.13475" lon="3.11214">
        <ele>700</ele>
        <time>2015-10-24T11:14:05Z</time>
      </trkpt>
      <trkpt lat="44.1347" lon="3.11217">
        <ele>701</ele>
        <time>2015-10-24T11:14:13Z</time>
      </trkpt>
      <trkpt lat="44.13466" lon="3.11221">
        <ele>702</ele>
        <time>2015-10-24T11:14:20Z</time>
      </trkpt>
      <trkpt lat="44.13461" lon="3.11225">
        <ele>703</ele>
        <time>2015-10-24T11:14:28Z</time>
      </trkpt>
      <trkpt lat="44.13457" lon="3.11227">
        <ele>704</ele>
        <time>2015-10-24T11:14:34Z</time>
      </trkpt>
      <trkpt lat="44.1345" lon="3.11231">
        <ele>705</ele>
        <time>2015-10-24T11:14:42Z</time>
      </trkpt>
      <trkpt lat="44.13444" lon="3.11235">
        <ele>706</ele>
        <time>2015-10-24T11:14:49Z</time>
      </trkpt>
      <trkpt lat="44.13436" lon="3.11241">
        <ele>709</ele>
        <time>2015-10-24T11:14:58Z</time>
      </trkpt>
      <trkpt lat="44.1343" lon="3.11243">
        <ele>712</ele>
        <time>2015-10-24T11:15:04Z</time>
      </trkpt>
      <trkpt lat="44.13422" lon="3.11247">
        <ele>718</ele>
        <time>2015-10-24T11:15:12Z</time>
      </trkpt>
      <trkpt lat="44.13415" lon="3.1125">
        <ele>722</ele>
        <time>2015-10-24T11:15:19Z</time>
      </trkpt>
      <trkpt lat="44.13417" lon="3.11255">
        <ele>727</ele>
        <time>2015-10-24T11:15:25Z</time>
      </trkpt>
      <trkpt lat="44.13418" lon="3.11256">
        <ele>727</ele>
        <time>2015-10-24T11:15:26Z</time>
      </trkpt>
      <trkpt lat="44.13427" lon="3.11258">
        <ele>731</ele>
        <time>2015-10-24T11:15:34Z</time>
      </trkpt>
      <trkpt lat="44.13433" lon="3.11259">
        <ele>733</ele>
        <time>2015-10-24T11:15:39Z</time>
      </trkpt>
      <trkpt lat="44.13435" lon="3.1126">
        <ele>734</ele>
        <time>2015-10-24T11:15:41Z</time>
      </trkpt>
      <trkpt lat="44.13441" lon="3.11261">
        <ele>736</ele>
        <time>2015-10-24T11:15:48Z</time>
      </trkpt>
      <trkpt lat="44.1344" lon="3.11267">
        <ele>737</ele>
        <time>2015-10-24T11:15:54Z</time>
      </trkpt>
      <trkpt lat="44.13433" lon="3.11269">
        <ele>736</ele>
        <time>2015-10-24T11:16:02Z</time>
      </trkpt>
      <trkpt lat="44.13428" lon="3.11271">
        <ele>736</ele>
        <time>2015-10-24T11:16:07Z</time>
      </trkpt>
      <trkpt lat="44.13423" lon="3.11273">
        <ele>737</ele>
        <time>2015-10-24T11:16:12Z</time>
      </trkpt>
      <trkpt lat="44.13416" lon="3.11279">
        <ele>739</ele>
        <time>2015-10-24T11:16:21Z</time>
      </trkpt>
      <trkpt lat="44.13411" lon="3.11283">
        <ele>741</ele>
        <time>2015-10-24T11:16:28Z</time>
      </trkpt>
      <trkpt lat="44.13407" lon="3.11286">
        <ele>742</ele>
        <time>2015-10-24T11:16:34Z</time>
      </trkpt>
      <trkpt lat="44.13402" lon="3.11289">
        <ele>743</ele>
        <time>2015-10-24T11:16:42Z</time>
      </trkpt>
      <trkpt lat="44.13396" lon="3.11294">
        <ele>745</ele>
        <time>2015-10-24T11:16:50Z</time>
      </trkpt>
      <trkpt lat="44.13392" lon="3.11296">
        <ele>745</ele>
        <time>2015-10-24T11:16:55Z</time>
      </trkpt>
      <trkpt lat="44.13386" lon="3.113">
        <ele>746</ele>
        <time>2015-10-24T11:17:03Z</time>
      </trkpt>
      <trkpt lat="44.13379" lon="3.11303">
        <ele>747</ele>
        <time>2015-10-24T11:17:11Z</time>
      </trkpt>
      <trkpt lat="44.13375" lon="3.11305">
        <ele>747</ele>
        <time>2015-10-24T11:17:16Z</time>
      </trkpt>
      <trkpt lat="44.13372" lon="3.1131">
        <ele>748</ele>
        <time>2015-10-24T11:17:22Z</time>
      </trkpt>
      <trkpt lat="44.13367" lon="3.11306">
        <ele>748</ele>
        <time>2015-10-24T11:17:32Z</time>
      </trkpt>
      <trkpt lat="44.13366" lon="3.11309">
        <ele>748</ele>
        <time>2015-10-24T11:17:44Z</time>
      </trkpt>
      <trkpt lat="44.13371" lon="3.11311">
        <ele>749</ele>
        <time>2015-10-24T11:17:49Z</time>
      </trkpt>
      <trkpt lat="44.13374" lon="3.11312">
        <ele>749</ele>
        <time>2015-10-24T11:17:52Z</time>
      </trkpt>
      <trkpt lat="44.13381" lon="3.11314">
        <ele>749</ele>
        <time>2015-10-24T11:17:57Z</time>
      </trkpt>
      <trkpt lat="44.13385" lon="3.11319">
        <ele>751</ele>
        <time>2015-10-24T11:18:04Z</time>
      </trkpt>
      <trkpt lat="44.13391" lon="3.11324">
        <ele>752</ele>
        <time>2015-10-24T11:18:11Z</time>
      </trkpt>
      <trkpt lat="44.13396" lon="3.11329">
        <ele>754</ele>
        <time>2015-10-24T11:18:18Z</time>
      </trkpt>
      <trkpt lat="44.13404" lon="3.11333">
        <ele>770</ele>
        <time>2015-10-24T11:18:25Z</time>
      </trkpt>
      <trkpt lat="44.1341" lon="3.11337">
        <ele>768</ele>
        <time>2015-10-24T11:18:30Z</time>
      </trkpt>
      <trkpt lat="44.13414" lon="3.11341">
        <ele>769</ele>
        <time>2015-10-24T11:18:38Z</time>
      </trkpt>
      <trkpt lat="44.13422" lon="3.11343">
        <ele>771</ele>
        <time>2015-10-24T11:18:45Z</time>
      </trkpt>
      <trkpt lat="44.13428" lon="3.11347">
        <ele>773</ele>
        <time>2015-10-24T11:18:52Z</time>
      </trkpt>
      <trkpt lat="44.13434" lon="3.11351">
        <ele>775</ele>
        <time>2015-10-24T11:18:59Z</time>
      </trkpt>
      <trkpt lat="44.13435" lon="3.11351">
        <ele>775</ele>
        <time>2015-10-24T11:19:01Z</time>
      </trkpt>
      <trkpt lat="44.13443" lon="3.11354">
        <ele>777</ele>
        <time>2015-10-24T11:19:07Z</time>
      </trkpt>
      <trkpt lat="44.13446" lon="3.11357">
        <ele>778</ele>
        <time>2015-10-24T11:19:12Z</time>
      </trkpt>
      <trkpt lat="44.13452" lon="3.11361">
        <ele>779</ele>
        <time>2015-10-24T11:19:19Z</time>
      </trkpt>
      <trkpt lat="44.13454" lon="3.11361">
        <ele>779</ele>
        <time>2015-10-24T11:19:20Z</time>
      </trkpt>
      <trkpt lat="44.13459" lon="3.11364">
        <ele>779</ele>
        <time>2015-10-24T11:19:24Z</time>
      </trkpt>
      <trkpt lat="44.1347" lon="3.11368">
        <ele>780</ele>
        <time>2015-10-24T11:19:34Z</time>
      </trkpt>
      <trkpt lat="44.1348" lon="3.11372">
        <ele>781</ele>
        <time>2015-10-24T11:19:43Z</time>
      </trkpt>
      <trkpt lat="44.13486" lon="3.11378">
        <ele>783</ele>
        <time>2015-10-24T11:19:50Z</time>
      </trkpt>
      <trkpt lat="44.13492" lon="3.1138">
        <ele>783</ele>
        <time>2015-10-24T11:19:56Z</time>
      </trkpt>
      <trkpt lat="44.13497" lon="3.11383">
        <ele>784</ele>
        <time>2015-10-24T11:20:03Z</time>
      </trkpt>
      <trkpt lat="44.13502" lon="3.11386">
        <ele>784</ele>
        <time>2015-10-24T11:20:10Z</time>
      </trkpt>
      <trkpt lat="44.13505" lon="3.11392">
        <ele>786</ele>
        <time>2015-10-24T11:20:16Z</time>
      </trkpt>
      <trkpt lat="44.13508" lon="3.11395">
        <ele>787</ele>
        <time>2015-10-24T11:20:21Z</time>
      </trkpt>
      <trkpt lat="44.13512" lon="3.11401">
        <ele>789</ele>
        <time>2015-10-24T11:20:28Z</time>
      </trkpt>
      <trkpt lat="44.13518" lon="3.11407">
        <ele>789</ele>
        <time>2015-10-24T11:20:38Z</time>
      </trkpt>
      <trkpt lat="44.13528" lon="3.11411">
        <ele>787</ele>
        <time>2015-10-24T11:20:45Z</time>
      </trkpt>
      <trkpt lat="44.13531" lon="3.11413">
        <ele>787</ele>
        <time>2015-10-24T11:20:49Z</time>
      </trkpt>
      <trkpt lat="44.13535" lon="3.1142">
        <ele>804</ele>
        <time>2015-10-24T11:20:59Z</time>
      </trkpt>
      <trkpt lat="44.13543" lon="3.11425">
        <ele>804</ele>
        <time>2015-10-24T11:21:08Z</time>
      </trkpt>
      <trkpt lat="44.13547" lon="3.11431">
        <ele>804</ele>
        <time>2015-10-24T11:21:15Z</time>
      </trkpt>
      <trkpt lat="44.13548" lon="3.11436">
        <ele>804</ele>
        <time>2015-10-24T11:21:21Z</time>
      </trkpt>
      <trkpt lat="44.13552" lon="3.11441">
        <ele>805</ele>
        <time>2015-10-24T11:21:28Z</time>
      </trkpt>
      <trkpt lat="44.13554" lon="3.11448">
        <ele>806</ele>
        <time>2015-10-24T11:21:36Z</time>
      </trkpt>
      <trkpt lat="44.13559" lon="3.11453">
        <ele>806</ele>
        <time>2015-10-24T11:21:44Z</time>
      </trkpt>
      <trkpt lat="44.13564" lon="3.1146">
        <ele>807</ele>
        <time>2015-10-24T11:21:53Z</time>
      </trkpt>
      <trkpt lat="44.13569" lon="3.11468">
        <ele>808</ele>
        <time>2015-10-24T11:22:02Z</time>
      </trkpt>
      <trkpt lat="44.13574" lon="3.11475">
        <ele>809</ele>
        <time>2015-10-24T11:22:10Z</time>
      </trkpt>
      <trkpt lat="44.13578" lon="3.11482">
        <ele>810</ele>
        <time>2015-10-24T11:22:17Z</time>
      </trkpt>
      <trkpt lat="44.13584" lon="3.11492">
        <ele>807</ele>
        <time>2015-10-24T11:22:26Z</time>
      </trkpt>
      <trkpt lat="44.13588" lon="3.11501">
        <ele>811</ele>
        <time>2015-10-24T11:22:33Z</time>
      </trkpt>
      <trkpt lat="44.13589" lon="3.11506">
        <ele>809</ele>
        <time>2015-10-24T11:22:37Z</time>
      </trkpt>
      <trkpt lat="44.13587" lon="3.11514">
        <ele>807</ele>
        <time>2015-10-24T11:22:46Z</time>
      </trkpt>
      <trkpt lat="44.13585" lon="3.11517">
        <ele>806</ele>
        <time>2015-10-24T11:22:50Z</time>
      </trkpt>
      <trkpt lat="44.1358" lon="3.11521">
        <ele>819</ele>
        <time>2015-10-24T11:22:56Z</time>
      </trkpt>
      <trkpt lat="44.13576" lon="3.11528">
        <ele>821</ele>
        <time>2015-10-24T11:23:03Z</time>
      </trkpt>
      <trkpt lat="44.13574" lon="3.11534">
        <ele>821</ele>
        <time>2015-10-24T11:23:07Z</time>
      </trkpt>
      <trkpt lat="44.13572" lon="3.11543">
        <ele>822</ele>
        <time>2015-10-24T11:23:14Z</time>
      </trkpt>
      <trkpt lat="44.13566" lon="3.11554">
        <ele>823</ele>
        <time>2015-10-24T11:23:23Z</time>
      </trkpt>
      <trkpt lat="44.13566" lon="3.11554">
        <ele>823</ele>
        <time>2015-10-24T11:23:24Z</time>
      </trkpt>
      <trkpt lat="44.13562" lon="3.11565">
        <ele>823</ele>
        <time>2015-10-24T11:23:32Z</time>
      </trkpt>
      <trkpt lat="44.13562" lon="3.11567">
        <ele>823</ele>
        <time>2015-10-24T11:23:33Z</time>
      </trkpt>
      <trkpt lat="44.13561" lon="3.1158">
        <ele>824</ele>
        <time>2015-10-24T11:23:40Z</time>
      </trkpt>
      <trkpt lat="44.1356" lon="3.11586">
        <ele>828</ele>
        <time>2015-10-24T11:23:44Z</time>
      </trkpt>
      <trkpt lat="44.13559" lon="3.11598">
        <ele>829</ele>
        <time>2015-10-24T11:23:51Z</time>
      </trkpt>
      <trkpt lat="44.13557" lon="3.11606">
        <ele>829</ele>
        <time>2015-10-24T11:23:55Z</time>
      </trkpt>
      <trkpt lat="44.13556" lon="3.11615">
        <ele>830</ele>
        <time>2015-10-24T11:23:58Z</time>
      </trkpt>
      <trkpt lat="44.13554" lon="3.11632">
        <ele>831</ele>
        <time>2015-10-24T11:24:03Z</time>
      </trkpt>
      <trkpt lat="44.1355" lon="3.11651">
        <ele>832</ele>
        <time>2015-10-24T11:24:09Z</time>
      </trkpt>
      <trkpt lat="44.1355" lon="3.11664">
        <ele>832</ele>
        <time>2015-10-24T11:24:14Z</time>
      </trkpt>
      <trkpt lat="44.1355" lon="3.11684">
        <ele>835</ele>
        <time>2015-10-24T11:24:20Z</time>
      </trkpt>
      <trkpt lat="44.13551" lon="3.11692">
        <ele>835</ele>
        <time>2015-10-24T11:24:23Z</time>
      </trkpt>
      <trkpt lat="44.13551" lon="3.11698">
        <ele>835</ele>
        <time>2015-10-24T11:24:26Z</time>
      </trkpt>
      <trkpt lat="44.13551" lon="3.11714">
        <ele>836</ele>
        <time>2015-10-24T11:24:32Z</time>
      </trkpt>
      <trkpt lat="44.1355" lon="3.11724">
        <ele>836</ele>
        <time>2015-10-24T11:24:37Z</time>
      </trkpt>
      <trkpt lat="44.13546" lon="3.11741">
        <ele>837</ele>
        <time>2015-10-24T11:24:44Z</time>
      </trkpt>
      <trkpt lat="44.13543" lon="3.11749">
        <ele>837</ele>
        <time>2015-10-24T11:24:47Z</time>
      </trkpt>
      <trkpt lat="44.13538" lon="3.11761">
        <ele>838</ele>
        <time>2015-10-24T11:24:52Z</time>
      </trkpt>
      <trkpt lat="44.13535" lon="3.11772">
        <ele>838</ele>
        <time>2015-10-24T11:24:56Z</time>
      </trkpt>
      <trkpt lat="44.13531" lon="3.11791">
        <ele>838</ele>
        <time>2015-10-24T11:25:02Z</time>
      </trkpt>
      <trkpt lat="44.1353" lon="3.11797">
        <ele>838</ele>
        <time>2015-10-24T11:25:04Z</time>
      </trkpt>
      <trkpt lat="44.13527" lon="3.11813">
        <ele>838</ele>
        <time>2015-10-24T11:25:09Z</time>
      </trkpt>
      <trkpt lat="44.13526" lon="3.11822">
        <ele>838</ele>
        <time>2015-10-24T11:25:12Z</time>
      </trkpt>
      <trkpt lat="44.1352" lon="3.11839">
        <ele>837</ele>
        <time>2015-10-24T11:25:18Z</time>
      </trkpt>
      <trkpt lat="44.13517" lon="3.11855">
        <ele>837</ele>
        <time>2015-10-24T11:25:23Z</time>
      </trkpt>
      <trkpt lat="44.13513" lon="3.11868">
        <ele>836</ele>
        <time>2015-10-24T11:25:27Z</time>
      </trkpt>
      <trkpt lat="44.13506" lon="3.11884">
        <ele>836</ele>
        <time>2015-10-24T11:25:32Z</time>
      </trkpt>
      <trkpt lat="44.13503" lon="3.11899">
        <ele>835</ele>
        <time>2015-10-24T11:25:37Z</time>
      </trkpt>
      <trkpt lat="44.13498" lon="3.11917">
        <ele>835</ele>
        <time>2015-10-24T11:25:43Z</time>
      </trkpt>
      <trkpt lat="44.13494" lon="3.11933">
        <ele>834</ele>
        <time>2015-10-24T11:25:49Z</time>
      </trkpt>
      <trkpt lat="44.1349" lon="3.11943">
        <ele>833</ele>
        <time>2015-10-24T11:25:52Z</time>
      </trkpt>
      <trkpt lat="44.13484" lon="3.11963">
        <ele>832</ele>
        <time>2015-10-24T11:25:58Z</time>
      </trkpt>
      <trkpt lat="44.13479" lon="3.11982">
        <ele>831</ele>
        <time>2015-10-24T11:26:03Z</time>
      </trkpt>
      <trkpt lat="44.13472" lon="3.12">
        <ele>830</ele>
        <time>2015-10-24T11:26:08Z</time>
      </trkpt>
      <trkpt lat="44.13465" lon="3.12016">
        <ele>828</ele>
        <time>2015-10-24T11:26:13Z</time>
      </trkpt>
      <trkpt lat="44.1346" lon="3.12035">
        <ele>828</ele>
        <time>2015-10-24T11:26:18Z</time>
      </trkpt>
      <trkpt lat="44.13456" lon="3.12046">
        <ele>828</ele>
        <time>2015-10-24T11:26:22Z</time>
      </trkpt>
      <trkpt lat="44.1345" lon="3.12061">
        <ele>827</ele>
        <time>2015-10-24T11:26:27Z</time>
      </trkpt>
      <trkpt lat="44.13447" lon="3.12066">
        <ele>828</ele>
        <time>2015-10-24T11:26:29Z</time>
      </trkpt>
      <trkpt lat="44.13439" lon="3.12083">
        <ele>828</ele>
        <time>2015-10-24T11:26:35Z</time>
      </trkpt>
      <trkpt lat="44.13432" lon="3.12093">
        <ele>829</ele>
        <time>2015-10-24T11:26:40Z</time>
      </trkpt>
      <trkpt lat="44.13427" lon="3.12101">
        <ele>829</ele>
        <time>2015-10-24T11:26:44Z</time>
      </trkpt>
      <trkpt lat="44.13424" lon="3.12106">
        <ele>829</ele>
        <time>2015-10-24T11:26:47Z</time>
      </trkpt>
      <trkpt lat="44.13416" lon="3.12116">
        <ele>834</ele>
        <time>2015-10-24T11:26:56Z</time>
      </trkpt>
      <trkpt lat="44.13414" lon="3.1212">
        <ele>834</ele>
        <time>2015-10-24T11:26:59Z</time>
      </trkpt>
      <trkpt lat="44.13404" lon="3.12128">
        <ele>835</ele>
        <time>2015-10-24T11:27:08Z</time>
      </trkpt>
      <trkpt lat="44.13397" lon="3.1214">
        <ele>836</ele>
        <time>2015-10-24T11:27:17Z</time>
      </trkpt>
      <trkpt lat="44.13391" lon="3.12147">
        <ele>836</ele>
        <time>2015-10-24T11:27:23Z</time>
      </trkpt>
      <trkpt lat="44.13382" lon="3.12158">
        <ele>837</ele>
        <time>2015-10-24T11:27:32Z</time>
      </trkpt>
      <trkpt lat="44.13377" lon="3.12167">
        <ele>840</ele>
        <time>2015-10-24T11:27:39Z</time>
      </trkpt>
      <trkpt lat="44.13373" lon="3.1217">
        <ele>840</ele>
        <time>2015-10-24T11:27:42Z</time>
      </trkpt>
      <trkpt lat="44.13364" lon="3.12179">
        <ele>841</ele>
        <time>2015-10-24T11:27:51Z</time>
      </trkpt>
      <trkpt lat="44.13362" lon="3.12181">
        <ele>841</ele>
        <time>2015-10-24T11:27:53Z</time>
      </trkpt>
      <trkpt lat="44.13358" lon="3.12184">
        <ele>841</ele>
        <time>2015-10-24T11:27:56Z</time>
      </trkpt>
      <trkpt lat="44.13357" lon="3.12188">
        <ele>841</ele>
        <time>2015-10-24T11:27:59Z</time>
      </trkpt>
      <trkpt lat="44.13353" lon="3.12195">
        <ele>841</ele>
        <time>2015-10-24T11:28:03Z</time>
      </trkpt>
      <trkpt lat="44.13357" lon="3.12207">
        <ele>841</ele>
        <time>2015-10-24T11:28:09Z</time>
      </trkpt>
      <trkpt lat="44.13362" lon="3.12212">
        <ele>841</ele>
        <time>2015-10-24T11:28:12Z</time>
      </trkpt>
      <trkpt lat="44.13375" lon="3.12222">
        <ele>840</ele>
        <time>2015-10-24T11:28:17Z</time>
      </trkpt>
      <trkpt lat="44.13389" lon="3.12234">
        <ele>840</ele>
        <time>2015-10-24T11:28:23Z</time>
      </trkpt>
      <trkpt lat="44.134" lon="3.12242">
        <ele>840</ele>
        <time>2015-10-24T11:28:28Z</time>
      </trkpt>
      <trkpt lat="44.1341" lon="3.1225">
        <ele>839</ele>
        <time>2015-10-24T11:28:32Z</time>
      </trkpt>
      <trkpt lat="44.13419" lon="3.12258">
        <ele>838</ele>
        <time>2015-10-24T11:28:36Z</time>
      </trkpt>
      <trkpt lat="44.13431" lon="3.12264">
        <ele>838</ele>
        <time>2015-10-24T11:28:40Z</time>
      </trkpt>
      <trkpt lat="44.13444" lon="3.12273">
        <ele>837</ele>
        <time>2015-10-24T11:28:45Z</time>
      </trkpt>
      <trkpt lat="44.13457" lon="3.12279">
        <ele>837</ele>
        <time>2015-10-24T11:28:49Z</time>
      </trkpt>
      <trkpt lat="44.13465" lon="3.1229">
        <ele>837</ele>
        <time>2015-10-24T11:28:53Z</time>
      </trkpt>
      <trkpt lat="44.13466" lon="3.12293">
        <ele>837</ele>
        <time>2015-10-24T11:28:54Z</time>
      </trkpt>
      <trkpt lat="44.13466" lon="3.12308">
        <ele>837</ele>
        <time>2015-10-24T11:28:59Z</time>
      </trkpt>
      <trkpt lat="44.13465" lon="3.12317">
        <ele>837</ele>
        <time>2015-10-24T11:29:02Z</time>
      </trkpt>
      <trkpt lat="44.13457" lon="3.12332">
        <ele>837</ele>
        <time>2015-10-24T11:29:07Z</time>
      </trkpt>
      <trkpt lat="44.13464" lon="3.12339">
        <ele>838</ele>
        <time>2015-10-24T11:29:12Z</time>
      </trkpt>
      <trkpt lat="44.13466" lon="3.12339">
        <ele>838</ele>
        <time>2015-10-24T11:29:13Z</time>
      </trkpt>
      <trkpt lat="44.13482" lon="3.12345">
        <ele>838</ele>
        <time>2015-10-24T11:29:19Z</time>
      </trkpt>
      <trkpt lat="44.13496" lon="3.12353">
        <ele>838</ele>
        <time>2015-10-24T11:29:24Z</time>
      </trkpt>
      <trkpt lat="44.13506" lon="3.12359">
        <ele>838</ele>
        <time>2015-10-24T11:29:29Z</time>
      </trkpt>
      <trkpt lat="44.13518" lon="3.12361">
        <ele>838</ele>
        <time>2015-10-24T11:29:35Z</time>
      </trkpt>
      <trkpt lat="44.13528" lon="3.1236">
        <ele>838</ele>
        <time>2015-10-24T11:29:39Z</time>
      </trkpt>
      <trkpt lat="44.13538" lon="3.12363">
        <ele>838</ele>
        <time>2015-10-24T11:29:43Z</time>
      </trkpt>
      <trkpt lat="44.13552" lon="3.12367">
        <ele>838</ele>
        <time>2015-10-24T11:29:49Z</time>
      </trkpt>
      <trkpt lat="44.13561" lon="3.1237">
        <ele>838</ele>
        <time>2015-10-24T11:29:54Z</time>
      </trkpt>
      <trkpt lat="44.13566" lon="3.12383">
        <ele>839</ele>
        <time>2015-10-24T11:30:00Z</time>
      </trkpt>
      <trkpt lat="44.13566" lon="3.1239">
        <ele>840</ele>
        <time>2015-10-24T11:30:03Z</time>
      </trkpt>
      <trkpt lat="44.13567" lon="3.12393">
        <ele>840</ele>
        <time>2015-10-24T11:30:05Z</time>
      </trkpt>
      <trkpt lat="44.13576" lon="3.124">
        <ele>841</ele>
        <time>2015-10-24T11:30:11Z</time>
      </trkpt>
      <trkpt lat="44.13581" lon="3.12407">
        <ele>842</ele>
        <time>2015-10-24T11:30:16Z</time>
      </trkpt>
      <trkpt lat="44.13584" lon="3.12413">
        <ele>842</ele>
        <time>2015-10-24T11:30:22Z</time>
      </trkpt>
      <trkpt lat="44.13588" lon="3.12415">
        <ele>842</ele>
        <time>2015-10-24T11:30:30Z</time>
      </trkpt>
      <trkpt lat="44.1359" lon="3.12416">
        <ele>841</ele>
        <time>2015-10-24T11:30:38Z</time>
      </trkpt>
      <trkpt lat="44.13592" lon="3.12417">
        <ele>843</ele>
        <time>2015-10-24T11:30:45Z</time>
      </trkpt>
      <trkpt lat="44.13597" lon="3.12419">
        <ele>844</ele>
        <time>2015-10-24T11:30:53Z</time>
      </trkpt>
      <trkpt lat="44.13598" lon="3.12421">
        <ele>844</ele>
        <time>2015-10-24T11:31:00Z</time>
      </trkpt>
      <trkpt lat="44.13598" lon="3.12425">
        <ele>844</ele>
        <time>2015-10-24T11:31:05Z</time>
      </trkpt>
      <trkpt lat="44.13598" lon="3.12429">
        <ele>844</ele>
        <time>2015-10-24T11:31:14Z</time>
      </trkpt>
      <trkpt lat="44.13598" lon="3.12434">
        <ele>844</ele>
        <time>2015-10-24T11:31:22Z</time>
      </trkpt>
      <trkpt lat="44.13599" lon="3.12439">
        <ele>844</ele>
        <time>2015-10-24T11:31:29Z</time>
      </trkpt>
      <trkpt lat="44.136" lon="3.12445">
        <ele>845</ele>
        <time>2015-10-24T11:31:33Z</time>
      </trkpt>
      <trkpt lat="44.13603" lon="3.12447">
        <ele>845</ele>
        <time>2015-10-24T11:31:35Z</time>
      </trkpt>
      <trkpt lat="44.13606" lon="3.12455">
        <ele>845</ele>
        <time>2015-10-24T11:31:39Z</time>
      </trkpt>
      <trkpt lat="44.1361" lon="3.12463">
        <ele>846</ele>
        <time>2015-10-24T11:31:43Z</time>
      </trkpt>
      <trkpt lat="44.13612" lon="3.12471">
        <ele>846</ele>
        <time>2015-10-24T11:31:47Z</time>
      </trkpt>
      <trkpt lat="44.13611" lon="3.12478">
        <ele>847</ele>
        <time>2015-10-24T11:31:51Z</time>
      </trkpt>
      <trkpt lat="44.13615" lon="3.12485">
        <ele>847</ele>
        <time>2015-10-24T11:31:55Z</time>
      </trkpt>
      <trkpt lat="44.13621" lon="3.1249">
        <ele>847</ele>
        <time>2015-10-24T11:31:59Z</time>
      </trkpt>
      <trkpt lat="44.13631" lon="3.125">
        <ele>847</ele>
        <time>2015-10-24T11:32:05Z</time>
      </trkpt>
      <trkpt lat="44.13633" lon="3.12507">
        <ele>851</ele>
        <time>2015-10-24T11:32:09Z</time>
      </trkpt>
      <trkpt lat="44.13642" lon="3.12508">
        <ele>851</ele>
        <time>2015-10-24T11:32:14Z</time>
      </trkpt>
      <trkpt lat="44.1365" lon="3.12518">
        <ele>851</ele>
        <time>2015-10-24T11:32:18Z</time>
      </trkpt>
      <trkpt lat="44.13648" lon="3.12525">
        <ele>851</ele>
        <time>2015-10-24T11:32:22Z</time>
      </trkpt>
      <trkpt lat="44.13647" lon="3.12528">
        <ele>851</ele>
        <time>2015-10-24T11:32:24Z</time>
      </trkpt>
      <trkpt lat="44.1365" lon="3.12538">
        <ele>852</ele>
        <time>2015-10-24T11:32:28Z</time>
      </trkpt>
      <trkpt lat="44.13659" lon="3.12544">
        <ele>852</ele>
        <time>2015-10-24T11:32:34Z</time>
      </trkpt>
      <trkpt lat="44.1366" lon="3.12546">
        <ele>852</ele>
        <time>2015-10-24T11:32:35Z</time>
      </trkpt>
      <trkpt lat="44.13664" lon="3.12552">
        <ele>853</ele>
        <time>2015-10-24T11:32:38Z</time>
      </trkpt>
      <trkpt lat="44.13674" lon="3.1255">
        <ele>852</ele>
        <time>2015-10-24T11:32:43Z</time>
      </trkpt>
      <trkpt lat="44.1368" lon="3.12544">
        <ele>852</ele>
        <time>2015-10-24T11:32:46Z</time>
      </trkpt>
      <trkpt lat="44.13687" lon="3.12541">
        <ele>851</ele>
        <time>2015-10-24T11:32:49Z</time>
      </trkpt>
      <trkpt lat="44.13695" lon="3.12539">
        <ele>851</ele>
        <time>2015-10-24T11:32:52Z</time>
      </trkpt>
      <trkpt lat="44.13706" lon="3.1254">
        <ele>851</ele>
        <time>2015-10-24T11:32:56Z</time>
      </trkpt>
      <trkpt lat="44.13714" lon="3.12537">
        <ele>851</ele>
        <time>2015-10-24T11:32:59Z</time>
      </trkpt>
      <trkpt lat="44.13719" lon="3.12537">
        <ele>851</ele>
        <time>2015-10-24T11:33:02Z</time>
      </trkpt>
      <trkpt lat="44.13723" lon="3.12545">
        <ele>851</ele>
        <time>2015-10-24T11:33:05Z</time>
      </trkpt>
      <trkpt lat="44.13729" lon="3.12546">
        <ele>851</ele>
        <time>2015-10-24T11:33:09Z</time>
      </trkpt>
      <trkpt lat="44.13732" lon="3.12558">
        <ele>852</ele>
        <time>2015-10-24T11:33:13Z</time>
      </trkpt>
      <trkpt lat="44.13734" lon="3.12569">
        <ele>852</ele>
        <time>2015-10-24T11:33:17Z</time>
      </trkpt>
      <trkpt lat="44.13741" lon="3.12569">
        <ele>852</ele>
        <time>2015-10-24T11:33:20Z</time>
      </trkpt>
      <trkpt lat="44.13744" lon="3.1257">
        <ele>852</ele>
        <time>2015-10-24T11:33:21Z</time>
      </trkpt>
      <trkpt lat="44.13758" lon="3.12566">
        <ele>851</ele>
        <time>2015-10-24T11:33:26Z</time>
      </trkpt>
      <trkpt lat="44.1377" lon="3.12569">
        <ele>851</ele>
        <time>2015-10-24T11:33:30Z</time>
      </trkpt>
      <trkpt lat="44.13772" lon="3.12569">
        <ele>850</ele>
        <time>2015-10-24T11:33:31Z</time>
      </trkpt>
      <trkpt lat="44.1378" lon="3.12562">
        <ele>850</ele>
        <time>2015-10-24T11:33:36Z</time>
      </trkpt>
      <trkpt lat="44.13783" lon="3.12562">
        <ele>850</ele>
        <time>2015-10-24T11:33:38Z</time>
      </trkpt>
      <trkpt lat="44.13787" lon="3.12563">
        <ele>850</ele>
        <time>2015-10-24T11:33:40Z</time>
      </trkpt>
      <trkpt lat="44.13794" lon="3.12561">
        <ele>850</ele>
        <time>2015-10-24T11:33:45Z</time>
      </trkpt>
      <trkpt lat="44.13801" lon="3.12561">
        <ele>849</ele>
        <time>2015-10-24T11:33:48Z</time>
      </trkpt>
      <trkpt lat="44.13806" lon="3.12563">
        <ele>849</ele>
        <time>2015-10-24T11:33:50Z</time>
      </trkpt>
      <trkpt lat="44.1382" lon="3.12565">
        <ele>849</ele>
        <time>2015-10-24T11:33:56Z</time>
      </trkpt>
      <trkpt lat="44.1383" lon="3.12562">
        <ele>849</ele>
        <time>2015-10-24T11:34:01Z</time>
      </trkpt>
      <trkpt lat="44.13836" lon="3.12561">
        <ele>848</ele>
        <time>2015-10-24T11:34:05Z</time>
      </trkpt>
      <trkpt lat="44.13839" lon="3.12562">
        <ele>848</ele>
        <time>2015-10-24T11:34:07Z</time>
      </trkpt>
      <trkpt lat="44.1385" lon="3.12559">
        <ele>847</ele>
        <time>2015-10-24T11:34:12Z</time>
      </trkpt>
      <trkpt lat="44.13853" lon="3.12559">
        <ele>847</ele>
        <time>2015-10-24T11:34:14Z</time>
      </trkpt>
      <trkpt lat="44.13858" lon="3.12561">
        <ele>847</ele>
        <time>2015-10-24T11:34:18Z</time>
      </trkpt>
      <trkpt lat="44.13868" lon="3.12561">
        <ele>847</ele>
        <time>2015-10-24T11:34:23Z</time>
      </trkpt>
      <trkpt lat="44.13878" lon="3.12563">
        <ele>847</ele>
        <time>2015-10-24T11:34:27Z</time>
      </trkpt>
      <trkpt lat="44.13882" lon="3.12564">
        <ele>846</ele>
        <time>2015-10-24T11:34:29Z</time>
      </trkpt>
      <trkpt lat="44.13899" lon="3.1257">
        <ele>846</ele>
        <time>2015-10-24T11:34:35Z</time>
      </trkpt>
      <trkpt lat="44.139" lon="3.12576">
        <ele>847</ele>
        <time>2015-10-24T11:34:36Z</time>
      </trkpt>
      <trkpt lat="44.13902" lon="3.12589">
        <ele>847</ele>
        <time>2015-10-24T11:34:39Z</time>
      </trkpt>
      <trkpt lat="44.13897" lon="3.12601">
        <ele>847</ele>
        <time>2015-10-24T11:34:45Z</time>
      </trkpt>
      <trkpt lat="44.13897" lon="3.12604">
        <ele>847</ele>
        <time>2015-10-24T11:34:46Z</time>
      </trkpt>
      <trkpt lat="44.13894" lon="3.12615">
        <ele>847</ele>
        <time>2015-10-24T11:34:51Z</time>
      </trkpt>
      <trkpt lat="44.13893" lon="3.12623">
        <ele>847</ele>
        <time>2015-10-24T11:34:54Z</time>
      </trkpt>
      <trkpt lat="44.13893" lon="3.12639">
        <ele>847</ele>
        <time>2015-10-24T11:35:00Z</time>
      </trkpt>
      <trkpt lat="44.13894" lon="3.12642">
        <ele>847</ele>
        <time>2015-10-24T11:35:01Z</time>
      </trkpt>
      <trkpt lat="44.13895" lon="3.12655">
        <ele>847</ele>
        <time>2015-10-24T11:35:05Z</time>
      </trkpt>
      <trkpt lat="44.13896" lon="3.12668">
        <ele>844</ele>
        <time>2015-10-24T11:35:10Z</time>
      </trkpt>
      <trkpt lat="44.13896" lon="3.12679">
        <ele>844</ele>
        <time>2015-10-24T11:35:14Z</time>
      </trkpt>
      <trkpt lat="44.13892" lon="3.12691">
        <ele>843</ele>
        <time>2015-10-24T11:35:18Z</time>
      </trkpt>
      <trkpt lat="44.13892" lon="3.12696">
        <ele>843</ele>
        <time>2015-10-24T11:35:20Z</time>
      </trkpt>
      <trkpt lat="44.13893" lon="3.12701">
        <ele>843</ele>
        <time>2015-10-24T11:35:22Z</time>
      </trkpt>
      <trkpt lat="44.13893" lon="3.12714">
        <ele>842</ele>
        <time>2015-10-24T11:35:27Z</time>
      </trkpt>
      <trkpt lat="44.13891" lon="3.12723">
        <ele>841</ele>
        <time>2015-10-24T11:35:30Z</time>
      </trkpt>
      <trkpt lat="44.13893" lon="3.12735">
        <ele>840</ele>
        <time>2015-10-24T11:35:35Z</time>
      </trkpt>
      <trkpt lat="44.13893" lon="3.12749">
        <ele>840</ele>
        <time>2015-10-24T11:35:39Z</time>
      </trkpt>
      <trkpt lat="44.13893" lon="3.1276">
        <ele>836</ele>
        <time>2015-10-24T11:35:42Z</time>
      </trkpt>
      <trkpt lat="44.13892" lon="3.12769">
        <ele>836</ele>
        <time>2015-10-24T11:35:45Z</time>
      </trkpt>
      <trkpt lat="44.13893" lon="3.12782">
        <ele>835</ele>
        <time>2015-10-24T11:35:49Z</time>
      </trkpt>
      <trkpt lat="44.13893" lon="3.12795">
        <ele>835</ele>
        <time>2015-10-24T11:35:53Z</time>
      </trkpt>
      <trkpt lat="44.13894" lon="3.12801">
        <ele>834</ele>
        <time>2015-10-24T11:35:55Z</time>
      </trkpt>
      <trkpt lat="44.13898" lon="3.1282">
        <ele>833</ele>
        <time>2015-10-24T11:36:01Z</time>
      </trkpt>
      <trkpt lat="44.13898" lon="3.12822">
        <ele>833</ele>
        <time>2015-10-24T11:36:02Z</time>
      </trkpt>
      <trkpt lat="44.13903" lon="3.12837">
        <ele>831</ele>
        <time>2015-10-24T11:36:07Z</time>
      </trkpt>
      <trkpt lat="44.13903" lon="3.12843">
        <ele>831</ele>
        <time>2015-10-24T11:36:09Z</time>
      </trkpt>
      <trkpt lat="44.13903" lon="3.12849">
        <ele>831</ele>
        <time>2015-10-24T11:36:11Z</time>
      </trkpt>
      <trkpt lat="44.13904" lon="3.12858">
        <ele>832</ele>
        <time>2015-10-24T11:36:15Z</time>
      </trkpt>
      <trkpt lat="44.13907" lon="3.12878">
        <ele>832</ele>
        <time>2015-10-24T11:36:22Z</time>
      </trkpt>
      <trkpt lat="44.13909" lon="3.12892">
        <ele>833</ele>
        <time>2015-10-24T11:36:26Z</time>
      </trkpt>
      <trkpt lat="44.1391" lon="3.12895">
        <ele>833</ele>
        <time>2015-10-24T11:36:27Z</time>
      </trkpt>
      <trkpt lat="44.13916" lon="3.12911">
        <ele>833</ele>
        <time>2015-10-24T11:36:33Z</time>
      </trkpt>
      <trkpt lat="44.13918" lon="3.1292">
        <ele>833</ele>
        <time>2015-10-24T11:36:37Z</time>
      </trkpt>
      <trkpt lat="44.13924" lon="3.12932">
        <ele>834</ele>
        <time>2015-10-24T11:36:42Z</time>
      </trkpt>
      <trkpt lat="44.13926" lon="3.1294">
        <ele>835</ele>
        <time>2015-10-24T11:36:46Z</time>
      </trkpt>
      <trkpt lat="44.1393" lon="3.12949">
        <ele>835</ele>
        <time>2015-10-24T11:36:50Z</time>
      </trkpt>
      <trkpt lat="44.13937" lon="3.12966">
        <ele>836</ele>
        <time>2015-10-24T11:36:59Z</time>
      </trkpt>
      <trkpt lat="44.13942" lon="3.12975">
        <ele>836</ele>
        <time>2015-10-24T11:37:03Z</time>
      </trkpt>
      <trkpt lat="44.13947" lon="3.12986">
        <ele>836</ele>
        <time>2015-10-24T11:37:07Z</time>
      </trkpt>
      <trkpt lat="44.13949" lon="3.12996">
        <ele>836</ele>
        <time>2015-10-24T11:37:11Z</time>
      </trkpt>
      <trkpt lat="44.13953" lon="3.13005">
        <ele>840</ele>
        <time>2015-10-24T11:37:15Z</time>
      </trkpt>
      <trkpt lat="44.13958" lon="3.13017">
        <ele>840</ele>
        <time>2015-10-24T11:37:20Z</time>
      </trkpt>
      <trkpt lat="44.1396" lon="3.13032">
        <ele>840</ele>
        <time>2015-10-24T11:37:25Z</time>
      </trkpt>
      <trkpt lat="44.13961" lon="3.13035">
        <ele>841</ele>
        <time>2015-10-24T11:37:26Z</time>
      </trkpt>
      <trkpt lat="44.13962" lon="3.13052">
        <ele>841</ele>
        <time>2015-10-24T11:37:32Z</time>
      </trkpt>
      <trkpt lat="44.13965" lon="3.13062">
        <ele>841</ele>
        <time>2015-10-24T11:37:36Z</time>
      </trkpt>
      <trkpt lat="44.13966" lon="3.13076">
        <ele>842</ele>
        <time>2015-10-24T11:37:41Z</time>
      </trkpt>
      <trkpt lat="44.13969" lon="3.13094">
        <ele>844</ele>
        <time>2015-10-24T11:37:47Z</time>
      </trkpt>
      <trkpt lat="44.13972" lon="3.13107">
        <ele>844</ele>
        <time>2015-10-24T11:37:52Z</time>
      </trkpt>
      <trkpt lat="44.13976" lon="3.13118">
        <ele>844</ele>
        <time>2015-10-24T11:37:56Z</time>
      </trkpt>
      <trkpt lat="44.13977" lon="3.13124">
        <ele>844</ele>
        <time>2015-10-24T11:37:58Z</time>
      </trkpt>
      <trkpt lat="44.13979" lon="3.13139">
        <ele>844</ele>
        <time>2015-10-24T11:38:03Z</time>
      </trkpt>
      <trkpt lat="44.13982" lon="3.13152">
        <ele>844</ele>
        <time>2015-10-24T11:38:07Z</time>
      </trkpt>
      <trkpt lat="44.13985" lon="3.13167">
        <ele>845</ele>
        <time>2015-10-24T11:38:12Z</time>
      </trkpt>
      <trkpt lat="44.13989" lon="3.13178">
        <ele>845</ele>
        <time>2015-10-24T11:38:16Z</time>
      </trkpt>
      <trkpt lat="44.13989" lon="3.13192">
        <ele>844</ele>
        <time>2015-10-24T11:38:20Z</time>
      </trkpt>
      <trkpt lat="44.13992" lon="3.13215">
        <ele>844</ele>
        <time>2015-10-24T11:38:26Z</time>
      </trkpt>
      <trkpt lat="44.13992" lon="3.1323">
        <ele>844</ele>
        <time>2015-10-24T11:38:30Z</time>
      </trkpt>
      <trkpt lat="44.13995" lon="3.1325">
        <ele>844</ele>
        <time>2015-10-24T11:38:35Z</time>
      </trkpt>
      <trkpt lat="44.14" lon="3.13263">
        <ele>843</ele>
        <time>2015-10-24T11:38:40Z</time>
      </trkpt>
      <trkpt lat="44.14003" lon="3.13273">
        <ele>843</ele>
        <time>2015-10-24T11:38:43Z</time>
      </trkpt>
      <trkpt lat="44.14012" lon="3.13291">
        <ele>842</ele>
        <time>2015-10-24T11:38:49Z</time>
      </trkpt>
      <trkpt lat="44.14015" lon="3.13304">
        <ele>841</ele>
        <time>2015-10-24T11:38:53Z</time>
      </trkpt>
      <trkpt lat="44.1402" lon="3.13322">
        <ele>841</ele>
        <time>2015-10-24T11:38:58Z</time>
      </trkpt>
      <trkpt lat="44.14027" lon="3.13338">
        <ele>839</ele>
        <time>2015-10-24T11:39:03Z</time>
      </trkpt>
      <trkpt lat="44.14033" lon="3.13353">
        <ele>839</ele>
        <time>2015-10-24T11:39:08Z</time>
      </trkpt>
      <trkpt lat="44.14038" lon="3.13372">
        <ele>839</ele>
        <time>2015-10-24T11:39:14Z</time>
      </trkpt>
      <trkpt lat="44.14046" lon="3.13387">
        <ele>839</ele>
        <time>2015-10-24T11:39:19Z</time>
      </trkpt>
      <trkpt lat="44.14047" lon="3.1339">
        <ele>839</ele>
        <time>2015-10-24T11:39:20Z</time>
      </trkpt>
      <trkpt lat="44.14052" lon="3.13402">
        <ele>839</ele>
        <time>2015-10-24T11:39:24Z</time>
      </trkpt>
      <trkpt lat="44.14057" lon="3.13418">
        <ele>836</ele>
        <time>2015-10-24T11:39:29Z</time>
      </trkpt>
      <trkpt lat="44.14068" lon="3.13432">
        <ele>836</ele>
        <time>2015-10-24T11:39:34Z</time>
      </trkpt>
      <trkpt lat="44.14081" lon="3.13447">
        <ele>836</ele>
        <time>2015-10-24T11:39:39Z</time>
      </trkpt>
      <trkpt lat="44.14093" lon="3.13458">
        <ele>832</ele>
        <time>2015-10-24T11:39:44Z</time>
      </trkpt>
      <trkpt lat="44.14097" lon="3.13463">
        <ele>831</ele>
        <time>2015-10-24T11:39:46Z</time>
      </trkpt>
      <trkpt lat="44.14111" lon="3.13476">
        <ele>830</ele>
        <time>2015-10-24T11:39:52Z</time>
      </trkpt>
      <trkpt lat="44.14122" lon="3.13486">
        <ele>830</ele>
        <time>2015-10-24T11:39:56Z</time>
      </trkpt>
      <trkpt lat="44.1414" lon="3.13491">
        <ele>828</ele>
        <time>2015-10-24T11:40:01Z</time>
      </trkpt>
      <trkpt lat="44.14155" lon="3.13496">
        <ele>827</ele>
        <time>2015-10-24T11:40:06Z</time>
      </trkpt>
      <trkpt lat="44.14167" lon="3.13501">
        <ele>825</ele>
        <time>2015-10-24T11:40:10Z</time>
      </trkpt>
      <trkpt lat="44.1417" lon="3.13503">
        <ele>824</ele>
        <time>2015-10-24T11:40:11Z</time>
      </trkpt>
      <trkpt lat="44.14186" lon="3.13507">
        <ele>821</ele>
        <time>2015-10-24T11:40:16Z</time>
      </trkpt>
      <trkpt lat="44.14204" lon="3.13513">
        <ele>819</ele>
        <time>2015-10-24T11:40:21Z</time>
      </trkpt>
      <trkpt lat="44.1421" lon="3.13515">
        <ele>819</ele>
        <time>2015-10-24T11:40:24Z</time>
      </trkpt>
      <trkpt lat="44.14226" lon="3.13518">
        <ele>818</ele>
        <time>2015-10-24T11:40:28Z</time>
      </trkpt>
      <trkpt lat="44.14238" lon="3.13517">
        <ele>817</ele>
        <time>2015-10-24T11:40:32Z</time>
      </trkpt>
      <trkpt lat="44.14251" lon="3.13515">
        <ele>815</ele>
        <time>2015-10-24T11:40:37Z</time>
      </trkpt>
      <trkpt lat="44.14253" lon="3.13515">
        <ele>815</ele>
        <time>2015-10-24T11:40:38Z</time>
      </trkpt>
      <trkpt lat="44.14264" lon="3.13517">
        <ele>814</ele>
        <time>2015-10-24T11:40:43Z</time>
      </trkpt>
      <trkpt lat="44.14269" lon="3.13518">
        <ele>814</ele>
        <time>2015-10-24T11:40:45Z</time>
      </trkpt>
      <trkpt lat="44.14284" lon="3.1352">
        <ele>813</ele>
        <time>2015-10-24T11:40:51Z</time>
      </trkpt>
      <trkpt lat="44.14299" lon="3.13521">
        <ele>813</ele>
        <time>2015-10-24T11:40:56Z</time>
      </trkpt>
      <trkpt lat="44.14317" lon="3.13519">
        <ele>812</ele>
        <time>2015-10-24T11:41:02Z</time>
      </trkpt>
      <trkpt lat="44.14325" lon="3.1352">
        <ele>812</ele>
        <time>2015-10-24T11:41:06Z</time>
      </trkpt>
      <trkpt lat="44.14336" lon="3.13526">
        <ele>812</ele>
        <time>2015-10-24T11:41:11Z</time>
      </trkpt>
      <trkpt lat="44.14337" lon="3.13527">
        <ele>812</ele>
        <time>2015-10-24T11:41:12Z</time>
      </trkpt>
      <trkpt lat="44.14342" lon="3.13528">
        <ele>812</ele>
        <time>2015-10-24T11:41:18Z</time>
      </trkpt>
      <trkpt lat="44.14352" lon="3.13531">
        <ele>812</ele>
        <time>2015-10-24T11:41:23Z</time>
      </trkpt>
      <trkpt lat="44.1436" lon="3.13531">
        <ele>812</ele>
        <time>2015-10-24T11:41:26Z</time>
      </trkpt>
      <trkpt lat="44.14367" lon="3.13532">
        <ele>812</ele>
        <time>2015-10-24T11:41:30Z</time>
      </trkpt>
      <trkpt lat="44.14378" lon="3.13534">
        <ele>813</ele>
        <time>2015-10-24T11:41:35Z</time>
      </trkpt>
      <trkpt lat="44.14386" lon="3.13535">
        <ele>813</ele>
        <time>2015-10-24T11:41:38Z</time>
      </trkpt>
      <trkpt lat="44.14401" lon="3.13532">
        <ele>813</ele>
        <time>2015-10-24T11:41:44Z</time>
      </trkpt>
      <trkpt lat="44.14411" lon="3.13532">
        <ele>813</ele>
        <time>2015-10-24T11:41:48Z</time>
      </trkpt>
      <trkpt lat="44.1443" lon="3.13535">
        <ele>816</ele>
        <time>2015-10-24T11:41:55Z</time>
      </trkpt>
      <trkpt lat="44.14433" lon="3.13535">
        <ele>816</ele>
        <time>2015-10-24T11:41:56Z</time>
      </trkpt>
      <trkpt lat="44.14438" lon="3.13549">
        <ele>816</ele>
        <time>2015-10-24T11:42:01Z</time>
      </trkpt>
      <trkpt lat="44.14439" lon="3.13555">
        <ele>816</ele>
        <time>2015-10-24T11:42:03Z</time>
      </trkpt>
      <trkpt lat="44.14444" lon="3.13569">
        <ele>816</ele>
        <time>2015-10-24T11:42:08Z</time>
      </trkpt>
      <trkpt lat="44.14446" lon="3.13574">
        <ele>816</ele>
        <time>2015-10-24T11:42:10Z</time>
      </trkpt>
      <trkpt lat="44.14455" lon="3.13591">
        <ele>815</ele>
        <time>2015-10-24T11:42:16Z</time>
      </trkpt>
      <trkpt lat="44.14465" lon="3.13604">
        <ele>815</ele>
        <time>2015-10-24T11:42:21Z</time>
      </trkpt>
      <trkpt lat="44.14472" lon="3.13616">
        <ele>815</ele>
        <time>2015-10-24T11:42:25Z</time>
      </trkpt>
      <trkpt lat="44.14483" lon="3.1363">
        <ele>815</ele>
        <time>2015-10-24T11:42:30Z</time>
      </trkpt>
      <trkpt lat="44.1449" lon="3.13648">
        <ele>815</ele>
        <time>2015-10-24T11:42:36Z</time>
      </trkpt>
      <trkpt lat="44.14495" lon="3.13658">
        <ele>816</ele>
        <time>2015-10-24T11:42:40Z</time>
      </trkpt>
      <trkpt lat="44.145" lon="3.13672">
        <ele>816</ele>
        <time>2015-10-24T11:42:44Z</time>
      </trkpt>
      <trkpt lat="44.14506" lon="3.13688">
        <ele>817</ele>
        <time>2015-10-24T11:42:49Z</time>
      </trkpt>
      <trkpt lat="44.14511" lon="3.13706">
        <ele>817</ele>
        <time>2015-10-24T11:42:54Z</time>
      </trkpt>
      <trkpt lat="44.14514" lon="3.1372">
        <ele>817</ele>
        <time>2015-10-24T11:42:59Z</time>
      </trkpt>
      <trkpt lat="44.14519" lon="3.1374">
        <ele>817</ele>
        <time>2015-10-24T11:43:05Z</time>
      </trkpt>
      <trkpt lat="44.14522" lon="3.13756">
        <ele>817</ele>
        <time>2015-10-24T11:43:10Z</time>
      </trkpt>
      <trkpt lat="44.14528" lon="3.13773">
        <ele>817</ele>
        <time>2015-10-24T11:43:15Z</time>
      </trkpt>
      <trkpt lat="44.14534" lon="3.1379">
        <ele>817</ele>
        <time>2015-10-24T11:43:20Z</time>
      </trkpt>
      <trkpt lat="44.14534" lon="3.13808">
        <ele>817</ele>
        <time>2015-10-24T11:43:25Z</time>
      </trkpt>
      <trkpt lat="44.14533" lon="3.13819">
        <ele>817</ele>
        <time>2015-10-24T11:43:28Z</time>
      </trkpt>
      <trkpt lat="44.14533" lon="3.13834">
        <ele>818</ele>
        <time>2015-10-24T11:43:32Z</time>
      </trkpt>
      <trkpt lat="44.14534" lon="3.13845">
        <ele>818</ele>
        <time>2015-10-24T11:43:35Z</time>
      </trkpt>
      <trkpt lat="44.14538" lon="3.13856">
        <ele>818</ele>
        <time>2015-10-24T11:43:39Z</time>
      </trkpt>
      <trkpt lat="44.14549" lon="3.13878">
        <ele>818</ele>
        <time>2015-10-24T11:43:46Z</time>
      </trkpt>
      <trkpt lat="44.14556" lon="3.13891">
        <ele>818</ele>
        <time>2015-10-24T11:43:51Z</time>
      </trkpt>
      <trkpt lat="44.14564" lon="3.13902">
        <ele>818</ele>
        <time>2015-10-24T11:43:56Z</time>
      </trkpt>
      <trkpt lat="44.14574" lon="3.13913">
        <ele>818</ele>
        <time>2015-10-24T11:44:01Z</time>
      </trkpt>
      <trkpt lat="44.14578" lon="3.13917">
        <ele>818</ele>
        <time>2015-10-24T11:44:03Z</time>
      </trkpt>
      <trkpt lat="44.14593" lon="3.13919">
        <ele>818</ele>
        <time>2015-10-24T11:44:09Z</time>
      </trkpt>
      <trkpt lat="44.14606" lon="3.13914">
        <ele>818</ele>
        <time>2015-10-24T11:44:13Z</time>
      </trkpt>
      <trkpt lat="44.14615" lon="3.13913">
        <ele>818</ele>
        <time>2015-10-24T11:44:16Z</time>
      </trkpt>
      <trkpt lat="44.14619" lon="3.13904">
        <ele>818</ele>
        <time>2015-10-24T11:44:19Z</time>
      </trkpt>
      <trkpt lat="44.14625" lon="3.13896">
        <ele>818</ele>
        <time>2015-10-24T11:44:22Z</time>
      </trkpt>
      <trkpt lat="44.14633" lon="3.13885">
        <ele>818</ele>
        <time>2015-10-24T11:44:26Z</time>
      </trkpt>
      <trkpt lat="44.1464" lon="3.13878">
        <ele>818</ele>
        <time>2015-10-24T11:44:30Z</time>
      </trkpt>
      <trkpt lat="44.14645" lon="3.13874">
        <ele>818</ele>
        <time>2015-10-24T11:44:32Z</time>
      </trkpt>
      <trkpt lat="44.1466" lon="3.13861">
        <ele>818</ele>
        <time>2015-10-24T11:44:39Z</time>
      </trkpt>
      <trkpt lat="44.1467" lon="3.13848">
        <ele>819</ele>
        <time>2015-10-24T11:44:44Z</time>
      </trkpt>
      <trkpt lat="44.1468" lon="3.13837">
        <ele>819</ele>
        <time>2015-10-24T11:44:49Z</time>
      </trkpt>
      <trkpt lat="44.14688" lon="3.13829">
        <ele>819</ele>
        <time>2015-10-24T11:44:53Z</time>
      </trkpt>
      <trkpt lat="44.14692" lon="3.13826">
        <ele>820</ele>
        <time>2015-10-24T11:44:55Z</time>
      </trkpt>
      <trkpt lat="44.147" lon="3.13815">
        <ele>820</ele>
        <time>2015-10-24T11:45:00Z</time>
      </trkpt>
      <trkpt lat="44.14707" lon="3.13814">
        <ele>820</ele>
        <time>2015-10-24T11:45:03Z</time>
      </trkpt>
      <trkpt lat="44.14714" lon="3.13813">
        <ele>820</ele>
        <time>2015-10-24T11:45:06Z</time>
      </trkpt>
      <trkpt lat="44.14721" lon="3.13807">
        <ele>820</ele>
        <time>2015-10-24T11:45:10Z</time>
      </trkpt>
      <trkpt lat="44.14729" lon="3.13799">
        <ele>820</ele>
        <time>2015-10-24T11:45:13Z</time>
      </trkpt>
      <trkpt lat="44.14741" lon="3.13796">
        <ele>821</ele>
        <time>2015-10-24T11:45:17Z</time>
      </trkpt>
      <trkpt lat="44.14752" lon="3.13791">
        <ele>822</ele>
        <time>2015-10-24T11:45:21Z</time>
      </trkpt>
      <trkpt lat="44.14757" lon="3.1379">
        <ele>822</ele>
        <time>2015-10-24T11:45:23Z</time>
      </trkpt>
      <trkpt lat="44.14764" lon="3.13781">
        <ele>822</ele>
        <time>2015-10-24T11:45:27Z</time>
      </trkpt>
      <trkpt lat="44.14773" lon="3.13777">
        <ele>822</ele>
        <time>2015-10-24T11:45:30Z</time>
      </trkpt>
      <trkpt lat="44.1478" lon="3.13773">
        <ele>822</ele>
        <time>2015-10-24T11:45:33Z</time>
      </trkpt>
      <trkpt lat="44.1479" lon="3.13769">
        <ele>822</ele>
        <time>2015-10-24T11:45:37Z</time>
      </trkpt>
      <trkpt lat="44.14795" lon="3.13768">
        <ele>822</ele>
        <time>2015-10-24T11:45:39Z</time>
      </trkpt>
      <trkpt lat="44.14805" lon="3.13764">
        <ele>822</ele>
        <time>2015-10-24T11:45:43Z</time>
      </trkpt>
      <trkpt lat="44.14807" lon="3.13763">
        <ele>822</ele>
        <time>2015-10-24T11:45:44Z</time>
      </trkpt>
      <trkpt lat="44.14822" lon="3.13759">
        <ele>822</ele>
        <time>2015-10-24T11:45:49Z</time>
      </trkpt>
      <trkpt lat="44.14833" lon="3.13753">
        <ele>822</ele>
        <time>2015-10-24T11:45:54Z</time>
      </trkpt>
      <trkpt lat="44.1484" lon="3.13746">
        <ele>823</ele>
        <time>2015-10-24T11:45:58Z</time>
      </trkpt>
      <trkpt lat="44.14845" lon="3.13742">
        <ele>824</ele>
        <time>2015-10-24T11:46:01Z</time>
      </trkpt>
      <trkpt lat="44.1485" lon="3.13734">
        <ele>825</ele>
        <time>2015-10-24T11:46:04Z</time>
      </trkpt>
      <trkpt lat="44.14855" lon="3.13725">
        <ele>825</ele>
        <time>2015-10-24T11:46:08Z</time>
      </trkpt>
      <trkpt lat="44.14859" lon="3.13709">
        <ele>826</ele>
        <time>2015-10-24T11:46:13Z</time>
      </trkpt>
      <trkpt lat="44.14856" lon="3.13694">
        <ele>826</ele>
        <time>2015-10-24T11:46:18Z</time>
      </trkpt>
      <trkpt lat="44.14857" lon="3.13685">
        <ele>826</ele>
        <time>2015-10-24T11:46:21Z</time>
      </trkpt>
      <trkpt lat="44.14863" lon="3.13673">
        <ele>827</ele>
        <time>2015-10-24T11:46:26Z</time>
      </trkpt>
      <trkpt lat="44.14869" lon="3.13665">
        <ele>828</ele>
        <time>2015-10-24T11:46:30Z</time>
      </trkpt>
      <trkpt lat="44.14879" lon="3.1365">
        <ele>828</ele>
        <time>2015-10-24T11:46:36Z</time>
      </trkpt>
      <trkpt lat="44.14886" lon="3.13644">
        <ele>828</ele>
        <time>2015-10-24T11:46:39Z</time>
      </trkpt>
      <trkpt lat="44.14898" lon="3.13639">
        <ele>828</ele>
        <time>2015-10-24T11:46:44Z</time>
      </trkpt>
      <trkpt lat="44.14908" lon="3.1364">
        <ele>827</ele>
        <time>2015-10-24T11:46:48Z</time>
      </trkpt>
      <trkpt lat="44.14918" lon="3.13644">
        <ele>826</ele>
        <time>2015-10-24T11:46:52Z</time>
      </trkpt>
      <trkpt lat="44.14926" lon="3.13647">
        <ele>826</ele>
        <time>2015-10-24T11:46:55Z</time>
      </trkpt>
      <trkpt lat="44.14944" lon="3.13652">
        <ele>825</ele>
        <time>2015-10-24T11:47:01Z</time>
      </trkpt>
      <trkpt lat="44.1496" lon="3.13658">
        <ele>825</ele>
        <time>2015-10-24T11:47:07Z</time>
      </trkpt>
      <trkpt lat="44.14971" lon="3.13662">
        <ele>825</ele>
        <time>2015-10-24T11:47:11Z</time>
      </trkpt>
      <trkpt lat="44.1498" lon="3.13663">
        <ele>825</ele>
        <time>2015-10-24T11:47:15Z</time>
      </trkpt>
      <trkpt lat="44.14992" lon="3.13667">
        <ele>826</ele>
        <time>2015-10-24T11:47:20Z</time>
      </trkpt>
      <trkpt lat="44.15" lon="3.13669">
        <ele>825</ele>
        <time>2015-10-24T11:47:23Z</time>
      </trkpt>
      <trkpt lat="44.15006" lon="3.13668">
        <ele>826</ele>
        <time>2015-10-24T11:47:25Z</time>
      </trkpt>
      <trkpt lat="44.15021" lon="3.13666">
        <ele>824</ele>
        <time>2015-10-24T11:47:31Z</time>
      </trkpt>
      <trkpt lat="44.15023" lon="3.13665">
        <ele>824</ele>
        <time>2015-10-24T11:47:32Z</time>
      </trkpt>
      <trkpt lat="44.15034" lon="3.13665">
        <ele>824</ele>
        <time>2015-10-24T11:47:36Z</time>
      </trkpt>
      <trkpt lat="44.15036" lon="3.13663">
        <ele>824</ele>
        <time>2015-10-24T11:47:38Z</time>
      </trkpt>
      <trkpt lat="44.15051" lon="3.13661">
        <ele>824</ele>
        <time>2015-10-24T11:47:43Z</time>
      </trkpt>
      <trkpt lat="44.15061" lon="3.13659">
        <ele>824</ele>
        <time>2015-10-24T11:47:48Z</time>
      </trkpt>
      <trkpt lat="44.15068" lon="3.13658">
        <ele>824</ele>
        <time>2015-10-24T11:47:51Z</time>
      </trkpt>
      <trkpt lat="44.15076" lon="3.13659">
        <ele>824</ele>
        <time>2015-10-24T11:47:54Z</time>
      </trkpt>
      <trkpt lat="44.15085" lon="3.13653">
        <ele>825</ele>
        <time>2015-10-24T11:47:59Z</time>
      </trkpt>
      <trkpt lat="44.15096" lon="3.13651">
        <ele>825</ele>
        <time>2015-10-24T11:48:03Z</time>
      </trkpt>
      <trkpt lat="44.15106" lon="3.13639">
        <ele>826</ele>
        <time>2015-10-24T11:48:08Z</time>
      </trkpt>
      <trkpt lat="44.15109" lon="3.13633">
        <ele>826</ele>
        <time>2015-10-24T11:48:10Z</time>
      </trkpt>
      <trkpt lat="44.15126" lon="3.13619">
        <ele>826</ele>
        <time>2015-10-24T11:48:17Z</time>
      </trkpt>
      <trkpt lat="44.15135" lon="3.13611">
        <ele>827</ele>
        <time>2015-10-24T11:48:21Z</time>
      </trkpt>
      <trkpt lat="44.15137" lon="3.13609">
        <ele>827</ele>
        <time>2015-10-24T11:48:22Z</time>
      </trkpt>
      <trkpt lat="44.15143" lon="3.13595">
        <ele>827</ele>
        <time>2015-10-24T11:48:26Z</time>
      </trkpt>
      <trkpt lat="44.15147" lon="3.13583">
        <ele>826</ele>
        <time>2015-10-24T11:48:30Z</time>
      </trkpt>
      <trkpt lat="44.15148" lon="3.13572">
        <ele>826</ele>
        <time>2015-10-24T11:48:34Z</time>
      </trkpt>
      <trkpt lat="44.15153" lon="3.13559">
        <ele>826</ele>
        <time>2015-10-24T11:48:38Z</time>
      </trkpt>
      <trkpt lat="44.15155" lon="3.13555">
        <ele>826</ele>
        <time>2015-10-24T11:48:40Z</time>
      </trkpt>
      <trkpt lat="44.15155" lon="3.13548">
        <ele>826</ele>
        <time>2015-10-24T11:48:42Z</time>
      </trkpt>
      <trkpt lat="44.15158" lon="3.1353">
        <ele>825</ele>
        <time>2015-10-24T11:48:47Z</time>
      </trkpt>
      <trkpt lat="44.15167" lon="3.13521">
        <ele>829</ele>
        <time>2015-10-24T11:48:51Z</time>
      </trkpt>
      <trkpt lat="44.15171" lon="3.13511">
        <ele>828</ele>
        <time>2015-10-24T11:48:55Z</time>
      </trkpt>
      <trkpt lat="44.15174" lon="3.13498">
        <ele>827</ele>
        <time>2015-10-24T11:49:00Z</time>
      </trkpt>
      <trkpt lat="44.15177" lon="3.13489">
        <ele>828</ele>
        <time>2015-10-24T11:49:03Z</time>
      </trkpt>
      <trkpt lat="44.15178" lon="3.13466">
        <ele>829</ele>
        <time>2015-10-24T11:49:09Z</time>
      </trkpt>
      <trkpt lat="44.15182" lon="3.13452">
        <ele>829</ele>
        <time>2015-10-24T11:49:13Z</time>
      </trkpt>
      <trkpt lat="44.15182" lon="3.13446">
        <ele>829</ele>
        <time>2015-10-24T11:49:14Z</time>
      </trkpt>
      <trkpt lat="44.15189" lon="3.13433">
        <ele>829</ele>
        <time>2015-10-24T11:49:18Z</time>
      </trkpt>
      <trkpt lat="44.15195" lon="3.13421">
        <ele>829</ele>
        <time>2015-10-24T11:49:22Z</time>
      </trkpt>
      <trkpt lat="44.15205" lon="3.1341">
        <ele>828</ele>
        <time>2015-10-24T11:49:27Z</time>
      </trkpt>
      <trkpt lat="44.15211" lon="3.13403">
        <ele>828</ele>
        <time>2015-10-24T11:49:31Z</time>
      </trkpt>
      <trkpt lat="44.15217" lon="3.13397">
        <ele>828</ele>
        <time>2015-10-24T11:49:34Z</time>
      </trkpt>
      <trkpt lat="44.1522" lon="3.13393">
        <ele>828</ele>
        <time>2015-10-24T11:49:36Z</time>
      </trkpt>
      <trkpt lat="44.15225" lon="3.13383">
        <ele>828</ele>
        <time>2015-10-24T11:49:40Z</time>
      </trkpt>
      <trkpt lat="44.15232" lon="3.13371">
        <ele>828</ele>
        <time>2015-10-24T11:49:45Z</time>
      </trkpt>
      <trkpt lat="44.15237" lon="3.13363">
        <ele>828</ele>
        <time>2015-10-24T11:49:49Z</time>
      </trkpt>
      <trkpt lat="44.15243" lon="3.13352">
        <ele>828</ele>
        <time>2015-10-24T11:49:53Z</time>
      </trkpt>
      <trkpt lat="44.15248" lon="3.13346">
        <ele>828</ele>
        <time>2015-10-24T11:49:56Z</time>
      </trkpt>
      <trkpt lat="44.15253" lon="3.13343">
        <ele>829</ele>
        <time>2015-10-24T11:49:59Z</time>
      </trkpt>
      <trkpt lat="44.15259" lon="3.1334">
        <ele>829</ele>
        <time>2015-10-24T11:50:02Z</time>
      </trkpt>
      <trkpt lat="44.15274" lon="3.13336">
        <ele>829</ele>
        <time>2015-10-24T11:50:09Z</time>
      </trkpt>
      <trkpt lat="44.15278" lon="3.13336">
        <ele>829</ele>
        <time>2015-10-24T11:50:11Z</time>
      </trkpt>
      <trkpt lat="44.15286" lon="3.13337">
        <ele>830</ele>
        <time>2015-10-24T11:50:15Z</time>
      </trkpt>
      <trkpt lat="44.15295" lon="3.13344">
        <ele>830</ele>
        <time>2015-10-24T11:50:19Z</time>
      </trkpt>
      <trkpt lat="44.15297" lon="3.13347">
        <ele>830</ele>
        <time>2015-10-24T11:50:20Z</time>
      </trkpt>
      <trkpt lat="44.15308" lon="3.13361">
        <ele>830</ele>
        <time>2015-10-24T11:50:25Z</time>
      </trkpt>
      <trkpt lat="44.15312" lon="3.13366">
        <ele>830</ele>
        <time>2015-10-24T11:50:27Z</time>
      </trkpt>
      <trkpt lat="44.15324" lon="3.13376">
        <ele>830</ele>
        <time>2015-10-24T11:50:32Z</time>
      </trkpt>
      <trkpt lat="44.15334" lon="3.13384">
        <ele>831</ele>
        <time>2015-10-24T11:50:36Z</time>
      </trkpt>
      <trkpt lat="44.1535" lon="3.13394">
        <ele>831</ele>
        <time>2015-10-24T11:50:41Z</time>
      </trkpt>
      <trkpt lat="44.15357" lon="3.13398">
        <ele>831</ele>
        <time>2015-10-24T11:50:45Z</time>
      </trkpt>
      <trkpt lat="44.15363" lon="3.134">
        <ele>831</ele>
        <time>2015-10-24T11:50:48Z</time>
      </trkpt>
      <trkpt lat="44.15373" lon="3.13404">
        <ele>831</ele>
        <time>2015-10-24T11:50:53Z</time>
      </trkpt>
      <trkpt lat="44.15383" lon="3.13412">
        <ele>831</ele>
        <time>2015-10-24T11:50:58Z</time>
      </trkpt>
      <trkpt lat="44.15394" lon="3.13418">
        <ele>831</ele>
        <time>2015-10-24T11:51:03Z</time>
      </trkpt>
      <trkpt lat="44.15402" lon="3.13422">
        <ele>831</ele>
        <time>2015-10-24T11:51:06Z</time>
      </trkpt>
      <trkpt lat="44.15406" lon="3.13427">
        <ele>831</ele>
        <time>2015-10-24T11:51:08Z</time>
      </trkpt>
      <trkpt lat="44.15413" lon="3.13436">
        <ele>831</ele>
        <time>2015-10-24T11:51:12Z</time>
      </trkpt>
      <trkpt lat="44.1542" lon="3.13443">
        <ele>831</ele>
        <time>2015-10-24T11:51:16Z</time>
      </trkpt>
      <trkpt lat="44.15422" lon="3.13445">
        <ele>831</ele>
        <time>2015-10-24T11:51:17Z</time>
      </trkpt>
      <trkpt lat="44.15436" lon="3.13453">
        <ele>831</ele>
        <time>2015-10-24T11:51:23Z</time>
      </trkpt>
      <trkpt lat="44.15443" lon="3.13459">
        <ele>831</ele>
        <time>2015-10-24T11:51:26Z</time>
      </trkpt>
      <trkpt lat="44.15449" lon="3.13461">
        <ele>831</ele>
        <time>2015-10-24T11:51:29Z</time>
      </trkpt>
      <trkpt lat="44.15462" lon="3.13462">
        <ele>831</ele>
        <time>2015-10-24T11:51:34Z</time>
      </trkpt>
      <trkpt lat="44.15479" lon="3.13461">
        <ele>831</ele>
        <time>2015-10-24T11:51:40Z</time>
      </trkpt>
      <trkpt lat="44.15493" lon="3.13456">
        <ele>831</ele>
        <time>2015-10-24T11:51:45Z</time>
      </trkpt>
      <trkpt lat="44.15501" lon="3.13447">
        <ele>831</ele>
        <time>2015-10-24T11:51:49Z</time>
      </trkpt>
      <trkpt lat="44.15506" lon="3.13439">
        <ele>831</ele>
        <time>2015-10-24T11:51:52Z</time>
      </trkpt>
      <trkpt lat="44.15512" lon="3.13423">
        <ele>832</ele>
        <time>2015-10-24T11:51:57Z</time>
      </trkpt>
      <trkpt lat="44.15518" lon="3.13411">
        <ele>832</ele>
        <time>2015-10-24T11:52:01Z</time>
      </trkpt>
      <trkpt lat="44.15521" lon="3.13405">
        <ele>832</ele>
        <time>2015-10-24T11:52:03Z</time>
      </trkpt>
      <trkpt lat="44.15527" lon="3.13399">
        <ele>832</ele>
        <time>2015-10-24T11:52:06Z</time>
      </trkpt>
      <trkpt lat="44.1553" lon="3.13386">
        <ele>832</ele>
        <time>2015-10-24T11:52:10Z</time>
      </trkpt>
      <trkpt lat="44.15539" lon="3.13377">
        <ele>832</ele>
        <time>2015-10-24T11:52:14Z</time>
      </trkpt>
      <trkpt lat="44.15544" lon="3.13368">
        <ele>832</ele>
        <time>2015-10-24T11:52:17Z</time>
      </trkpt>
      <trkpt lat="44.15548" lon="3.1336">
        <ele>832</ele>
        <time>2015-10-24T11:52:20Z</time>
      </trkpt>
      <trkpt lat="44.15551" lon="3.13347">
        <ele>832</ele>
        <time>2015-10-24T11:52:24Z</time>
      </trkpt>
      <trkpt lat="44.15556" lon="3.13336">
        <ele>832</ele>
        <time>2015-10-24T11:52:27Z</time>
      </trkpt>
      <trkpt lat="44.15562" lon="3.13322">
        <ele>832</ele>
        <time>2015-10-24T11:52:31Z</time>
      </trkpt>
      <trkpt lat="44.15568" lon="3.13311">
        <ele>832</ele>
        <time>2015-10-24T11:52:35Z</time>
      </trkpt>
      <trkpt lat="44.15576" lon="3.133">
        <ele>832</ele>
        <time>2015-10-24T11:52:40Z</time>
      </trkpt>
      <trkpt lat="44.15576" lon="3.13294">
        <ele>832</ele>
        <time>2015-10-24T11:52:42Z</time>
      </trkpt>
      <trkpt lat="44.15582" lon="3.13282">
        <ele>832</ele>
        <time>2015-10-24T11:52:46Z</time>
      </trkpt>
      <trkpt lat="44.15587" lon="3.13277">
        <ele>832</ele>
        <time>2015-10-24T11:52:48Z</time>
      </trkpt>
      <trkpt lat="44.15594" lon="3.13265">
        <ele>832</ele>
        <time>2015-10-24T11:52:53Z</time>
      </trkpt>
      <trkpt lat="44.15597" lon="3.13261">
        <ele>832</ele>
        <time>2015-10-24T11:52:55Z</time>
      </trkpt>
      <trkpt lat="44.15604" lon="3.13251">
        <ele>832</ele>
        <time>2015-10-24T11:52:59Z</time>
      </trkpt>
      <trkpt lat="44.15606" lon="3.13245">
        <ele>832</ele>
        <time>2015-10-24T11:53:01Z</time>
      </trkpt>
      <trkpt lat="44.15614" lon="3.13229">
        <ele>832</ele>
        <time>2015-10-24T11:53:06Z</time>
      </trkpt>
      <trkpt lat="44.15619" lon="3.13218">
        <ele>832</ele>
        <time>2015-10-24T11:53:10Z</time>
      </trkpt>
      <trkpt lat="44.15624" lon="3.13206">
        <ele>832</ele>
        <time>2015-10-24T11:53:14Z</time>
      </trkpt>
      <trkpt lat="44.15627" lon="3.13192">
        <ele>832</ele>
        <time>2015-10-24T11:53:18Z</time>
      </trkpt>
      <trkpt lat="44.15628" lon="3.13189">
        <ele>832</ele>
        <time>2015-10-24T11:53:19Z</time>
      </trkpt>
      <trkpt lat="44.15633" lon="3.13181">
        <ele>832</ele>
        <time>2015-10-24T11:53:23Z</time>
      </trkpt>
      <trkpt lat="44.15636" lon="3.13175">
        <ele>832</ele>
        <time>2015-10-24T11:53:25Z</time>
      </trkpt>
      <trkpt lat="44.15643" lon="3.1316">
        <ele>830</ele>
        <time>2015-10-24T11:53:30Z</time>
      </trkpt>
      <trkpt lat="44.15651" lon="3.13149">
        <ele>830</ele>
        <time>2015-10-24T11:53:34Z</time>
      </trkpt>
      <trkpt lat="44.15659" lon="3.13137">
        <ele>830</ele>
        <time>2015-10-24T11:53:39Z</time>
      </trkpt>
      <trkpt lat="44.15663" lon="3.13126">
        <ele>830</ele>
        <time>2015-10-24T11:53:42Z</time>
      </trkpt>
      <trkpt lat="44.1567" lon="3.13112">
        <ele>829</ele>
        <time>2015-10-24T11:53:46Z</time>
      </trkpt>
      <trkpt lat="44.15678" lon="3.13097">
        <ele>829</ele>
        <time>2015-10-24T11:53:51Z</time>
      </trkpt>
      <trkpt lat="44.15683" lon="3.13084">
        <ele>829</ele>
        <time>2015-10-24T11:53:54Z</time>
      </trkpt>
      <trkpt lat="44.1569" lon="3.13074">
        <ele>828</ele>
        <time>2015-10-24T11:53:58Z</time>
      </trkpt>
      <trkpt lat="44.15693" lon="3.13068">
        <ele>828</ele>
        <time>2015-10-24T11:54:00Z</time>
      </trkpt>
      <trkpt lat="44.15702" lon="3.13053">
        <ele>828</ele>
        <time>2015-10-24T11:54:05Z</time>
      </trkpt>
      <trkpt lat="44.15705" lon="3.13046">
        <ele>828</ele>
        <time>2015-10-24T11:54:07Z</time>
      </trkpt>
      <trkpt lat="44.15715" lon="3.13024">
        <ele>828</ele>
        <time>2015-10-24T11:54:13Z</time>
      </trkpt>
      <trkpt lat="44.1572" lon="3.13014">
        <ele>828</ele>
        <time>2015-10-24T11:54:16Z</time>
      </trkpt>
      <trkpt lat="44.15727" lon="3.13004">
        <ele>828</ele>
        <time>2015-10-24T11:54:20Z</time>
      </trkpt>
      <trkpt lat="44.15733" lon="3.12994">
        <ele>827</ele>
        <time>2015-10-24T11:54:24Z</time>
      </trkpt>
      <trkpt lat="44.15734" lon="3.12986">
        <ele>827</ele>
        <time>2015-10-24T11:54:27Z</time>
      </trkpt>
      <trkpt lat="44.15735" lon="3.12978">
        <ele>827</ele>
        <time>2015-10-24T11:54:29Z</time>
      </trkpt>
      <trkpt lat="44.15737" lon="3.12969">
        <ele>827</ele>
        <time>2015-10-24T11:54:32Z</time>
      </trkpt>
      <trkpt lat="44.15744" lon="3.12964">
        <ele>827</ele>
        <time>2015-10-24T11:54:35Z</time>
      </trkpt>
      <trkpt lat="44.15747" lon="3.12958">
        <ele>827</ele>
        <time>2015-10-24T11:54:37Z</time>
      </trkpt>
      <trkpt lat="44.15747" lon="3.12953">
        <ele>827</ele>
        <time>2015-10-24T11:54:38Z</time>
      </trkpt>
      <trkpt lat="44.15749" lon="3.12945">
        <ele>827</ele>
        <time>2015-10-24T11:54:40Z</time>
      </trkpt>
      <trkpt lat="44.15759" lon="3.12931">
        <ele>827</ele>
        <time>2015-10-24T11:54:44Z</time>
      </trkpt>
      <trkpt lat="44.15767" lon="3.12921">
        <ele>827</ele>
        <time>2015-10-24T11:54:49Z</time>
      </trkpt>
      <trkpt lat="44.15774" lon="3.12905">
        <ele>826</ele>
        <time>2015-10-24T11:54:53Z</time>
      </trkpt>
      <trkpt lat="44.15779" lon="3.12895">
        <ele>826</ele>
        <time>2015-10-24T11:54:56Z</time>
      </trkpt>
      <trkpt lat="44.15786" lon="3.12875">
        <ele>825</ele>
        <time>2015-10-24T11:55:01Z</time>
      </trkpt>
      <trkpt lat="44.15794" lon="3.12865">
        <ele>825</ele>
        <time>2015-10-24T11:55:06Z</time>
      </trkpt>
      <trkpt lat="44.158" lon="3.12858">
        <ele>825</ele>
        <time>2015-10-24T11:55:09Z</time>
      </trkpt>
      <trkpt lat="44.15811" lon="3.12846">
        <ele>824</ele>
        <time>2015-10-24T11:55:15Z</time>
      </trkpt>
      <trkpt lat="44.15815" lon="3.12843">
        <ele>823</ele>
        <time>2015-10-24T11:55:17Z</time>
      </trkpt>
      <trkpt lat="44.15824" lon="3.12835">
        <ele>822</ele>
        <time>2015-10-24T11:55:21Z</time>
      </trkpt>
      <trkpt lat="44.15832" lon="3.12831">
        <ele>821</ele>
        <time>2015-10-24T11:55:25Z</time>
      </trkpt>
      <trkpt lat="44.15845" lon="3.12833">
        <ele>813</ele>
        <time>2015-10-24T11:55:31Z</time>
      </trkpt>
      <trkpt lat="44.15858" lon="3.12838">
        <ele>818</ele>
        <time>2015-10-24T11:55:36Z</time>
      </trkpt>
      <trkpt lat="44.15861" lon="3.12837">
        <ele>817</ele>
        <time>2015-10-24T11:55:38Z</time>
      </trkpt>
      <trkpt lat="44.15864" lon="3.12837">
        <ele>817</ele>
        <time>2015-10-24T11:55:40Z</time>
      </trkpt>
      <trkpt lat="44.1587" lon="3.12843">
        <ele>816</ele>
        <time>2015-10-24T11:55:45Z</time>
      </trkpt>
      <trkpt lat="44.15872" lon="3.12848">
        <ele>816</ele>
        <time>2015-10-24T11:55:47Z</time>
      </trkpt>
      <trkpt lat="44.15874" lon="3.12851">
        <ele>816</ele>
        <time>2015-10-24T11:55:49Z</time>
      </trkpt>
      <trkpt lat="44.15883" lon="3.12861">
        <ele>816</ele>
        <time>2015-10-24T11:55:55Z</time>
      </trkpt>
      <trkpt lat="44.15885" lon="3.12863">
        <ele>816</ele>
        <time>2015-10-24T11:55:56Z</time>
      </trkpt>
      <trkpt lat="44.1589" lon="3.12871">
        <ele>816</ele>
        <time>2015-10-24T11:56:00Z</time>
      </trkpt>
      <trkpt lat="44.15896" lon="3.12877">
        <ele>816</ele>
        <time>2015-10-24T11:56:05Z</time>
      </trkpt>
      <trkpt lat="44.15897" lon="3.12882">
        <ele>817</ele>
        <time>2015-10-24T11:56:08Z</time>
      </trkpt>
      <trkpt lat="44.15909" lon="3.12881">
        <ele>817</ele>
        <time>2015-10-24T11:56:14Z</time>
      </trkpt>
      <trkpt lat="44.15917" lon="3.12882">
        <ele>806</ele>
        <time>2015-10-24T11:56:17Z</time>
      </trkpt>
      <trkpt lat="44.15924" lon="3.12888">
        <ele>807</ele>
        <time>2015-10-24T11:56:20Z</time>
      </trkpt>
      <trkpt lat="44.15932" lon="3.12894">
        <ele>807</ele>
        <time>2015-10-24T11:56:24Z</time>
      </trkpt>
      <trkpt lat="44.15934" lon="3.12894">
        <ele>807</ele>
        <time>2015-10-24T11:56:25Z</time>
      </trkpt>
      <trkpt lat="44.1594" lon="3.12906">
        <ele>808</ele>
        <time>2015-10-24T11:56:30Z</time>
      </trkpt>
      <trkpt lat="44.15944" lon="3.1292">
        <ele>817</ele>
        <time>2015-10-24T11:56:35Z</time>
      </trkpt>
      <trkpt lat="44.15944" lon="3.12925">
        <ele>817</ele>
        <time>2015-10-24T11:56:37Z</time>
      </trkpt>
      <trkpt lat="44.15949" lon="3.12944">
        <ele>817</ele>
        <time>2015-10-24T11:56:43Z</time>
      </trkpt>
      <trkpt lat="44.15953" lon="3.12957">
        <ele>817</ele>
        <time>2015-10-24T11:56:47Z</time>
      </trkpt>
      <trkpt lat="44.15955" lon="3.1296">
        <ele>817</ele>
        <time>2015-10-24T11:56:48Z</time>
      </trkpt>
      <trkpt lat="44.1596" lon="3.12968">
        <ele>817</ele>
        <time>2015-10-24T11:56:52Z</time>
      </trkpt>
      <trkpt lat="44.15963" lon="3.1298">
        <ele>818</ele>
        <time>2015-10-24T11:56:56Z</time>
      </trkpt>
      <trkpt lat="44.15962" lon="3.1299">
        <ele>818</ele>
        <time>2015-10-24T11:56:59Z</time>
      </trkpt>
      <trkpt lat="44.15961" lon="3.13">
        <ele>824</ele>
        <time>2015-10-24T11:57:03Z</time>
      </trkpt>
      <trkpt lat="44.15966" lon="3.1301">
        <ele>824</ele>
        <time>2015-10-24T11:57:07Z</time>
      </trkpt>
      <trkpt lat="44.15971" lon="3.13014">
        <ele>824</ele>
        <time>2015-10-24T11:57:12Z</time>
      </trkpt>
      <trkpt lat="44.15981" lon="3.13024">
        <ele>824</ele>
        <time>2015-10-24T11:57:17Z</time>
      </trkpt>
      <trkpt lat="44.15987" lon="3.13036">
        <ele>824</ele>
        <time>2015-10-24T11:57:23Z</time>
      </trkpt>
      <trkpt lat="44.15991" lon="3.13036">
        <ele>824</ele>
        <time>2015-10-24T11:57:26Z</time>
      </trkpt>
      <trkpt lat="44.16" lon="3.1304">
        <ele>824</ele>
        <time>2015-10-24T11:57:32Z</time>
      </trkpt>
      <trkpt lat="44.16007" lon="3.13044">
        <ele>823</ele>
        <time>2015-10-24T11:57:38Z</time>
      </trkpt>
      <trkpt lat="44.16011" lon="3.13045">
        <ele>823</ele>
        <time>2015-10-24T11:57:41Z</time>
      </trkpt>
      <trkpt lat="44.16018" lon="3.13047">
        <ele>823</ele>
        <time>2015-10-24T11:57:46Z</time>
      </trkpt>
      <trkpt lat="44.16027" lon="3.13044">
        <ele>823</ele>
        <time>2015-10-24T11:57:51Z</time>
      </trkpt>
      <trkpt lat="44.16028" lon="3.13043">
        <ele>823</ele>
        <time>2015-10-24T11:57:52Z</time>
      </trkpt>
      <trkpt lat="44.16039" lon="3.13044">
        <ele>823</ele>
        <time>2015-10-24T11:57:57Z</time>
      </trkpt>
      <trkpt lat="44.16047" lon="3.13045">
        <ele>823</ele>
        <time>2015-10-24T11:58:01Z</time>
      </trkpt>
      <trkpt lat="44.16051" lon="3.13049">
        <ele>823</ele>
        <time>2015-10-24T11:58:04Z</time>
      </trkpt>
      <trkpt lat="44.1606" lon="3.13055">
        <ele>824</ele>
        <time>2015-10-24T11:58:08Z</time>
      </trkpt>
      <trkpt lat="44.16062" lon="3.13056">
        <ele>824</ele>
        <time>2015-10-24T11:58:09Z</time>
      </trkpt>
      <trkpt lat="44.16069" lon="3.13057">
        <ele>824</ele>
        <time>2015-10-24T11:58:13Z</time>
      </trkpt>
      <trkpt lat="44.16072" lon="3.13045">
        <ele>823</ele>
        <time>2015-10-24T11:58:16Z</time>
      </trkpt>
      <trkpt lat="44.16072" lon="3.13043">
        <ele>823</ele>
        <time>2015-10-24T11:58:17Z</time>
      </trkpt>
      <trkpt lat="44.16076" lon="3.13028">
        <ele>821</ele>
        <time>2015-10-24T11:58:22Z</time>
      </trkpt>
      <trkpt lat="44.16079" lon="3.1302">
        <ele>820</ele>
        <time>2015-10-24T11:58:25Z</time>
      </trkpt>
      <trkpt lat="44.16083" lon="3.13014">
        <ele>820</ele>
        <time>2015-10-24T11:58:28Z</time>
      </trkpt>
      <trkpt lat="44.16091" lon="3.13008">
        <ele>819</ele>
        <time>2015-10-24T11:58:32Z</time>
      </trkpt>
      <trkpt lat="44.16097" lon="3.13005">
        <ele>819</ele>
        <time>2015-10-24T11:58:37Z</time>
      </trkpt>
      <trkpt lat="44.16098" lon="3.13003">
        <ele>819</ele>
        <time>2015-10-24T11:58:45Z</time>
      </trkpt>
      <trkpt lat="44.16098" lon="3.12998">
        <ele>808</ele>
        <time>2015-10-24T11:58:56Z</time>
      </trkpt>
      <trkpt lat="44.16099" lon="3.12997">
        <ele>808</ele>
        <time>2015-10-24T11:58:57Z</time>
      </trkpt>
      <trkpt lat="44.16108" lon="3.12992">
        <ele>805</ele>
        <time>2015-10-24T11:59:04Z</time>
      </trkpt>
      <trkpt lat="44.16115" lon="3.12986">
        <ele>803</ele>
        <time>2015-10-24T11:59:11Z</time>
      </trkpt>
      <trkpt lat="44.16121" lon="3.12988">
        <ele>803</ele>
        <time>2015-10-24T11:59:16Z</time>
      </trkpt>
      <trkpt lat="44.16125" lon="3.12985">
        <ele>802</ele>
        <time>2015-10-24T11:59:19Z</time>
      </trkpt>
      <trkpt lat="44.16132" lon="3.12985">
        <ele>802</ele>
        <time>2015-10-24T11:59:24Z</time>
      </trkpt>
      <trkpt lat="44.16139" lon="3.12987">
        <ele>803</ele>
        <time>2015-10-24T11:59:27Z</time>
      </trkpt>
      <trkpt lat="44.16145" lon="3.12992">
        <ele>804</ele>
        <time>2015-10-24T11:59:30Z</time>
      </trkpt>
      <trkpt lat="44.16143" lon="3.13007">
        <ele>819</ele>
        <time>2015-10-24T11:59:35Z</time>
      </trkpt>
      <trkpt lat="44.16136" lon="3.13021">
        <ele>820</ele>
        <time>2015-10-24T11:59:40Z</time>
      </trkpt>
      <trkpt lat="44.1614" lon="3.13027">
        <ele>821</ele>
        <time>2015-10-24T11:59:42Z</time>
      </trkpt>
      <trkpt lat="44.16145" lon="3.13031">
        <ele>821</ele>
        <time>2015-10-24T11:59:44Z</time>
      </trkpt>
      <trkpt lat="44.16155" lon="3.13038">
        <ele>822</ele>
        <time>2015-10-24T11:59:49Z</time>
      </trkpt>
      <trkpt lat="44.16161" lon="3.13038">
        <ele>821</ele>
        <time>2015-10-24T11:59:53Z</time>
      </trkpt>
      <trkpt lat="44.16163" lon="3.13042">
        <ele>822</ele>
        <time>2015-10-24T11:59:55Z</time>
      </trkpt>
      <trkpt lat="44.16174" lon="3.13042">
        <ele>812</ele>
        <time>2015-10-24T11:59:59Z</time>
      </trkpt>
      <trkpt lat="44.16174" lon="3.1305">
        <ele>813</ele>
        <time>2015-10-24T12:00:02Z</time>
      </trkpt>
      <trkpt lat="44.16174" lon="3.13058">
        <ele>815</ele>
        <time>2015-10-24T12:00:05Z</time>
      </trkpt>
      <trkpt lat="44.16173" lon="3.13072">
        <ele>820</ele>
        <time>2015-10-24T12:00:09Z</time>
      </trkpt>
      <trkpt lat="44.16175" lon="3.13082">
        <ele>823</ele>
        <time>2015-10-24T12:00:13Z</time>
      </trkpt>
      <trkpt lat="44.16178" lon="3.13087">
        <ele>827</ele>
        <time>2015-10-24T12:00:15Z</time>
      </trkpt>
      <trkpt lat="44.16184" lon="3.13102">
        <ele>826</ele>
        <time>2015-10-24T12:00:20Z</time>
      </trkpt>
      <trkpt lat="44.16186" lon="3.13114">
        <ele>826</ele>
        <time>2015-10-24T12:00:25Z</time>
      </trkpt>
      <trkpt lat="44.16192" lon="3.13115">
        <ele>826</ele>
        <time>2015-10-24T12:00:28Z</time>
      </trkpt>
      <trkpt lat="44.16207" lon="3.13116">
        <ele>825</ele>
        <time>2015-10-24T12:00:34Z</time>
      </trkpt>
      <trkpt lat="44.16216" lon="3.13117">
        <ele>824</ele>
        <time>2015-10-24T12:00:38Z</time>
      </trkpt>
      <trkpt lat="44.16224" lon="3.13122">
        <ele>824</ele>
        <time>2015-10-24T12:00:43Z</time>
      </trkpt>
      <trkpt lat="44.16228" lon="3.13125">
        <ele>824</ele>
        <time>2015-10-24T12:00:45Z</time>
      </trkpt>
      <trkpt lat="44.16237" lon="3.13132">
        <ele>825</ele>
        <time>2015-10-24T12:00:50Z</time>
      </trkpt>
      <trkpt lat="44.16245" lon="3.1314">
        <ele>826</ele>
        <time>2015-10-24T12:00:55Z</time>
      </trkpt>
      <trkpt lat="44.16251" lon="3.13148">
        <ele>820</ele>
        <time>2015-10-24T12:00:59Z</time>
      </trkpt>
      <trkpt lat="44.16257" lon="3.13157">
        <ele>823</ele>
        <time>2015-10-24T12:01:03Z</time>
      </trkpt>
      <trkpt lat="44.16267" lon="3.13165">
        <ele>821</ele>
        <time>2015-10-24T12:01:08Z</time>
      </trkpt>
      <trkpt lat="44.16277" lon="3.13174">
        <ele>830</ele>
        <time>2015-10-24T12:01:13Z</time>
      </trkpt>
      <trkpt lat="44.16284" lon="3.13185">
        <ele>830</ele>
        <time>2015-10-24T12:01:18Z</time>
      </trkpt>
      <trkpt lat="44.16287" lon="3.13187">
        <ele>830</ele>
        <time>2015-10-24T12:01:19Z</time>
      </trkpt>
      <trkpt lat="44.16297" lon="3.13195">
        <ele>830</ele>
        <time>2015-10-24T12:01:24Z</time>
      </trkpt>
      <trkpt lat="44.16304" lon="3.13203">
        <ele>830</ele>
        <time>2015-10-24T12:01:29Z</time>
      </trkpt>
      <trkpt lat="44.16307" lon="3.13202">
        <ele>830</ele>
        <time>2015-10-24T12:01:31Z</time>
      </trkpt>
      <trkpt lat="44.16313" lon="3.13201">
        <ele>829</ele>
        <time>2015-10-24T12:01:35Z</time>
      </trkpt>
      <trkpt lat="44.16316" lon="3.13204">
        <ele>829</ele>
        <time>2015-10-24T12:01:38Z</time>
      </trkpt>
      <trkpt lat="44.16326" lon="3.13213">
        <ele>831</ele>
        <time>2015-10-24T12:01:43Z</time>
      </trkpt>
      <trkpt lat="44.16336" lon="3.13223">
        <ele>824</ele>
        <time>2015-10-24T12:01:47Z</time>
      </trkpt>
      <trkpt lat="44.16341" lon="3.13225">
        <ele>824</ele>
        <time>2015-10-24T12:01:49Z</time>
      </trkpt>
      <trkpt lat="44.1635" lon="3.13228">
        <ele>824</ele>
        <time>2015-10-24T12:01:53Z</time>
      </trkpt>
      <trkpt lat="44.16353" lon="3.13229">
        <ele>823</ele>
        <time>2015-10-24T12:01:54Z</time>
      </trkpt>
      <trkpt lat="44.16366" lon="3.13233">
        <ele>821</ele>
        <time>2015-10-24T12:01:59Z</time>
      </trkpt>
      <trkpt lat="44.16372" lon="3.13239">
        <ele>821</ele>
        <time>2015-10-24T12:02:02Z</time>
      </trkpt>
      <trkpt lat="44.16376" lon="3.13243">
        <ele>821</ele>
        <time>2015-10-24T12:02:04Z</time>
      </trkpt>
      <trkpt lat="44.1638" lon="3.1325">
        <ele>834</ele>
        <time>2015-10-24T12:02:08Z</time>
      </trkpt>
      <trkpt lat="44.16383" lon="3.13254">
        <ele>834</ele>
        <time>2015-10-24T12:02:11Z</time>
      </trkpt>
      <trkpt lat="44.16393" lon="3.13254">
        <ele>832</ele>
        <time>2015-10-24T12:02:15Z</time>
      </trkpt>
      <trkpt lat="44.16404" lon="3.13259">
        <ele>831</ele>
        <time>2015-10-24T12:02:19Z</time>
      </trkpt>
      <trkpt lat="44.16412" lon="3.13263">
        <ele>830</ele>
        <time>2015-10-24T12:02:22Z</time>
      </trkpt>
      <trkpt lat="44.16417" lon="3.13263">
        <ele>826</ele>
        <time>2015-10-24T12:02:24Z</time>
      </trkpt>
      <trkpt lat="44.16431" lon="3.13268">
        <ele>826</ele>
        <time>2015-10-24T12:02:30Z</time>
      </trkpt>
      <trkpt lat="44.16435" lon="3.1327">
        <ele>826</ele>
        <time>2015-10-24T12:02:32Z</time>
      </trkpt>
      <trkpt lat="44.16443" lon="3.13279">
        <ele>826</ele>
        <time>2015-10-24T12:02:36Z</time>
      </trkpt>
      <trkpt lat="44.16451" lon="3.13284">
        <ele>826</ele>
        <time>2015-10-24T12:02:39Z</time>
      </trkpt>
      <trkpt lat="44.16458" lon="3.13286">
        <ele>826</ele>
        <time>2015-10-24T12:02:42Z</time>
      </trkpt>
      <trkpt lat="44.16466" lon="3.13285">
        <ele>825</ele>
        <time>2015-10-24T12:02:44Z</time>
      </trkpt>
      <trkpt lat="44.16482" lon="3.13286">
        <ele>824</ele>
        <time>2015-10-24T12:02:49Z</time>
      </trkpt>
      <trkpt lat="44.16495" lon="3.13292">
        <ele>825</ele>
        <time>2015-10-24T12:02:54Z</time>
      </trkpt>
      <trkpt lat="44.16506" lon="3.13296">
        <ele>813</ele>
        <time>2015-10-24T12:02:58Z</time>
      </trkpt>
      <trkpt lat="44.16508" lon="3.13297">
        <ele>813</ele>
        <time>2015-10-24T12:02:59Z</time>
      </trkpt>
      <trkpt lat="44.16521" lon="3.13295">
        <ele>811</ele>
        <time>2015-10-24T12:03:03Z</time>
      </trkpt>
      <trkpt lat="44.16528" lon="3.133">
        <ele>811</ele>
        <time>2015-10-24T12:03:06Z</time>
      </trkpt>
      <trkpt lat="44.16534" lon="3.13305">
        <ele>811</ele>
        <time>2015-10-24T12:03:09Z</time>
      </trkpt>
      <trkpt lat="44.16538" lon="3.13317">
        <ele>813</ele>
        <time>2015-10-24T12:03:13Z</time>
      </trkpt>
      <trkpt lat="44.16545" lon="3.13325">
        <ele>813</ele>
        <time>2015-10-24T12:03:17Z</time>
      </trkpt>
      <trkpt lat="44.16554" lon="3.1333">
        <ele>812</ele>
        <time>2015-10-24T12:03:21Z</time>
      </trkpt>
      <trkpt lat="44.16559" lon="3.13337">
        <ele>825</ele>
        <time>2015-10-24T12:03:24Z</time>
      </trkpt>
      <trkpt lat="44.16565" lon="3.13341">
        <ele>824</ele>
        <time>2015-10-24T12:03:28Z</time>
      </trkpt>
      <trkpt lat="44.16572" lon="3.13341">
        <ele>822</ele>
        <time>2015-10-24T12:03:31Z</time>
      </trkpt>
      <trkpt lat="44.1658" lon="3.13346">
        <ele>822</ele>
        <time>2015-10-24T12:03:35Z</time>
      </trkpt>
      <trkpt lat="44.16585" lon="3.13357">
        <ele>816</ele>
        <time>2015-10-24T12:03:39Z</time>
      </trkpt>
      <trkpt lat="44.16589" lon="3.13365">
        <ele>817</ele>
        <time>2015-10-24T12:03:42Z</time>
      </trkpt>
      <trkpt lat="44.16594" lon="3.13371">
        <ele>818</ele>
        <time>2015-10-24T12:03:45Z</time>
      </trkpt>
      <trkpt lat="44.16605" lon="3.13374">
        <ele>817</ele>
        <time>2015-10-24T12:03:49Z</time>
      </trkpt>
      <trkpt lat="44.1661" lon="3.13376">
        <ele>817</ele>
        <time>2015-10-24T12:03:51Z</time>
      </trkpt>
      <trkpt lat="44.16619" lon="3.13372">
        <ele>815</ele>
        <time>2015-10-24T12:03:56Z</time>
      </trkpt>
      <trkpt lat="44.16623" lon="3.13376">
        <ele>815</ele>
        <time>2015-10-24T12:04:00Z</time>
      </trkpt>
      <trkpt lat="44.16624" lon="3.13378">
        <ele>816</ele>
        <time>2015-10-24T12:04:01Z</time>
      </trkpt>
      <trkpt lat="44.16626" lon="3.13382">
        <ele>816</ele>
        <time>2015-10-24T12:04:03Z</time>
      </trkpt>
      <trkpt lat="44.16631" lon="3.13389">
        <ele>817</ele>
        <time>2015-10-24T12:04:08Z</time>
      </trkpt>
      <trkpt lat="44.16635" lon="3.13392">
        <ele>817</ele>
        <time>2015-10-24T12:04:13Z</time>
      </trkpt>
      <trkpt lat="44.16636" lon="3.13392">
        <ele>817</ele>
        <time>2015-10-24T12:04:14Z</time>
      </trkpt>
      <trkpt lat="44.16639" lon="3.1339">
        <ele>817</ele>
        <time>2015-10-24T12:04:16Z</time>
      </trkpt>
      <trkpt lat="44.16646" lon="3.1339">
        <ele>816</ele>
        <time>2015-10-24T12:04:21Z</time>
      </trkpt>
      <trkpt lat="44.16649" lon="3.13389">
        <ele>816</ele>
        <time>2015-10-24T12:04:23Z</time>
      </trkpt>
      <trkpt lat="44.16656" lon="3.13397">
        <ele>818</ele>
        <time>2015-10-24T12:04:29Z</time>
      </trkpt>
      <trkpt lat="44.16659" lon="3.134">
        <ele>819</ele>
        <time>2015-10-24T12:04:31Z</time>
      </trkpt>
      <trkpt lat="44.16669" lon="3.13405">
        <ele>810</ele>
        <time>2015-10-24T12:04:36Z</time>
      </trkpt>
      <trkpt lat="44.1667" lon="3.13413">
        <ele>818</ele>
        <time>2015-10-24T12:04:40Z</time>
      </trkpt>
      <trkpt lat="44.16674" lon="3.13417">
        <ele>823</ele>
        <time>2015-10-24T12:04:44Z</time>
      </trkpt>
      <trkpt lat="44.16676" lon="3.13418">
        <ele>822</ele>
        <time>2015-10-24T12:04:45Z</time>
      </trkpt>
      <trkpt lat="44.16686" lon="3.13429">
        <ele>819</ele>
        <time>2015-10-24T12:04:51Z</time>
      </trkpt>
      <trkpt lat="44.16691" lon="3.13436">
        <ele>818</ele>
        <time>2015-10-24T12:04:55Z</time>
      </trkpt>
      <trkpt lat="44.16696" lon="3.13441">
        <ele>818</ele>
        <time>2015-10-24T12:04:59Z</time>
      </trkpt>
      <trkpt lat="44.16702" lon="3.13446">
        <ele>817</ele>
        <time>2015-10-24T12:05:03Z</time>
      </trkpt>
      <trkpt lat="44.16707" lon="3.13448">
        <ele>816</ele>
        <time>2015-10-24T12:05:06Z</time>
      </trkpt>
      <trkpt lat="44.16714" lon="3.1346">
        <ele>817</ele>
        <time>2015-10-24T12:05:12Z</time>
      </trkpt>
      <trkpt lat="44.16716" lon="3.13463">
        <ele>817</ele>
        <time>2015-10-24T12:05:13Z</time>
      </trkpt>
      <trkpt lat="44.16722" lon="3.13477">
        <ele>818</ele>
        <time>2015-10-24T12:05:18Z</time>
      </trkpt>
      <trkpt lat="44.16725" lon="3.13483">
        <ele>818</ele>
        <time>2015-10-24T12:05:20Z</time>
      </trkpt>
      <trkpt lat="44.16735" lon="3.13496">
        <ele>818</ele>
        <time>2015-10-24T12:05:25Z</time>
      </trkpt>
      <trkpt lat="44.16739" lon="3.13509">
        <ele>824</ele>
        <time>2015-10-24T12:05:29Z</time>
      </trkpt>
      <trkpt lat="44.1674" lon="3.13512">
        <ele>824</ele>
        <time>2015-10-24T12:05:30Z</time>
      </trkpt>
      <trkpt lat="44.16748" lon="3.13521">
        <ele>825</ele>
        <time>2015-10-24T12:05:35Z</time>
      </trkpt>
      <trkpt lat="44.16752" lon="3.13525">
        <ele>816</ele>
        <time>2015-10-24T12:05:38Z</time>
      </trkpt>
      <trkpt lat="44.16755" lon="3.13526">
        <ele>816</ele>
        <time>2015-10-24T12:05:42Z</time>
      </trkpt>
      <trkpt lat="44.16759" lon="3.13529">
        <ele>815</ele>
        <time>2015-10-24T12:05:45Z</time>
      </trkpt>
      <trkpt lat="44.16763" lon="3.13529">
        <ele>815</ele>
        <time>2015-10-24T12:05:48Z</time>
      </trkpt>
      <trkpt lat="44.16768" lon="3.13529">
        <ele>814</ele>
        <time>2015-10-24T12:05:50Z</time>
      </trkpt>
      <trkpt lat="44.16782" lon="3.13533">
        <ele>812</ele>
        <time>2015-10-24T12:05:56Z</time>
      </trkpt>
      <trkpt lat="44.16793" lon="3.13536">
        <ele>811</ele>
        <time>2015-10-24T12:06:00Z</time>
      </trkpt>
      <trkpt lat="44.16803" lon="3.13543">
        <ele>810</ele>
        <time>2015-10-24T12:06:05Z</time>
      </trkpt>
      <trkpt lat="44.16808" lon="3.13549">
        <ele>810</ele>
        <time>2015-10-24T12:06:10Z</time>
      </trkpt>
      <trkpt lat="44.16811" lon="3.13553">
        <ele>810</ele>
        <time>2015-10-24T12:06:17Z</time>
      </trkpt>
      <trkpt lat="44.16811" lon="3.13553">
        <ele>810</ele>
        <time>2015-10-24T12:06:22Z</time>
      </trkpt>
      <trkpt lat="44.16809" lon="3.13555">
        <ele>811</ele>
        <time>2015-10-24T12:06:29Z</time>
      </trkpt>
      <trkpt lat="44.1681" lon="3.13567">
        <ele>811</ele>
        <time>2015-10-24T12:06:33Z</time>
      </trkpt>
      <trkpt lat="44.16814" lon="3.1358">
        <ele>811</ele>
        <time>2015-10-24T12:06:39Z</time>
      </trkpt>
      <trkpt lat="44.16813" lon="3.13593">
        <ele>818</ele>
        <time>2015-10-24T12:06:45Z</time>
      </trkpt>
      <trkpt lat="44.16814" lon="3.13601">
        <ele>819</ele>
        <time>2015-10-24T12:06:48Z</time>
      </trkpt>
      <trkpt lat="44.1682" lon="3.13603">
        <ele>819</ele>
        <time>2015-10-24T12:06:53Z</time>
      </trkpt>
      <trkpt lat="44.1683" lon="3.13603">
        <ele>818</ele>
        <time>2015-10-24T12:06:59Z</time>
      </trkpt>
      <trkpt lat="44.16832" lon="3.13603">
        <ele>817</ele>
        <time>2015-10-24T12:07:00Z</time>
      </trkpt>
      <trkpt lat="44.16837" lon="3.13607">
        <ele>806</ele>
        <time>2015-10-24T12:07:03Z</time>
      </trkpt>
      <trkpt lat="44.16843" lon="3.1362">
        <ele>806</ele>
        <time>2015-10-24T12:07:07Z</time>
      </trkpt>
      <trkpt lat="44.16851" lon="3.13628">
        <ele>806</ele>
        <time>2015-10-24T12:07:11Z</time>
      </trkpt>
      <trkpt lat="44.16858" lon="3.13638">
        <ele>807</ele>
        <time>2015-10-24T12:07:15Z</time>
      </trkpt>
      <trkpt lat="44.16861" lon="3.1365">
        <ele>808</ele>
        <time>2015-10-24T12:07:19Z</time>
      </trkpt>
      <trkpt lat="44.16868" lon="3.13656">
        <ele>807</ele>
        <time>2015-10-24T12:07:22Z</time>
      </trkpt>
      <trkpt lat="44.16871" lon="3.13655">
        <ele>806</ele>
        <time>2015-10-24T12:07:23Z</time>
      </trkpt>
      <trkpt lat="44.16876" lon="3.13651">
        <ele>805</ele>
        <time>2015-10-24T12:07:25Z</time>
      </trkpt>
      <trkpt lat="44.16885" lon="3.13654">
        <ele>803</ele>
        <time>2015-10-24T12:07:29Z</time>
      </trkpt>
      <trkpt lat="44.16892" lon="3.13659">
        <ele>803</ele>
        <time>2015-10-24T12:07:33Z</time>
      </trkpt>
      <trkpt lat="44.16897" lon="3.13666">
        <ele>803</ele>
        <time>2015-10-24T12:07:36Z</time>
      </trkpt>
      <trkpt lat="44.16906" lon="3.13668">
        <ele>808</ele>
        <time>2015-10-24T12:07:39Z</time>
      </trkpt>
      <trkpt lat="44.16915" lon="3.13682">
        <ele>809</ele>
        <time>2015-10-24T12:07:44Z</time>
      </trkpt>
      <trkpt lat="44.16915" lon="3.13695">
        <ele>812</ele>
        <time>2015-10-24T12:07:48Z</time>
      </trkpt>
      <trkpt lat="44.16913" lon="3.13706">
        <ele>814</ele>
        <time>2015-10-24T12:07:52Z</time>
      </trkpt>
      <trkpt lat="44.16916" lon="3.13715">
        <ele>815</ele>
        <time>2015-10-24T12:07:55Z</time>
      </trkpt>
      <trkpt lat="44.16916" lon="3.13718">
        <ele>815</ele>
        <time>2015-10-24T12:07:56Z</time>
      </trkpt>
      <trkpt lat="44.16919" lon="3.13739">
        <ele>808</ele>
        <time>2015-10-24T12:08:03Z</time>
      </trkpt>
      <trkpt lat="44.16931" lon="3.13752">
        <ele>809</ele>
        <time>2015-10-24T12:08:08Z</time>
      </trkpt>
      <trkpt lat="44.16934" lon="3.13761">
        <ele>807</ele>
        <time>2015-10-24T12:08:12Z</time>
      </trkpt>
      <trkpt lat="44.16938" lon="3.13772">
        <ele>804</ele>
        <time>2015-10-24T12:08:16Z</time>
      </trkpt>
      <trkpt lat="44.1694" lon="3.13774">
        <ele>804</ele>
        <time>2015-10-24T12:08:17Z</time>
      </trkpt>
      <trkpt lat="44.16946" lon="3.13783">
        <ele>802</ele>
        <time>2015-10-24T12:08:20Z</time>
      </trkpt>
      <trkpt lat="44.1695" lon="3.13801">
        <ele>801</ele>
        <time>2015-10-24T12:08:26Z</time>
      </trkpt>
      <trkpt lat="44.16957" lon="3.13806">
        <ele>800</ele>
        <time>2015-10-24T12:08:30Z</time>
      </trkpt>
      <trkpt lat="44.16965" lon="3.1381">
        <ele>798</ele>
        <time>2015-10-24T12:08:34Z</time>
      </trkpt>
      <trkpt lat="44.16973" lon="3.1382">
        <ele>797</ele>
        <time>2015-10-24T12:08:38Z</time>
      </trkpt>
      <trkpt lat="44.16981" lon="3.13823">
        <ele>796</ele>
        <time>2015-10-24T12:08:42Z</time>
      </trkpt>
      <trkpt lat="44.16987" lon="3.13821">
        <ele>794</ele>
        <time>2015-10-24T12:08:46Z</time>
      </trkpt>
      <trkpt lat="44.16991" lon="3.13822">
        <ele>794</ele>
        <time>2015-10-24T12:08:48Z</time>
      </trkpt>
      <trkpt lat="44.16992" lon="3.13815">
        <ele>794</ele>
        <time>2015-10-24T12:08:53Z</time>
      </trkpt>
      <trkpt lat="44.16993" lon="3.13813">
        <ele>795</ele>
        <time>2015-10-24T12:08:57Z</time>
      </trkpt>
      <trkpt lat="44.16991" lon="3.13808">
        <ele>795</ele>
        <time>2015-10-24T12:09:01Z</time>
      </trkpt>
      <trkpt lat="44.16992" lon="3.13805">
        <ele>795</ele>
        <time>2015-10-24T12:09:03Z</time>
      </trkpt>
      <trkpt lat="44.16994" lon="3.13803">
        <ele>795</ele>
        <time>2015-10-24T12:09:07Z</time>
      </trkpt>
      <trkpt lat="44.16997" lon="3.138">
        <ele>795</ele>
        <time>2015-10-24T12:09:10Z</time>
      </trkpt>
      <trkpt lat="44.16991" lon="3.13793">
        <ele>795</ele>
        <time>2015-10-24T12:09:16Z</time>
      </trkpt>
      <trkpt lat="44.16992" lon="3.13791">
        <ele>795</ele>
        <time>2015-10-24T12:09:23Z</time>
      </trkpt>
      <trkpt lat="44.16996" lon="3.13792">
        <ele>795</ele>
        <time>2015-10-24T12:09:26Z</time>
      </trkpt>
      <trkpt lat="44.17004" lon="3.13801">
        <ele>775</ele>
        <time>2015-10-24T12:09:32Z</time>
      </trkpt>
      <trkpt lat="44.17009" lon="3.13803">
        <ele>774</ele>
        <time>2015-10-24T12:09:36Z</time>
      </trkpt>
      <trkpt lat="44.1701" lon="3.13804">
        <ele>774</ele>
        <time>2015-10-24T12:09:37Z</time>
      </trkpt>
      <trkpt lat="44.17016" lon="3.13809">
        <ele>774</ele>
        <time>2015-10-24T12:09:44Z</time>
      </trkpt>
      <trkpt lat="44.17018" lon="3.13809">
        <ele>774</ele>
        <time>2015-10-24T12:09:46Z</time>
      </trkpt>
      <trkpt lat="44.17022" lon="3.13812">
        <ele>773</ele>
        <time>2015-10-24T12:09:51Z</time>
      </trkpt>
      <trkpt lat="44.17024" lon="3.13815">
        <ele>773</ele>
        <time>2015-10-24T12:09:53Z</time>
      </trkpt>
      <trkpt lat="44.17028" lon="3.13822">
        <ele>773</ele>
        <time>2015-10-24T12:10:02Z</time>
      </trkpt>
      <trkpt lat="44.17031" lon="3.1383">
        <ele>772</ele>
        <time>2015-10-24T12:10:08Z</time>
      </trkpt>
      <trkpt lat="44.17034" lon="3.13834">
        <ele>767</ele>
        <time>2015-10-24T12:10:11Z</time>
      </trkpt>
      <trkpt lat="44.17037" lon="3.13838">
        <ele>766</ele>
        <time>2015-10-24T12:10:16Z</time>
      </trkpt>
      <trkpt lat="44.17039" lon="3.13838">
        <ele>765</ele>
        <time>2015-10-24T12:10:18Z</time>
      </trkpt>
      <trkpt lat="44.17048" lon="3.13836">
        <ele>763</ele>
        <time>2015-10-24T12:10:26Z</time>
      </trkpt>
      <trkpt lat="44.17048" lon="3.13835">
        <ele>762</ele>
        <time>2015-10-24T12:10:27Z</time>
      </trkpt>
      <trkpt lat="44.17054" lon="3.13831">
        <ele>764</ele>
        <time>2015-10-24T12:10:34Z</time>
      </trkpt>
      <trkpt lat="44.17058" lon="3.13829">
        <ele>763</ele>
        <time>2015-10-24T12:10:39Z</time>
      </trkpt>
      <trkpt lat="44.17065" lon="3.13834">
        <ele>758</ele>
        <time>2015-10-24T12:10:45Z</time>
      </trkpt>
      <trkpt lat="44.17071" lon="3.13834">
        <ele>756</ele>
        <time>2015-10-24T12:10:51Z</time>
      </trkpt>
      <trkpt lat="44.17073" lon="3.13832">
        <ele>758</ele>
        <time>2015-10-24T12:11:01Z</time>
      </trkpt>
      <trkpt lat="44.17079" lon="3.13831">
        <ele>755</ele>
        <time>2015-10-24T12:11:14Z</time>
      </trkpt>
      <trkpt lat="44.17086" lon="3.13834">
        <ele>750</ele>
        <time>2015-10-24T12:11:21Z</time>
      </trkpt>
      <trkpt lat="44.1709" lon="3.13835">
        <ele>746</ele>
        <time>2015-10-24T12:11:29Z</time>
      </trkpt>
      <trkpt lat="44.17093" lon="3.13835">
        <ele>744</ele>
        <time>2015-10-24T12:11:38Z</time>
      </trkpt>
      <trkpt lat="44.17094" lon="3.13834">
        <ele>743</ele>
        <time>2015-10-24T12:11:45Z</time>
      </trkpt>
      <trkpt lat="44.17095" lon="3.13835">
        <ele>742</ele>
        <time>2015-10-24T12:11:50Z</time>
      </trkpt>
      <trkpt lat="44.17096" lon="3.13835">
        <ele>741</ele>
        <time>2015-10-24T12:12:00Z</time>
      </trkpt>
      <trkpt lat="44.17099" lon="3.13835">
        <ele>739</ele>
        <time>2015-10-24T12:12:12Z</time>
      </trkpt>
      <trkpt lat="44.17102" lon="3.13836">
        <ele>737</ele>
        <time>2015-10-24T12:12:24Z</time>
      </trkpt>
      <trkpt lat="44.17106" lon="3.13838">
        <ele>735</ele>
        <time>2015-10-24T12:12:31Z</time>
      </trkpt>
      <trkpt lat="44.17107" lon="3.13837">
        <ele>734</ele>
        <time>2015-10-24T12:12:39Z</time>
      </trkpt>
      <trkpt lat="44.17108" lon="3.13834">
        <ele>734</ele>
        <time>2015-10-24T12:12:46Z</time>
      </trkpt>
      <trkpt lat="44.17107" lon="3.13832">
        <ele>736</ele>
        <time>2015-10-24T12:12:53Z</time>
      </trkpt>
      <trkpt lat="44.17107" lon="3.13831">
        <ele>736</ele>
        <time>2015-10-24T12:13:02Z</time>
      </trkpt>
      <trkpt lat="44.17107" lon="3.13828">
        <ele>736</ele>
        <time>2015-10-24T12:13:07Z</time>
      </trkpt>
      <trkpt lat="44.17107" lon="3.13826">
        <ele>736</ele>
        <time>2015-10-24T12:13:12Z</time>
      </trkpt>
      <trkpt lat="44.17108" lon="3.13823">
        <ele>735</ele>
        <time>2015-10-24T12:13:16Z</time>
      </trkpt>
      <trkpt lat="44.17111" lon="3.13821">
        <ele>734</ele>
        <time>2015-10-24T12:13:20Z</time>
      </trkpt>
      <trkpt lat="44.17113" lon="3.13821">
        <ele>733</ele>
        <time>2015-10-24T12:13:24Z</time>
      </trkpt>
      <trkpt lat="44.17117" lon="3.13821">
        <ele>732</ele>
        <time>2015-10-24T12:13:28Z</time>
      </trkpt>
      <trkpt lat="44.17121" lon="3.13822">
        <ele>730</ele>
        <time>2015-10-24T12:13:32Z</time>
      </trkpt>
      <trkpt lat="44.17128" lon="3.13826">
        <ele>728</ele>
        <time>2015-10-24T12:13:38Z</time>
      </trkpt>
      <trkpt lat="44.17136" lon="3.13826">
        <ele>726</ele>
        <time>2015-10-24T12:13:43Z</time>
      </trkpt>
      <trkpt lat="44.17144" lon="3.13825">
        <ele>723</ele>
        <time>2015-10-24T12:13:47Z</time>
      </trkpt>
      <trkpt lat="44.17149" lon="3.13825">
        <ele>722</ele>
        <time>2015-10-24T12:13:51Z</time>
      </trkpt>
      <trkpt lat="44.17153" lon="3.13823">
        <ele>721</ele>
        <time>2015-10-24T12:13:53Z</time>
      </trkpt>
      <trkpt lat="44.17163" lon="3.13822">
        <ele>719</ele>
        <time>2015-10-24T12:14:01Z</time>
      </trkpt>
      <trkpt lat="44.17167" lon="3.13819">
        <ele>701</ele>
        <time>2015-10-24T12:14:05Z</time>
      </trkpt>
      <trkpt lat="44.17169" lon="3.13811">
        <ele>696</ele>
        <time>2015-10-24T12:14:12Z</time>
      </trkpt>
      <trkpt lat="44.17167" lon="3.13806">
        <ele>720</ele>
        <time>2015-10-24T12:14:16Z</time>
      </trkpt>
      <trkpt lat="44.17164" lon="3.138">
        <ele>720</ele>
        <time>2015-10-24T12:14:21Z</time>
      </trkpt>
      <trkpt lat="44.17163" lon="3.13799">
        <ele>720</ele>
        <time>2015-10-24T12:14:22Z</time>
      </trkpt>
      <trkpt lat="44.17159" lon="3.13793">
        <ele>720</ele>
        <time>2015-10-24T12:14:27Z</time>
      </trkpt>
      <trkpt lat="44.17156" lon="3.13782">
        <ele>719</ele>
        <time>2015-10-24T12:14:33Z</time>
      </trkpt>
      <trkpt lat="44.17153" lon="3.13775">
        <ele>718</ele>
        <time>2015-10-24T12:14:37Z</time>
      </trkpt>
      <trkpt lat="44.17151" lon="3.13771">
        <ele>717</ele>
        <time>2015-10-24T12:14:39Z</time>
      </trkpt>
      <trkpt lat="44.17147" lon="3.13764">
        <ele>716</ele>
        <time>2015-10-24T12:14:44Z</time>
      </trkpt>
      <trkpt lat="44.17141" lon="3.13752">
        <ele>718</ele>
        <time>2015-10-24T12:14:49Z</time>
      </trkpt>
      <trkpt lat="44.17136" lon="3.13743">
        <ele>706</ele>
        <time>2015-10-24T12:14:53Z</time>
      </trkpt>
      <trkpt lat="44.17133" lon="3.13739">
        <ele>706</ele>
        <time>2015-10-24T12:14:55Z</time>
      </trkpt>
      <trkpt lat="44.17126" lon="3.13728">
        <ele>707</ele>
        <time>2015-10-24T12:15:01Z</time>
      </trkpt>
      <trkpt lat="44.17123" lon="3.13722">
        <ele>707</ele>
        <time>2015-10-24T12:15:04Z</time>
      </trkpt>
      <trkpt lat="44.17117" lon="3.13703">
        <ele>705</ele>
        <time>2015-10-24T12:15:11Z</time>
      </trkpt>
      <trkpt lat="44.17113" lon="3.13697">
        <ele>705</ele>
        <time>2015-10-24T12:15:13Z</time>
      </trkpt>
      <trkpt lat="44.17105" lon="3.13682">
        <ele>706</ele>
        <time>2015-10-24T12:15:19Z</time>
      </trkpt>
      <trkpt lat="44.17102" lon="3.1367">
        <ele>707</ele>
        <time>2015-10-24T12:15:23Z</time>
      </trkpt>
      <trkpt lat="44.171" lon="3.13659">
        <ele>693</ele>
        <time>2015-10-24T12:15:27Z</time>
      </trkpt>
      <trkpt lat="44.171" lon="3.13649">
        <ele>689</ele>
        <time>2015-10-24T12:15:30Z</time>
      </trkpt>
      <trkpt lat="44.171" lon="3.13635">
        <ele>683</ele>
        <time>2015-10-24T12:15:33Z</time>
      </trkpt>
      <trkpt lat="44.17108" lon="3.13641">
        <ele>683</ele>
        <time>2015-10-24T12:15:38Z</time>
      </trkpt>
      <trkpt lat="44.17121" lon="3.13648">
        <ele>679</ele>
        <time>2015-10-24T12:15:44Z</time>
      </trkpt>
      <trkpt lat="44.17128" lon="3.13652">
        <ele>677</ele>
        <time>2015-10-24T12:15:49Z</time>
      </trkpt>
      <trkpt lat="44.17129" lon="3.13653">
        <ele>677</ele>
        <time>2015-10-24T12:15:50Z</time>
      </trkpt>
      <trkpt lat="44.17138" lon="3.13657">
        <ele>674</ele>
        <time>2015-10-24T12:15:55Z</time>
      </trkpt>
      <trkpt lat="44.17147" lon="3.13664">
        <ele>671</ele>
        <time>2015-10-24T12:16:00Z</time>
      </trkpt>
      <trkpt lat="44.1715" lon="3.13668">
        <ele>684</ele>
        <time>2015-10-24T12:16:03Z</time>
      </trkpt>
      <trkpt lat="44.17158" lon="3.13674">
        <ele>679</ele>
        <time>2015-10-24T12:16:09Z</time>
      </trkpt>
      <trkpt lat="44.17162" lon="3.13678">
        <ele>679</ele>
        <time>2015-10-24T12:16:13Z</time>
      </trkpt>
      <trkpt lat="44.17168" lon="3.1368">
        <ele>664</ele>
        <time>2015-10-24T12:16:18Z</time>
      </trkpt>
      <trkpt lat="44.17172" lon="3.1368">
        <ele>664</ele>
        <time>2015-10-24T12:16:20Z</time>
      </trkpt>
      <trkpt lat="44.17182" lon="3.13678">
        <ele>663</ele>
        <time>2015-10-24T12:16:26Z</time>
      </trkpt>
      <trkpt lat="44.17183" lon="3.13679">
        <ele>663</ele>
        <time>2015-10-24T12:16:27Z</time>
      </trkpt>
      <trkpt lat="44.17191" lon="3.13682">
        <ele>662</ele>
        <time>2015-10-24T12:16:32Z</time>
      </trkpt>
      <trkpt lat="44.17201" lon="3.13685">
        <ele>660</ele>
        <time>2015-10-24T12:16:37Z</time>
      </trkpt>
      <trkpt lat="44.17212" lon="3.13686">
        <ele>657</ele>
        <time>2015-10-24T12:16:42Z</time>
      </trkpt>
      <trkpt lat="44.17224" lon="3.13686">
        <ele>653</ele>
        <time>2015-10-24T12:16:47Z</time>
      </trkpt>
      <trkpt lat="44.17233" lon="3.13689">
        <ele>651</ele>
        <time>2015-10-24T12:16:51Z</time>
      </trkpt>
      <trkpt lat="44.17237" lon="3.1369">
        <ele>650</ele>
        <time>2015-10-24T12:16:53Z</time>
      </trkpt>
      <trkpt lat="44.1725" lon="3.13694">
        <ele>650</ele>
        <time>2015-10-24T12:16:59Z</time>
      </trkpt>
      <trkpt lat="44.17258" lon="3.137">
        <ele>626</ele>
        <time>2015-10-24T12:17:03Z</time>
      </trkpt>
      <trkpt lat="44.17261" lon="3.13703">
        <ele>626</ele>
        <time>2015-10-24T12:17:06Z</time>
      </trkpt>
      <trkpt lat="44.17262" lon="3.13694">
        <ele>625</ele>
        <time>2015-10-24T12:17:13Z</time>
      </trkpt>
      <trkpt lat="44.1726" lon="3.13689">
        <ele>626</ele>
        <time>2015-10-24T12:17:16Z</time>
      </trkpt>
      <trkpt lat="44.17255" lon="3.13678">
        <ele>627</ele>
        <time>2015-10-24T12:17:22Z</time>
      </trkpt>
      <trkpt lat="44.17253" lon="3.13666">
        <ele>627</ele>
        <time>2015-10-24T12:17:25Z</time>
      </trkpt>
      <trkpt lat="44.17253" lon="3.13659">
        <ele>623</ele>
        <time>2015-10-24T12:17:28Z</time>
      </trkpt>
      <trkpt lat="44.17245" lon="3.13655">
        <ele>631</ele>
        <time>2015-10-24T12:17:31Z</time>
      </trkpt>
      <trkpt lat="44.17239" lon="3.1365">
        <ele>631</ele>
        <time>2015-10-24T12:17:36Z</time>
      </trkpt>
      <trkpt lat="44.17239" lon="3.13646">
        <ele>631</ele>
        <time>2015-10-24T12:17:39Z</time>
      </trkpt>
      <trkpt lat="44.17248" lon="3.13643">
        <ele>630</ele>
        <time>2015-10-24T12:17:45Z</time>
      </trkpt>
      <trkpt lat="44.1725" lon="3.13642">
        <ele>630</ele>
        <time>2015-10-24T12:17:46Z</time>
      </trkpt>
      <trkpt lat="44.17261" lon="3.13642">
        <ele>612</ele>
        <time>2015-10-24T12:17:52Z</time>
      </trkpt>
      <trkpt lat="44.17264" lon="3.13642">
        <ele>611</ele>
        <time>2015-10-24T12:17:54Z</time>
      </trkpt>
      <trkpt lat="44.17272" lon="3.13638">
        <ele>609</ele>
        <time>2015-10-24T12:18:00Z</time>
      </trkpt>
      <trkpt lat="44.17279" lon="3.13638">
        <ele>607</ele>
        <time>2015-10-24T12:18:04Z</time>
      </trkpt>
      <trkpt lat="44.17284" lon="3.13636">
        <ele>606</ele>
        <time>2015-10-24T12:18:06Z</time>
      </trkpt>
      <trkpt lat="44.17287" lon="3.13634">
        <ele>605</ele>
        <time>2015-10-24T12:18:08Z</time>
      </trkpt>
      <trkpt lat="44.1729" lon="3.13631">
        <ele>604</ele>
        <time>2015-10-24T12:18:10Z</time>
      </trkpt>
      <trkpt lat="44.17295" lon="3.13627">
        <ele>603</ele>
        <time>2015-10-24T12:18:14Z</time>
      </trkpt>
      <trkpt lat="44.173" lon="3.13622">
        <ele>601</ele>
        <time>2015-10-24T12:18:18Z</time>
      </trkpt>
      <trkpt lat="44.17305" lon="3.13619">
        <ele>600</ele>
        <time>2015-10-24T12:18:21Z</time>
      </trkpt>
      <trkpt lat="44.17314" lon="3.13621">
        <ele>599</ele>
        <time>2015-10-24T12:18:27Z</time>
      </trkpt>
      <trkpt lat="44.17324" lon="3.13623">
        <ele>598</ele>
        <time>2015-10-24T12:18:32Z</time>
      </trkpt>
      <trkpt lat="44.17329" lon="3.13622">
        <ele>598</ele>
        <time>2015-10-24T12:18:35Z</time>
      </trkpt>
      <trkpt lat="44.17338" lon="3.13621">
        <ele>577</ele>
        <time>2015-10-24T12:18:40Z</time>
      </trkpt>
      <trkpt lat="44.17346" lon="3.13628">
        <ele>576</ele>
        <time>2015-10-24T12:18:44Z</time>
      </trkpt>
      <trkpt lat="44.17347" lon="3.13628">
        <ele>576</ele>
        <time>2015-10-24T12:18:46Z</time>
      </trkpt>
      <trkpt lat="44.17356" lon="3.13619">
        <ele>574</ele>
        <time>2015-10-24T12:18:51Z</time>
      </trkpt>
      <trkpt lat="44.17365" lon="3.1361">
        <ele>572</ele>
        <time>2015-10-24T12:18:56Z</time>
      </trkpt>
      <trkpt lat="44.17369" lon="3.13607">
        <ele>571</ele>
        <time>2015-10-24T12:18:58Z</time>
      </trkpt>
      <trkpt lat="44.17375" lon="3.13597">
        <ele>569</ele>
        <time>2015-10-24T12:19:04Z</time>
      </trkpt>
      <trkpt lat="44.17375" lon="3.13593">
        <ele>569</ele>
        <time>2015-10-24T12:19:06Z</time>
      </trkpt>
      <trkpt lat="44.1737" lon="3.13581">
        <ele>562</ele>
        <time>2015-10-24T12:19:13Z</time>
      </trkpt>
      <trkpt lat="44.17369" lon="3.13574">
        <ele>561</ele>
        <time>2015-10-24T12:19:19Z</time>
      </trkpt>
      <trkpt lat="44.17369" lon="3.13571">
        <ele>561</ele>
        <time>2015-10-24T12:19:21Z</time>
      </trkpt>
      <trkpt lat="44.17374" lon="3.13564">
        <ele>559</ele>
        <time>2015-10-24T12:19:26Z</time>
      </trkpt>
      <trkpt lat="44.17377" lon="3.13555">
        <ele>558</ele>
        <time>2015-10-24T12:19:31Z</time>
      </trkpt>
      <trkpt lat="44.1738" lon="3.13555">
        <ele>557</ele>
        <time>2015-10-24T12:19:34Z</time>
      </trkpt>
      <trkpt lat="44.17388" lon="3.1356">
        <ele>557</ele>
        <time>2015-10-24T12:19:38Z</time>
      </trkpt>
      <trkpt lat="44.17394" lon="3.13562">
        <ele>556</ele>
        <time>2015-10-24T12:19:42Z</time>
      </trkpt>
      <trkpt lat="44.17402" lon="3.13567">
        <ele>555</ele>
        <time>2015-10-24T12:19:48Z</time>
      </trkpt>
      <trkpt lat="44.17403" lon="3.13568">
        <ele>555</ele>
        <time>2015-10-24T12:19:49Z</time>
      </trkpt>
      <trkpt lat="44.17412" lon="3.13562">
        <ele>554</ele>
        <time>2015-10-24T12:19:55Z</time>
      </trkpt>
      <trkpt lat="44.17416" lon="3.13557">
        <ele>554</ele>
        <time>2015-10-24T12:19:59Z</time>
      </trkpt>
      <trkpt lat="44.17422" lon="3.13553">
        <ele>537</ele>
        <time>2015-10-24T12:20:03Z</time>
      </trkpt>
      <trkpt lat="44.17422" lon="3.13545">
        <ele>536</ele>
        <time>2015-10-24T12:20:08Z</time>
      </trkpt>
      <trkpt lat="44.17423" lon="3.13541">
        <ele>535</ele>
        <time>2015-10-24T12:20:10Z</time>
      </trkpt>
      <trkpt lat="44.17426" lon="3.13535">
        <ele>534</ele>
        <time>2015-10-24T12:20:14Z</time>
      </trkpt>
      <trkpt lat="44.17431" lon="3.13532">
        <ele>534</ele>
        <time>2015-10-24T12:20:18Z</time>
      </trkpt>
      <trkpt lat="44.17433" lon="3.1353">
        <ele>533</ele>
        <time>2015-10-24T12:20:20Z</time>
      </trkpt>
      <trkpt lat="44.17438" lon="3.13523">
        <ele>533</ele>
        <time>2015-10-24T12:20:27Z</time>
      </trkpt>
      <trkpt lat="44.17446" lon="3.13518">
        <ele>531</ele>
        <time>2015-10-24T12:20:32Z</time>
      </trkpt>
      <trkpt lat="44.17458" lon="3.1351">
        <ele>529</ele>
        <time>2015-10-24T12:20:40Z</time>
      </trkpt>
      <trkpt lat="44.17461" lon="3.13508">
        <ele>528</ele>
        <time>2015-10-24T12:20:42Z</time>
      </trkpt>
      <trkpt lat="44.17463" lon="3.13507">
        <ele>528</ele>
        <time>2015-10-24T12:20:44Z</time>
      </trkpt>
      <trkpt lat="44.17468" lon="3.13509">
        <ele>527</ele>
        <time>2015-10-24T12:20:47Z</time>
      </trkpt>
      <trkpt lat="44.1747" lon="3.13506">
        <ele>526</ele>
        <time>2015-10-24T12:20:50Z</time>
      </trkpt>
      <trkpt lat="44.17476" lon="3.13503">
        <ele>524</ele>
        <time>2015-10-24T12:20:55Z</time>
      </trkpt>
      <trkpt lat="44.17485" lon="3.13495">
        <ele>517</ele>
        <time>2015-10-24T12:21:00Z</time>
      </trkpt>
      <trkpt lat="44.17492" lon="3.13485">
        <ele>516</ele>
        <time>2015-10-24T12:21:05Z</time>
      </trkpt>
      <trkpt lat="44.17494" lon="3.13482">
        <ele>516</ele>
        <time>2015-10-24T12:21:07Z</time>
      </trkpt>
      <trkpt lat="44.175" lon="3.13478">
        <ele>505</ele>
        <time>2015-10-24T12:21:10Z</time>
      </trkpt>
      <trkpt lat="44.175" lon="3.13462">
        <ele>514</ele>
        <time>2015-10-24T12:21:14Z</time>
      </trkpt>
      <trkpt lat="44.17502" lon="3.13455">
        <ele>500</ele>
        <time>2015-10-24T12:21:17Z</time>
      </trkpt>
      <trkpt lat="44.17505" lon="3.13448">
        <ele>500</ele>
        <time>2015-10-24T12:21:20Z</time>
      </trkpt>
      <trkpt lat="44.17509" lon="3.1344">
        <ele>499</ele>
        <time>2015-10-24T12:21:23Z</time>
      </trkpt>
      <trkpt lat="44.17512" lon="3.13431">
        <ele>499</ele>
        <time>2015-10-24T12:21:27Z</time>
      </trkpt>
      <trkpt lat="44.17519" lon="3.13428">
        <ele>499</ele>
        <time>2015-10-24T12:21:31Z</time>
      </trkpt>
      <trkpt lat="44.17524" lon="3.13423">
        <ele>498</ele>
        <time>2015-10-24T12:21:34Z</time>
      </trkpt>
      <trkpt lat="44.1753" lon="3.13411">
        <ele>491</ele>
        <time>2015-10-24T12:21:39Z</time>
      </trkpt>
      <trkpt lat="44.17533" lon="3.13407">
        <ele>490</ele>
        <time>2015-10-24T12:21:41Z</time>
      </trkpt>
      <trkpt lat="44.17541" lon="3.13395">
        <ele>488</ele>
        <time>2015-10-24T12:21:47Z</time>
      </trkpt>
      <trkpt lat="44.17549" lon="3.13392">
        <ele>487</ele>
        <time>2015-10-24T12:21:50Z</time>
      </trkpt>
      <trkpt lat="44.17553" lon="3.13388">
        <ele>487</ele>
        <time>2015-10-24T12:21:53Z</time>
      </trkpt>
      <trkpt lat="44.17555" lon="3.13387">
        <ele>487</ele>
        <time>2015-10-24T12:21:54Z</time>
      </trkpt>
      <trkpt lat="44.17565" lon="3.13376">
        <ele>485</ele>
        <time>2015-10-24T12:22:00Z</time>
      </trkpt>
      <trkpt lat="44.17567" lon="3.1337">
        <ele>485</ele>
        <time>2015-10-24T12:22:02Z</time>
      </trkpt>
      <trkpt lat="44.17572" lon="3.13363">
        <ele>484</ele>
        <time>2015-10-24T12:22:06Z</time>
      </trkpt>
      <trkpt lat="44.17576" lon="3.1336">
        <ele>484</ele>
        <time>2015-10-24T12:22:08Z</time>
      </trkpt>
      <trkpt lat="44.17583" lon="3.13348">
        <ele>482</ele>
        <time>2015-10-24T12:22:13Z</time>
      </trkpt>
      <trkpt lat="44.17591" lon="3.13342">
        <ele>475</ele>
        <time>2015-10-24T12:22:17Z</time>
      </trkpt>
      <trkpt lat="44.17603" lon="3.13336">
        <ele>474</ele>
        <time>2015-10-24T12:22:22Z</time>
      </trkpt>
      <trkpt lat="44.17612" lon="3.13332">
        <ele>468</ele>
        <time>2015-10-24T12:22:27Z</time>
      </trkpt>
      <trkpt lat="44.17616" lon="3.1333">
        <ele>467</ele>
        <time>2015-10-24T12:22:29Z</time>
      </trkpt>
      <trkpt lat="44.1762" lon="3.13327">
        <ele>466</ele>
        <time>2015-10-24T12:22:31Z</time>
      </trkpt>
      <trkpt lat="44.17625" lon="3.13318">
        <ele>465</ele>
        <time>2015-10-24T12:22:36Z</time>
      </trkpt>
      <trkpt lat="44.17631" lon="3.13314">
        <ele>464</ele>
        <time>2015-10-24T12:22:39Z</time>
      </trkpt>
      <trkpt lat="44.17639" lon="3.13312">
        <ele>463</ele>
        <time>2015-10-24T12:22:43Z</time>
      </trkpt>
      <trkpt lat="44.17642" lon="3.13303">
        <ele>463</ele>
        <time>2015-10-24T12:22:46Z</time>
      </trkpt>
      <trkpt lat="44.1764" lon="3.13295">
        <ele>462</ele>
        <time>2015-10-24T12:22:49Z</time>
      </trkpt>
      <trkpt lat="44.17633" lon="3.13284">
        <ele>462</ele>
        <time>2015-10-24T12:22:53Z</time>
      </trkpt>
      <trkpt lat="44.17625" lon="3.13275">
        <ele>462</ele>
        <time>2015-10-24T12:22:57Z</time>
      </trkpt>
      <trkpt lat="44.17618" lon="3.13268">
        <ele>462</ele>
        <time>2015-10-24T12:23:00Z</time>
      </trkpt>
      <trkpt lat="44.17612" lon="3.13263">
        <ele>462</ele>
        <time>2015-10-24T12:23:03Z</time>
      </trkpt>
      <trkpt lat="44.17608" lon="3.1326">
        <ele>462</ele>
        <time>2015-10-24T12:23:06Z</time>
      </trkpt>
      <trkpt lat="44.17602" lon="3.13256">
        <ele>461</ele>
        <time>2015-10-24T12:23:09Z</time>
      </trkpt>
      <trkpt lat="44.17596" lon="3.13242">
        <ele>453</ele>
        <time>2015-10-24T12:23:13Z</time>
      </trkpt>
      <trkpt lat="44.17592" lon="3.13237">
        <ele>453</ele>
        <time>2015-10-24T12:23:15Z</time>
      </trkpt>
      <trkpt lat="44.17587" lon="3.13233">
        <ele>452</ele>
        <time>2015-10-24T12:23:17Z</time>
      </trkpt>
      <trkpt lat="44.17583" lon="3.13229">
        <ele>454</ele>
        <time>2015-10-24T12:23:19Z</time>
      </trkpt>
      <trkpt lat="44.17578" lon="3.13219">
        <ele>451</ele>
        <time>2015-10-24T12:23:23Z</time>
      </trkpt>
      <trkpt lat="44.17575" lon="3.13214">
        <ele>450</ele>
        <time>2015-10-24T12:23:25Z</time>
      </trkpt>
      <trkpt lat="44.17564" lon="3.13202">
        <ele>448</ele>
        <time>2015-10-24T12:23:30Z</time>
      </trkpt>
      <trkpt lat="44.17559" lon="3.13196">
        <ele>447</ele>
        <time>2015-10-24T12:23:33Z</time>
      </trkpt>
      <trkpt lat="44.17553" lon="3.13193">
        <ele>447</ele>
        <time>2015-10-24T12:23:36Z</time>
      </trkpt>
      <trkpt lat="44.17552" lon="3.13183">
        <ele>446</ele>
        <time>2015-10-24T12:23:40Z</time>
      </trkpt>
      <trkpt lat="44.17559" lon="3.13187">
        <ele>446</ele>
        <time>2015-10-24T12:23:42Z</time>
      </trkpt>
      <trkpt lat="44.17564" lon="3.1319">
        <ele>446</ele>
        <time>2015-10-24T12:23:44Z</time>
      </trkpt>
      <trkpt lat="44.17575" lon="3.13194">
        <ele>446</ele>
        <time>2015-10-24T12:23:49Z</time>
      </trkpt>
      <trkpt lat="44.17581" lon="3.13199">
        <ele>447</ele>
        <time>2015-10-24T12:23:52Z</time>
      </trkpt>
      <trkpt lat="44.17585" lon="3.13199">
        <ele>443</ele>
        <time>2015-10-24T12:23:54Z</time>
      </trkpt>
      <trkpt lat="44.17599" lon="3.13202">
        <ele>444</ele>
        <time>2015-10-24T12:23:59Z</time>
      </trkpt>
      <trkpt lat="44.17602" lon="3.13203">
        <ele>444</ele>
        <time>2015-10-24T12:24:00Z</time>
      </trkpt>
      <trkpt lat="44.17609" lon="3.13205">
        <ele>444</ele>
        <time>2015-10-24T12:24:03Z</time>
      </trkpt>
      <trkpt lat="44.17624" lon="3.13206">
        <ele>444</ele>
        <time>2015-10-24T12:24:08Z</time>
      </trkpt>
      <trkpt lat="44.17633" lon="3.13203">
        <ele>443</ele>
        <time>2015-10-24T12:24:11Z</time>
      </trkpt>
      <trkpt lat="44.17641" lon="3.13198">
        <ele>442</ele>
        <time>2015-10-24T12:24:14Z</time>
      </trkpt>
      <trkpt lat="44.17652" lon="3.13194">
        <ele>441</ele>
        <time>2015-10-24T12:24:18Z</time>
      </trkpt>
      <trkpt lat="44.1766" lon="3.13192">
        <ele>440</ele>
        <time>2015-10-24T12:24:21Z</time>
      </trkpt>
      <trkpt lat="44.17666" lon="3.13191">
        <ele>440</ele>
        <time>2015-10-24T12:24:23Z</time>
      </trkpt>
      <trkpt lat="44.17671" lon="3.13189">
        <ele>436</ele>
        <time>2015-10-24T12:24:25Z</time>
      </trkpt>
      <trkpt lat="44.17687" lon="3.13186">
        <ele>436</ele>
        <time>2015-10-24T12:24:30Z</time>
      </trkpt>
      <trkpt lat="44.17698" lon="3.13184">
        <ele>436</ele>
        <time>2015-10-24T12:24:34Z</time>
      </trkpt>
      <trkpt lat="44.17701" lon="3.13184">
        <ele>436</ele>
        <time>2015-10-24T12:24:35Z</time>
      </trkpt>
      <trkpt lat="44.17716" lon="3.13183">
        <ele>435</ele>
        <time>2015-10-24T12:24:39Z</time>
      </trkpt>
      <trkpt lat="44.17727" lon="3.13183">
        <ele>434</ele>
        <time>2015-10-24T12:24:42Z</time>
      </trkpt>
      <trkpt lat="44.17734" lon="3.13186">
        <ele>434</ele>
        <time>2015-10-24T12:24:44Z</time>
      </trkpt>
      <trkpt lat="44.17746" lon="3.13198">
        <ele>435</ele>
        <time>2015-10-24T12:24:50Z</time>
      </trkpt>
      <trkpt lat="44.17752" lon="3.13211">
        <ele>428</ele>
        <time>2015-10-24T12:24:54Z</time>
      </trkpt>
      <trkpt lat="44.17759" lon="3.13222">
        <ele>429</ele>
        <time>2015-10-24T12:24:57Z</time>
      </trkpt>
      <trkpt lat="44.17764" lon="3.13233">
        <ele>431</ele>
        <time>2015-10-24T12:25:00Z</time>
      </trkpt>
      <trkpt lat="44.1777" lon="3.13237">
        <ele>430</ele>
        <time>2015-10-24T12:25:02Z</time>
      </trkpt>
      <trkpt lat="44.17774" lon="3.13244">
        <ele>430</ele>
        <time>2015-10-24T12:25:04Z</time>
      </trkpt>
      <trkpt lat="44.17775" lon="3.13252">
        <ele>433</ele>
        <time>2015-10-24T12:25:06Z</time>
      </trkpt>
      <trkpt lat="44.17782" lon="3.13266">
        <ele>432</ele>
        <time>2015-10-24T12:25:10Z</time>
      </trkpt>
      <trkpt lat="44.17785" lon="3.13284">
        <ele>432</ele>
        <time>2015-10-24T12:25:15Z</time>
      </trkpt>
      <trkpt lat="44.17786" lon="3.13287">
        <ele>432</ele>
        <time>2015-10-24T12:25:16Z</time>
      </trkpt>
      <trkpt lat="44.17788" lon="3.13299">
        <ele>432</ele>
        <time>2015-10-24T12:25:19Z</time>
      </trkpt>
      <trkpt lat="44.1779" lon="3.13314">
        <ele>432</ele>
        <time>2015-10-24T12:25:23Z</time>
      </trkpt>
      <trkpt lat="44.17791" lon="3.13317">
        <ele>432</ele>
        <time>2015-10-24T12:25:24Z</time>
      </trkpt>
      <trkpt lat="44.17787" lon="3.13333">
        <ele>432</ele>
        <time>2015-10-24T12:25:28Z</time>
      </trkpt>
      <trkpt lat="44.17783" lon="3.13347">
        <ele>435</ele>
        <time>2015-10-24T12:25:32Z</time>
      </trkpt>
      <trkpt lat="44.17783" lon="3.13354">
        <ele>435</ele>
        <time>2015-10-24T12:25:34Z</time>
      </trkpt>
      <trkpt lat="44.17778" lon="3.13375">
        <ele>435</ele>
        <time>2015-10-24T12:25:40Z</time>
      </trkpt>
      <trkpt lat="44.1777" lon="3.13389">
        <ele>436</ele>
        <time>2015-10-24T12:25:45Z</time>
      </trkpt>
      <trkpt lat="44.17766" lon="3.134">
        <ele>437</ele>
        <time>2015-10-24T12:25:48Z</time>
      </trkpt>
      <trkpt lat="44.17763" lon="3.13419">
        <ele>439</ele>
        <time>2015-10-24T12:25:53Z</time>
      </trkpt>
      <trkpt lat="44.17769" lon="3.13435">
        <ele>439</ele>
        <time>2015-10-24T12:25:58Z</time>
      </trkpt>
      <trkpt lat="44.17779" lon="3.13447">
        <ele>438</ele>
        <time>2015-10-24T12:26:02Z</time>
      </trkpt>
      <trkpt lat="44.17783" lon="3.13455">
        <ele>438</ele>
        <time>2015-10-24T12:26:05Z</time>
      </trkpt>
      <trkpt lat="44.17782" lon="3.13469">
        <ele>438</ele>
        <time>2015-10-24T12:26:12Z</time>
      </trkpt>
      <trkpt lat="44.17773" lon="3.13483">
        <ele>439</ele>
        <time>2015-10-24T12:26:22Z</time>
      </trkpt>
      <trkpt lat="44.17768" lon="3.13493">
        <ele>438</ele>
        <time>2015-10-24T12:26:30Z</time>
      </trkpt>
      <trkpt lat="44.17767" lon="3.13496">
        <ele>438</ele>
        <time>2015-10-24T12:26:38Z</time>
      </trkpt>
      <trkpt lat="44.17767" lon="3.13495">
        <ele>438</ele>
        <time>2015-10-24T12:26:46Z</time>
      </trkpt>
      <trkpt lat="44.17768" lon="3.13495">
        <ele>438</ele>
        <time>2015-10-24T12:26:54Z</time>
      </trkpt>
      <trkpt lat="44.17767" lon="3.13499">
        <ele>438</ele>
        <time>2015-10-24T12:27:01Z</time>
      </trkpt>
      <trkpt lat="44.17765" lon="3.13509">
        <ele>441</ele>
        <time>2015-10-24T12:27:07Z</time>
      </trkpt>
      <trkpt lat="44.1776" lon="3.13528">
        <ele>442</ele>
        <time>2015-10-24T12:27:17Z</time>
      </trkpt>
      <trkpt lat="44.17756" lon="3.13542">
        <ele>443</ele>
        <time>2015-10-24T12:27:25Z</time>
      </trkpt>
      <trkpt lat="44.17752" lon="3.13555">
        <ele>443</ele>
        <time>2015-10-24T12:27:33Z</time>
      </trkpt>
      <trkpt lat="44.17751" lon="3.1356">
        <ele>443</ele>
        <time>2015-10-24T12:27:36Z</time>
      </trkpt>
      <trkpt lat="44.17745" lon="3.13578">
        <ele>444</ele>
        <time>2015-10-24T12:27:47Z</time>
      </trkpt>
      <trkpt lat="44.17741" lon="3.1359">
        <ele>446</ele>
        <time>2015-10-24T12:27:55Z</time>
      </trkpt>
      <trkpt lat="44.17736" lon="3.13604">
        <ele>449</ele>
        <time>2015-10-24T12:28:05Z</time>
      </trkpt>
      <trkpt lat="44.1773" lon="3.13617">
        <ele>451</ele>
        <time>2015-10-24T12:28:13Z</time>
      </trkpt>
      <trkpt lat="44.17725" lon="3.13629">
        <ele>452</ele>
        <time>2015-10-24T12:28:20Z</time>
      </trkpt>
      <trkpt lat="44.1772" lon="3.1364">
        <ele>453</ele>
        <time>2015-10-24T12:28:27Z</time>
      </trkpt>
      <trkpt lat="44.17716" lon="3.13646">
        <ele>453</ele>
        <time>2015-10-24T12:28:31Z</time>
      </trkpt>
      <trkpt lat="44.17711" lon="3.13655">
        <ele>453</ele>
        <time>2015-10-24T12:28:35Z</time>
      </trkpt>
      <trkpt lat="44.17706" lon="3.13661">
        <ele>453</ele>
        <time>2015-10-24T12:28:38Z</time>
      </trkpt>
      <trkpt lat="44.17705" lon="3.13662">
        <ele>453</ele>
        <time>2015-10-24T12:28:39Z</time>
      </trkpt>
      <trkpt lat="44.17701" lon="3.1367">
        <ele>459</ele>
        <time>2015-10-24T12:28:44Z</time>
      </trkpt>
      <trkpt lat="44.17698" lon="3.13679">
        <ele>459</ele>
        <time>2015-10-24T12:28:49Z</time>
      </trkpt>
      <trkpt lat="44.17695" lon="3.13688">
        <ele>459</ele>
        <time>2015-10-24T12:28:54Z</time>
      </trkpt>
      <trkpt lat="44.17692" lon="3.13695">
        <ele>460</ele>
        <time>2015-10-24T12:28:58Z</time>
      </trkpt>
      <trkpt lat="44.17687" lon="3.13709">
        <ele>460</ele>
        <time>2015-10-24T12:29:06Z</time>
      </trkpt>
      <trkpt lat="44.17683" lon="3.13722">
        <ele>460</ele>
        <time>2015-10-24T12:29:12Z</time>
      </trkpt>
      <trkpt lat="44.17679" lon="3.13736">
        <ele>460</ele>
        <time>2015-10-24T12:29:19Z</time>
      </trkpt>
      <trkpt lat="44.17679" lon="3.1374">
        <ele>460</ele>
        <time>2015-10-24T12:29:21Z</time>
      </trkpt>
      <trkpt lat="44.17675" lon="3.13754">
        <ele>463</ele>
        <time>2015-10-24T12:29:28Z</time>
      </trkpt>
      <trkpt lat="44.17675" lon="3.13755">
        <ele>463</ele>
        <time>2015-10-24T12:29:29Z</time>
      </trkpt>
      <trkpt lat="44.17668" lon="3.13768">
        <ele>465</ele>
        <time>2015-10-24T12:29:37Z</time>
      </trkpt>
      <trkpt lat="44.17661" lon="3.13782">
        <ele>466</ele>
        <time>2015-10-24T12:29:45Z</time>
      </trkpt>
      <trkpt lat="44.17656" lon="3.13791">
        <ele>467</ele>
        <time>2015-10-24T12:29:51Z</time>
      </trkpt>
      <trkpt lat="44.1765" lon="3.13801">
        <ele>467</ele>
        <time>2015-10-24T12:29:58Z</time>
      </trkpt>
      <trkpt lat="44.17645" lon="3.13813">
        <ele>468</ele>
        <time>2015-10-24T12:30:06Z</time>
      </trkpt>
      <trkpt lat="44.1764" lon="3.13818">
        <ele>468</ele>
        <time>2015-10-24T12:30:11Z</time>
      </trkpt>
      <trkpt lat="44.17637" lon="3.13821">
        <ele>469</ele>
        <time>2015-10-24T12:30:14Z</time>
      </trkpt>
      <trkpt lat="44.17632" lon="3.13828">
        <ele>469</ele>
        <time>2015-10-24T12:30:19Z</time>
      </trkpt>
      <trkpt lat="44.17629" lon="3.13829">
        <ele>469</ele>
        <time>2015-10-24T12:30:22Z</time>
      </trkpt>
      <trkpt lat="44.17626" lon="3.13836">
        <ele>474</ele>
        <time>2015-10-24T12:30:26Z</time>
      </trkpt>
      <trkpt lat="44.1762" lon="3.13843">
        <ele>474</ele>
        <time>2015-10-24T12:30:32Z</time>
      </trkpt>
      <trkpt lat="44.17615" lon="3.13852">
        <ele>474</ele>
        <time>2015-10-24T12:30:38Z</time>
      </trkpt>
      <trkpt lat="44.17613" lon="3.13853">
        <ele>474</ele>
        <time>2015-10-24T12:30:39Z</time>
      </trkpt>
      <trkpt lat="44.17611" lon="3.13858">
        <ele>475</ele>
        <time>2015-10-24T12:30:44Z</time>
      </trkpt>
      <trkpt lat="44.17607" lon="3.13866">
        <ele>475</ele>
        <time>2015-10-24T12:30:50Z</time>
      </trkpt>
      <trkpt lat="44.17602" lon="3.13874">
        <ele>475</ele>
        <time>2015-10-24T12:30:56Z</time>
      </trkpt>
      <trkpt lat="44.17595" lon="3.13883">
        <ele>476</ele>
        <time>2015-10-24T12:31:04Z</time>
      </trkpt>
      <trkpt lat="44.17589" lon="3.13891">
        <ele>476</ele>
        <time>2015-10-24T12:31:11Z</time>
      </trkpt>
      <trkpt lat="44.17587" lon="3.13895">
        <ele>476</ele>
        <time>2015-10-24T12:31:15Z</time>
      </trkpt>
      <trkpt lat="44.17582" lon="3.13903">
        <ele>480</ele>
        <time>2015-10-24T12:31:21Z</time>
      </trkpt>
      <trkpt lat="44.17577" lon="3.13913">
        <ele>479</ele>
        <time>2015-10-24T12:31:29Z</time>
      </trkpt>
      <trkpt lat="44.17573" lon="3.13923">
        <ele>481</ele>
        <time>2015-10-24T12:31:36Z</time>
      </trkpt>
      <trkpt lat="44.17572" lon="3.13927">
        <ele>482</ele>
        <time>2015-10-24T12:31:38Z</time>
      </trkpt>
      <trkpt lat="44.17566" lon="3.13936">
        <ele>484</ele>
        <time>2015-10-24T12:31:45Z</time>
      </trkpt>
      <trkpt lat="44.17558" lon="3.13944">
        <ele>486</ele>
        <time>2015-10-24T12:31:53Z</time>
      </trkpt>
      <trkpt lat="44.17557" lon="3.13946">
        <ele>486</ele>
        <time>2015-10-24T12:31:54Z</time>
      </trkpt>
      <trkpt lat="44.17552" lon="3.13952">
        <ele>487</ele>
        <time>2015-10-24T12:31:59Z</time>
      </trkpt>
      <trkpt lat="44.17548" lon="3.13957">
        <ele>487</ele>
        <time>2015-10-24T12:32:03Z</time>
      </trkpt>
      <trkpt lat="44.17546" lon="3.13958">
        <ele>487</ele>
        <time>2015-10-24T12:32:05Z</time>
      </trkpt>
      <trkpt lat="44.17543" lon="3.13967">
        <ele>488</ele>
        <time>2015-10-24T12:32:12Z</time>
      </trkpt>
      <trkpt lat="44.17538" lon="3.13974">
        <ele>488</ele>
        <time>2015-10-24T12:32:20Z</time>
      </trkpt>
      <trkpt lat="44.17535" lon="3.13982">
        <ele>488</ele>
        <time>2015-10-24T12:32:26Z</time>
      </trkpt>
      <trkpt lat="44.17532" lon="3.13991">
        <ele>488</ele>
        <time>2015-10-24T12:32:32Z</time>
      </trkpt>
      <trkpt lat="44.17532" lon="3.13993">
        <ele>489</ele>
        <time>2015-10-24T12:32:34Z</time>
      </trkpt>
      <trkpt lat="44.17532" lon="3.13995">
        <ele>489</ele>
        <time>2015-10-24T12:32:36Z</time>
      </trkpt>
      <trkpt lat="44.17527" lon="3.14003">
        <ele>495</ele>
        <time>2015-10-24T12:32:42Z</time>
      </trkpt>
      <trkpt lat="44.17524" lon="3.14008">
        <ele>495</ele>
        <time>2015-10-24T12:32:47Z</time>
      </trkpt>
      <trkpt lat="44.17517" lon="3.14015">
        <ele>495</ele>
        <time>2015-10-24T12:32:53Z</time>
      </trkpt>
      <trkpt lat="44.17516" lon="3.14016">
        <ele>495</ele>
        <time>2015-10-24T12:32:54Z</time>
      </trkpt>
      <trkpt lat="44.17511" lon="3.14024">
        <ele>496</ele>
        <time>2015-10-24T12:32:59Z</time>
      </trkpt>
      <trkpt lat="44.17504" lon="3.14032">
        <ele>497</ele>
        <time>2015-10-24T12:33:04Z</time>
      </trkpt>
      <trkpt lat="44.17496" lon="3.14035">
        <ele>499</ele>
        <time>2015-10-24T12:33:09Z</time>
      </trkpt>
      <trkpt lat="44.17495" lon="3.14035">
        <ele>499</ele>
        <time>2015-10-24T12:33:10Z</time>
      </trkpt>
      <trkpt lat="44.1749" lon="3.14033">
        <ele>499</ele>
        <time>2015-10-24T12:33:15Z</time>
      </trkpt>
      <trkpt lat="44.17482" lon="3.14028">
        <ele>500</ele>
        <time>2015-10-24T12:33:22Z</time>
      </trkpt>
      <trkpt lat="44.17481" lon="3.14027">
        <ele>500</ele>
        <time>2015-10-24T12:33:24Z</time>
      </trkpt>
      <trkpt lat="44.17476" lon="3.14027">
        <ele>500</ele>
        <time>2015-10-24T12:33:31Z</time>
      </trkpt>
      <trkpt lat="44.17471" lon="3.14029">
        <ele>501</ele>
        <time>2015-10-24T12:33:38Z</time>
      </trkpt>
      <trkpt lat="44.17466" lon="3.14032">
        <ele>502</ele>
        <time>2015-10-24T12:33:45Z</time>
      </trkpt>
      <trkpt lat="44.1746" lon="3.14034">
        <ele>502</ele>
        <time>2015-10-24T12:33:54Z</time>
      </trkpt>
      <trkpt lat="44.17457" lon="3.14037">
        <ele>503</ele>
        <time>2015-10-24T12:33:58Z</time>
      </trkpt>
      <trkpt lat="44.17452" lon="3.14039">
        <ele>503</ele>
        <time>2015-10-24T12:34:05Z</time>
      </trkpt>
      <trkpt lat="44.17449" lon="3.14043">
        <ele>504</ele>
        <time>2015-10-24T12:34:11Z</time>
      </trkpt>
      <trkpt lat="44.17446" lon="3.14046">
        <ele>504</ele>
        <time>2015-10-24T12:34:17Z</time>
      </trkpt>
      <trkpt lat="44.17442" lon="3.14048">
        <ele>504</ele>
        <time>2015-10-24T12:34:22Z</time>
      </trkpt>
      <trkpt lat="44.17438" lon="3.14051">
        <ele>504</ele>
        <time>2015-10-24T12:34:29Z</time>
      </trkpt>
      <trkpt lat="44.17433" lon="3.14052">
        <ele>505</ele>
        <time>2015-10-24T12:34:35Z</time>
      </trkpt>
      <trkpt lat="44.17426" lon="3.14052">
        <ele>505</ele>
        <time>2015-10-24T12:34:43Z</time>
      </trkpt>
      <trkpt lat="44.17419" lon="3.14051">
        <ele>505</ele>
        <time>2015-10-24T12:34:51Z</time>
      </trkpt>
      <trkpt lat="44.17411" lon="3.14052">
        <ele>519</ele>
        <time>2015-10-24T12:34:58Z</time>
      </trkpt>
      <trkpt lat="44.17404" lon="3.14056">
        <ele>519</ele>
        <time>2015-10-24T12:35:04Z</time>
      </trkpt>
      <trkpt lat="44.17397" lon="3.14056">
        <ele>520</ele>
        <time>2015-10-24T12:35:12Z</time>
      </trkpt>
      <trkpt lat="44.1739" lon="3.14062">
        <ele>521</ele>
        <time>2015-10-24T12:35:21Z</time>
      </trkpt>
      <trkpt lat="44.17384" lon="3.1406">
        <ele>522</ele>
        <time>2015-10-24T12:35:27Z</time>
      </trkpt>
      <trkpt lat="44.17378" lon="3.14061">
        <ele>523</ele>
        <time>2015-10-24T12:35:34Z</time>
      </trkpt>
      <trkpt lat="44.17374" lon="3.14063">
        <ele>523</ele>
        <time>2015-10-24T12:35:40Z</time>
      </trkpt>
      <trkpt lat="44.17371" lon="3.14064">
        <ele>524</ele>
        <time>2015-10-24T12:35:48Z</time>
      </trkpt>
      <trkpt lat="44.17367" lon="3.14063">
        <ele>525</ele>
        <time>2015-10-24T12:35:53Z</time>
      </trkpt>
      <trkpt lat="44.17357" lon="3.14063">
        <ele>526</ele>
        <time>2015-10-24T12:36:03Z</time>
      </trkpt>
      <trkpt lat="44.17353" lon="3.14066">
        <ele>526</ele>
        <time>2015-10-24T12:36:09Z</time>
      </trkpt>
      <trkpt lat="44.17346" lon="3.14071">
        <ele>527</ele>
        <time>2015-10-24T12:36:17Z</time>
      </trkpt>
      <trkpt lat="44.17341" lon="3.1407">
        <ele>527</ele>
        <time>2015-10-24T12:36:23Z</time>
      </trkpt>
      <trkpt lat="44.17335" lon="3.14073">
        <ele>528</ele>
        <time>2015-10-24T12:36:30Z</time>
      </trkpt>
      <trkpt lat="44.1733" lon="3.14075">
        <ele>539</ele>
        <time>2015-10-24T12:36:36Z</time>
      </trkpt>
      <trkpt lat="44.17326" lon="3.14077">
        <ele>540</ele>
        <time>2015-10-24T12:36:42Z</time>
      </trkpt>
      <trkpt lat="44.17322" lon="3.1408">
        <ele>541</ele>
        <time>2015-10-24T12:36:48Z</time>
      </trkpt>
      <trkpt lat="44.17319" lon="3.14082">
        <ele>543</ele>
        <time>2015-10-24T12:36:54Z</time>
      </trkpt>
      <trkpt lat="44.17312" lon="3.14086">
        <ele>538</ele>
        <time>2015-10-24T12:37:02Z</time>
      </trkpt>
      <trkpt lat="44.17306" lon="3.1409">
        <ele>540</ele>
        <time>2015-10-24T12:37:09Z</time>
      </trkpt>
      <trkpt lat="44.17301" lon="3.14094">
        <ele>541</ele>
        <time>2015-10-24T12:37:17Z</time>
      </trkpt>
      <trkpt lat="44.17297" lon="3.14095">
        <ele>543</ele>
        <time>2015-10-24T12:37:23Z</time>
      </trkpt>
      <trkpt lat="44.17293" lon="3.14101">
        <ele>544</ele>
        <time>2015-10-24T12:37:31Z</time>
      </trkpt>
      <trkpt lat="44.17287" lon="3.14106">
        <ele>545</ele>
        <time>2015-10-24T12:37:41Z</time>
      </trkpt>
      <trkpt lat="44.17284" lon="3.14109">
        <ele>546</ele>
        <time>2015-10-24T12:37:47Z</time>
      </trkpt>
      <trkpt lat="44.17281" lon="3.14113">
        <ele>546</ele>
        <time>2015-10-24T12:37:52Z</time>
      </trkpt>
      <trkpt lat="44.17276" lon="3.14115">
        <ele>547</ele>
        <time>2015-10-24T12:37:59Z</time>
      </trkpt>
      <trkpt lat="44.17272" lon="3.14116">
        <ele>548</ele>
        <time>2015-10-24T12:38:06Z</time>
      </trkpt>
      <trkpt lat="44.17267" lon="3.14116">
        <ele>549</ele>
        <time>2015-10-24T12:38:12Z</time>
      </trkpt>
      <trkpt lat="44.17263" lon="3.14117">
        <ele>549</ele>
        <time>2015-10-24T12:38:17Z</time>
      </trkpt>
      <trkpt lat="44.1726" lon="3.14117">
        <ele>550</ele>
        <time>2015-10-24T12:38:23Z</time>
      </trkpt>
      <trkpt lat="44.17257" lon="3.1412">
        <ele>549</ele>
        <time>2015-10-24T12:38:30Z</time>
      </trkpt>
      <trkpt lat="44.17255" lon="3.14121">
        <ele>550</ele>
        <time>2015-10-24T12:38:35Z</time>
      </trkpt>
      <trkpt lat="44.1725" lon="3.14125">
        <ele>549</ele>
        <time>2015-10-24T12:38:42Z</time>
      </trkpt>
      <trkpt lat="44.17246" lon="3.14126">
        <ele>574</ele>
        <time>2015-10-24T12:38:47Z</time>
      </trkpt>
      <trkpt lat="44.17242" lon="3.14128">
        <ele>574</ele>
        <time>2015-10-24T12:38:54Z</time>
      </trkpt>
      <trkpt lat="44.17237" lon="3.14131">
        <ele>573</ele>
        <time>2015-10-24T12:39:00Z</time>
      </trkpt>
      <trkpt lat="44.17232" lon="3.14133">
        <ele>574</ele>
        <time>2015-10-24T12:39:06Z</time>
      </trkpt>
      <trkpt lat="44.17227" lon="3.14136">
        <ele>575</ele>
        <time>2015-10-24T12:39:12Z</time>
      </trkpt>
      <trkpt lat="44.17221" lon="3.1414">
        <ele>575</ele>
        <time>2015-10-24T12:39:20Z</time>
      </trkpt>
      <trkpt lat="44.17217" lon="3.14145">
        <ele>576</ele>
        <time>2015-10-24T12:39:27Z</time>
      </trkpt>
      <trkpt lat="44.17212" lon="3.14152">
        <ele>577</ele>
        <time>2015-10-24T12:39:34Z</time>
      </trkpt>
      <trkpt lat="44.17207" lon="3.14155">
        <ele>578</ele>
        <time>2015-10-24T12:39:40Z</time>
      </trkpt>
      <trkpt lat="44.17203" lon="3.14158">
        <ele>579</ele>
        <time>2015-10-24T12:39:47Z</time>
      </trkpt>
      <trkpt lat="44.17201" lon="3.14162">
        <ele>579</ele>
        <time>2015-10-24T12:39:53Z</time>
      </trkpt>
      <trkpt lat="44.17196" lon="3.14168">
        <ele>570</ele>
        <time>2015-10-24T12:40:01Z</time>
      </trkpt>
      <trkpt lat="44.17192" lon="3.14175">
        <ele>572</ele>
        <time>2015-10-24T12:40:09Z</time>
      </trkpt>
      <trkpt lat="44.1719" lon="3.1418">
        <ele>572</ele>
        <time>2015-10-24T12:40:17Z</time>
      </trkpt>
      <trkpt lat="44.17186" lon="3.14185">
        <ele>572</ele>
        <time>2015-10-24T12:40:23Z</time>
      </trkpt>
      <trkpt lat="44.1718" lon="3.14189">
        <ele>573</ele>
        <time>2015-10-24T12:40:31Z</time>
      </trkpt>
      <trkpt lat="44.17176" lon="3.14193">
        <ele>572</ele>
        <time>2015-10-24T12:40:37Z</time>
      </trkpt>
      <trkpt lat="44.17171" lon="3.14197">
        <ele>572</ele>
        <time>2015-10-24T12:40:44Z</time>
      </trkpt>
      <trkpt lat="44.17167" lon="3.14202">
        <ele>571</ele>
        <time>2015-10-24T12:40:51Z</time>
      </trkpt>
      <trkpt lat="44.17162" lon="3.14205">
        <ele>592</ele>
        <time>2015-10-24T12:40:57Z</time>
      </trkpt>
      <trkpt lat="44.17156" lon="3.14207">
        <ele>592</ele>
        <time>2015-10-24T12:41:04Z</time>
      </trkpt>
      <trkpt lat="44.17149" lon="3.1421">
        <ele>592</ele>
        <time>2015-10-24T12:41:11Z</time>
      </trkpt>
      <trkpt lat="44.17144" lon="3.14216">
        <ele>592</ele>
        <time>2015-10-24T12:41:18Z</time>
      </trkpt>
      <trkpt lat="44.17143" lon="3.14217">
        <ele>593</ele>
        <time>2015-10-24T12:41:19Z</time>
      </trkpt>
      <trkpt lat="44.17138" lon="3.14222">
        <ele>593</ele>
        <time>2015-10-24T12:41:25Z</time>
      </trkpt>
      <trkpt lat="44.17132" lon="3.14229">
        <ele>593</ele>
        <time>2015-10-24T12:41:33Z</time>
      </trkpt>
      <trkpt lat="44.17132" lon="3.1423">
        <ele>593</ele>
        <time>2015-10-24T12:41:34Z</time>
      </trkpt>
      <trkpt lat="44.17126" lon="3.14236">
        <ele>594</ele>
        <time>2015-10-24T12:41:42Z</time>
      </trkpt>
      <trkpt lat="44.1712" lon="3.14239">
        <ele>595</ele>
        <time>2015-10-24T12:41:49Z</time>
      </trkpt>
      <trkpt lat="44.17113" lon="3.14242">
        <ele>597</ele>
        <time>2015-10-24T12:41:57Z</time>
      </trkpt>
      <trkpt lat="44.17111" lon="3.14243">
        <ele>597</ele>
        <time>2015-10-24T12:41:59Z</time>
      </trkpt>
      <trkpt lat="44.171" lon="3.14251">
        <ele>592</ele>
        <time>2015-10-24T12:42:08Z</time>
      </trkpt>
      <trkpt lat="44.17091" lon="3.14259">
        <ele>594</ele>
        <time>2015-10-24T12:42:15Z</time>
      </trkpt>
      <trkpt lat="44.17084" lon="3.14262">
        <ele>594</ele>
        <time>2015-10-24T12:42:22Z</time>
      </trkpt>
      <trkpt lat="44.17079" lon="3.14265">
        <ele>602</ele>
        <time>2015-10-24T12:42:27Z</time>
      </trkpt>
      <trkpt lat="44.17075" lon="3.14267">
        <ele>602</ele>
        <time>2015-10-24T12:42:31Z</time>
      </trkpt>
      <trkpt lat="44.17065" lon="3.1427">
        <ele>602</ele>
        <time>2015-10-24T12:42:39Z</time>
      </trkpt>
      <trkpt lat="44.17057" lon="3.14273">
        <ele>602</ele>
        <time>2015-10-24T12:42:46Z</time>
      </trkpt>
      <trkpt lat="44.17048" lon="3.14277">
        <ele>603</ele>
        <time>2015-10-24T12:42:54Z</time>
      </trkpt>
      <trkpt lat="44.17041" lon="3.14282">
        <ele>603</ele>
        <time>2015-10-24T12:42:59Z</time>
      </trkpt>
      <trkpt lat="44.17038" lon="3.14285">
        <ele>603</ele>
        <time>2015-10-24T12:43:01Z</time>
      </trkpt>
      <trkpt lat="44.17029" lon="3.14292">
        <ele>603</ele>
        <time>2015-10-24T12:43:06Z</time>
      </trkpt>
      <trkpt lat="44.17014" lon="3.14298">
        <ele>603</ele>
        <time>2015-10-24T12:43:12Z</time>
      </trkpt>
      <trkpt lat="44.17004" lon="3.14295">
        <ele>604</ele>
        <time>2015-10-24T12:43:16Z</time>
      </trkpt>
      <trkpt lat="44.17003" lon="3.14294">
        <ele>605</ele>
        <time>2015-10-24T12:43:17Z</time>
      </trkpt>
      <trkpt lat="44.16997" lon="3.14291">
        <ele>622</ele>
        <time>2015-10-24T12:43:23Z</time>
      </trkpt>
      <trkpt lat="44.16994" lon="3.14291">
        <ele>622</ele>
        <time>2015-10-24T12:43:25Z</time>
      </trkpt>
      <trkpt lat="44.16986" lon="3.14288">
        <ele>623</ele>
        <time>2015-10-24T12:43:30Z</time>
      </trkpt>
      <trkpt lat="44.1698" lon="3.14284">
        <ele>625</ele>
        <time>2015-10-24T12:43:33Z</time>
      </trkpt>
      <trkpt lat="44.16968" lon="3.14293">
        <ele>625</ele>
        <time>2015-10-24T12:43:38Z</time>
      </trkpt>
      <trkpt lat="44.16967" lon="3.14298">
        <ele>625</ele>
        <time>2015-10-24T12:43:42Z</time>
      </trkpt>
      <trkpt lat="44.16967" lon="3.14299">
        <ele>625</ele>
        <time>2015-10-24T12:43:43Z</time>
      </trkpt>
      <trkpt lat="44.16969" lon="3.14307">
        <ele>623</ele>
        <time>2015-10-24T12:43:49Z</time>
      </trkpt>
      <trkpt lat="44.1697" lon="3.14314">
        <ele>621</ele>
        <time>2015-10-24T12:43:54Z</time>
      </trkpt>
      <trkpt lat="44.16972" lon="3.14322">
        <ele>619</ele>
        <time>2015-10-24T12:44:02Z</time>
      </trkpt>
      <trkpt lat="44.16973" lon="3.14328">
        <ele>618</ele>
        <time>2015-10-24T12:44:08Z</time>
      </trkpt>
      <trkpt lat="44.16973" lon="3.14328">
        <ele>618</ele>
        <time>2015-10-24T12:44:09Z</time>
      </trkpt>
      <trkpt lat="44.16971" lon="3.14335">
        <ele>612</ele>
        <time>2015-10-24T12:44:15Z</time>
      </trkpt>
      <trkpt lat="44.16967" lon="3.14344">
        <ele>613</ele>
        <time>2015-10-24T12:44:20Z</time>
      </trkpt>
      <trkpt lat="44.16961" lon="3.14353">
        <ele>615</ele>
        <time>2015-10-24T12:44:25Z</time>
      </trkpt>
      <trkpt lat="44.16955" lon="3.14365">
        <ele>616</ele>
        <time>2015-10-24T12:44:34Z</time>
      </trkpt>
      <trkpt lat="44.16954" lon="3.1437">
        <ele>616</ele>
        <time>2015-10-24T12:44:36Z</time>
      </trkpt>
      <trkpt lat="44.1695" lon="3.1438">
        <ele>617</ele>
        <time>2015-10-24T12:44:41Z</time>
      </trkpt>
      <trkpt lat="44.16945" lon="3.14386">
        <ele>618</ele>
        <time>2015-10-24T12:44:47Z</time>
      </trkpt>
      <trkpt lat="44.16942" lon="3.14393">
        <ele>618</ele>
        <time>2015-10-24T12:44:54Z</time>
      </trkpt>
      <trkpt lat="44.16938" lon="3.14401">
        <ele>619</ele>
        <time>2015-10-24T12:44:59Z</time>
      </trkpt>
      <trkpt lat="44.16936" lon="3.14404">
        <ele>620</ele>
        <time>2015-10-24T12:45:02Z</time>
      </trkpt>
      <trkpt lat="44.16934" lon="3.14407">
        <ele>621</ele>
        <time>2015-10-24T12:45:06Z</time>
      </trkpt>
      <trkpt lat="44.16931" lon="3.14414">
        <ele>622</ele>
        <time>2015-10-24T12:45:11Z</time>
      </trkpt>
      <trkpt lat="44.16926" lon="3.14426">
        <ele>624</ele>
        <time>2015-10-24T12:45:18Z</time>
      </trkpt>
      <trkpt lat="44.16924" lon="3.14436">
        <ele>624</ele>
        <time>2015-10-24T12:45:24Z</time>
      </trkpt>
      <trkpt lat="44.16921" lon="3.14443">
        <ele>624</ele>
        <time>2015-10-24T12:45:29Z</time>
      </trkpt>
      <trkpt lat="44.16919" lon="3.14447">
        <ele>624</ele>
        <time>2015-10-24T12:45:33Z</time>
      </trkpt>
      <trkpt lat="44.16914" lon="3.14452">
        <ele>638</ele>
        <time>2015-10-24T12:45:38Z</time>
      </trkpt>
      <trkpt lat="44.1691" lon="3.14459">
        <ele>639</ele>
        <time>2015-10-24T12:45:44Z</time>
      </trkpt>
      <trkpt lat="44.1691" lon="3.14462">
        <ele>639</ele>
        <time>2015-10-24T12:45:46Z</time>
      </trkpt>
      <trkpt lat="44.1691" lon="3.14464">
        <ele>638</ele>
        <time>2015-10-24T12:45:48Z</time>
      </trkpt>
      <trkpt lat="44.16907" lon="3.14473">
        <ele>638</ele>
        <time>2015-10-24T12:45:56Z</time>
      </trkpt>
      <trkpt lat="44.16903" lon="3.14476">
        <ele>638</ele>
        <time>2015-10-24T12:46:02Z</time>
      </trkpt>
      <trkpt lat="44.16897" lon="3.14478">
        <ele>639</ele>
        <time>2015-10-24T12:46:09Z</time>
      </trkpt>
      <trkpt lat="44.16891" lon="3.1448">
        <ele>640</ele>
        <time>2015-10-24T12:46:15Z</time>
      </trkpt>
      <trkpt lat="44.16887" lon="3.14483">
        <ele>641</ele>
        <time>2015-10-24T12:46:21Z</time>
      </trkpt>
      <trkpt lat="44.16884" lon="3.14488">
        <ele>641</ele>
        <time>2015-10-24T12:46:27Z</time>
      </trkpt>
      <trkpt lat="44.16878" lon="3.14492">
        <ele>642</ele>
        <time>2015-10-24T12:46:34Z</time>
      </trkpt>
      <trkpt lat="44.16875" lon="3.14491">
        <ele>643</ele>
        <time>2015-10-24T12:46:40Z</time>
      </trkpt>
      <trkpt lat="44.16875" lon="3.14487">
        <ele>643</ele>
        <time>2015-10-24T12:46:46Z</time>
      </trkpt>
      <trkpt lat="44.16877" lon="3.1448">
        <ele>643</ele>
        <time>2015-10-24T12:46:52Z</time>
      </trkpt>
      <trkpt lat="44.16877" lon="3.14473">
        <ele>643</ele>
        <time>2015-10-24T12:46:56Z</time>
      </trkpt>
      <trkpt lat="44.16879" lon="3.14469">
        <ele>643</ele>
        <time>2015-10-24T12:47:02Z</time>
      </trkpt>
      <trkpt lat="44.16881" lon="3.14463">
        <ele>643</ele>
        <time>2015-10-24T12:47:08Z</time>
      </trkpt>
      <trkpt lat="44.16883" lon="3.14458">
        <ele>643</ele>
        <time>2015-10-24T12:47:14Z</time>
      </trkpt>
      <trkpt lat="44.16882" lon="3.14457">
        <ele>643</ele>
        <time>2015-10-24T12:47:17Z</time>
      </trkpt>
      <trkpt lat="44.16878" lon="3.14453">
        <ele>644</ele>
        <time>2015-10-24T12:47:23Z</time>
      </trkpt>
      <trkpt lat="44.16873" lon="3.14455">
        <ele>645</ele>
        <time>2015-10-24T12:47:30Z</time>
      </trkpt>
      <trkpt lat="44.16869" lon="3.14456">
        <ele>646</ele>
        <time>2015-10-24T12:47:36Z</time>
      </trkpt>
      <trkpt lat="44.16866" lon="3.14458">
        <ele>646</ele>
        <time>2015-10-24T12:47:41Z</time>
      </trkpt>
      <trkpt lat="44.16863" lon="3.14459">
        <ele>647</ele>
        <time>2015-10-24T12:47:45Z</time>
      </trkpt>
      <trkpt lat="44.16858" lon="3.14461">
        <ele>648</ele>
        <time>2015-10-24T12:47:51Z</time>
      </trkpt>
      <trkpt lat="44.16854" lon="3.14462">
        <ele>648</ele>
        <time>2015-10-24T12:47:56Z</time>
      </trkpt>
      <trkpt lat="44.16848" lon="3.14465">
        <ele>649</ele>
        <time>2015-10-24T12:48:04Z</time>
      </trkpt>
      <trkpt lat="44.16845" lon="3.14465">
        <ele>649</ele>
        <time>2015-10-24T12:48:06Z</time>
      </trkpt>
      <trkpt lat="44.16837" lon="3.14466">
        <ele>650</ele>
        <time>2015-10-24T12:48:12Z</time>
      </trkpt>
      <trkpt lat="44.16829" lon="3.14468">
        <ele>670</ele>
        <time>2015-10-24T12:48:18Z</time>
      </trkpt>
      <trkpt lat="44.1682" lon="3.14472">
        <ele>670</ele>
        <time>2015-10-24T12:48:25Z</time>
      </trkpt>
      <trkpt lat="44.16815" lon="3.14476">
        <ele>670</ele>
        <time>2015-10-24T12:48:29Z</time>
      </trkpt>
      <trkpt lat="44.16807" lon="3.14479">
        <ele>672</ele>
        <time>2015-10-24T12:48:37Z</time>
      </trkpt>
      <trkpt lat="44.16803" lon="3.1448">
        <ele>673</ele>
        <time>2015-10-24T12:48:41Z</time>
      </trkpt>
      <trkpt lat="44.16801" lon="3.14481">
        <ele>673</ele>
        <time>2015-10-24T12:48:43Z</time>
      </trkpt>
      <trkpt lat="44.16795" lon="3.14484">
        <ele>674</ele>
        <time>2015-10-24T12:48:51Z</time>
      </trkpt>
      <trkpt lat="44.16791" lon="3.14487">
        <ele>675</ele>
        <time>2015-10-24T12:48:56Z</time>
      </trkpt>
      <trkpt lat="44.16785" lon="3.14491">
        <ele>676</ele>
        <time>2015-10-24T12:49:03Z</time>
      </trkpt>
      <trkpt lat="44.16781" lon="3.14497">
        <ele>677</ele>
        <time>2015-10-24T12:49:10Z</time>
      </trkpt>
      <trkpt lat="44.16774" lon="3.14501">
        <ele>674</ele>
        <time>2015-10-24T12:49:16Z</time>
      </trkpt>
      <trkpt lat="44.1677" lon="3.14507">
        <ele>675</ele>
        <time>2015-10-24T12:49:22Z</time>
      </trkpt>
      <trkpt lat="44.16768" lon="3.14509">
        <ele>675</ele>
        <time>2015-10-24T12:49:25Z</time>
      </trkpt>
      <trkpt lat="44.16762" lon="3.14514">
        <ele>676</ele>
        <time>2015-10-24T12:49:32Z</time>
      </trkpt>
      <trkpt lat="44.16759" lon="3.14519">
        <ele>676</ele>
        <time>2015-10-24T12:49:39Z</time>
      </trkpt>
      <trkpt lat="44.16757" lon="3.14523">
        <ele>675</ele>
        <time>2015-10-24T12:49:45Z</time>
      </trkpt>
      <trkpt lat="44.16753" lon="3.14528">
        <ele>675</ele>
        <time>2015-10-24T12:49:54Z</time>
      </trkpt>
      <trkpt lat="44.16749" lon="3.14534">
        <ele>691</ele>
        <time>2015-10-24T12:50:01Z</time>
      </trkpt>
      <trkpt lat="44.16744" lon="3.14536">
        <ele>691</ele>
        <time>2015-10-24T12:50:07Z</time>
      </trkpt>
      <trkpt lat="44.16745" lon="3.14533">
        <ele>691</ele>
        <time>2015-10-24T12:50:12Z</time>
      </trkpt>
      <trkpt lat="44.16746" lon="3.14528">
        <ele>691</ele>
        <time>2015-10-24T12:50:18Z</time>
      </trkpt>
      <trkpt lat="44.16749" lon="3.14522">
        <ele>690</ele>
        <time>2015-10-24T12:50:26Z</time>
      </trkpt>
      <trkpt lat="44.16749" lon="3.14515">
        <ele>689</ele>
        <time>2015-10-24T12:50:31Z</time>
      </trkpt>
      <trkpt lat="44.16751" lon="3.14507">
        <ele>679</ele>
        <time>2015-10-24T12:50:39Z</time>
      </trkpt>
      <trkpt lat="44.16753" lon="3.14497">
        <ele>682</ele>
        <time>2015-10-24T12:50:47Z</time>
      </trkpt>
      <trkpt lat="44.16754" lon="3.14495">
        <ele>682</ele>
        <time>2015-10-24T12:50:49Z</time>
      </trkpt>
      <trkpt lat="44.16755" lon="3.14493">
        <ele>682</ele>
        <time>2015-10-24T12:50:51Z</time>
      </trkpt>
      <trkpt lat="44.16757" lon="3.14488">
        <ele>681</ele>
        <time>2015-10-24T12:50:56Z</time>
      </trkpt>
      <trkpt lat="44.16758" lon="3.14482">
        <ele>681</ele>
        <time>2015-10-24T12:51:02Z</time>
      </trkpt>
      <trkpt lat="44.1676" lon="3.14477">
        <ele>681</ele>
        <time>2015-10-24T12:51:05Z</time>
      </trkpt>
      <trkpt lat="44.16761" lon="3.14474">
        <ele>681</ele>
        <time>2015-10-24T12:51:07Z</time>
      </trkpt>
      <trkpt lat="44.16764" lon="3.1447">
        <ele>681</ele>
        <time>2015-10-24T12:51:11Z</time>
      </trkpt>
      <trkpt lat="44.16765" lon="3.14468">
        <ele>681</ele>
        <time>2015-10-24T12:51:13Z</time>
      </trkpt>
      <trkpt lat="44.16767" lon="3.14465">
        <ele>681</ele>
        <time>2015-10-24T12:51:15Z</time>
      </trkpt>
      <trkpt lat="44.16768" lon="3.14457">
        <ele>682</ele>
        <time>2015-10-24T12:51:20Z</time>
      </trkpt>
      <trkpt lat="44.16769" lon="3.14451">
        <ele>683</ele>
        <time>2015-10-24T12:51:26Z</time>
      </trkpt>
      <trkpt lat="44.16774" lon="3.14444">
        <ele>684</ele>
        <time>2015-10-24T12:51:33Z</time>
      </trkpt>
      <trkpt lat="44.16778" lon="3.14436">
        <ele>684</ele>
        <time>2015-10-24T12:51:40Z</time>
      </trkpt>
      <trkpt lat="44.16781" lon="3.14431">
        <ele>684</ele>
        <time>2015-10-24T12:51:46Z</time>
      </trkpt>
      <trkpt lat="44.16784" lon="3.14425">
        <ele>684</ele>
        <time>2015-10-24T12:51:53Z</time>
      </trkpt>
      <trkpt lat="44.16786" lon="3.14422">
        <ele>684</ele>
        <time>2015-10-24T12:51:59Z</time>
      </trkpt>
      <trkpt lat="44.16787" lon="3.14413">
        <ele>694</ele>
        <time>2015-10-24T12:52:07Z</time>
      </trkpt>
      <trkpt lat="44.16785" lon="3.14408">
        <ele>694</ele>
        <time>2015-10-24T12:52:12Z</time>
      </trkpt>
      <trkpt lat="44.16785" lon="3.14403">
        <ele>695</ele>
        <time>2015-10-24T12:52:18Z</time>
      </trkpt>
      <trkpt lat="44.16785" lon="3.14394">
        <ele>695</ele>
        <time>2015-10-24T12:52:27Z</time>
      </trkpt>
      <trkpt lat="44.16784" lon="3.14384">
        <ele>696</ele>
        <time>2015-10-24T12:52:35Z</time>
      </trkpt>
      <trkpt lat="44.16783" lon="3.14376">
        <ele>696</ele>
        <time>2015-10-24T12:52:42Z</time>
      </trkpt>
      <trkpt lat="44.16779" lon="3.14368">
        <ele>698</ele>
        <time>2015-10-24T12:52:50Z</time>
      </trkpt>
      <trkpt lat="44.16777" lon="3.14361">
        <ele>699</ele>
        <time>2015-10-24T12:52:58Z</time>
      </trkpt>
      <trkpt lat="44.16771" lon="3.14353">
        <ele>702</ele>
        <time>2015-10-24T12:53:07Z</time>
      </trkpt>
      <trkpt lat="44.16766" lon="3.14346">
        <ele>705</ele>
        <time>2015-10-24T12:53:15Z</time>
      </trkpt>
      <trkpt lat="44.16765" lon="3.14342">
        <ele>706</ele>
        <time>2015-10-24T12:53:19Z</time>
      </trkpt>
      <trkpt lat="44.16763" lon="3.14339">
        <ele>707</ele>
        <time>2015-10-24T12:53:24Z</time>
      </trkpt>
      <trkpt lat="44.16761" lon="3.14333">
        <ele>712</ele>
        <time>2015-10-24T12:53:31Z</time>
      </trkpt>
      <trkpt lat="44.16759" lon="3.14329">
        <ele>712</ele>
        <time>2015-10-24T12:53:35Z</time>
      </trkpt>
      <trkpt lat="44.16756" lon="3.14323">
        <ele>711</ele>
        <time>2015-10-24T12:53:42Z</time>
      </trkpt>
      <trkpt lat="44.16753" lon="3.14318">
        <ele>711</ele>
        <time>2015-10-24T12:53:48Z</time>
      </trkpt>
      <trkpt lat="44.1675" lon="3.14313">
        <ele>732</ele>
        <time>2015-10-24T12:53:54Z</time>
      </trkpt>
      <trkpt lat="44.16748" lon="3.14308">
        <ele>734</ele>
        <time>2015-10-24T12:54:00Z</time>
      </trkpt>
      <trkpt lat="44.16747" lon="3.14303">
        <ele>736</ele>
        <time>2015-10-24T12:54:06Z</time>
      </trkpt>
      <trkpt lat="44.16746" lon="3.14303">
        <ele>736</ele>
        <time>2015-10-24T12:54:13Z</time>
      </trkpt>
      <trkpt lat="44.16745" lon="3.14308">
        <ele>735</ele>
        <time>2015-10-24T12:54:20Z</time>
      </trkpt>
      <trkpt lat="44.16743" lon="3.14309">
        <ele>735</ele>
        <time>2015-10-24T12:54:25Z</time>
      </trkpt>
      <trkpt lat="44.16741" lon="3.14313">
        <ele>734</ele>
        <time>2015-10-24T12:54:31Z</time>
      </trkpt>
      <trkpt lat="44.16739" lon="3.14319">
        <ele>732</ele>
        <time>2015-10-24T12:54:37Z</time>
      </trkpt>
      <trkpt lat="44.16736" lon="3.14329">
        <ele>730</ele>
        <time>2015-10-24T12:54:44Z</time>
      </trkpt>
      <trkpt lat="44.16732" lon="3.14336">
        <ele>727</ele>
        <time>2015-10-24T12:54:54Z</time>
      </trkpt>
      <trkpt lat="44.16728" lon="3.14346">
        <ele>729</ele>
        <time>2015-10-24T12:55:01Z</time>
      </trkpt>
      <trkpt lat="44.16727" lon="3.1435">
        <ele>730</ele>
        <time>2015-10-24T12:55:05Z</time>
      </trkpt>
      <trkpt lat="44.16725" lon="3.14361">
        <ele>731</ele>
        <time>2015-10-24T12:55:13Z</time>
      </trkpt>
      <trkpt lat="44.16722" lon="3.14372">
        <ele>731</ele>
        <time>2015-10-24T12:55:21Z</time>
      </trkpt>
      <trkpt lat="44.16722" lon="3.14373">
        <ele>731</ele>
        <time>2015-10-24T12:55:22Z</time>
      </trkpt>
      <trkpt lat="44.1672" lon="3.14376">
        <ele>731</ele>
        <time>2015-10-24T12:55:27Z</time>
      </trkpt>
      <trkpt lat="44.16718" lon="3.14379">
        <ele>731</ele>
        <time>2015-10-24T12:55:32Z</time>
      </trkpt>
      <trkpt lat="44.16712" lon="3.14385">
        <ele>732</ele>
        <time>2015-10-24T12:55:40Z</time>
      </trkpt>
      <trkpt lat="44.16709" lon="3.14389">
        <ele>733</ele>
        <time>2015-10-24T12:55:46Z</time>
      </trkpt>
      <trkpt lat="44.16706" lon="3.14394">
        <ele>734</ele>
        <time>2015-10-24T12:55:53Z</time>
      </trkpt>
      <trkpt lat="44.16703" lon="3.14398">
        <ele>734</ele>
        <time>2015-10-24T12:55:58Z</time>
      </trkpt>
      <trkpt lat="44.16696" lon="3.14405">
        <ele>736</ele>
        <time>2015-10-24T12:56:07Z</time>
      </trkpt>
      <trkpt lat="44.16693" lon="3.14408">
        <ele>737</ele>
        <time>2015-10-24T12:56:10Z</time>
      </trkpt>
      <trkpt lat="44.1669" lon="3.1441">
        <ele>738</ele>
        <time>2015-10-24T12:56:14Z</time>
      </trkpt>
      <trkpt lat="44.16683" lon="3.14415">
        <ele>741</ele>
        <time>2015-10-24T12:56:21Z</time>
      </trkpt>
      <trkpt lat="44.16681" lon="3.14417">
        <ele>733</ele>
        <time>2015-10-24T12:56:23Z</time>
      </trkpt>
      <trkpt lat="44.16673" lon="3.14422">
        <ele>738</ele>
        <time>2015-10-24T12:56:33Z</time>
      </trkpt>
      <trkpt lat="44.16669" lon="3.14426">
        <ele>737</ele>
        <time>2015-10-24T12:56:40Z</time>
      </trkpt>
      <trkpt lat="44.16662" lon="3.14431">
        <ele>748</ele>
        <time>2015-10-24T12:56:48Z</time>
      </trkpt>
      <trkpt lat="44.16656" lon="3.14435">
        <ele>749</ele>
        <time>2015-10-24T12:56:56Z</time>
      </trkpt>
      <trkpt lat="44.16651" lon="3.1444">
        <ele>749</ele>
        <time>2015-10-24T12:57:04Z</time>
      </trkpt>
      <trkpt lat="44.16646" lon="3.14444">
        <ele>749</ele>
        <time>2015-10-24T12:57:11Z</time>
      </trkpt>
      <trkpt lat="44.16638" lon="3.14447">
        <ele>750</ele>
        <time>2015-10-24T12:57:19Z</time>
      </trkpt>
      <trkpt lat="44.16635" lon="3.14451">
        <ele>750</ele>
        <time>2015-10-24T12:57:25Z</time>
      </trkpt>
      <trkpt lat="44.16629" lon="3.14453">
        <ele>750</ele>
        <time>2015-10-24T12:57:31Z</time>
      </trkpt>
      <trkpt lat="44.16624" lon="3.14456">
        <ele>751</ele>
        <time>2015-10-24T12:57:38Z</time>
      </trkpt>
      <trkpt lat="44.1662" lon="3.14457">
        <ele>751</ele>
        <time>2015-10-24T12:57:43Z</time>
      </trkpt>
      <trkpt lat="44.16615" lon="3.14459">
        <ele>752</ele>
        <time>2015-10-24T12:57:51Z</time>
      </trkpt>
      <trkpt lat="44.16609" lon="3.14462">
        <ele>753</ele>
        <time>2015-10-24T12:57:58Z</time>
      </trkpt>
      <trkpt lat="44.16602" lon="3.14464">
        <ele>753</ele>
        <time>2015-10-24T12:58:07Z</time>
      </trkpt>
      <trkpt lat="44.16597" lon="3.14465">
        <ele>754</ele>
        <time>2015-10-24T12:58:14Z</time>
      </trkpt>
      <trkpt lat="44.16593" lon="3.14466">
        <ele>754</ele>
        <time>2015-10-24T12:58:21Z</time>
      </trkpt>
      <trkpt lat="44.16588" lon="3.14467">
        <ele>754</ele>
        <time>2015-10-24T12:58:27Z</time>
      </trkpt>
      <trkpt lat="44.16582" lon="3.14467">
        <ele>772</ele>
        <time>2015-10-24T12:58:35Z</time>
      </trkpt>
      <trkpt lat="44.16576" lon="3.14467">
        <ele>772</ele>
        <time>2015-10-24T12:58:43Z</time>
      </trkpt>
      <trkpt lat="44.16571" lon="3.14471">
        <ele>772</ele>
        <time>2015-10-24T12:58:50Z</time>
      </trkpt>
      <trkpt lat="44.16564" lon="3.14475">
        <ele>772</ele>
        <time>2015-10-24T12:58:58Z</time>
      </trkpt>
      <trkpt lat="44.16557" lon="3.1448">
        <ele>773</ele>
        <time>2015-10-24T12:59:06Z</time>
      </trkpt>
      <trkpt lat="44.16551" lon="3.14485">
        <ele>774</ele>
        <time>2015-10-24T12:59:14Z</time>
      </trkpt>
      <trkpt lat="44.16548" lon="3.14487">
        <ele>774</ele>
        <time>2015-10-24T12:59:20Z</time>
      </trkpt>
      <trkpt lat="44.16543" lon="3.1449">
        <ele>775</ele>
        <time>2015-10-24T12:59:26Z</time>
      </trkpt>
      <trkpt lat="44.16537" lon="3.14496">
        <ele>776</ele>
        <time>2015-10-24T12:59:32Z</time>
      </trkpt>
      <trkpt lat="44.16532" lon="3.14499">
        <ele>777</ele>
        <time>2015-10-24T12:59:36Z</time>
      </trkpt>
      <trkpt lat="44.16526" lon="3.14505">
        <ele>767</ele>
        <time>2015-10-24T12:59:44Z</time>
      </trkpt>
      <trkpt lat="44.16519" lon="3.14511">
        <ele>768</ele>
        <time>2015-10-24T12:59:51Z</time>
      </trkpt>
      <trkpt lat="44.16514" lon="3.14515">
        <ele>769</ele>
        <time>2015-10-24T12:59:58Z</time>
      </trkpt>
      <trkpt lat="44.16509" lon="3.14519">
        <ele>769</ele>
        <time>2015-10-24T13:00:04Z</time>
      </trkpt>
      <trkpt lat="44.16505" lon="3.14521">
        <ele>769</ele>
        <time>2015-10-24T13:00:09Z</time>
      </trkpt>
      <trkpt lat="44.165" lon="3.14524">
        <ele>779</ele>
        <time>2015-10-24T13:00:16Z</time>
      </trkpt>
      <trkpt lat="44.16499" lon="3.14525">
        <ele>779</ele>
        <time>2015-10-24T13:00:18Z</time>
      </trkpt>
      <trkpt lat="44.16499" lon="3.1453">
        <ele>778</ele>
        <time>2015-10-24T13:00:22Z</time>
      </trkpt>
      <trkpt lat="44.16498" lon="3.14544">
        <ele>776</ele>
        <time>2015-10-24T13:00:28Z</time>
      </trkpt>
      <trkpt lat="44.16493" lon="3.14551">
        <ele>775</ele>
        <time>2015-10-24T13:00:32Z</time>
      </trkpt>
      <trkpt lat="44.1649" lon="3.14554">
        <ele>775</ele>
        <time>2015-10-24T13:00:35Z</time>
      </trkpt>
      <trkpt lat="44.16482" lon="3.14559">
        <ele>774</ele>
        <time>2015-10-24T13:00:41Z</time>
      </trkpt>
      <trkpt lat="44.16476" lon="3.14564">
        <ele>774</ele>
        <time>2015-10-24T13:00:47Z</time>
      </trkpt>
      <trkpt lat="44.16467" lon="3.14568">
        <ele>775</ele>
        <time>2015-10-24T13:00:54Z</time>
      </trkpt>
      <trkpt lat="44.16461" lon="3.1457">
        <ele>775</ele>
        <time>2015-10-24T13:00:59Z</time>
      </trkpt>
      <trkpt lat="44.16456" lon="3.14573">
        <ele>775</ele>
        <time>2015-10-24T13:01:02Z</time>
      </trkpt>
      <trkpt lat="44.16445" lon="3.14572">
        <ele>776</ele>
        <time>2015-10-24T13:01:08Z</time>
      </trkpt>
      <trkpt lat="44.16437" lon="3.14574">
        <ele>775</ele>
        <time>2015-10-24T13:01:13Z</time>
      </trkpt>
      <trkpt lat="44.16431" lon="3.14575">
        <ele>775</ele>
        <time>2015-10-24T13:01:17Z</time>
      </trkpt>
      <trkpt lat="44.16427" lon="3.1457">
        <ele>776</ele>
        <time>2015-10-24T13:01:21Z</time>
      </trkpt>
      <trkpt lat="44.16425" lon="3.14567">
        <ele>776</ele>
        <time>2015-10-24T13:01:23Z</time>
      </trkpt>
      <trkpt lat="44.16414" lon="3.14551">
        <ele>781</ele>
        <time>2015-10-24T13:01:29Z</time>
      </trkpt>
      <trkpt lat="44.16403" lon="3.14546">
        <ele>782</ele>
        <time>2015-10-24T13:01:34Z</time>
      </trkpt>
      <trkpt lat="44.1639" lon="3.14547">
        <ele>782</ele>
        <time>2015-10-24T13:01:39Z</time>
      </trkpt>
      <trkpt lat="44.16379" lon="3.1455">
        <ele>782</ele>
        <time>2015-10-24T13:01:43Z</time>
      </trkpt>
      <trkpt lat="44.1637" lon="3.14555">
        <ele>781</ele>
        <time>2015-10-24T13:01:47Z</time>
      </trkpt>
      <trkpt lat="44.16363" lon="3.14559">
        <ele>781</ele>
        <time>2015-10-24T13:01:50Z</time>
      </trkpt>
      <trkpt lat="44.16356" lon="3.1456">
        <ele>781</ele>
        <time>2015-10-24T13:01:53Z</time>
      </trkpt>
      <trkpt lat="44.16348" lon="3.14556">
        <ele>781</ele>
        <time>2015-10-24T13:01:58Z</time>
      </trkpt>
      <trkpt lat="44.16343" lon="3.14554">
        <ele>782</ele>
        <time>2015-10-24T13:02:05Z</time>
      </trkpt>
      <trkpt lat="44.16342" lon="3.14553">
        <ele>782</ele>
        <time>2015-10-24T13:02:06Z</time>
      </trkpt>
      <trkpt lat="44.16334" lon="3.1455">
        <ele>782</ele>
        <time>2015-10-24T13:02:13Z</time>
      </trkpt>
      <trkpt lat="44.16329" lon="3.14546">
        <ele>785</ele>
        <time>2015-10-24T13:02:19Z</time>
      </trkpt>
      <trkpt lat="44.16328" lon="3.14541">
        <ele>786</ele>
        <time>2015-10-24T13:02:26Z</time>
      </trkpt>
      <trkpt lat="44.16324" lon="3.14537">
        <ele>786</ele>
        <time>2015-10-24T13:02:31Z</time>
      </trkpt>
      <trkpt lat="44.16321" lon="3.14537">
        <ele>786</ele>
        <time>2015-10-24T13:02:33Z</time>
      </trkpt>
      <trkpt lat="44.16314" lon="3.14533">
        <ele>787</ele>
        <time>2015-10-24T13:02:40Z</time>
      </trkpt>
      <trkpt lat="44.16311" lon="3.14531">
        <ele>787</ele>
        <time>2015-10-24T13:02:44Z</time>
      </trkpt>
      <trkpt lat="44.1631" lon="3.14523">
        <ele>788</ele>
        <time>2015-10-24T13:02:51Z</time>
      </trkpt>
      <trkpt lat="44.16304" lon="3.1452">
        <ele>788</ele>
        <time>2015-10-24T13:02:57Z</time>
      </trkpt>
      <trkpt lat="44.16303" lon="3.1452">
        <ele>788</ele>
        <time>2015-10-24T13:02:58Z</time>
      </trkpt>
      <trkpt lat="44.163" lon="3.14518">
        <ele>788</ele>
        <time>2015-10-24T13:03:03Z</time>
      </trkpt>
      <trkpt lat="44.16296" lon="3.14516">
        <ele>789</ele>
        <time>2015-10-24T13:03:08Z</time>
      </trkpt>
      <trkpt lat="44.16291" lon="3.14513">
        <ele>789</ele>
        <time>2015-10-24T13:03:15Z</time>
      </trkpt>
      <trkpt lat="44.16287" lon="3.1451">
        <ele>790</ele>
        <time>2015-10-24T13:03:25Z</time>
      </trkpt>
      <trkpt lat="44.16288" lon="3.14504">
        <ele>790</ele>
        <time>2015-10-24T13:03:33Z</time>
      </trkpt>
      <trkpt lat="44.16289" lon="3.14499">
        <ele>798</ele>
        <time>2015-10-24T13:03:39Z</time>
      </trkpt>
      <trkpt lat="44.16291" lon="3.14492">
        <ele>798</ele>
        <time>2015-10-24T13:03:48Z</time>
      </trkpt>
      <trkpt lat="44.16287" lon="3.14488">
        <ele>798</ele>
        <time>2015-10-24T13:03:53Z</time>
      </trkpt>
      <trkpt lat="44.16283" lon="3.14483">
        <ele>799</ele>
        <time>2015-10-24T13:03:58Z</time>
      </trkpt>
      <trkpt lat="44.16281" lon="3.14478">
        <ele>799</ele>
        <time>2015-10-24T13:04:05Z</time>
      </trkpt>
      <trkpt lat="44.16278" lon="3.14475">
        <ele>799</ele>
        <time>2015-10-24T13:04:12Z</time>
      </trkpt>
      <trkpt lat="44.16272" lon="3.1447">
        <ele>800</ele>
        <time>2015-10-24T13:04:20Z</time>
      </trkpt>
      <trkpt lat="44.16269" lon="3.14466">
        <ele>800</ele>
        <time>2015-10-24T13:04:27Z</time>
      </trkpt>
      <trkpt lat="44.16267" lon="3.14464">
        <ele>800</ele>
        <time>2015-10-24T13:04:34Z</time>
      </trkpt>
      <trkpt lat="44.16264" lon="3.14463">
        <ele>800</ele>
        <time>2015-10-24T13:04:42Z</time>
      </trkpt>
      <trkpt lat="44.16261" lon="3.14461">
        <ele>801</ele>
        <time>2015-10-24T13:04:49Z</time>
      </trkpt>
      <trkpt lat="44.16259" lon="3.14458">
        <ele>801</ele>
        <time>2015-10-24T13:04:55Z</time>
      </trkpt>
      <trkpt lat="44.16253" lon="3.14451">
        <ele>802</ele>
        <time>2015-10-24T13:05:04Z</time>
      </trkpt>
      <trkpt lat="44.1625" lon="3.14449">
        <ele>802</ele>
        <time>2015-10-24T13:05:11Z</time>
      </trkpt>
      <trkpt lat="44.16248" lon="3.14446">
        <ele>806</ele>
        <time>2015-10-24T13:05:15Z</time>
      </trkpt>
      <trkpt lat="44.16243" lon="3.14446">
        <ele>806</ele>
        <time>2015-10-24T13:05:21Z</time>
      </trkpt>
      <trkpt lat="44.16243" lon="3.14446">
        <ele>806</ele>
        <time>2015-10-24T13:05:29Z</time>
      </trkpt>
      <trkpt lat="44.16241" lon="3.14442">
        <ele>806</ele>
        <time>2015-10-24T13:05:37Z</time>
      </trkpt>
      <trkpt lat="44.16239" lon="3.14441">
        <ele>806</ele>
        <time>2015-10-24T13:05:43Z</time>
      </trkpt>
      <trkpt lat="44.16237" lon="3.1444">
        <ele>806</ele>
        <time>2015-10-24T13:05:50Z</time>
      </trkpt>
      <trkpt lat="44.16235" lon="3.14438">
        <ele>806</ele>
        <time>2015-10-24T13:05:56Z</time>
      </trkpt>
      <trkpt lat="44.16234" lon="3.14437">
        <ele>806</ele>
        <time>2015-10-24T13:05:58Z</time>
      </trkpt>
      <trkpt lat="44.1623" lon="3.14431">
        <ele>806</ele>
        <time>2015-10-24T13:06:05Z</time>
      </trkpt>
      <trkpt lat="44.16228" lon="3.14428">
        <ele>807</ele>
        <time>2015-10-24T13:06:11Z</time>
      </trkpt>
      <trkpt lat="44.16224" lon="3.14427">
        <ele>807</ele>
        <time>2015-10-24T13:06:14Z</time>
      </trkpt>
      <trkpt lat="44.16217" lon="3.14431">
        <ele>807</ele>
        <time>2015-10-24T13:06:20Z</time>
      </trkpt>
      <trkpt lat="44.1621" lon="3.14431">
        <ele>807</ele>
        <time>2015-10-24T13:06:24Z</time>
      </trkpt>
      <trkpt lat="44.16203" lon="3.14432">
        <ele>807</ele>
        <time>2015-10-24T13:06:28Z</time>
      </trkpt>
      <trkpt lat="44.16194" lon="3.14437">
        <ele>808</ele>
        <time>2015-10-24T13:06:34Z</time>
      </trkpt>
      <trkpt lat="44.16188" lon="3.14439">
        <ele>808</ele>
        <time>2015-10-24T13:06:38Z</time>
      </trkpt>
      <trkpt lat="44.16187" lon="3.1444">
        <ele>808</ele>
        <time>2015-10-24T13:06:40Z</time>
      </trkpt>
      <trkpt lat="44.1618" lon="3.14443">
        <ele>808</ele>
        <time>2015-10-24T13:06:45Z</time>
      </trkpt>
      <trkpt lat="44.16171" lon="3.14451">
        <ele>808</ele>
        <time>2015-10-24T13:06:51Z</time>
      </trkpt>
      <trkpt lat="44.16165" lon="3.14456">
        <ele>811</ele>
        <time>2015-10-24T13:06:55Z</time>
      </trkpt>
      <trkpt lat="44.16163" lon="3.14457">
        <ele>811</ele>
        <time>2015-10-24T13:06:56Z</time>
      </trkpt>
      <trkpt lat="44.16152" lon="3.14459">
        <ele>811</ele>
        <time>2015-10-24T13:07:02Z</time>
      </trkpt>
      <trkpt lat="44.16143" lon="3.14463">
        <ele>811</ele>
        <time>2015-10-24T13:07:06Z</time>
      </trkpt>
      <trkpt lat="44.16129" lon="3.14462">
        <ele>812</ele>
        <time>2015-10-24T13:07:12Z</time>
      </trkpt>
      <trkpt lat="44.16118" lon="3.14464">
        <ele>812</ele>
        <time>2015-10-24T13:07:17Z</time>
      </trkpt>
      <trkpt lat="44.1611" lon="3.14464">
        <ele>812</ele>
        <time>2015-10-24T13:07:21Z</time>
      </trkpt>
      <trkpt lat="44.16101" lon="3.14467">
        <ele>813</ele>
        <time>2015-10-24T13:07:27Z</time>
      </trkpt>
      <trkpt lat="44.16097" lon="3.14468">
        <ele>813</ele>
        <time>2015-10-24T13:07:31Z</time>
      </trkpt>
      <trkpt lat="44.16094" lon="3.14469">
        <ele>813</ele>
        <time>2015-10-24T13:07:34Z</time>
      </trkpt>
      <trkpt lat="44.16086" lon="3.14472">
        <ele>813</ele>
        <time>2015-10-24T13:07:40Z</time>
      </trkpt>
      <trkpt lat="44.16078" lon="3.14479">
        <ele>817</ele>
        <time>2015-10-24T13:07:46Z</time>
      </trkpt>
      <trkpt lat="44.16069" lon="3.14492">
        <ele>816</ele>
        <time>2015-10-24T13:07:52Z</time>
      </trkpt>
      <trkpt lat="44.16064" lon="3.14503">
        <ele>816</ele>
        <time>2015-10-24T13:07:57Z</time>
      </trkpt>
      <trkpt lat="44.16057" lon="3.14509">
        <ele>816</ele>
        <time>2015-10-24T13:08:01Z</time>
      </trkpt>
      <trkpt lat="44.16054" lon="3.14509">
        <ele>816</ele>
        <time>2015-10-24T13:08:02Z</time>
      </trkpt>
      <trkpt lat="44.16046" lon="3.14509">
        <ele>816</ele>
        <time>2015-10-24T13:08:07Z</time>
      </trkpt>
      <trkpt lat="44.16039" lon="3.14506">
        <ele>817</ele>
        <time>2015-10-24T13:08:11Z</time>
      </trkpt>
      <trkpt lat="44.16026" lon="3.14505">
        <ele>818</ele>
        <time>2015-10-24T13:08:19Z</time>
      </trkpt>
      <trkpt lat="44.16024" lon="3.14506">
        <ele>818</ele>
        <time>2015-10-24T13:08:21Z</time>
      </trkpt>
      <trkpt lat="44.16016" lon="3.14507">
        <ele>818</ele>
        <time>2015-10-24T13:08:27Z</time>
      </trkpt>
      <trkpt lat="44.16006" lon="3.14507">
        <ele>819</ele>
        <time>2015-10-24T13:08:34Z</time>
      </trkpt>
      <trkpt lat="44.15996" lon="3.14504">
        <ele>821</ele>
        <time>2015-10-24T13:08:41Z</time>
      </trkpt>
      <trkpt lat="44.15993" lon="3.14503">
        <ele>821</ele>
        <time>2015-10-24T13:08:43Z</time>
      </trkpt>
      <trkpt lat="44.15986" lon="3.14499">
        <ele>821</ele>
        <time>2015-10-24T13:08:48Z</time>
      </trkpt>
      <trkpt lat="44.15974" lon="3.14501">
        <ele>821</ele>
        <time>2015-10-24T13:08:56Z</time>
      </trkpt>
      <trkpt lat="44.15963" lon="3.14504">
        <ele>821</ele>
        <time>2015-10-24T13:09:02Z</time>
      </trkpt>
      <trkpt lat="44.15961" lon="3.14504">
        <ele>821</ele>
        <time>2015-10-24T13:09:03Z</time>
      </trkpt>
      <trkpt lat="44.15951" lon="3.14506">
        <ele>821</ele>
        <time>2015-10-24T13:09:08Z</time>
      </trkpt>
      <trkpt lat="44.15946" lon="3.14509">
        <ele>821</ele>
        <time>2015-10-24T13:09:11Z</time>
      </trkpt>
      <trkpt lat="44.15935" lon="3.14513">
        <ele>822</ele>
        <time>2015-10-24T13:09:16Z</time>
      </trkpt>
      <trkpt lat="44.15927" lon="3.14518">
        <ele>822</ele>
        <time>2015-10-24T13:09:20Z</time>
      </trkpt>
      <trkpt lat="44.1592" lon="3.14519">
        <ele>822</ele>
        <time>2015-10-24T13:09:23Z</time>
      </trkpt>
      <trkpt lat="44.15907" lon="3.14522">
        <ele>823</ele>
        <time>2015-10-24T13:09:29Z</time>
      </trkpt>
      <trkpt lat="44.15903" lon="3.14523">
        <ele>823</ele>
        <time>2015-10-24T13:09:31Z</time>
      </trkpt>
      <trkpt lat="44.15892" lon="3.14521">
        <ele>823</ele>
        <time>2015-10-24T13:09:36Z</time>
      </trkpt>
      <trkpt lat="44.15883" lon="3.14518">
        <ele>823</ele>
        <time>2015-10-24T13:09:40Z</time>
      </trkpt>
      <trkpt lat="44.15871" lon="3.14518">
        <ele>823</ele>
        <time>2015-10-24T13:09:45Z</time>
      </trkpt>
      <trkpt lat="44.15861" lon="3.14518">
        <ele>824</ele>
        <time>2015-10-24T13:09:49Z</time>
      </trkpt>
      <trkpt lat="44.1585" lon="3.14518">
        <ele>824</ele>
        <time>2015-10-24T13:09:54Z</time>
      </trkpt>
      <trkpt lat="44.15839" lon="3.14516">
        <ele>824</ele>
        <time>2015-10-24T13:10:00Z</time>
      </trkpt>
      <trkpt lat="44.15831" lon="3.14518">
        <ele>826</ele>
        <time>2015-10-24T13:10:04Z</time>
      </trkpt>
      <trkpt lat="44.15822" lon="3.14525">
        <ele>827</ele>
        <time>2015-10-24T13:10:10Z</time>
      </trkpt>
      <trkpt lat="44.15815" lon="3.14529">
        <ele>827</ele>
        <time>2015-10-24T13:10:14Z</time>
      </trkpt>
      <trkpt lat="44.15803" lon="3.14533">
        <ele>827</ele>
        <time>2015-10-24T13:10:19Z</time>
      </trkpt>
      <trkpt lat="44.15795" lon="3.14535">
        <ele>827</ele>
        <time>2015-10-24T13:10:22Z</time>
      </trkpt>
      <trkpt lat="44.15784" lon="3.14537">
        <ele>828</ele>
        <time>2015-10-24T13:10:27Z</time>
      </trkpt>
      <trkpt lat="44.15773" lon="3.14546">
        <ele>828</ele>
        <time>2015-10-24T13:10:33Z</time>
      </trkpt>
      <trkpt lat="44.15769" lon="3.14549">
        <ele>828</ele>
        <time>2015-10-24T13:10:35Z</time>
      </trkpt>
      <trkpt lat="44.15759" lon="3.14561">
        <ele>828</ele>
        <time>2015-10-24T13:10:41Z</time>
      </trkpt>
      <trkpt lat="44.15752" lon="3.14567">
        <ele>829</ele>
        <time>2015-10-24T13:10:45Z</time>
      </trkpt>
      <trkpt lat="44.15743" lon="3.14577">
        <ele>831</ele>
        <time>2015-10-24T13:10:50Z</time>
      </trkpt>
      <trkpt lat="44.15741" lon="3.1458">
        <ele>831</ele>
        <time>2015-10-24T13:10:51Z</time>
      </trkpt>
      <trkpt lat="44.15734" lon="3.14583">
        <ele>832</ele>
        <time>2015-10-24T13:10:55Z</time>
      </trkpt>
      <trkpt lat="44.15723" lon="3.14586">
        <ele>831</ele>
        <time>2015-10-24T13:11:01Z</time>
      </trkpt>
      <trkpt lat="44.15718" lon="3.14593">
        <ele>831</ele>
        <time>2015-10-24T13:11:05Z</time>
      </trkpt>
      <trkpt lat="44.15706" lon="3.14603">
        <ele>831</ele>
        <time>2015-10-24T13:11:11Z</time>
      </trkpt>
      <trkpt lat="44.15702" lon="3.14607">
        <ele>831</ele>
        <time>2015-10-24T13:11:14Z</time>
      </trkpt>
      <trkpt lat="44.15689" lon="3.14614">
        <ele>831</ele>
        <time>2015-10-24T13:11:21Z</time>
      </trkpt>
      <trkpt lat="44.15678" lon="3.14619">
        <ele>832</ele>
        <time>2015-10-24T13:11:26Z</time>
      </trkpt>
      <trkpt lat="44.1567" lon="3.14619">
        <ele>832</ele>
        <time>2015-10-24T13:11:29Z</time>
      </trkpt>
      <trkpt lat="44.1566" lon="3.14618">
        <ele>836</ele>
        <time>2015-10-24T13:11:34Z</time>
      </trkpt>
      <trkpt lat="44.15648" lon="3.14628">
        <ele>836</ele>
        <time>2015-10-24T13:11:40Z</time>
      </trkpt>
      <trkpt lat="44.15637" lon="3.14636">
        <ele>836</ele>
        <time>2015-10-24T13:11:45Z</time>
      </trkpt>
      <trkpt lat="44.15628" lon="3.1465">
        <ele>836</ele>
        <time>2015-10-24T13:11:51Z</time>
      </trkpt>
      <trkpt lat="44.15623" lon="3.1466">
        <ele>836</ele>
        <time>2015-10-24T13:11:55Z</time>
      </trkpt>
      <trkpt lat="44.15618" lon="3.14669">
        <ele>836</ele>
        <time>2015-10-24T13:12:01Z</time>
      </trkpt>
      <trkpt lat="44.15617" lon="3.14683">
        <ele>836</ele>
        <time>2015-10-24T13:12:07Z</time>
      </trkpt>
      <trkpt lat="44.15617" lon="3.14691">
        <ele>836</ele>
        <time>2015-10-24T13:12:11Z</time>
      </trkpt>
      <trkpt lat="44.15618" lon="3.14706">
        <ele>835</ele>
        <time>2015-10-24T13:12:19Z</time>
      </trkpt>
      <trkpt lat="44.15618" lon="3.14718">
        <ele>835</ele>
        <time>2015-10-24T13:12:26Z</time>
      </trkpt>
      <trkpt lat="44.15617" lon="3.14733">
        <ele>836</ele>
        <time>2015-10-24T13:12:34Z</time>
      </trkpt>
      <trkpt lat="44.1561" lon="3.14743">
        <ele>836</ele>
        <time>2015-10-24T13:12:41Z</time>
      </trkpt>
      <trkpt lat="44.15601" lon="3.14745">
        <ele>837</ele>
        <time>2015-10-24T13:12:47Z</time>
      </trkpt>
      <trkpt lat="44.15596" lon="3.14741">
        <ele>838</ele>
        <time>2015-10-24T13:12:51Z</time>
      </trkpt>
      <trkpt lat="44.15586" lon="3.1474">
        <ele>838</ele>
        <time>2015-10-24T13:12:58Z</time>
      </trkpt>
      <trkpt lat="44.15582" lon="3.1475">
        <ele>840</ele>
        <time>2015-10-24T13:13:04Z</time>
      </trkpt>
      <trkpt lat="44.15578" lon="3.14766">
        <ele>842</ele>
        <time>2015-10-24T13:13:11Z</time>
      </trkpt>
      <trkpt lat="44.15574" lon="3.14774">
        <ele>843</ele>
        <time>2015-10-24T13:13:15Z</time>
      </trkpt>
      <trkpt lat="44.15568" lon="3.14786">
        <ele>843</ele>
        <time>2015-10-24T13:13:21Z</time>
      </trkpt>
      <trkpt lat="44.15562" lon="3.14796">
        <ele>844</ele>
        <time>2015-10-24T13:13:27Z</time>
      </trkpt>
      <trkpt lat="44.15558" lon="3.14809">
        <ele>844</ele>
        <time>2015-10-24T13:13:33Z</time>
      </trkpt>
      <trkpt lat="44.15558" lon="3.14818">
        <ele>844</ele>
        <time>2015-10-24T13:13:37Z</time>
      </trkpt>
      <trkpt lat="44.15557" lon="3.14837">
        <ele>845</ele>
        <time>2015-10-24T13:13:43Z</time>
      </trkpt>
      <trkpt lat="44.15558" lon="3.1485">
        <ele>845</ele>
        <time>2015-10-24T13:13:49Z</time>
      </trkpt>
      <trkpt lat="44.15557" lon="3.14863">
        <ele>845</ele>
        <time>2015-10-24T13:13:55Z</time>
      </trkpt>
      <trkpt lat="44.15552" lon="3.14868">
        <ele>845</ele>
        <time>2015-10-24T13:13:59Z</time>
      </trkpt>
      <trkpt lat="44.15543" lon="3.14869">
        <ele>845</ele>
        <time>2015-10-24T13:14:05Z</time>
      </trkpt>
      <trkpt lat="44.15542" lon="3.14869">
        <ele>845</ele>
        <time>2015-10-24T13:14:06Z</time>
      </trkpt>
      <trkpt lat="44.15534" lon="3.14872">
        <ele>845</ele>
        <time>2015-10-24T13:14:12Z</time>
      </trkpt>
      <trkpt lat="44.15531" lon="3.14874">
        <ele>845</ele>
        <time>2015-10-24T13:14:14Z</time>
      </trkpt>
      <trkpt lat="44.15529" lon="3.14889">
        <ele>845</ele>
        <time>2015-10-24T13:14:19Z</time>
      </trkpt>
      <trkpt lat="44.15528" lon="3.14902">
        <ele>844</ele>
        <time>2015-10-24T13:14:22Z</time>
      </trkpt>
      <trkpt lat="44.15528" lon="3.14906">
        <ele>844</ele>
        <time>2015-10-24T13:14:23Z</time>
      </trkpt>
      <trkpt lat="44.15531" lon="3.14915">
        <ele>844</ele>
        <time>2015-10-24T13:14:26Z</time>
      </trkpt>
      <trkpt lat="44.15534" lon="3.14936">
        <ele>843</ele>
        <time>2015-10-24T13:14:31Z</time>
      </trkpt>
      <trkpt lat="44.15535" lon="3.14953">
        <ele>843</ele>
        <time>2015-10-24T13:14:35Z</time>
      </trkpt>
      <trkpt lat="44.15535" lon="3.14978">
        <ele>843</ele>
        <time>2015-10-24T13:14:41Z</time>
      </trkpt>
      <trkpt lat="44.15534" lon="3.14982">
        <ele>843</ele>
        <time>2015-10-24T13:14:42Z</time>
      </trkpt>
      <trkpt lat="44.15535" lon="3.15005">
        <ele>842</ele>
        <time>2015-10-24T13:14:48Z</time>
      </trkpt>
      <trkpt lat="44.15534" lon="3.15018">
        <ele>842</ele>
        <time>2015-10-24T13:14:52Z</time>
      </trkpt>
      <trkpt lat="44.15535" lon="3.15035">
        <ele>842</ele>
        <time>2015-10-24T13:14:57Z</time>
      </trkpt>
      <trkpt lat="44.15534" lon="3.15044">
        <ele>842</ele>
        <time>2015-10-24T13:15:01Z</time>
      </trkpt>
      <trkpt lat="44.15534" lon="3.15052">
        <ele>842</ele>
        <time>2015-10-24T13:15:04Z</time>
      </trkpt>
      <trkpt lat="44.15526" lon="3.15059">
        <ele>842</ele>
        <time>2015-10-24T13:15:09Z</time>
      </trkpt>
      <trkpt lat="44.15522" lon="3.15061">
        <ele>842</ele>
        <time>2015-10-24T13:15:11Z</time>
      </trkpt>
      <trkpt lat="44.15516" lon="3.15063">
        <ele>842</ele>
        <time>2015-10-24T13:15:14Z</time>
      </trkpt>
      <trkpt lat="44.15506" lon="3.15064">
        <ele>842</ele>
        <time>2015-10-24T13:15:19Z</time>
      </trkpt>
      <trkpt lat="44.15497" lon="3.15061">
        <ele>843</ele>
        <time>2015-10-24T13:15:23Z</time>
      </trkpt>
      <trkpt lat="44.15495" lon="3.15059">
        <ele>843</ele>
        <time>2015-10-24T13:15:24Z</time>
      </trkpt>
      <trkpt lat="44.15483" lon="3.15051">
        <ele>843</ele>
        <time>2015-10-24T13:15:30Z</time>
      </trkpt>
      <trkpt lat="44.15477" lon="3.15045">
        <ele>843</ele>
        <time>2015-10-24T13:15:33Z</time>
      </trkpt>
      <trkpt lat="44.15464" lon="3.1503">
        <ele>843</ele>
        <time>2015-10-24T13:15:40Z</time>
      </trkpt>
      <trkpt lat="44.15454" lon="3.15023">
        <ele>842</ele>
        <time>2015-10-24T13:15:44Z</time>
      </trkpt>
      <trkpt lat="44.15446" lon="3.15014">
        <ele>842</ele>
        <time>2015-10-24T13:15:48Z</time>
      </trkpt>
      <trkpt lat="44.15434" lon="3.15006">
        <ele>842</ele>
        <time>2015-10-24T13:15:53Z</time>
      </trkpt>
      <trkpt lat="44.15425" lon="3.15">
        <ele>841</ele>
        <time>2015-10-24T13:15:57Z</time>
      </trkpt>
      <trkpt lat="44.15414" lon="3.14992">
        <ele>840</ele>
        <time>2015-10-24T13:16:02Z</time>
      </trkpt>
      <trkpt lat="44.15406" lon="3.14988">
        <ele>840</ele>
        <time>2015-10-24T13:16:06Z</time>
      </trkpt>
      <trkpt lat="44.15396" lon="3.14982">
        <ele>840</ele>
        <time>2015-10-24T13:16:11Z</time>
      </trkpt>
      <trkpt lat="44.15387" lon="3.14973">
        <ele>840</ele>
        <time>2015-10-24T13:16:16Z</time>
      </trkpt>
      <trkpt lat="44.15377" lon="3.14963">
        <ele>840</ele>
        <time>2015-10-24T13:16:21Z</time>
      </trkpt>
      <trkpt lat="44.15368" lon="3.14953">
        <ele>840</ele>
        <time>2015-10-24T13:16:25Z</time>
      </trkpt>
      <trkpt lat="44.15359" lon="3.14943">
        <ele>840</ele>
        <time>2015-10-24T13:16:30Z</time>
      </trkpt>
      <trkpt lat="44.15347" lon="3.14931">
        <ele>840</ele>
        <time>2015-10-24T13:16:36Z</time>
      </trkpt>
      <trkpt lat="44.15343" lon="3.14928">
        <ele>840</ele>
        <time>2015-10-24T13:16:38Z</time>
      </trkpt>
      <trkpt lat="44.15335" lon="3.14918">
        <ele>840</ele>
        <time>2015-10-24T13:16:43Z</time>
      </trkpt>
      <trkpt lat="44.15326" lon="3.14905">
        <ele>842</ele>
        <time>2015-10-24T13:16:49Z</time>
      </trkpt>
      <trkpt lat="44.15321" lon="3.14896">
        <ele>843</ele>
        <time>2015-10-24T13:16:54Z</time>
      </trkpt>
      <trkpt lat="44.15315" lon="3.14888">
        <ele>844</ele>
        <time>2015-10-24T13:17:01Z</time>
      </trkpt>
      <trkpt lat="44.15309" lon="3.14882">
        <ele>844</ele>
        <time>2015-10-24T13:17:07Z</time>
      </trkpt>
      <trkpt lat="44.153" lon="3.14875">
        <ele>845</ele>
        <time>2015-10-24T13:17:15Z</time>
      </trkpt>
      <trkpt lat="44.15294" lon="3.14868">
        <ele>845</ele>
        <time>2015-10-24T13:17:21Z</time>
      </trkpt>
      <trkpt lat="44.15284" lon="3.14866">
        <ele>845</ele>
        <time>2015-10-24T13:17:27Z</time>
      </trkpt>
      <trkpt lat="44.15276" lon="3.14862">
        <ele>845</ele>
        <time>2015-10-24T13:17:32Z</time>
      </trkpt>
      <trkpt lat="44.15271" lon="3.1486">
        <ele>846</ele>
        <time>2015-10-24T13:17:36Z</time>
      </trkpt>
      <trkpt lat="44.15267" lon="3.14858">
        <ele>846</ele>
        <time>2015-10-24T13:17:38Z</time>
      </trkpt>
      <trkpt lat="44.15258" lon="3.14855">
        <ele>846</ele>
        <time>2015-10-24T13:17:44Z</time>
      </trkpt>
      <trkpt lat="44.15246" lon="3.14855">
        <ele>847</ele>
        <time>2015-10-24T13:17:50Z</time>
      </trkpt>
      <trkpt lat="44.15244" lon="3.14855">
        <ele>847</ele>
        <time>2015-10-24T13:17:51Z</time>
      </trkpt>
      <trkpt lat="44.15231" lon="3.14857">
        <ele>846</ele>
        <time>2015-10-24T13:17:57Z</time>
      </trkpt>
      <trkpt lat="44.1522" lon="3.14861">
        <ele>846</ele>
        <time>2015-10-24T13:18:01Z</time>
      </trkpt>
      <trkpt lat="44.15212" lon="3.14864">
        <ele>846</ele>
        <time>2015-10-24T13:18:04Z</time>
      </trkpt>
      <trkpt lat="44.152" lon="3.14876">
        <ele>846</ele>
        <time>2015-10-24T13:18:10Z</time>
      </trkpt>
      <trkpt lat="44.15198" lon="3.14877">
        <ele>846</ele>
        <time>2015-10-24T13:18:11Z</time>
      </trkpt>
      <trkpt lat="44.15192" lon="3.14887">
        <ele>846</ele>
        <time>2015-10-24T13:18:15Z</time>
      </trkpt>
      <trkpt lat="44.15191" lon="3.1489">
        <ele>846</ele>
        <time>2015-10-24T13:18:16Z</time>
      </trkpt>
      <trkpt lat="44.15178" lon="3.14908">
        <ele>846</ele>
        <time>2015-10-24T13:18:22Z</time>
      </trkpt>
      <trkpt lat="44.15168" lon="3.14919">
        <ele>846</ele>
        <time>2015-10-24T13:18:27Z</time>
      </trkpt>
      <trkpt lat="44.1516" lon="3.1493">
        <ele>846</ele>
        <time>2015-10-24T13:18:31Z</time>
      </trkpt>
      <trkpt lat="44.15158" lon="3.14933">
        <ele>846</ele>
        <time>2015-10-24T13:18:32Z</time>
      </trkpt>
      <trkpt lat="44.15153" lon="3.1494">
        <ele>846</ele>
        <time>2015-10-24T13:18:36Z</time>
      </trkpt>
      <trkpt lat="44.15152" lon="3.1494">
        <ele>846</ele>
        <time>2015-10-24T13:18:37Z</time>
      </trkpt>
      <trkpt lat="44.15142" lon="3.14935">
        <ele>846</ele>
        <time>2015-10-24T13:18:46Z</time>
      </trkpt>
      <trkpt lat="44.15129" lon="3.14933">
        <ele>846</ele>
        <time>2015-10-24T13:18:55Z</time>
      </trkpt>
      <trkpt lat="44.15119" lon="3.14936">
        <ele>846</ele>
        <time>2015-10-24T13:19:00Z</time>
      </trkpt>
      <trkpt lat="44.1511" lon="3.14942">
        <ele>846</ele>
        <time>2015-10-24T13:19:05Z</time>
      </trkpt>
      <trkpt lat="44.15099" lon="3.14946">
        <ele>846</ele>
        <time>2015-10-24T13:19:11Z</time>
      </trkpt>
      <trkpt lat="44.15087" lon="3.14949">
        <ele>847</ele>
        <time>2015-10-24T13:19:16Z</time>
      </trkpt>
      <trkpt lat="44.15083" lon="3.14951">
        <ele>847</ele>
        <time>2015-10-24T13:19:18Z</time>
      </trkpt>
      <trkpt lat="44.15074" lon="3.14949">
        <ele>847</ele>
        <time>2015-10-24T13:19:21Z</time>
      </trkpt>
      <trkpt lat="44.15063" lon="3.14952">
        <ele>847</ele>
        <time>2015-10-24T13:19:26Z</time>
      </trkpt>
      <trkpt lat="44.15061" lon="3.14953">
        <ele>847</ele>
        <time>2015-10-24T13:19:27Z</time>
      </trkpt>
      <trkpt lat="44.15048" lon="3.14954">
        <ele>847</ele>
        <time>2015-10-24T13:19:32Z</time>
      </trkpt>
      <trkpt lat="44.15039" lon="3.14946">
        <ele>847</ele>
        <time>2015-10-24T13:19:36Z</time>
      </trkpt>
      <trkpt lat="44.1503" lon="3.14932">
        <ele>847</ele>
        <time>2015-10-24T13:19:40Z</time>
      </trkpt>
      <trkpt lat="44.15026" lon="3.14923">
        <ele>846</ele>
        <time>2015-10-24T13:19:44Z</time>
      </trkpt>
      <trkpt lat="44.15021" lon="3.14913">
        <ele>846</ele>
        <time>2015-10-24T13:19:48Z</time>
      </trkpt>
      <trkpt lat="44.15013" lon="3.14896">
        <ele>846</ele>
        <time>2015-10-24T13:19:54Z</time>
      </trkpt>
      <trkpt lat="44.15007" lon="3.14886">
        <ele>846</ele>
        <time>2015-10-24T13:19:58Z</time>
      </trkpt>
      <trkpt lat="44.15006" lon="3.14884">
        <ele>846</ele>
        <time>2015-10-24T13:19:59Z</time>
      </trkpt>
      <trkpt lat="44.14997" lon="3.14883">
        <ele>845</ele>
        <time>2015-10-24T13:20:04Z</time>
      </trkpt>
      <trkpt lat="44.14991" lon="3.14886">
        <ele>845</ele>
        <time>2015-10-24T13:20:07Z</time>
      </trkpt>
      <trkpt lat="44.14976" lon="3.14888">
        <ele>845</ele>
        <time>2015-10-24T13:20:13Z</time>
      </trkpt>
      <trkpt lat="44.14974" lon="3.14888">
        <ele>845</ele>
        <time>2015-10-24T13:20:14Z</time>
      </trkpt>
      <trkpt lat="44.1497" lon="3.14891">
        <ele>845</ele>
        <time>2015-10-24T13:20:16Z</time>
      </trkpt>
      <trkpt lat="44.14963" lon="3.14882">
        <ele>845</ele>
        <time>2015-10-24T13:20:21Z</time>
      </trkpt>
      <trkpt lat="44.14962" lon="3.14879">
        <ele>845</ele>
        <time>2015-10-24T13:20:22Z</time>
      </trkpt>
      <trkpt lat="44.14954" lon="3.14865">
        <ele>845</ele>
        <time>2015-10-24T13:20:27Z</time>
      </trkpt>
      <trkpt lat="44.14946" lon="3.14854">
        <ele>845</ele>
        <time>2015-10-24T13:20:32Z</time>
      </trkpt>
      <trkpt lat="44.1494" lon="3.14844">
        <ele>845</ele>
        <time>2015-10-24T13:20:37Z</time>
      </trkpt>
      <trkpt lat="44.14937" lon="3.14837">
        <ele>845</ele>
        <time>2015-10-24T13:20:40Z</time>
      </trkpt>
      <trkpt lat="44.14922" lon="3.14826">
        <ele>846</ele>
        <time>2015-10-24T13:20:49Z</time>
      </trkpt>
      <trkpt lat="44.1492" lon="3.14825">
        <ele>846</ele>
        <time>2015-10-24T13:20:50Z</time>
      </trkpt>
      <trkpt lat="44.14914" lon="3.14819">
        <ele>845</ele>
        <time>2015-10-24T13:20:55Z</time>
      </trkpt>
      <trkpt lat="44.14908" lon="3.14809">
        <ele>845</ele>
        <time>2015-10-24T13:21:01Z</time>
      </trkpt>
      <trkpt lat="44.14901" lon="3.14799">
        <ele>846</ele>
        <time>2015-10-24T13:21:07Z</time>
      </trkpt>
      <trkpt lat="44.14892" lon="3.14786">
        <ele>846</ele>
        <time>2015-10-24T13:21:14Z</time>
      </trkpt>
      <trkpt lat="44.14886" lon="3.14777">
        <ele>846</ele>
        <time>2015-10-24T13:21:19Z</time>
      </trkpt>
      <trkpt lat="44.1488" lon="3.14761">
        <ele>846</ele>
        <time>2015-10-24T13:21:24Z</time>
      </trkpt>
      <trkpt lat="44.14879" lon="3.1476">
        <ele>846</ele>
        <time>2015-10-24T13:21:25Z</time>
      </trkpt>
      <trkpt lat="44.1487" lon="3.14751">
        <ele>846</ele>
        <time>2015-10-24T13:21:29Z</time>
      </trkpt>
      <trkpt lat="44.14861" lon="3.1473">
        <ele>846</ele>
        <time>2015-10-24T13:21:35Z</time>
      </trkpt>
      <trkpt lat="44.14856" lon="3.14716">
        <ele>846</ele>
        <time>2015-10-24T13:21:39Z</time>
      </trkpt>
      <trkpt lat="44.14849" lon="3.14701">
        <ele>846</ele>
        <time>2015-10-24T13:21:44Z</time>
      </trkpt>
      <trkpt lat="44.14846" lon="3.14695">
        <ele>846</ele>
        <time>2015-10-24T13:21:46Z</time>
      </trkpt>
      <trkpt lat="44.14842" lon="3.14679">
        <ele>845</ele>
        <time>2015-10-24T13:21:51Z</time>
      </trkpt>
      <trkpt lat="44.14839" lon="3.1467">
        <ele>845</ele>
        <time>2015-10-24T13:21:54Z</time>
      </trkpt>
      <trkpt lat="44.1483" lon="3.14657">
        <ele>844</ele>
        <time>2015-10-24T13:21:59Z</time>
      </trkpt>
      <trkpt lat="44.14821" lon="3.14639">
        <ele>844</ele>
        <time>2015-10-24T13:22:04Z</time>
      </trkpt>
      <trkpt lat="44.14815" lon="3.14628">
        <ele>844</ele>
        <time>2015-10-24T13:22:09Z</time>
      </trkpt>
      <trkpt lat="44.14811" lon="3.14615">
        <ele>844</ele>
        <time>2015-10-24T13:22:14Z</time>
      </trkpt>
      <trkpt lat="44.14805" lon="3.14607">
        <ele>844</ele>
        <time>2015-10-24T13:22:18Z</time>
      </trkpt>
      <trkpt lat="44.14802" lon="3.14597">
        <ele>844</ele>
        <time>2015-10-24T13:22:22Z</time>
      </trkpt>
      <trkpt lat="44.14791" lon="3.14581">
        <ele>845</ele>
        <time>2015-10-24T13:22:30Z</time>
      </trkpt>
      <trkpt lat="44.14781" lon="3.14572">
        <ele>845</ele>
        <time>2015-10-24T13:22:35Z</time>
      </trkpt>
      <trkpt lat="44.14775" lon="3.14564">
        <ele>845</ele>
        <time>2015-10-24T13:22:39Z</time>
      </trkpt>
      <trkpt lat="44.14766" lon="3.14549">
        <ele>845</ele>
        <time>2015-10-24T13:22:45Z</time>
      </trkpt>
      <trkpt lat="44.14758" lon="3.14534">
        <ele>845</ele>
        <time>2015-10-24T13:22:51Z</time>
      </trkpt>
      <trkpt lat="44.14751" lon="3.14521">
        <ele>845</ele>
        <time>2015-10-24T13:22:57Z</time>
      </trkpt>
      <trkpt lat="44.14747" lon="3.14517">
        <ele>844</ele>
        <time>2015-10-24T13:22:59Z</time>
      </trkpt>
      <trkpt lat="44.14738" lon="3.14509">
        <ele>844</ele>
        <time>2015-10-24T13:23:05Z</time>
      </trkpt>
      <trkpt lat="44.14735" lon="3.14507">
        <ele>844</ele>
        <time>2015-10-24T13:23:07Z</time>
      </trkpt>
      <trkpt lat="44.14724" lon="3.14502">
        <ele>844</ele>
        <time>2015-10-24T13:23:14Z</time>
      </trkpt>
      <trkpt lat="44.14713" lon="3.14498">
        <ele>842</ele>
        <time>2015-10-24T13:23:21Z</time>
      </trkpt>
      <trkpt lat="44.14699" lon="3.14494">
        <ele>842</ele>
        <time>2015-10-24T13:23:27Z</time>
      </trkpt>
      <trkpt lat="44.1469" lon="3.14489">
        <ele>842</ele>
        <time>2015-10-24T13:23:31Z</time>
      </trkpt>
      <trkpt lat="44.14677" lon="3.14479">
        <ele>841</ele>
        <time>2015-10-24T13:23:36Z</time>
      </trkpt>
      <trkpt lat="44.14669" lon="3.14475">
        <ele>841</ele>
        <time>2015-10-24T13:23:40Z</time>
      </trkpt>
      <trkpt lat="44.14659" lon="3.14474">
        <ele>839</ele>
        <time>2015-10-24T13:23:44Z</time>
      </trkpt>
      <trkpt lat="44.14648" lon="3.14472">
        <ele>839</ele>
        <time>2015-10-24T13:23:48Z</time>
      </trkpt>
      <trkpt lat="44.14635" lon="3.14468">
        <ele>839</ele>
        <time>2015-10-24T13:23:53Z</time>
      </trkpt>
      <trkpt lat="44.14631" lon="3.14465">
        <ele>838</ele>
        <time>2015-10-24T13:23:55Z</time>
      </trkpt>
      <trkpt lat="44.14618" lon="3.1446">
        <ele>838</ele>
        <time>2015-10-24T13:24:00Z</time>
      </trkpt>
      <trkpt lat="44.14612" lon="3.14459">
        <ele>838</ele>
        <time>2015-10-24T13:24:02Z</time>
      </trkpt>
      <trkpt lat="44.14597" lon="3.14465">
        <ele>838</ele>
        <time>2015-10-24T13:24:08Z</time>
      </trkpt>
      <trkpt lat="44.14584" lon="3.14471">
        <ele>838</ele>
        <time>2015-10-24T13:24:13Z</time>
      </trkpt>
      <trkpt lat="44.14572" lon="3.14472">
        <ele>836</ele>
        <time>2015-10-24T13:24:18Z</time>
      </trkpt>
      <trkpt lat="44.14562" lon="3.14472">
        <ele>836</ele>
        <time>2015-10-24T13:24:22Z</time>
      </trkpt>
      <trkpt lat="44.14554" lon="3.14467">
        <ele>836</ele>
        <time>2015-10-24T13:24:25Z</time>
      </trkpt>
      <trkpt lat="44.14545" lon="3.14462">
        <ele>836</ele>
        <time>2015-10-24T13:24:29Z</time>
      </trkpt>
      <trkpt lat="44.14532" lon="3.14451">
        <ele>835</ele>
        <time>2015-10-24T13:24:35Z</time>
      </trkpt>
      <trkpt lat="44.14523" lon="3.14439">
        <ele>835</ele>
        <time>2015-10-24T13:24:40Z</time>
      </trkpt>
      <trkpt lat="44.14512" lon="3.14425">
        <ele>834</ele>
        <time>2015-10-24T13:24:46Z</time>
      </trkpt>
      <trkpt lat="44.145" lon="3.14411">
        <ele>833</ele>
        <time>2015-10-24T13:24:51Z</time>
      </trkpt>
      <trkpt lat="44.14491" lon="3.14399">
        <ele>831</ele>
        <time>2015-10-24T13:24:56Z</time>
      </trkpt>
      <trkpt lat="44.14481" lon="3.14385">
        <ele>831</ele>
        <time>2015-10-24T13:25:02Z</time>
      </trkpt>
      <trkpt lat="44.1447" lon="3.1437">
        <ele>830</ele>
        <time>2015-10-24T13:25:08Z</time>
      </trkpt>
      <trkpt lat="44.1446" lon="3.1436">
        <ele>830</ele>
        <time>2015-10-24T13:25:13Z</time>
      </trkpt>
      <trkpt lat="44.1445" lon="3.14354">
        <ele>830</ele>
        <time>2015-10-24T13:25:17Z</time>
      </trkpt>
      <trkpt lat="44.14438" lon="3.14351">
        <ele>830</ele>
        <time>2015-10-24T13:25:22Z</time>
      </trkpt>
      <trkpt lat="44.14423" lon="3.14345">
        <ele>829</ele>
        <time>2015-10-24T13:25:28Z</time>
      </trkpt>
      <trkpt lat="44.14409" lon="3.14342">
        <ele>828</ele>
        <time>2015-10-24T13:25:33Z</time>
      </trkpt>
      <trkpt lat="44.14399" lon="3.1434">
        <ele>828</ele>
        <time>2015-10-24T13:25:37Z</time>
      </trkpt>
      <trkpt lat="44.14383" lon="3.14337">
        <ele>828</ele>
        <time>2015-10-24T13:25:43Z</time>
      </trkpt>
      <trkpt lat="44.14374" lon="3.14335">
        <ele>828</ele>
        <time>2015-10-24T13:25:47Z</time>
      </trkpt>
      <trkpt lat="44.14362" lon="3.14336">
        <ele>828</ele>
        <time>2015-10-24T13:25:52Z</time>
      </trkpt>
      <trkpt lat="44.14357" lon="3.14336">
        <ele>828</ele>
        <time>2015-10-24T13:25:54Z</time>
      </trkpt>
      <trkpt lat="44.14347" lon="3.14331">
        <ele>829</ele>
        <time>2015-10-24T13:26:00Z</time>
      </trkpt>
      <trkpt lat="44.14344" lon="3.1433">
        <ele>829</ele>
        <time>2015-10-24T13:26:02Z</time>
      </trkpt>
      <trkpt lat="44.14335" lon="3.14326">
        <ele>829</ele>
        <time>2015-10-24T13:26:09Z</time>
      </trkpt>
      <trkpt lat="44.14332" lon="3.14325">
        <ele>829</ele>
        <time>2015-10-24T13:26:11Z</time>
      </trkpt>
      <trkpt lat="44.14322" lon="3.14317">
        <ele>829</ele>
        <time>2015-10-24T13:26:19Z</time>
      </trkpt>
      <trkpt lat="44.14313" lon="3.14312">
        <ele>830</ele>
        <time>2015-10-24T13:26:24Z</time>
      </trkpt>
      <trkpt lat="44.14309" lon="3.14304">
        <ele>830</ele>
        <time>2015-10-24T13:26:28Z</time>
      </trkpt>
      <trkpt lat="44.14301" lon="3.14291">
        <ele>830</ele>
        <time>2015-10-24T13:26:33Z</time>
      </trkpt>
      <trkpt lat="44.14296" lon="3.14283">
        <ele>830</ele>
        <time>2015-10-24T13:26:36Z</time>
      </trkpt>
      <trkpt lat="44.14285" lon="3.14269">
        <ele>830</ele>
        <time>2015-10-24T13:26:42Z</time>
      </trkpt>
      <trkpt lat="44.14275" lon="3.14259">
        <ele>830</ele>
        <time>2015-10-24T13:26:47Z</time>
      </trkpt>
      <trkpt lat="44.14263" lon="3.1425">
        <ele>830</ele>
        <time>2015-10-24T13:26:52Z</time>
      </trkpt>
      <trkpt lat="44.14251" lon="3.14241">
        <ele>830</ele>
        <time>2015-10-24T13:26:57Z</time>
      </trkpt>
      <trkpt lat="44.14238" lon="3.14236">
        <ele>829</ele>
        <time>2015-10-24T13:27:02Z</time>
      </trkpt>
      <trkpt lat="44.14225" lon="3.14233">
        <ele>829</ele>
        <time>2015-10-24T13:27:07Z</time>
      </trkpt>
      <trkpt lat="44.1421" lon="3.1423">
        <ele>829</ele>
        <time>2015-10-24T13:27:12Z</time>
      </trkpt>
      <trkpt lat="44.14204" lon="3.14229">
        <ele>829</ele>
        <time>2015-10-24T13:27:14Z</time>
      </trkpt>
      <trkpt lat="44.14194" lon="3.14231">
        <ele>829</ele>
        <time>2015-10-24T13:27:18Z</time>
      </trkpt>
      <trkpt lat="44.14194" lon="3.14238">
        <ele>829</ele>
        <time>2015-10-24T13:27:21Z</time>
      </trkpt>
      <trkpt lat="44.14198" lon="3.14256">
        <ele>828</ele>
        <time>2015-10-24T13:27:26Z</time>
      </trkpt>
      <trkpt lat="44.142" lon="3.14261">
        <ele>828</ele>
        <time>2015-10-24T13:27:28Z</time>
      </trkpt>
      <trkpt lat="44.14201" lon="3.14276">
        <ele>828</ele>
        <time>2015-10-24T13:27:33Z</time>
      </trkpt>
      <trkpt lat="44.14202" lon="3.14294">
        <ele>828</ele>
        <time>2015-10-24T13:27:38Z</time>
      </trkpt>
      <trkpt lat="44.14202" lon="3.14308">
        <ele>828</ele>
        <time>2015-10-24T13:27:43Z</time>
      </trkpt>
      <trkpt lat="44.14204" lon="3.14325">
        <ele>828</ele>
        <time>2015-10-24T13:27:48Z</time>
      </trkpt>
      <trkpt lat="44.14205" lon="3.14341">
        <ele>826</ele>
        <time>2015-10-24T13:27:52Z</time>
      </trkpt>
      <trkpt lat="44.14203" lon="3.14347">
        <ele>826</ele>
        <time>2015-10-24T13:27:54Z</time>
      </trkpt>
      <trkpt lat="44.14201" lon="3.14357">
        <ele>826</ele>
        <time>2015-10-24T13:27:58Z</time>
      </trkpt>
      <trkpt lat="44.14196" lon="3.14376">
        <ele>825</ele>
        <time>2015-10-24T13:28:04Z</time>
      </trkpt>
      <trkpt lat="44.14192" lon="3.14388">
        <ele>825</ele>
        <time>2015-10-24T13:28:08Z</time>
      </trkpt>
      <trkpt lat="44.14191" lon="3.14395">
        <ele>825</ele>
        <time>2015-10-24T13:28:10Z</time>
      </trkpt>
      <trkpt lat="44.14187" lon="3.14408">
        <ele>825</ele>
        <time>2015-10-24T13:28:14Z</time>
      </trkpt>
      <trkpt lat="44.14179" lon="3.14418">
        <ele>823</ele>
        <time>2015-10-24T13:28:18Z</time>
      </trkpt>
      <trkpt lat="44.14177" lon="3.1442">
        <ele>823</ele>
        <time>2015-10-24T13:28:19Z</time>
      </trkpt>
      <trkpt lat="44.1417" lon="3.1443">
        <ele>823</ele>
        <time>2015-10-24T13:28:24Z</time>
      </trkpt>
      <trkpt lat="44.14159" lon="3.14436">
        <ele>823</ele>
        <time>2015-10-24T13:28:29Z</time>
      </trkpt>
      <trkpt lat="44.14157" lon="3.14438">
        <ele>823</ele>
        <time>2015-10-24T13:28:30Z</time>
      </trkpt>
      <trkpt lat="44.14147" lon="3.14447">
        <ele>823</ele>
        <time>2015-10-24T13:28:36Z</time>
      </trkpt>
      <trkpt lat="44.14141" lon="3.14457">
        <ele>823</ele>
        <time>2015-10-24T13:28:40Z</time>
      </trkpt>
      <trkpt lat="44.14133" lon="3.14464">
        <ele>823</ele>
        <time>2015-10-24T13:28:44Z</time>
      </trkpt>
      <trkpt lat="44.14123" lon="3.14476">
        <ele>823</ele>
        <time>2015-10-24T13:28:49Z</time>
      </trkpt>
      <trkpt lat="44.14115" lon="3.14484">
        <ele>824</ele>
        <time>2015-10-24T13:28:53Z</time>
      </trkpt>
      <trkpt lat="44.14113" lon="3.14485">
        <ele>824</ele>
        <time>2015-10-24T13:28:54Z</time>
      </trkpt>
      <trkpt lat="44.14101" lon="3.14494">
        <ele>824</ele>
        <time>2015-10-24T13:29:01Z</time>
      </trkpt>
      <trkpt lat="44.14093" lon="3.14501">
        <ele>825</ele>
        <time>2015-10-24T13:29:06Z</time>
      </trkpt>
      <trkpt lat="44.14084" lon="3.14516">
        <ele>825</ele>
        <time>2015-10-24T13:29:12Z</time>
      </trkpt>
      <trkpt lat="44.14083" lon="3.14517">
        <ele>825</ele>
        <time>2015-10-24T13:29:13Z</time>
      </trkpt>
      <trkpt lat="44.14075" lon="3.14522">
        <ele>825</ele>
        <time>2015-10-24T13:29:17Z</time>
      </trkpt>
      <trkpt lat="44.14063" lon="3.14532">
        <ele>826</ele>
        <time>2015-10-24T13:29:23Z</time>
      </trkpt>
      <trkpt lat="44.14051" lon="3.1454">
        <ele>826</ele>
        <time>2015-10-24T13:29:29Z</time>
      </trkpt>
      <trkpt lat="44.14037" lon="3.1455">
        <ele>826</ele>
        <time>2015-10-24T13:29:35Z</time>
      </trkpt>
      <trkpt lat="44.14033" lon="3.14555">
        <ele>826</ele>
        <time>2015-10-24T13:29:37Z</time>
      </trkpt>
      <trkpt lat="44.14023" lon="3.14564">
        <ele>826</ele>
        <time>2015-10-24T13:29:42Z</time>
      </trkpt>
      <trkpt lat="44.14014" lon="3.14571">
        <ele>827</ele>
        <time>2015-10-24T13:29:46Z</time>
      </trkpt>
      <trkpt lat="44.14011" lon="3.14573">
        <ele>827</ele>
        <time>2015-10-24T13:29:47Z</time>
      </trkpt>
      <trkpt lat="44.14001" lon="3.1458">
        <ele>828</ele>
        <time>2015-10-24T13:29:52Z</time>
      </trkpt>
      <trkpt lat="44.13992" lon="3.14589">
        <ele>829</ele>
        <time>2015-10-24T13:29:57Z</time>
      </trkpt>
      <trkpt lat="44.13984" lon="3.14595">
        <ele>830</ele>
        <time>2015-10-24T13:30:02Z</time>
      </trkpt>
      <trkpt lat="44.13976" lon="3.14601">
        <ele>831</ele>
        <time>2015-10-24T13:30:08Z</time>
      </trkpt>
      <trkpt lat="44.13967" lon="3.14607">
        <ele>831</ele>
        <time>2015-10-24T13:30:14Z</time>
      </trkpt>
      <trkpt lat="44.13956" lon="3.14612">
        <ele>831</ele>
        <time>2015-10-24T13:30:21Z</time>
      </trkpt>
      <trkpt lat="44.13946" lon="3.14617">
        <ele>831</ele>
        <time>2015-10-24T13:30:28Z</time>
      </trkpt>
      <trkpt lat="44.13934" lon="3.14623">
        <ele>831</ele>
        <time>2015-10-24T13:30:35Z</time>
      </trkpt>
      <trkpt lat="44.13922" lon="3.14626">
        <ele>832</ele>
        <time>2015-10-24T13:30:42Z</time>
      </trkpt>
      <trkpt lat="44.13918" lon="3.14626">
        <ele>832</ele>
        <time>2015-10-24T13:30:44Z</time>
      </trkpt>
      <trkpt lat="44.13905" lon="3.14631">
        <ele>831</ele>
        <time>2015-10-24T13:30:49Z</time>
      </trkpt>
      <trkpt lat="44.13898" lon="3.14635">
        <ele>831</ele>
        <time>2015-10-24T13:30:52Z</time>
      </trkpt>
      <trkpt lat="44.13884" lon="3.14638">
        <ele>831</ele>
        <time>2015-10-24T13:30:58Z</time>
      </trkpt>
      <trkpt lat="44.13871" lon="3.14643">
        <ele>830</ele>
        <time>2015-10-24T13:31:03Z</time>
      </trkpt>
      <trkpt lat="44.13869" lon="3.14644">
        <ele>830</ele>
        <time>2015-10-24T13:31:04Z</time>
      </trkpt>
      <trkpt lat="44.13856" lon="3.14646">
        <ele>830</ele>
        <time>2015-10-24T13:31:08Z</time>
      </trkpt>
      <trkpt lat="44.13838" lon="3.14642">
        <ele>830</ele>
        <time>2015-10-24T13:31:14Z</time>
      </trkpt>
      <trkpt lat="44.13826" lon="3.14636">
        <ele>828</ele>
        <time>2015-10-24T13:31:19Z</time>
      </trkpt>
      <trkpt lat="44.13813" lon="3.14632">
        <ele>828</ele>
        <time>2015-10-24T13:31:24Z</time>
      </trkpt>
      <trkpt lat="44.138" lon="3.14629">
        <ele>828</ele>
        <time>2015-10-24T13:31:29Z</time>
      </trkpt>
      <trkpt lat="44.13782" lon="3.14624">
        <ele>828</ele>
        <time>2015-10-24T13:31:36Z</time>
      </trkpt>
      <trkpt lat="44.1378" lon="3.14625">
        <ele>828</ele>
        <time>2015-10-24T13:31:37Z</time>
      </trkpt>
      <trkpt lat="44.13767" lon="3.14622">
        <ele>827</ele>
        <time>2015-10-24T13:31:42Z</time>
      </trkpt>
      <trkpt lat="44.1375" lon="3.14612">
        <ele>826</ele>
        <time>2015-10-24T13:31:48Z</time>
      </trkpt>
      <trkpt lat="44.13747" lon="3.1461">
        <ele>826</ele>
        <time>2015-10-24T13:31:49Z</time>
      </trkpt>
      <trkpt lat="44.13735" lon="3.14602">
        <ele>826</ele>
        <time>2015-10-24T13:31:54Z</time>
      </trkpt>
      <trkpt lat="44.13726" lon="3.14595">
        <ele>826</ele>
        <time>2015-10-24T13:31:58Z</time>
      </trkpt>
      <trkpt lat="44.13714" lon="3.14588">
        <ele>826</ele>
        <time>2015-10-24T13:32:03Z</time>
      </trkpt>
      <trkpt lat="44.13702" lon="3.14581">
        <ele>825</ele>
        <time>2015-10-24T13:32:08Z</time>
      </trkpt>
      <trkpt lat="44.13686" lon="3.14573">
        <ele>825</ele>
        <time>2015-10-24T13:32:15Z</time>
      </trkpt>
      <trkpt lat="44.13675" lon="3.14572">
        <ele>825</ele>
        <time>2015-10-24T13:32:19Z</time>
      </trkpt>
      <trkpt lat="44.13666" lon="3.14568">
        <ele>825</ele>
        <time>2015-10-24T13:32:23Z</time>
      </trkpt>
      <trkpt lat="44.13649" lon="3.14558">
        <ele>825</ele>
        <time>2015-10-24T13:32:30Z</time>
      </trkpt>
      <trkpt lat="44.13641" lon="3.14553">
        <ele>825</ele>
        <time>2015-10-24T13:32:33Z</time>
      </trkpt>
      <trkpt lat="44.13629" lon="3.14537">
        <ele>824</ele>
        <time>2015-10-24T13:32:40Z</time>
      </trkpt>
      <trkpt lat="44.13628" lon="3.14535">
        <ele>824</ele>
        <time>2015-10-24T13:32:41Z</time>
      </trkpt>
      <trkpt lat="44.13622" lon="3.14517">
        <ele>824</ele>
        <time>2015-10-24T13:32:47Z</time>
      </trkpt>
      <trkpt lat="44.13618" lon="3.14504">
        <ele>824</ele>
        <time>2015-10-24T13:32:51Z</time>
      </trkpt>
      <trkpt lat="44.13609" lon="3.14493">
        <ele>824</ele>
        <time>2015-10-24T13:32:55Z</time>
      </trkpt>
      <trkpt lat="44.13601" lon="3.14484">
        <ele>824</ele>
        <time>2015-10-24T13:32:59Z</time>
      </trkpt>
      <trkpt lat="44.13592" lon="3.14474">
        <ele>824</ele>
        <time>2015-10-24T13:33:03Z</time>
      </trkpt>
      <trkpt lat="44.13586" lon="3.14467">
        <ele>825</ele>
        <time>2015-10-24T13:33:06Z</time>
      </trkpt>
      <trkpt lat="44.13581" lon="3.14454">
        <ele>823</ele>
        <time>2015-10-24T13:33:10Z</time>
      </trkpt>
      <trkpt lat="44.13577" lon="3.14443">
        <ele>823</ele>
        <time>2015-10-24T13:33:13Z</time>
      </trkpt>
      <trkpt lat="44.13561" lon="3.14431">
        <ele>823</ele>
        <time>2015-10-24T13:33:19Z</time>
      </trkpt>
      <trkpt lat="44.13548" lon="3.14424">
        <ele>823</ele>
        <time>2015-10-24T13:33:24Z</time>
      </trkpt>
      <trkpt lat="44.13539" lon="3.14422">
        <ele>822</ele>
        <time>2015-10-24T13:33:27Z</time>
      </trkpt>
      <trkpt lat="44.13529" lon="3.14421">
        <ele>822</ele>
        <time>2015-10-24T13:33:31Z</time>
      </trkpt>
      <trkpt lat="44.13517" lon="3.1441">
        <ele>822</ele>
        <time>2015-10-24T13:33:36Z</time>
      </trkpt>
      <trkpt lat="44.13515" lon="3.14401">
        <ele>822</ele>
        <time>2015-10-24T13:33:39Z</time>
      </trkpt>
      <trkpt lat="44.13514" lon="3.14396">
        <ele>823</ele>
        <time>2015-10-24T13:33:41Z</time>
      </trkpt>
      <trkpt lat="44.1351" lon="3.14391">
        <ele>823</ele>
        <time>2015-10-24T13:33:43Z</time>
      </trkpt>
      <trkpt lat="44.13502" lon="3.14381">
        <ele>823</ele>
        <time>2015-10-24T13:33:47Z</time>
      </trkpt>
      <trkpt lat="44.13499" lon="3.14372">
        <ele>819</ele>
        <time>2015-10-24T13:33:50Z</time>
      </trkpt>
      <trkpt lat="44.13497" lon="3.14366">
        <ele>819</ele>
        <time>2015-10-24T13:33:52Z</time>
      </trkpt>
      <trkpt lat="44.13487" lon="3.1435">
        <ele>820</ele>
        <time>2015-10-24T13:33:58Z</time>
      </trkpt>
      <trkpt lat="44.13473" lon="3.14339">
        <ele>819</ele>
        <time>2015-10-24T13:34:04Z</time>
      </trkpt>
      <trkpt lat="44.13469" lon="3.14336">
        <ele>819</ele>
        <time>2015-10-24T13:34:06Z</time>
      </trkpt>
      <trkpt lat="44.13452" lon="3.14333">
        <ele>820</ele>
        <time>2015-10-24T13:34:12Z</time>
      </trkpt>
      <trkpt lat="44.13443" lon="3.14328">
        <ele>820</ele>
        <time>2015-10-24T13:34:16Z</time>
      </trkpt>
      <trkpt lat="44.13435" lon="3.14315">
        <ele>819</ele>
        <time>2015-10-24T13:34:21Z</time>
      </trkpt>
      <trkpt lat="44.13427" lon="3.14307">
        <ele>819</ele>
        <time>2015-10-24T13:34:25Z</time>
      </trkpt>
      <trkpt lat="44.13421" lon="3.14301">
        <ele>820</ele>
        <time>2015-10-24T13:34:28Z</time>
      </trkpt>
      <trkpt lat="44.13416" lon="3.14294">
        <ele>816</ele>
        <time>2015-10-24T13:34:31Z</time>
      </trkpt>
      <trkpt lat="44.13408" lon="3.14283">
        <ele>816</ele>
        <time>2015-10-24T13:34:35Z</time>
      </trkpt>
      <trkpt lat="44.13399" lon="3.14271">
        <ele>816</ele>
        <time>2015-10-24T13:34:40Z</time>
      </trkpt>
      <trkpt lat="44.13395" lon="3.14261">
        <ele>816</ele>
        <time>2015-10-24T13:34:44Z</time>
      </trkpt>
      <trkpt lat="44.1339" lon="3.14254">
        <ele>816</ele>
        <time>2015-10-24T13:34:47Z</time>
      </trkpt>
      <trkpt lat="44.13382" lon="3.14239">
        <ele>817</ele>
        <time>2015-10-24T13:34:52Z</time>
      </trkpt>
      <trkpt lat="44.1338" lon="3.14224">
        <ele>816</ele>
        <time>2015-10-24T13:34:57Z</time>
      </trkpt>
      <trkpt lat="44.13375" lon="3.14217">
        <ele>816</ele>
        <time>2015-10-24T13:35:00Z</time>
      </trkpt>
      <trkpt lat="44.13367" lon="3.14209">
        <ele>816</ele>
        <time>2015-10-24T13:35:03Z</time>
      </trkpt>
      <trkpt lat="44.13359" lon="3.14201">
        <ele>816</ele>
        <time>2015-10-24T13:35:06Z</time>
      </trkpt>
      <trkpt lat="44.13346" lon="3.14193">
        <ele>815</ele>
        <time>2015-10-24T13:35:11Z</time>
      </trkpt>
      <trkpt lat="44.13342" lon="3.1419">
        <ele>815</ele>
        <time>2015-10-24T13:35:13Z</time>
      </trkpt>
      <trkpt lat="44.13329" lon="3.14184">
        <ele>813</ele>
        <time>2015-10-24T13:35:19Z</time>
      </trkpt>
      <trkpt lat="44.1332" lon="3.14176">
        <ele>813</ele>
        <time>2015-10-24T13:35:23Z</time>
      </trkpt>
      <trkpt lat="44.13307" lon="3.14167">
        <ele>813</ele>
        <time>2015-10-24T13:35:28Z</time>
      </trkpt>
      <trkpt lat="44.13299" lon="3.14159">
        <ele>813</ele>
        <time>2015-10-24T13:35:32Z</time>
      </trkpt>
      <trkpt lat="44.13289" lon="3.1415">
        <ele>813</ele>
        <time>2015-10-24T13:35:36Z</time>
      </trkpt>
      <trkpt lat="44.13282" lon="3.14142">
        <ele>813</ele>
        <time>2015-10-24T13:35:40Z</time>
      </trkpt>
      <trkpt lat="44.13272" lon="3.14132">
        <ele>813</ele>
        <time>2015-10-24T13:35:44Z</time>
      </trkpt>
      <trkpt lat="44.13262" lon="3.14122">
        <ele>813</ele>
        <time>2015-10-24T13:35:48Z</time>
      </trkpt>
      <trkpt lat="44.1325" lon="3.14113">
        <ele>812</ele>
        <time>2015-10-24T13:35:53Z</time>
      </trkpt>
      <trkpt lat="44.13241" lon="3.14107">
        <ele>810</ele>
        <time>2015-10-24T13:35:57Z</time>
      </trkpt>
      <trkpt lat="44.1323" lon="3.14097">
        <ele>810</ele>
        <time>2015-10-24T13:36:02Z</time>
      </trkpt>
      <trkpt lat="44.13216" lon="3.1409">
        <ele>810</ele>
        <time>2015-10-24T13:36:07Z</time>
      </trkpt>
      <trkpt lat="44.13207" lon="3.14083">
        <ele>809</ele>
        <time>2015-10-24T13:36:11Z</time>
      </trkpt>
      <trkpt lat="44.13199" lon="3.14076">
        <ele>809</ele>
        <time>2015-10-24T13:36:15Z</time>
      </trkpt>
      <trkpt lat="44.13196" lon="3.14073">
        <ele>809</ele>
        <time>2015-10-24T13:36:17Z</time>
      </trkpt>
      <trkpt lat="44.1319" lon="3.14064">
        <ele>809</ele>
        <time>2015-10-24T13:36:21Z</time>
      </trkpt>
      <trkpt lat="44.13178" lon="3.14055">
        <ele>808</ele>
        <time>2015-10-24T13:36:26Z</time>
      </trkpt>
      <trkpt lat="44.13176" lon="3.14053">
        <ele>808</ele>
        <time>2015-10-24T13:36:27Z</time>
      </trkpt>
      <trkpt lat="44.13165" lon="3.14039">
        <ele>806</ele>
        <time>2015-10-24T13:36:33Z</time>
      </trkpt>
      <trkpt lat="44.13153" lon="3.14033">
        <ele>806</ele>
        <time>2015-10-24T13:36:38Z</time>
      </trkpt>
      <trkpt lat="44.13148" lon="3.14031">
        <ele>806</ele>
        <time>2015-10-24T13:36:40Z</time>
      </trkpt>
      <trkpt lat="44.13133" lon="3.14032">
        <ele>806</ele>
        <time>2015-10-24T13:36:47Z</time>
      </trkpt>
      <trkpt lat="44.13117" lon="3.14032">
        <ele>805</ele>
        <time>2015-10-24T13:36:53Z</time>
      </trkpt>
      <trkpt lat="44.13102" lon="3.14029">
        <ele>805</ele>
        <time>2015-10-24T13:36:58Z</time>
      </trkpt>
      <trkpt lat="44.13094" lon="3.14028">
        <ele>805</ele>
        <time>2015-10-24T13:37:01Z</time>
      </trkpt>
      <trkpt lat="44.13079" lon="3.14035">
        <ele>803</ele>
        <time>2015-10-24T13:37:07Z</time>
      </trkpt>
      <trkpt lat="44.13077" lon="3.14036">
        <ele>803</ele>
        <time>2015-10-24T13:37:08Z</time>
      </trkpt>
      <trkpt lat="44.13073" lon="3.14035">
        <ele>803</ele>
        <time>2015-10-24T13:37:10Z</time>
      </trkpt>
      <trkpt lat="44.13066" lon="3.14021">
        <ele>804</ele>
        <time>2015-10-24T13:37:16Z</time>
      </trkpt>
      <trkpt lat="44.13067" lon="3.14014">
        <ele>804</ele>
        <time>2015-10-24T13:37:19Z</time>
      </trkpt>
      <trkpt lat="44.13071" lon="3.14005">
        <ele>804</ele>
        <time>2015-10-24T13:37:22Z</time>
      </trkpt>
      <trkpt lat="44.13077" lon="3.13994">
        <ele>805</ele>
        <time>2015-10-24T13:37:29Z</time>
      </trkpt>
      <trkpt lat="44.13082" lon="3.13984">
        <ele>805</ele>
        <time>2015-10-24T13:37:35Z</time>
      </trkpt>
      <trkpt lat="44.13087" lon="3.13974">
        <ele>805</ele>
        <time>2015-10-24T13:37:41Z</time>
      </trkpt>
      <trkpt lat="44.13089" lon="3.13965">
        <ele>805</ele>
        <time>2015-10-24T13:37:46Z</time>
      </trkpt>
      <trkpt lat="44.1309" lon="3.1396">
        <ele>805</ele>
        <time>2015-10-24T13:37:50Z</time>
      </trkpt>
      <trkpt lat="44.13096" lon="3.13943">
        <ele>805</ele>
        <time>2015-10-24T13:37:59Z</time>
      </trkpt>
      <trkpt lat="44.13101" lon="3.13933">
        <ele>805</ele>
        <time>2015-10-24T13:38:05Z</time>
      </trkpt>
      <trkpt lat="44.13107" lon="3.13921">
        <ele>805</ele>
        <time>2015-10-24T13:38:12Z</time>
      </trkpt>
      <trkpt lat="44.13113" lon="3.13913">
        <ele>805</ele>
        <time>2015-10-24T13:38:16Z</time>
      </trkpt>
      <trkpt lat="44.13118" lon="3.13905">
        <ele>805</ele>
        <time>2015-10-24T13:38:19Z</time>
      </trkpt>
      <trkpt lat="44.13129" lon="3.13887">
        <ele>806</ele>
        <time>2015-10-24T13:38:24Z</time>
      </trkpt>
      <trkpt lat="44.13132" lon="3.13883">
        <ele>806</ele>
        <time>2015-10-24T13:38:26Z</time>
      </trkpt>
      <trkpt lat="44.13138" lon="3.13868">
        <ele>806</ele>
        <time>2015-10-24T13:38:31Z</time>
      </trkpt>
      <trkpt lat="44.1314" lon="3.13865">
        <ele>806</ele>
        <time>2015-10-24T13:38:32Z</time>
      </trkpt>
      <trkpt lat="44.13151" lon="3.13848">
        <ele>806</ele>
        <time>2015-10-24T13:38:39Z</time>
      </trkpt>
      <trkpt lat="44.13158" lon="3.13837">
        <ele>806</ele>
        <time>2015-10-24T13:38:43Z</time>
      </trkpt>
      <trkpt lat="44.13161" lon="3.13832">
        <ele>807</ele>
        <time>2015-10-24T13:38:45Z</time>
      </trkpt>
      <trkpt lat="44.1317" lon="3.13824">
        <ele>807</ele>
        <time>2015-10-24T13:38:50Z</time>
      </trkpt>
      <trkpt lat="44.13179" lon="3.13815">
        <ele>808</ele>
        <time>2015-10-24T13:38:59Z</time>
      </trkpt>
      <trkpt lat="44.13187" lon="3.13811">
        <ele>808</ele>
        <time>2015-10-24T13:39:05Z</time>
      </trkpt>
      <trkpt lat="44.13195" lon="3.13802">
        <ele>808</ele>
        <time>2015-10-24T13:39:11Z</time>
      </trkpt>
      <trkpt lat="44.13204" lon="3.13792">
        <ele>808</ele>
        <time>2015-10-24T13:39:16Z</time>
      </trkpt>
      <trkpt lat="44.13213" lon="3.13781">
        <ele>808</ele>
        <time>2015-10-24T13:39:21Z</time>
      </trkpt>
      <trkpt lat="44.13221" lon="3.13769">
        <ele>808</ele>
        <time>2015-10-24T13:39:26Z</time>
      </trkpt>
      <trkpt lat="44.13227" lon="3.13753">
        <ele>808</ele>
        <time>2015-10-24T13:39:32Z</time>
      </trkpt>
      <trkpt lat="44.13231" lon="3.13744">
        <ele>808</ele>
        <time>2015-10-24T13:39:35Z</time>
      </trkpt>
      <trkpt lat="44.13236" lon="3.13728">
        <ele>808</ele>
        <time>2015-10-24T13:39:39Z</time>
      </trkpt>
      <trkpt lat="44.13238" lon="3.13714">
        <ele>807</ele>
        <time>2015-10-24T13:39:43Z</time>
      </trkpt>
      <trkpt lat="44.13239" lon="3.13682">
        <ele>807</ele>
        <time>2015-10-24T13:39:51Z</time>
      </trkpt>
      <trkpt lat="44.13239" lon="3.13662">
        <ele>807</ele>
        <time>2015-10-24T13:39:56Z</time>
      </trkpt>
      <trkpt lat="44.13243" lon="3.13651">
        <ele>807</ele>
        <time>2015-10-24T13:39:59Z</time>
      </trkpt>
      <trkpt lat="44.13243" lon="3.13644">
        <ele>807</ele>
        <time>2015-10-24T13:40:01Z</time>
      </trkpt>
      <trkpt lat="44.13244" lon="3.13623">
        <ele>807</ele>
        <time>2015-10-24T13:40:07Z</time>
      </trkpt>
      <trkpt lat="44.13245" lon="3.13612">
        <ele>807</ele>
        <time>2015-10-24T13:40:10Z</time>
      </trkpt>
      <trkpt lat="44.13254" lon="3.13598">
        <ele>808</ele>
        <time>2015-10-24T13:40:15Z</time>
      </trkpt>
      <trkpt lat="44.13256" lon="3.13593">
        <ele>808</ele>
        <time>2015-10-24T13:40:17Z</time>
      </trkpt>
      <trkpt lat="44.13258" lon="3.13587">
        <ele>808</ele>
        <time>2015-10-24T13:40:19Z</time>
      </trkpt>
      <trkpt lat="44.1326" lon="3.13578">
        <ele>809</ele>
        <time>2015-10-24T13:40:22Z</time>
      </trkpt>
      <trkpt lat="44.13259" lon="3.13569">
        <ele>809</ele>
        <time>2015-10-24T13:40:25Z</time>
      </trkpt>
      <trkpt lat="44.13252" lon="3.13557">
        <ele>810</ele>
        <time>2015-10-24T13:40:30Z</time>
      </trkpt>
      <trkpt lat="44.13243" lon="3.13549">
        <ele>809</ele>
        <time>2015-10-24T13:40:34Z</time>
      </trkpt>
      <trkpt lat="44.13234" lon="3.13542">
        <ele>809</ele>
        <time>2015-10-24T13:40:38Z</time>
      </trkpt>
      <trkpt lat="44.13231" lon="3.13542">
        <ele>809</ele>
        <time>2015-10-24T13:40:39Z</time>
      </trkpt>
      <trkpt lat="44.1322" lon="3.13536">
        <ele>809</ele>
        <time>2015-10-24T13:40:44Z</time>
      </trkpt>
      <trkpt lat="44.13212" lon="3.13524">
        <ele>810</ele>
        <time>2015-10-24T13:40:50Z</time>
      </trkpt>
      <trkpt lat="44.13211" lon="3.13522">
        <ele>810</ele>
        <time>2015-10-24T13:40:51Z</time>
      </trkpt>
      <trkpt lat="44.13209" lon="3.13515">
        <ele>810</ele>
        <time>2015-10-24T13:40:55Z</time>
      </trkpt>
      <trkpt lat="44.13203" lon="3.13501">
        <ele>810</ele>
        <time>2015-10-24T13:41:03Z</time>
      </trkpt>
      <trkpt lat="44.13203" lon="3.13498">
        <ele>811</ele>
        <time>2015-10-24T13:41:04Z</time>
      </trkpt>
      <trkpt lat="44.13197" lon="3.13486">
        <ele>811</ele>
        <time>2015-10-24T13:41:10Z</time>
      </trkpt>
      <trkpt lat="44.13196" lon="3.13485">
        <ele>811</ele>
        <time>2015-10-24T13:41:11Z</time>
      </trkpt>
      <trkpt lat="44.13194" lon="3.13481">
        <ele>811</ele>
        <time>2015-10-24T13:41:13Z</time>
      </trkpt>
      <trkpt lat="44.13188" lon="3.13474">
        <ele>811</ele>
        <time>2015-10-24T13:41:18Z</time>
      </trkpt>
      <trkpt lat="44.13186" lon="3.13471">
        <ele>811</ele>
        <time>2015-10-24T13:41:20Z</time>
      </trkpt>
      <trkpt lat="44.13178" lon="3.13459">
        <ele>811</ele>
        <time>2015-10-24T13:41:26Z</time>
      </trkpt>
      <trkpt lat="44.13176" lon="3.13458">
        <ele>812</ele>
        <time>2015-10-24T13:41:27Z</time>
      </trkpt>
      <trkpt lat="44.13167" lon="3.1346">
        <ele>811</ele>
        <time>2015-10-24T13:41:33Z</time>
      </trkpt>
      <trkpt lat="44.13162" lon="3.13462">
        <ele>813</ele>
        <time>2015-10-24T13:41:37Z</time>
      </trkpt>
      <trkpt lat="44.13154" lon="3.13465">
        <ele>813</ele>
        <time>2015-10-24T13:41:42Z</time>
      </trkpt>
      <trkpt lat="44.13144" lon="3.13472">
        <ele>813</ele>
        <time>2015-10-24T13:41:49Z</time>
      </trkpt>
      <trkpt lat="44.13132" lon="3.13476">
        <ele>814</ele>
        <time>2015-10-24T13:41:58Z</time>
      </trkpt>
      <trkpt lat="44.13121" lon="3.13479">
        <ele>814</ele>
        <time>2015-10-24T13:42:06Z</time>
      </trkpt>
      <trkpt lat="44.13111" lon="3.13476">
        <ele>815</ele>
        <time>2015-10-24T13:42:13Z</time>
      </trkpt>
      <trkpt lat="44.13101" lon="3.13467">
        <ele>815</ele>
        <time>2015-10-24T13:42:20Z</time>
      </trkpt>
      <trkpt lat="44.13092" lon="3.13454">
        <ele>815</ele>
        <time>2015-10-24T13:42:28Z</time>
      </trkpt>
      <trkpt lat="44.13088" lon="3.1345">
        <ele>815</ele>
        <time>2015-10-24T13:42:32Z</time>
      </trkpt>
      <trkpt lat="44.13085" lon="3.13442">
        <ele>815</ele>
        <time>2015-10-24T13:42:36Z</time>
      </trkpt>
      <trkpt lat="44.1308" lon="3.13436">
        <ele>819</ele>
        <time>2015-10-24T13:42:39Z</time>
      </trkpt>
      <trkpt lat="44.13074" lon="3.13418">
        <ele>818</ele>
        <time>2015-10-24T13:42:45Z</time>
      </trkpt>
      <trkpt lat="44.1307" lon="3.13395">
        <ele>819</ele>
        <time>2015-10-24T13:42:51Z</time>
      </trkpt>
      <trkpt lat="44.13065" lon="3.13375">
        <ele>819</ele>
        <time>2015-10-24T13:42:56Z</time>
      </trkpt>
      <trkpt lat="44.13064" lon="3.13361">
        <ele>819</ele>
        <time>2015-10-24T13:43:00Z</time>
      </trkpt>
      <trkpt lat="44.13061" lon="3.13346">
        <ele>819</ele>
        <time>2015-10-24T13:43:04Z</time>
      </trkpt>
      <trkpt lat="44.13059" lon="3.13329">
        <ele>819</ele>
        <time>2015-10-24T13:43:09Z</time>
      </trkpt>
      <trkpt lat="44.13057" lon="3.13317">
        <ele>819</ele>
        <time>2015-10-24T13:43:13Z</time>
      </trkpt>
      <trkpt lat="44.13056" lon="3.13301">
        <ele>819</ele>
        <time>2015-10-24T13:43:18Z</time>
      </trkpt>
      <trkpt lat="44.13052" lon="3.13284">
        <ele>820</ele>
        <time>2015-10-24T13:43:23Z</time>
      </trkpt>
      <trkpt lat="44.1305" lon="3.13265">
        <ele>820</ele>
        <time>2015-10-24T13:43:28Z</time>
      </trkpt>
      <trkpt lat="44.13049" lon="3.13257">
        <ele>820</ele>
        <time>2015-10-24T13:43:32Z</time>
      </trkpt>
      <trkpt lat="44.13048" lon="3.13245">
        <ele>820</ele>
        <time>2015-10-24T13:43:38Z</time>
      </trkpt>
      <trkpt lat="44.13044" lon="3.13229">
        <ele>820</ele>
        <time>2015-10-24T13:43:44Z</time>
      </trkpt>
      <trkpt lat="44.13042" lon="3.13215">
        <ele>820</ele>
        <time>2015-10-24T13:43:50Z</time>
      </trkpt>
      <trkpt lat="44.13042" lon="3.13213">
        <ele>820</ele>
        <time>2015-10-24T13:43:51Z</time>
      </trkpt>
      <trkpt lat="44.13045" lon="3.132">
        <ele>820</ele>
        <time>2015-10-24T13:43:57Z</time>
      </trkpt>
      <trkpt lat="44.13042" lon="3.13191">
        <ele>820</ele>
        <time>2015-10-24T13:44:01Z</time>
      </trkpt>
      <trkpt lat="44.13042" lon="3.13186">
        <ele>820</ele>
        <time>2015-10-24T13:44:03Z</time>
      </trkpt>
      <trkpt lat="44.1304" lon="3.1318">
        <ele>820</ele>
        <time>2015-10-24T13:44:06Z</time>
      </trkpt>
      <trkpt lat="44.13038" lon="3.13159">
        <ele>819</ele>
        <time>2015-10-24T13:44:13Z</time>
      </trkpt>
      <trkpt lat="44.13036" lon="3.13145">
        <ele>819</ele>
        <time>2015-10-24T13:44:17Z</time>
      </trkpt>
      <trkpt lat="44.13036" lon="3.13136">
        <ele>819</ele>
        <time>2015-10-24T13:44:20Z</time>
      </trkpt>
      <trkpt lat="44.13034" lon="3.13114">
        <ele>819</ele>
        <time>2015-10-24T13:44:26Z</time>
      </trkpt>
      <trkpt lat="44.13029" lon="3.13099">
        <ele>820</ele>
        <time>2015-10-24T13:44:30Z</time>
      </trkpt>
      <trkpt lat="44.13025" lon="3.13083">
        <ele>819</ele>
        <time>2015-10-24T13:44:35Z</time>
      </trkpt>
      <trkpt lat="44.13023" lon="3.13071">
        <ele>819</ele>
        <time>2015-10-24T13:44:39Z</time>
      </trkpt>
      <trkpt lat="44.13021" lon="3.13056">
        <ele>819</ele>
        <time>2015-10-24T13:44:44Z</time>
      </trkpt>
      <trkpt lat="44.13017" lon="3.13039">
        <ele>818</ele>
        <time>2015-10-24T13:44:49Z</time>
      </trkpt>
      <trkpt lat="44.13015" lon="3.13024">
        <ele>819</ele>
        <time>2015-10-24T13:44:53Z</time>
      </trkpt>
      <trkpt lat="44.13013" lon="3.1301">
        <ele>819</ele>
        <time>2015-10-24T13:44:57Z</time>
      </trkpt>
      <trkpt lat="44.1301" lon="3.12994">
        <ele>819</ele>
        <time>2015-10-24T13:45:02Z</time>
      </trkpt>
      <trkpt lat="44.13008" lon="3.12977">
        <ele>818</ele>
        <time>2015-10-24T13:45:07Z</time>
      </trkpt>
      <trkpt lat="44.13005" lon="3.12962">
        <ele>817</ele>
        <time>2015-10-24T13:45:11Z</time>
      </trkpt>
      <trkpt lat="44.13003" lon="3.12942">
        <ele>816</ele>
        <time>2015-10-24T13:45:17Z</time>
      </trkpt>
      <trkpt lat="44.12999" lon="3.12926">
        <ele>818</ele>
        <time>2015-10-24T13:45:22Z</time>
      </trkpt>
      <trkpt lat="44.12997" lon="3.12914">
        <ele>817</ele>
        <time>2015-10-24T13:45:26Z</time>
      </trkpt>
      <trkpt lat="44.12993" lon="3.12898">
        <ele>817</ele>
        <time>2015-10-24T13:45:31Z</time>
      </trkpt>
      <trkpt lat="44.12989" lon="3.12886">
        <ele>817</ele>
        <time>2015-10-24T13:45:35Z</time>
      </trkpt>
      <trkpt lat="44.12983" lon="3.12879">
        <ele>817</ele>
        <time>2015-10-24T13:45:40Z</time>
      </trkpt>
      <trkpt lat="44.12981" lon="3.12876">
        <ele>817</ele>
        <time>2015-10-24T13:45:42Z</time>
      </trkpt>
      <trkpt lat="44.12971" lon="3.1287">
        <ele>817</ele>
        <time>2015-10-24T13:45:48Z</time>
      </trkpt>
      <trkpt lat="44.12964" lon="3.12867">
        <ele>817</ele>
        <time>2015-10-24T13:45:53Z</time>
      </trkpt>
      <trkpt lat="44.12955" lon="3.12863">
        <ele>817</ele>
        <time>2015-10-24T13:45:58Z</time>
      </trkpt>
      <trkpt lat="44.12949" lon="3.1286">
        <ele>817</ele>
        <time>2015-10-24T13:46:02Z</time>
      </trkpt>
      <trkpt lat="44.12946" lon="3.12858">
        <ele>817</ele>
        <time>2015-10-24T13:46:04Z</time>
      </trkpt>
      <trkpt lat="44.12938" lon="3.12856">
        <ele>817</ele>
        <time>2015-10-24T13:46:08Z</time>
      </trkpt>
      <trkpt lat="44.12929" lon="3.12855">
        <ele>817</ele>
        <time>2015-10-24T13:46:12Z</time>
      </trkpt>
      <trkpt lat="44.12919" lon="3.12847">
        <ele>817</ele>
        <time>2015-10-24T13:46:17Z</time>
      </trkpt>
      <trkpt lat="44.12915" lon="3.12846">
        <ele>817</ele>
        <time>2015-10-24T13:46:19Z</time>
      </trkpt>
      <trkpt lat="44.12908" lon="3.12842">
        <ele>817</ele>
        <time>2015-10-24T13:46:22Z</time>
      </trkpt>
      <trkpt lat="44.12895" lon="3.12839">
        <ele>818</ele>
        <time>2015-10-24T13:46:27Z</time>
      </trkpt>
      <trkpt lat="44.12885" lon="3.12838">
        <ele>818</ele>
        <time>2015-10-24T13:46:31Z</time>
      </trkpt>
      <trkpt lat="44.12876" lon="3.12835">
        <ele>818</ele>
        <time>2015-10-24T13:46:35Z</time>
      </trkpt>
      <trkpt lat="44.12857" lon="3.12831">
        <ele>817</ele>
        <time>2015-10-24T13:46:42Z</time>
      </trkpt>
      <trkpt lat="44.12845" lon="3.12834">
        <ele>818</ele>
        <time>2015-10-24T13:46:46Z</time>
      </trkpt>
      <trkpt lat="44.12836" lon="3.12836">
        <ele>818</ele>
        <time>2015-10-24T13:46:50Z</time>
      </trkpt>
      <trkpt lat="44.12834" lon="3.12837">
        <ele>818</ele>
        <time>2015-10-24T13:46:51Z</time>
      </trkpt>
      <trkpt lat="44.12825" lon="3.12843">
        <ele>819</ele>
        <time>2015-10-24T13:46:55Z</time>
      </trkpt>
      <trkpt lat="44.12818" lon="3.12853">
        <ele>820</ele>
        <time>2015-10-24T13:46:59Z</time>
      </trkpt>
      <trkpt lat="44.12814" lon="3.12863">
        <ele>821</ele>
        <time>2015-10-24T13:47:03Z</time>
      </trkpt>
      <trkpt lat="44.12812" lon="3.12875">
        <ele>821</ele>
        <time>2015-10-24T13:47:08Z</time>
      </trkpt>
      <trkpt lat="44.1281" lon="3.12886">
        <ele>821</ele>
        <time>2015-10-24T13:47:13Z</time>
      </trkpt>
      <trkpt lat="44.1281" lon="3.12889">
        <ele>821</ele>
        <time>2015-10-24T13:47:15Z</time>
      </trkpt>
      <trkpt lat="44.12811" lon="3.12899">
        <ele>821</ele>
        <time>2015-10-24T13:47:20Z</time>
      </trkpt>
      <trkpt lat="44.12811" lon="3.1291">
        <ele>821</ele>
        <time>2015-10-24T13:47:25Z</time>
      </trkpt>
      <trkpt lat="44.12809" lon="3.12929">
        <ele>822</ele>
        <time>2015-10-24T13:47:33Z</time>
      </trkpt>
      <trkpt lat="44.12807" lon="3.12945">
        <ele>823</ele>
        <time>2015-10-24T13:47:40Z</time>
      </trkpt>
      <trkpt lat="44.12803" lon="3.12964">
        <ele>823</ele>
        <time>2015-10-24T13:47:47Z</time>
      </trkpt>
      <trkpt lat="44.12801" lon="3.12982">
        <ele>823</ele>
        <time>2015-10-24T13:47:53Z</time>
      </trkpt>
      <trkpt lat="44.12793" lon="3.12994">
        <ele>823</ele>
        <time>2015-10-24T13:48:00Z</time>
      </trkpt>
      <trkpt lat="44.12791" lon="3.12996">
        <ele>823</ele>
        <time>2015-10-24T13:48:02Z</time>
      </trkpt>
      <trkpt lat="44.12784" lon="3.13001">
        <ele>823</ele>
        <time>2015-10-24T13:48:07Z</time>
      </trkpt>
      <trkpt lat="44.12773" lon="3.13006">
        <ele>824</ele>
        <time>2015-10-24T13:48:13Z</time>
      </trkpt>
      <trkpt lat="44.12767" lon="3.1301">
        <ele>824</ele>
        <time>2015-10-24T13:48:17Z</time>
      </trkpt>
      <trkpt lat="44.1276" lon="3.13015">
        <ele>824</ele>
        <time>2015-10-24T13:48:22Z</time>
      </trkpt>
      <trkpt lat="44.12754" lon="3.1302">
        <ele>824</ele>
        <time>2015-10-24T13:48:26Z</time>
      </trkpt>
      <trkpt lat="44.12752" lon="3.13022">
        <ele>824</ele>
        <time>2015-10-24T13:48:27Z</time>
      </trkpt>
      <trkpt lat="44.12741" lon="3.13027">
        <ele>824</ele>
        <time>2015-10-24T13:48:32Z</time>
      </trkpt>
      <trkpt lat="44.12734" lon="3.13031">
        <ele>824</ele>
        <time>2015-10-24T13:48:37Z</time>
      </trkpt>
      <trkpt lat="44.12728" lon="3.13028">
        <ele>824</ele>
        <time>2015-10-24T13:48:42Z</time>
      </trkpt>
      <trkpt lat="44.12721" lon="3.13026">
        <ele>824</ele>
        <time>2015-10-24T13:48:47Z</time>
      </trkpt>
      <trkpt lat="44.12711" lon="3.13029">
        <ele>824</ele>
        <time>2015-10-24T13:48:53Z</time>
      </trkpt>
      <trkpt lat="44.12704" lon="3.13027">
        <ele>825</ele>
        <time>2015-10-24T13:48:57Z</time>
      </trkpt>
      <trkpt lat="44.12703" lon="3.13025">
        <ele>825</ele>
        <time>2015-10-24T13:48:58Z</time>
      </trkpt>
      <trkpt lat="44.12694" lon="3.13023">
        <ele>825</ele>
        <time>2015-10-24T13:49:02Z</time>
      </trkpt>
      <trkpt lat="44.12687" lon="3.13015">
        <ele>825</ele>
        <time>2015-10-24T13:49:07Z</time>
      </trkpt>
      <trkpt lat="44.12682" lon="3.13008">
        <ele>826</ele>
        <time>2015-10-24T13:49:10Z</time>
      </trkpt>
      <trkpt lat="44.12672" lon="3.1299">
        <ele>827</ele>
        <time>2015-10-24T13:49:16Z</time>
      </trkpt>
      <trkpt lat="44.12667" lon="3.12975">
        <ele>827</ele>
        <time>2015-10-24T13:49:21Z</time>
      </trkpt>
      <trkpt lat="44.12666" lon="3.12973">
        <ele>828</ele>
        <time>2015-10-24T13:49:22Z</time>
      </trkpt>
      <trkpt lat="44.1266" lon="3.12965">
        <ele>828</ele>
        <time>2015-10-24T13:49:28Z</time>
      </trkpt>
      <trkpt lat="44.12658" lon="3.12959">
        <ele>829</ele>
        <time>2015-10-24T13:49:32Z</time>
      </trkpt>
      <trkpt lat="44.12656" lon="3.12954">
        <ele>829</ele>
        <time>2015-10-24T13:49:36Z</time>
      </trkpt>
      <trkpt lat="44.12653" lon="3.12942">
        <ele>829</ele>
        <time>2015-10-24T13:49:41Z</time>
      </trkpt>
      <trkpt lat="44.1265" lon="3.12933">
        <ele>829</ele>
        <time>2015-10-24T13:49:45Z</time>
      </trkpt>
      <trkpt lat="44.12645" lon="3.12921">
        <ele>829</ele>
        <time>2015-10-24T13:49:49Z</time>
      </trkpt>
      <trkpt lat="44.12636" lon="3.12909">
        <ele>831</ele>
        <time>2015-10-24T13:49:54Z</time>
      </trkpt>
      <trkpt lat="44.12629" lon="3.12897">
        <ele>832</ele>
        <time>2015-10-24T13:50:00Z</time>
      </trkpt>
      <trkpt lat="44.1262" lon="3.12891">
        <ele>832</ele>
        <time>2015-10-24T13:50:07Z</time>
      </trkpt>
      <trkpt lat="44.12612" lon="3.12885">
        <ele>832</ele>
        <time>2015-10-24T13:50:14Z</time>
      </trkpt>
      <trkpt lat="44.12603" lon="3.12879">
        <ele>832</ele>
        <time>2015-10-24T13:50:20Z</time>
      </trkpt>
      <trkpt lat="44.12598" lon="3.12873">
        <ele>833</ele>
        <time>2015-10-24T13:50:25Z</time>
      </trkpt>
      <trkpt lat="44.12592" lon="3.12868">
        <ele>833</ele>
        <time>2015-10-24T13:50:30Z</time>
      </trkpt>
      <trkpt lat="44.12582" lon="3.12859">
        <ele>835</ele>
        <time>2015-10-24T13:50:37Z</time>
      </trkpt>
      <trkpt lat="44.1258" lon="3.12857">
        <ele>835</ele>
        <time>2015-10-24T13:50:39Z</time>
      </trkpt>
      <trkpt lat="44.12575" lon="3.12849">
        <ele>836</ele>
        <time>2015-10-24T13:50:44Z</time>
      </trkpt>
      <trkpt lat="44.1257" lon="3.12843">
        <ele>836</ele>
        <time>2015-10-24T13:50:48Z</time>
      </trkpt>
      <trkpt lat="44.12565" lon="3.12835">
        <ele>836</ele>
        <time>2015-10-24T13:50:53Z</time>
      </trkpt>
      <trkpt lat="44.12558" lon="3.12829">
        <ele>838</ele>
        <time>2015-10-24T13:50:58Z</time>
      </trkpt>
      <trkpt lat="44.12557" lon="3.12829">
        <ele>838</ele>
        <time>2015-10-24T13:50:59Z</time>
      </trkpt>
      <trkpt lat="44.12549" lon="3.12817">
        <ele>839</ele>
        <time>2015-10-24T13:51:07Z</time>
      </trkpt>
      <trkpt lat="44.12548" lon="3.12813">
        <ele>839</ele>
        <time>2015-10-24T13:51:09Z</time>
      </trkpt>
      <trkpt lat="44.1255" lon="3.12808">
        <ele>839</ele>
        <time>2015-10-24T13:51:12Z</time>
      </trkpt>
      <trkpt lat="44.12551" lon="3.12796">
        <ele>839</ele>
        <time>2015-10-24T13:51:18Z</time>
      </trkpt>
      <trkpt lat="44.12547" lon="3.12786">
        <ele>839</ele>
        <time>2015-10-24T13:51:23Z</time>
      </trkpt>
      <trkpt lat="44.12543" lon="3.12777">
        <ele>840</ele>
        <time>2015-10-24T13:51:28Z</time>
      </trkpt>
      <trkpt lat="44.12541" lon="3.12772">
        <ele>840</ele>
        <time>2015-10-24T13:51:31Z</time>
      </trkpt>
      <trkpt lat="44.12539" lon="3.12765">
        <ele>840</ele>
        <time>2015-10-24T13:51:35Z</time>
      </trkpt>
      <trkpt lat="44.12537" lon="3.1276">
        <ele>840</ele>
        <time>2015-10-24T13:51:38Z</time>
      </trkpt>
      <trkpt lat="44.1253" lon="3.12757">
        <ele>840</ele>
        <time>2015-10-24T13:51:43Z</time>
      </trkpt>
      <trkpt lat="44.12529" lon="3.12757">
        <ele>840</ele>
        <time>2015-10-24T13:51:44Z</time>
      </trkpt>
      <trkpt lat="44.1252" lon="3.12762">
        <ele>841</ele>
        <time>2015-10-24T13:51:49Z</time>
      </trkpt>
      <trkpt lat="44.12517" lon="3.12763">
        <ele>841</ele>
        <time>2015-10-24T13:51:51Z</time>
      </trkpt>
      <trkpt lat="44.12512" lon="3.12764">
        <ele>841</ele>
        <time>2015-10-24T13:51:54Z</time>
      </trkpt>
      <trkpt lat="44.12503" lon="3.12766">
        <ele>841</ele>
        <time>2015-10-24T13:51:59Z</time>
      </trkpt>
      <trkpt lat="44.12493" lon="3.12775">
        <ele>841</ele>
        <time>2015-10-24T13:52:04Z</time>
      </trkpt>
      <trkpt lat="44.1249" lon="3.12778">
        <ele>841</ele>
        <time>2015-10-24T13:52:05Z</time>
      </trkpt>
      <trkpt lat="44.1248" lon="3.12778">
        <ele>841</ele>
        <time>2015-10-24T13:52:10Z</time>
      </trkpt>
      <trkpt lat="44.12478" lon="3.12779">
        <ele>841</ele>
        <time>2015-10-24T13:52:11Z</time>
      </trkpt>
      <trkpt lat="44.12473" lon="3.12771">
        <ele>841</ele>
        <time>2015-10-24T13:52:15Z</time>
      </trkpt>
      <trkpt lat="44.12467" lon="3.12764">
        <ele>841</ele>
        <time>2015-10-24T13:52:19Z</time>
      </trkpt>
      <trkpt lat="44.1246" lon="3.12754">
        <ele>841</ele>
        <time>2015-10-24T13:52:23Z</time>
      </trkpt>
      <trkpt lat="44.12452" lon="3.12749">
        <ele>843</ele>
        <time>2015-10-24T13:52:27Z</time>
      </trkpt>
      <trkpt lat="44.12443" lon="3.12735">
        <ele>843</ele>
        <time>2015-10-24T13:52:33Z</time>
      </trkpt>
      <trkpt lat="44.12437" lon="3.12731">
        <ele>843</ele>
        <time>2015-10-24T13:52:37Z</time>
      </trkpt>
      <trkpt lat="44.12429" lon="3.12724">
        <ele>843</ele>
        <time>2015-10-24T13:52:41Z</time>
      </trkpt>
      <trkpt lat="44.12425" lon="3.12721">
        <ele>843</ele>
        <time>2015-10-24T13:52:43Z</time>
      </trkpt>
      <trkpt lat="44.12417" lon="3.12716">
        <ele>843</ele>
        <time>2015-10-24T13:52:47Z</time>
      </trkpt>
      <trkpt lat="44.12415" lon="3.12715">
        <ele>843</ele>
        <time>2015-10-24T13:52:48Z</time>
      </trkpt>
      <trkpt lat="44.12409" lon="3.12713">
        <ele>843</ele>
        <time>2015-10-24T13:52:51Z</time>
      </trkpt>
      <trkpt lat="44.12406" lon="3.12714">
        <ele>843</ele>
        <time>2015-10-24T13:52:54Z</time>
      </trkpt>
      <trkpt lat="44.12401" lon="3.12715">
        <ele>843</ele>
        <time>2015-10-24T13:52:58Z</time>
      </trkpt>
      <trkpt lat="44.12399" lon="3.12718">
        <ele>843</ele>
        <time>2015-10-24T13:53:04Z</time>
      </trkpt>
      <trkpt lat="44.124" lon="3.12719">
        <ele>843</ele>
        <time>2015-10-24T13:53:10Z</time>
      </trkpt>
      <trkpt lat="44.124" lon="3.12722">
        <ele>843</ele>
        <time>2015-10-24T13:53:15Z</time>
      </trkpt>
      <trkpt lat="44.124" lon="3.12722">
        <ele>843</ele>
        <time>2015-10-24T13:53:28Z</time>
      </trkpt>
      <trkpt lat="44.124" lon="3.12722">
        <ele>843</ele>
        <time>2015-10-24T13:53:37Z</time>
      </trkpt>
      <trkpt lat="44.12399" lon="3.12723">
        <ele>843</ele>
        <time>2015-10-24T13:53:44Z</time>
      </trkpt>
      <trkpt lat="44.12398" lon="3.12723">
        <ele>843</ele>
        <time>2015-10-24T13:53:53Z</time>
      </trkpt>
      <trkpt lat="44.12396" lon="3.12728">
        <ele>843</ele>
        <time>2015-10-24T13:54:00Z</time>
      </trkpt>
      <trkpt lat="44.12396" lon="3.12732">
        <ele>843</ele>
        <time>2015-10-24T13:54:06Z</time>
      </trkpt>
      <trkpt lat="44.12396" lon="3.12734">
        <ele>843</ele>
        <time>2015-10-24T13:54:07Z</time>
      </trkpt>
      <trkpt lat="44.12391" lon="3.12748">
        <ele>843</ele>
        <time>2015-10-24T13:54:12Z</time>
      </trkpt>
      <trkpt lat="44.12387" lon="3.12761">
        <ele>841</ele>
        <time>2015-10-24T13:54:16Z</time>
      </trkpt>
      <trkpt lat="44.12383" lon="3.12772">
        <ele>841</ele>
        <time>2015-10-24T13:54:19Z</time>
      </trkpt>
      <trkpt lat="44.12378" lon="3.12786">
        <ele>841</ele>
        <time>2015-10-24T13:54:23Z</time>
      </trkpt>
      <trkpt lat="44.12371" lon="3.12799">
        <ele>841</ele>
        <time>2015-10-24T13:54:27Z</time>
      </trkpt>
      <trkpt lat="44.12368" lon="3.12817">
        <ele>840</ele>
        <time>2015-10-24T13:54:31Z</time>
      </trkpt>
      <trkpt lat="44.12367" lon="3.12826">
        <ele>840</ele>
        <time>2015-10-24T13:54:33Z</time>
      </trkpt>
      <trkpt lat="44.12365" lon="3.12849">
        <ele>837</ele>
        <time>2015-10-24T13:54:38Z</time>
      </trkpt>
      <trkpt lat="44.12367" lon="3.1286">
        <ele>836</ele>
        <time>2015-10-24T13:54:42Z</time>
      </trkpt>
      <trkpt lat="44.12364" lon="3.12877">
        <ele>836</ele>
        <time>2015-10-24T13:54:47Z</time>
      </trkpt>
      <trkpt lat="44.12363" lon="3.1288">
        <ele>836</ele>
        <time>2015-10-24T13:54:48Z</time>
      </trkpt>
      <trkpt lat="44.12358" lon="3.129">
        <ele>835</ele>
        <time>2015-10-24T13:54:54Z</time>
      </trkpt>
      <trkpt lat="44.12357" lon="3.12915">
        <ele>835</ele>
        <time>2015-10-24T13:54:58Z</time>
      </trkpt>
      <trkpt lat="44.1236" lon="3.12926">
        <ele>833</ele>
        <time>2015-10-24T13:55:01Z</time>
      </trkpt>
      <trkpt lat="44.12364" lon="3.12943">
        <ele>833</ele>
        <time>2015-10-24T13:55:05Z</time>
      </trkpt>
      <trkpt lat="44.12364" lon="3.12951">
        <ele>833</ele>
        <time>2015-10-24T13:55:08Z</time>
      </trkpt>
      <trkpt lat="44.12369" lon="3.12964">
        <ele>833</ele>
        <time>2015-10-24T13:55:13Z</time>
      </trkpt>
      <trkpt lat="44.12373" lon="3.12973">
        <ele>832</ele>
        <time>2015-10-24T13:55:17Z</time>
      </trkpt>
      <trkpt lat="44.12374" lon="3.12983">
        <ele>832</ele>
        <time>2015-10-24T13:55:21Z</time>
      </trkpt>
      <trkpt lat="44.12375" lon="3.12991">
        <ele>832</ele>
        <time>2015-10-24T13:55:24Z</time>
      </trkpt>
      <trkpt lat="44.12382" lon="3.13006">
        <ele>830</ele>
        <time>2015-10-24T13:55:28Z</time>
      </trkpt>
      <trkpt lat="44.12383" lon="3.13014">
        <ele>830</ele>
        <time>2015-10-24T13:55:31Z</time>
      </trkpt>
      <trkpt lat="44.12388" lon="3.1302">
        <ele>830</ele>
        <time>2015-10-24T13:55:33Z</time>
      </trkpt>
      <trkpt lat="44.12398" lon="3.13033">
        <ele>829</ele>
        <time>2015-10-24T13:55:38Z</time>
      </trkpt>
      <trkpt lat="44.12398" lon="3.13035">
        <ele>829</ele>
        <time>2015-10-24T13:55:39Z</time>
      </trkpt>
      <trkpt lat="44.12399" lon="3.13048">
        <ele>829</ele>
        <time>2015-10-24T13:55:43Z</time>
      </trkpt>
      <trkpt lat="44.124" lon="3.13056">
        <ele>829</ele>
        <time>2015-10-24T13:55:46Z</time>
      </trkpt>
      <trkpt lat="44.12404" lon="3.13068">
        <ele>828</ele>
        <time>2015-10-24T13:55:51Z</time>
      </trkpt>
      <trkpt lat="44.12407" lon="3.1308">
        <ele>827</ele>
        <time>2015-10-24T13:55:54Z</time>
      </trkpt>
      <trkpt lat="44.12405" lon="3.13099">
        <ele>826</ele>
        <time>2015-10-24T13:56:00Z</time>
      </trkpt>
      <trkpt lat="44.12404" lon="3.13113">
        <ele>825</ele>
        <time>2015-10-24T13:56:06Z</time>
      </trkpt>
      <trkpt lat="44.12406" lon="3.13132">
        <ele>825</ele>
        <time>2015-10-24T13:56:11Z</time>
      </trkpt>
      <trkpt lat="44.12405" lon="3.13147">
        <ele>824</ele>
        <time>2015-10-24T13:56:15Z</time>
      </trkpt>
      <trkpt lat="44.12404" lon="3.1316">
        <ele>823</ele>
        <time>2015-10-24T13:56:19Z</time>
      </trkpt>
      <trkpt lat="44.12405" lon="3.13168">
        <ele>821</ele>
        <time>2015-10-24T13:56:22Z</time>
      </trkpt>
      <trkpt lat="44.12405" lon="3.13181">
        <ele>821</ele>
        <time>2015-10-24T13:56:26Z</time>
      </trkpt>
      <trkpt lat="44.12408" lon="3.13198">
        <ele>821</ele>
        <time>2015-10-24T13:56:32Z</time>
      </trkpt>
      <trkpt lat="44.12409" lon="3.13217">
        <ele>820</ele>
        <time>2015-10-24T13:56:38Z</time>
      </trkpt>
      <trkpt lat="44.12409" lon="3.1323">
        <ele>819</ele>
        <time>2015-10-24T13:56:42Z</time>
      </trkpt>
      <trkpt lat="44.12407" lon="3.13246">
        <ele>817</ele>
        <time>2015-10-24T13:56:47Z</time>
      </trkpt>
      <trkpt lat="44.12406" lon="3.13251">
        <ele>815</ele>
        <time>2015-10-24T13:56:49Z</time>
      </trkpt>
      <trkpt lat="44.12407" lon="3.13264">
        <ele>815</ele>
        <time>2015-10-24T13:56:54Z</time>
      </trkpt>
      <trkpt lat="44.1241" lon="3.13272">
        <ele>815</ele>
        <time>2015-10-24T13:56:57Z</time>
      </trkpt>
      <trkpt lat="44.1241" lon="3.13278">
        <ele>815</ele>
        <time>2015-10-24T13:57:00Z</time>
      </trkpt>
      <trkpt lat="44.12413" lon="3.1329">
        <ele>815</ele>
        <time>2015-10-24T13:57:04Z</time>
      </trkpt>
      <trkpt lat="44.12414" lon="3.133">
        <ele>814</ele>
        <time>2015-10-24T13:57:07Z</time>
      </trkpt>
      <trkpt lat="44.12415" lon="3.13311">
        <ele>813</ele>
        <time>2015-10-24T13:57:11Z</time>
      </trkpt>
      <trkpt lat="44.12416" lon="3.13318">
        <ele>812</ele>
        <time>2015-10-24T13:57:13Z</time>
      </trkpt>
      <trkpt lat="44.12415" lon="3.1333">
        <ele>810</ele>
        <time>2015-10-24T13:57:17Z</time>
      </trkpt>
      <trkpt lat="44.12414" lon="3.13346">
        <ele>810</ele>
        <time>2015-10-24T13:57:22Z</time>
      </trkpt>
      <trkpt lat="44.12414" lon="3.13365">
        <ele>810</ele>
        <time>2015-10-24T13:57:27Z</time>
      </trkpt>
      <trkpt lat="44.12414" lon="3.13376">
        <ele>809</ele>
        <time>2015-10-24T13:57:31Z</time>
      </trkpt>
      <trkpt lat="44.12414" lon="3.13389">
        <ele>808</ele>
        <time>2015-10-24T13:57:36Z</time>
      </trkpt>
      <trkpt lat="44.12415" lon="3.13397">
        <ele>808</ele>
        <time>2015-10-24T13:57:40Z</time>
      </trkpt>
      <trkpt lat="44.12415" lon="3.13402">
        <ele>807</ele>
        <time>2015-10-24T13:57:42Z</time>
      </trkpt>
      <trkpt lat="44.12418" lon="3.13411">
        <ele>805</ele>
        <time>2015-10-24T13:57:46Z</time>
      </trkpt>
      <trkpt lat="44.12422" lon="3.13417">
        <ele>805</ele>
        <time>2015-10-24T13:57:50Z</time>
      </trkpt>
      <trkpt lat="44.12424" lon="3.13419">
        <ele>804</ele>
        <time>2015-10-24T13:57:53Z</time>
      </trkpt>
      <trkpt lat="44.12425" lon="3.13421">
        <ele>804</ele>
        <time>2015-10-24T13:57:55Z</time>
      </trkpt>
      <trkpt lat="44.12423" lon="3.13422">
        <ele>804</ele>
        <time>2015-10-24T13:58:00Z</time>
      </trkpt>
      <trkpt lat="44.12416" lon="3.13418">
        <ele>804</ele>
        <time>2015-10-24T13:58:05Z</time>
      </trkpt>
      <trkpt lat="44.12412" lon="3.13419">
        <ele>805</ele>
        <time>2015-10-24T13:58:09Z</time>
      </trkpt>
      <trkpt lat="44.12406" lon="3.13428">
        <ele>806</ele>
        <time>2015-10-24T13:58:14Z</time>
      </trkpt>
      <trkpt lat="44.12404" lon="3.13446">
        <ele>806</ele>
        <time>2015-10-24T13:58:22Z</time>
      </trkpt>
      <trkpt lat="44.12402" lon="3.13458">
        <ele>806</ele>
        <time>2015-10-24T13:58:26Z</time>
      </trkpt>
      <trkpt lat="44.12404" lon="3.13465">
        <ele>806</ele>
        <time>2015-10-24T13:58:31Z</time>
      </trkpt>
      <trkpt lat="44.12405" lon="3.13466">
        <ele>805</ele>
        <time>2015-10-24T13:58:32Z</time>
      </trkpt>
      <trkpt lat="44.12407" lon="3.13477">
        <ele>804</ele>
        <time>2015-10-24T13:58:38Z</time>
      </trkpt>
      <trkpt lat="44.12407" lon="3.1349">
        <ele>802</ele>
        <time>2015-10-24T13:58:42Z</time>
      </trkpt>
      <trkpt lat="44.12408" lon="3.135">
        <ele>800</ele>
        <time>2015-10-24T13:58:45Z</time>
      </trkpt>
      <trkpt lat="44.12413" lon="3.13518">
        <ele>801</ele>
        <time>2015-10-24T13:58:51Z</time>
      </trkpt>
      <trkpt lat="44.12423" lon="3.13531">
        <ele>796</ele>
        <time>2015-10-24T13:58:55Z</time>
      </trkpt>
      <trkpt lat="44.12427" lon="3.13534">
        <ele>796</ele>
        <time>2015-10-24T13:58:57Z</time>
      </trkpt>
      <trkpt lat="44.12435" lon="3.13544">
        <ele>795</ele>
        <time>2015-10-24T13:59:02Z</time>
      </trkpt>
      <trkpt lat="44.1244" lon="3.13552">
        <ele>795</ele>
        <time>2015-10-24T13:59:07Z</time>
      </trkpt>
      <trkpt lat="44.12441" lon="3.13554">
        <ele>795</ele>
        <time>2015-10-24T13:59:08Z</time>
      </trkpt>
      <trkpt lat="44.12445" lon="3.13568">
        <ele>794</ele>
        <time>2015-10-24T13:59:14Z</time>
      </trkpt>
      <trkpt lat="44.12445" lon="3.13579">
        <ele>794</ele>
        <time>2015-10-24T13:59:19Z</time>
      </trkpt>
      <trkpt lat="44.12446" lon="3.13592">
        <ele>789</ele>
        <time>2015-10-24T13:59:25Z</time>
      </trkpt>
      <trkpt lat="44.12445" lon="3.136">
        <ele>789</ele>
        <time>2015-10-24T13:59:29Z</time>
      </trkpt>
      <trkpt lat="44.12446" lon="3.13606">
        <ele>789</ele>
        <time>2015-10-24T13:59:32Z</time>
      </trkpt>
      <trkpt lat="44.12444" lon="3.13616">
        <ele>788</ele>
        <time>2015-10-24T13:59:37Z</time>
      </trkpt>
      <trkpt lat="44.12443" lon="3.13619">
        <ele>788</ele>
        <time>2015-10-24T13:59:39Z</time>
      </trkpt>
      <trkpt lat="44.12442" lon="3.13627">
        <ele>788</ele>
        <time>2015-10-24T13:59:43Z</time>
      </trkpt>
      <trkpt lat="44.12439" lon="3.13635">
        <ele>788</ele>
        <time>2015-10-24T13:59:49Z</time>
      </trkpt>
      <trkpt lat="44.12436" lon="3.13642">
        <ele>788</ele>
        <time>2015-10-24T13:59:52Z</time>
      </trkpt>
      <trkpt lat="44.12437" lon="3.13651">
        <ele>788</ele>
        <time>2015-10-24T13:59:57Z</time>
      </trkpt>
      <trkpt lat="44.12438" lon="3.13664">
        <ele>787</ele>
        <time>2015-10-24T14:00:02Z</time>
      </trkpt>
      <trkpt lat="44.12439" lon="3.13673">
        <ele>784</ele>
        <time>2015-10-24T14:00:06Z</time>
      </trkpt>
      <trkpt lat="44.12441" lon="3.13684">
        <ele>783</ele>
        <time>2015-10-24T14:00:11Z</time>
      </trkpt>
      <trkpt lat="44.12441" lon="3.13686">
        <ele>783</ele>
        <time>2015-10-24T14:00:12Z</time>
      </trkpt>
      <trkpt lat="44.12448" lon="3.13699">
        <ele>781</ele>
        <time>2015-10-24T14:00:18Z</time>
      </trkpt>
      <trkpt lat="44.12453" lon="3.13709">
        <ele>781</ele>
        <time>2015-10-24T14:00:22Z</time>
      </trkpt>
      <trkpt lat="44.12455" lon="3.13712">
        <ele>780</ele>
        <time>2015-10-24T14:00:25Z</time>
      </trkpt>
      <trkpt lat="44.12457" lon="3.13717">
        <ele>780</ele>
        <time>2015-10-24T14:00:29Z</time>
      </trkpt>
      <trkpt lat="44.1246" lon="3.13722">
        <ele>780</ele>
        <time>2015-10-24T14:00:33Z</time>
      </trkpt>
      <trkpt lat="44.12463" lon="3.13727">
        <ele>779</ele>
        <time>2015-10-24T14:00:41Z</time>
      </trkpt>
      <trkpt lat="44.12467" lon="3.13731">
        <ele>779</ele>
        <time>2015-10-24T14:00:46Z</time>
      </trkpt>
      <trkpt lat="44.12468" lon="3.13734">
        <ele>779</ele>
        <time>2015-10-24T14:00:48Z</time>
      </trkpt>
      <trkpt lat="44.1247" lon="3.13742">
        <ele>778</ele>
        <time>2015-10-24T14:00:54Z</time>
      </trkpt>
      <trkpt lat="44.1247" lon="3.13743">
        <ele>778</ele>
        <time>2015-10-24T14:00:55Z</time>
      </trkpt>
      <trkpt lat="44.12474" lon="3.13747">
        <ele>778</ele>
        <time>2015-10-24T14:00:59Z</time>
      </trkpt>
      <trkpt lat="44.12477" lon="3.13762">
        <ele>773</ele>
        <time>2015-10-24T14:01:06Z</time>
      </trkpt>
      <trkpt lat="44.12477" lon="3.13766">
        <ele>773</ele>
        <time>2015-10-24T14:01:08Z</time>
      </trkpt>
      <trkpt lat="44.12475" lon="3.13768">
        <ele>773</ele>
        <time>2015-10-24T14:01:14Z</time>
      </trkpt>
      <trkpt lat="44.12472" lon="3.13769">
        <ele>773</ele>
        <time>2015-10-24T14:01:20Z</time>
      </trkpt>
      <trkpt lat="44.12471" lon="3.13775">
        <ele>773</ele>
        <time>2015-10-24T14:01:25Z</time>
      </trkpt>
      <trkpt lat="44.12468" lon="3.13779">
        <ele>773</ele>
        <time>2015-10-24T14:01:29Z</time>
      </trkpt>
      <trkpt lat="44.12466" lon="3.1378">
        <ele>773</ele>
        <time>2015-10-24T14:01:31Z</time>
      </trkpt>
      <trkpt lat="44.12458" lon="3.13784">
        <ele>773</ele>
        <time>2015-10-24T14:01:38Z</time>
      </trkpt>
      <trkpt lat="44.12456" lon="3.13784">
        <ele>773</ele>
        <time>2015-10-24T14:01:40Z</time>
      </trkpt>
      <trkpt lat="44.12449" lon="3.13787">
        <ele>773</ele>
        <time>2015-10-24T14:01:46Z</time>
      </trkpt>
      <trkpt lat="44.12443" lon="3.1379">
        <ele>773</ele>
        <time>2015-10-24T14:01:51Z</time>
      </trkpt>
      <trkpt lat="44.12437" lon="3.13795">
        <ele>772</ele>
        <time>2015-10-24T14:01:55Z</time>
      </trkpt>
      <trkpt lat="44.12426" lon="3.13798">
        <ele>772</ele>
        <time>2015-10-24T14:02:00Z</time>
      </trkpt>
      <trkpt lat="44.12418" lon="3.13806">
        <ele>771</ele>
        <time>2015-10-24T14:02:04Z</time>
      </trkpt>
      <trkpt lat="44.12411" lon="3.13803">
        <ele>777</ele>
        <time>2015-10-24T14:02:08Z</time>
      </trkpt>
      <trkpt lat="44.12403" lon="3.13802">
        <ele>778</ele>
        <time>2015-10-24T14:02:12Z</time>
      </trkpt>
      <trkpt lat="44.12399" lon="3.13805">
        <ele>777</ele>
        <time>2015-10-24T14:02:15Z</time>
      </trkpt>
      <trkpt lat="44.1239" lon="3.1381">
        <ele>778</ele>
        <time>2015-10-24T14:02:20Z</time>
      </trkpt>
      <trkpt lat="44.12389" lon="3.13811">
        <ele>778</ele>
        <time>2015-10-24T14:02:21Z</time>
      </trkpt>
      <trkpt lat="44.12385" lon="3.13814">
        <ele>778</ele>
        <time>2015-10-24T14:02:24Z</time>
      </trkpt>
      <trkpt lat="44.12374" lon="3.13822">
        <ele>779</ele>
        <time>2015-10-24T14:02:30Z</time>
      </trkpt>
      <trkpt lat="44.12369" lon="3.13827">
        <ele>779</ele>
        <time>2015-10-24T14:02:34Z</time>
      </trkpt>
      <trkpt lat="44.12364" lon="3.13831">
        <ele>779</ele>
        <time>2015-10-24T14:02:38Z</time>
      </trkpt>
      <trkpt lat="44.12357" lon="3.13836">
        <ele>773</ele>
        <time>2015-10-24T14:02:41Z</time>
      </trkpt>
      <trkpt lat="44.1235" lon="3.13837">
        <ele>774</ele>
        <time>2015-10-24T14:02:45Z</time>
      </trkpt>
      <trkpt lat="44.12349" lon="3.13838">
        <ele>774</ele>
        <time>2015-10-24T14:02:46Z</time>
      </trkpt>
      <trkpt lat="44.12342" lon="3.13844">
        <ele>775</ele>
        <time>2015-10-24T14:02:51Z</time>
      </trkpt>
      <trkpt lat="44.12337" lon="3.13852">
        <ele>773</ele>
        <time>2015-10-24T14:02:56Z</time>
      </trkpt>
      <trkpt lat="44.12326" lon="3.13861">
        <ele>777</ele>
        <time>2015-10-24T14:03:01Z</time>
      </trkpt>
      <trkpt lat="44.12323" lon="3.13865">
        <ele>777</ele>
        <time>2015-10-24T14:03:03Z</time>
      </trkpt>
      <trkpt lat="44.12313" lon="3.13874">
        <ele>776</ele>
        <time>2015-10-24T14:03:09Z</time>
      </trkpt>
      <trkpt lat="44.12311" lon="3.13875">
        <ele>776</ele>
        <time>2015-10-24T14:03:10Z</time>
      </trkpt>
      <trkpt lat="44.12305" lon="3.13876">
        <ele>776</ele>
        <time>2015-10-24T14:03:13Z</time>
      </trkpt>
      <trkpt lat="44.12297" lon="3.13879">
        <ele>776</ele>
        <time>2015-10-24T14:03:17Z</time>
      </trkpt>
      <trkpt lat="44.12293" lon="3.13878">
        <ele>776</ele>
        <time>2015-10-24T14:03:20Z</time>
      </trkpt>
      <trkpt lat="44.12283" lon="3.13879">
        <ele>777</ele>
        <time>2015-10-24T14:03:26Z</time>
      </trkpt>
      <trkpt lat="44.12277" lon="3.13881">
        <ele>777</ele>
        <time>2015-10-24T14:03:29Z</time>
      </trkpt>
      <trkpt lat="44.12266" lon="3.13884">
        <ele>777</ele>
        <time>2015-10-24T14:03:33Z</time>
      </trkpt>
      <trkpt lat="44.12259" lon="3.1389">
        <ele>777</ele>
        <time>2015-10-24T14:03:37Z</time>
      </trkpt>
      <trkpt lat="44.1225" lon="3.13893">
        <ele>778</ele>
        <time>2015-10-24T14:03:41Z</time>
      </trkpt>
      <trkpt lat="44.12243" lon="3.13891">
        <ele>778</ele>
        <time>2015-10-24T14:03:45Z</time>
      </trkpt>
      <trkpt lat="44.12235" lon="3.13893">
        <ele>778</ele>
        <time>2015-10-24T14:03:48Z</time>
      </trkpt>
      <trkpt lat="44.12227" lon="3.13893">
        <ele>778</ele>
        <time>2015-10-24T14:03:52Z</time>
      </trkpt>
      <trkpt lat="44.12218" lon="3.13894">
        <ele>778</ele>
        <time>2015-10-24T14:03:56Z</time>
      </trkpt>
      <trkpt lat="44.12208" lon="3.13895">
        <ele>777</ele>
        <time>2015-10-24T14:04:01Z</time>
      </trkpt>
      <trkpt lat="44.12203" lon="3.13896">
        <ele>777</ele>
        <time>2015-10-24T14:04:04Z</time>
      </trkpt>
      <trkpt lat="44.12196" lon="3.139">
        <ele>777</ele>
        <time>2015-10-24T14:04:10Z</time>
      </trkpt>
      <trkpt lat="44.12191" lon="3.13904">
        <ele>776</ele>
        <time>2015-10-24T14:04:14Z</time>
      </trkpt>
      <trkpt lat="44.12183" lon="3.13904">
        <ele>775</ele>
        <time>2015-10-24T14:04:17Z</time>
      </trkpt>
      <trkpt lat="44.1218" lon="3.13904">
        <ele>775</ele>
        <time>2015-10-24T14:04:18Z</time>
      </trkpt>
      <trkpt lat="44.12174" lon="3.13907">
        <ele>773</ele>
        <time>2015-10-24T14:04:22Z</time>
      </trkpt>
      <trkpt lat="44.12164" lon="3.13903">
        <ele>771</ele>
        <time>2015-10-24T14:04:28Z</time>
      </trkpt>
      <trkpt lat="44.12159" lon="3.13903">
        <ele>771</ele>
        <time>2015-10-24T14:04:31Z</time>
      </trkpt>
      <trkpt lat="44.12147" lon="3.13902">
        <ele>771</ele>
        <time>2015-10-24T14:04:37Z</time>
      </trkpt>
      <trkpt lat="44.12139" lon="3.13901">
        <ele>770</ele>
        <time>2015-10-24T14:04:41Z</time>
      </trkpt>
      <trkpt lat="44.12138" lon="3.13901">
        <ele>770</ele>
        <time>2015-10-24T14:04:42Z</time>
      </trkpt>
      <trkpt lat="44.12126" lon="3.13901">
        <ele>769</ele>
        <time>2015-10-24T14:04:48Z</time>
      </trkpt>
      <trkpt lat="44.12124" lon="3.13901">
        <ele>769</ele>
        <time>2015-10-24T14:04:49Z</time>
      </trkpt>
      <trkpt lat="44.12117" lon="3.13899">
        <ele>769</ele>
        <time>2015-10-24T14:04:54Z</time>
      </trkpt>
      <trkpt lat="44.12109" lon="3.13904">
        <ele>767</ele>
        <time>2015-10-24T14:04:59Z</time>
      </trkpt>
      <trkpt lat="44.12106" lon="3.13903">
        <ele>767</ele>
        <time>2015-10-24T14:05:01Z</time>
      </trkpt>
      <trkpt lat="44.12102" lon="3.13901">
        <ele>766</ele>
        <time>2015-10-24T14:05:03Z</time>
      </trkpt>
      <trkpt lat="44.12093" lon="3.13906">
        <ele>764</ele>
        <time>2015-10-24T14:05:08Z</time>
      </trkpt>
      <trkpt lat="44.12089" lon="3.13906">
        <ele>763</ele>
        <time>2015-10-24T14:05:10Z</time>
      </trkpt>
      <trkpt lat="44.12087" lon="3.13906">
        <ele>763</ele>
        <time>2015-10-24T14:05:12Z</time>
      </trkpt>
      <trkpt lat="44.12081" lon="3.13909">
        <ele>756</ele>
        <time>2015-10-24T14:05:17Z</time>
      </trkpt>
      <trkpt lat="44.12072" lon="3.13908">
        <ele>754</ele>
        <time>2015-10-24T14:05:21Z</time>
      </trkpt>
      <trkpt lat="44.12063" lon="3.13907">
        <ele>752</ele>
        <time>2015-10-24T14:05:26Z</time>
      </trkpt>
      <trkpt lat="44.12055" lon="3.13904">
        <ele>751</ele>
        <time>2015-10-24T14:05:32Z</time>
      </trkpt>
      <trkpt lat="44.12051" lon="3.13905">
        <ele>750</ele>
        <time>2015-10-24T14:05:36Z</time>
      </trkpt>
      <trkpt lat="44.12045" lon="3.13905">
        <ele>748</ele>
        <time>2015-10-24T14:05:43Z</time>
      </trkpt>
      <trkpt lat="44.12044" lon="3.13905">
        <ele>748</ele>
        <time>2015-10-24T14:05:51Z</time>
      </trkpt>
      <trkpt lat="44.12043" lon="3.13907">
        <ele>748</ele>
        <time>2015-10-24T14:06:00Z</time>
      </trkpt>
      <trkpt lat="44.12041" lon="3.13907">
        <ele>747</ele>
        <time>2015-10-24T14:06:06Z</time>
      </trkpt>
      <trkpt lat="44.12039" lon="3.13905">
        <ele>747</ele>
        <time>2015-10-24T14:06:11Z</time>
      </trkpt>
      <trkpt lat="44.12039" lon="3.13901">
        <ele>747</ele>
        <time>2015-10-24T14:06:16Z</time>
      </trkpt>
      <trkpt lat="44.12038" lon="3.13892">
        <ele>748</ele>
        <time>2015-10-24T14:06:23Z</time>
      </trkpt>
      <trkpt lat="44.12037" lon="3.13888">
        <ele>748</ele>
        <time>2015-10-24T14:06:28Z</time>
      </trkpt>
      <trkpt lat="44.12034" lon="3.13891">
        <ele>747</ele>
        <time>2015-10-24T14:06:32Z</time>
      </trkpt>
      <trkpt lat="44.12031" lon="3.13897">
        <ele>745</ele>
        <time>2015-10-24T14:06:36Z</time>
      </trkpt>
      <trkpt lat="44.12029" lon="3.139">
        <ele>744</ele>
        <time>2015-10-24T14:06:39Z</time>
      </trkpt>
      <trkpt lat="44.12027" lon="3.13907">
        <ele>743</ele>
        <time>2015-10-24T14:06:45Z</time>
      </trkpt>
      <trkpt lat="44.12024" lon="3.1391">
        <ele>741</ele>
        <time>2015-10-24T14:06:52Z</time>
      </trkpt>
      <trkpt lat="44.1202" lon="3.1391">
        <ele>740</ele>
        <time>2015-10-24T14:06:57Z</time>
      </trkpt>
      <trkpt lat="44.12019" lon="3.13904">
        <ele>741</ele>
        <time>2015-10-24T14:07:03Z</time>
      </trkpt>
      <trkpt lat="44.12019" lon="3.13898">
        <ele>742</ele>
        <time>2015-10-24T14:07:07Z</time>
      </trkpt>
      <trkpt lat="44.12019" lon="3.13895">
        <ele>743</ele>
        <time>2015-10-24T14:07:09Z</time>
      </trkpt>
      <trkpt lat="44.12018" lon="3.13883">
        <ele>745</ele>
        <time>2015-10-24T14:07:14Z</time>
      </trkpt>
      <trkpt lat="44.12018" lon="3.13881">
        <ele>745</ele>
        <time>2015-10-24T14:07:15Z</time>
      </trkpt>
      <trkpt lat="44.12014" lon="3.13886">
        <ele>743</ele>
        <time>2015-10-24T14:07:19Z</time>
      </trkpt>
      <trkpt lat="44.12011" lon="3.13894">
        <ele>741</ele>
        <time>2015-10-24T14:07:24Z</time>
      </trkpt>
      <trkpt lat="44.12009" lon="3.13897">
        <ele>740</ele>
        <time>2015-10-24T14:07:27Z</time>
      </trkpt>
      <trkpt lat="44.12007" lon="3.13898">
        <ele>739</ele>
        <time>2015-10-24T14:07:30Z</time>
      </trkpt>
      <trkpt lat="44.12008" lon="3.13894">
        <ele>741</ele>
        <time>2015-10-24T14:07:35Z</time>
      </trkpt>
      <trkpt lat="44.12009" lon="3.13891">
        <ele>742</ele>
        <time>2015-10-24T14:07:38Z</time>
      </trkpt>
      <trkpt lat="44.12009" lon="3.13885">
        <ele>743</ele>
        <time>2015-10-24T14:07:42Z</time>
      </trkpt>
      <trkpt lat="44.12006" lon="3.13879">
        <ele>744</ele>
        <time>2015-10-24T14:07:45Z</time>
      </trkpt>
      <trkpt lat="44.12005" lon="3.1387">
        <ele>745</ele>
        <time>2015-10-24T14:07:49Z</time>
      </trkpt>
      <trkpt lat="44.12001" lon="3.13868">
        <ele>745</ele>
        <time>2015-10-24T14:07:54Z</time>
      </trkpt>
      <trkpt lat="44.12" lon="3.13869">
        <ele>744</ele>
        <time>2015-10-24T14:07:55Z</time>
      </trkpt>
      <trkpt lat="44.12" lon="3.13874">
        <ele>744</ele>
        <time>2015-10-24T14:08:00Z</time>
      </trkpt>
      <trkpt lat="44.11999" lon="3.13878">
        <ele>719</ele>
        <time>2015-10-24T14:08:03Z</time>
      </trkpt>
      <trkpt lat="44.11998" lon="3.13881">
        <ele>718</ele>
        <time>2015-10-24T14:08:06Z</time>
      </trkpt>
      <trkpt lat="44.11994" lon="3.13888">
        <ele>718</ele>
        <time>2015-10-24T14:08:11Z</time>
      </trkpt>
      <trkpt lat="44.11993" lon="3.13889">
        <ele>718</ele>
        <time>2015-10-24T14:08:12Z</time>
      </trkpt>
      <trkpt lat="44.11991" lon="3.13887">
        <ele>718</ele>
        <time>2015-10-24T14:08:16Z</time>
      </trkpt>
      <trkpt lat="44.11991" lon="3.13883">
        <ele>718</ele>
        <time>2015-10-24T14:08:19Z</time>
      </trkpt>
      <trkpt lat="44.11987" lon="3.13874">
        <ele>717</ele>
        <time>2015-10-24T14:08:25Z</time>
      </trkpt>
      <trkpt lat="44.11984" lon="3.13879">
        <ele>716</ele>
        <time>2015-10-24T14:08:30Z</time>
      </trkpt>
      <trkpt lat="44.11982" lon="3.13876">
        <ele>716</ele>
        <time>2015-10-24T14:08:35Z</time>
      </trkpt>
      <trkpt lat="44.1198" lon="3.13871">
        <ele>716</ele>
        <time>2015-10-24T14:08:39Z</time>
      </trkpt>
      <trkpt lat="44.11978" lon="3.1387">
        <ele>716</ele>
        <time>2015-10-24T14:08:44Z</time>
      </trkpt>
      <trkpt lat="44.11978" lon="3.13876">
        <ele>715</ele>
        <time>2015-10-24T14:08:50Z</time>
      </trkpt>
      <trkpt lat="44.11976" lon="3.13878">
        <ele>715</ele>
        <time>2015-10-24T14:08:55Z</time>
      </trkpt>
      <trkpt lat="44.11973" lon="3.13874">
        <ele>714</ele>
        <time>2015-10-24T14:08:59Z</time>
      </trkpt>
      <trkpt lat="44.11972" lon="3.13876">
        <ele>714</ele>
        <time>2015-10-24T14:09:00Z</time>
      </trkpt>
      <trkpt lat="44.11967" lon="3.13887">
        <ele>712</ele>
        <time>2015-10-24T14:09:05Z</time>
      </trkpt>
      <trkpt lat="44.11965" lon="3.13893">
        <ele>711</ele>
        <time>2015-10-24T14:09:08Z</time>
      </trkpt>
      <trkpt lat="44.11962" lon="3.13897">
        <ele>710</ele>
        <time>2015-10-24T14:09:12Z</time>
      </trkpt>
      <trkpt lat="44.11958" lon="3.139">
        <ele>709</ele>
        <time>2015-10-24T14:09:17Z</time>
      </trkpt>
      <trkpt lat="44.11953" lon="3.13905">
        <ele>707</ele>
        <time>2015-10-24T14:09:25Z</time>
      </trkpt>
      <trkpt lat="44.11951" lon="3.1391">
        <ele>706</ele>
        <time>2015-10-24T14:09:29Z</time>
      </trkpt>
      <trkpt lat="44.11945" lon="3.13918">
        <ele>696</ele>
        <time>2015-10-24T14:09:33Z</time>
      </trkpt>
      <trkpt lat="44.11942" lon="3.1392">
        <ele>695</ele>
        <time>2015-10-24T14:09:37Z</time>
      </trkpt>
      <trkpt lat="44.11941" lon="3.1392">
        <ele>694</ele>
        <time>2015-10-24T14:09:39Z</time>
      </trkpt>
      <trkpt lat="44.11934" lon="3.13928">
        <ele>693</ele>
        <time>2015-10-24T14:09:44Z</time>
      </trkpt>
      <trkpt lat="44.11933" lon="3.13929">
        <ele>693</ele>
        <time>2015-10-24T14:09:45Z</time>
      </trkpt>
      <trkpt lat="44.11931" lon="3.13929">
        <ele>692</ele>
        <time>2015-10-24T14:09:48Z</time>
      </trkpt>
      <trkpt lat="44.11928" lon="3.13928">
        <ele>691</ele>
        <time>2015-10-24T14:09:53Z</time>
      </trkpt>
      <trkpt lat="44.11929" lon="3.13924">
        <ele>691</ele>
        <time>2015-10-24T14:09:56Z</time>
      </trkpt>
      <trkpt lat="44.11931" lon="3.1392">
        <ele>692</ele>
        <time>2015-10-24T14:09:59Z</time>
      </trkpt>
      <trkpt lat="44.11936" lon="3.13915">
        <ele>700</ele>
        <time>2015-10-24T14:10:03Z</time>
      </trkpt>
      <trkpt lat="44.11938" lon="3.13908">
        <ele>701</ele>
        <time>2015-10-24T14:10:07Z</time>
      </trkpt>
      <trkpt lat="44.11939" lon="3.13901">
        <ele>703</ele>
        <time>2015-10-24T14:10:11Z</time>
      </trkpt>
      <trkpt lat="44.11941" lon="3.13897">
        <ele>704</ele>
        <time>2015-10-24T14:10:14Z</time>
      </trkpt>
      <trkpt lat="44.11941" lon="3.13888">
        <ele>705</ele>
        <time>2015-10-24T14:10:21Z</time>
      </trkpt>
      <trkpt lat="44.1194" lon="3.13884">
        <ele>705</ele>
        <time>2015-10-24T14:10:26Z</time>
      </trkpt>
      <trkpt lat="44.11938" lon="3.13885">
        <ele>704</ele>
        <time>2015-10-24T14:10:31Z</time>
      </trkpt>
      <trkpt lat="44.11935" lon="3.13886">
        <ele>703</ele>
        <time>2015-10-24T14:10:35Z</time>
      </trkpt>
      <trkpt lat="44.11932" lon="3.13887">
        <ele>702</ele>
        <time>2015-10-24T14:10:39Z</time>
      </trkpt>
      <trkpt lat="44.1193" lon="3.1389">
        <ele>702</ele>
        <time>2015-10-24T14:10:43Z</time>
      </trkpt>
      <trkpt lat="44.11926" lon="3.13891">
        <ele>701</ele>
        <time>2015-10-24T14:10:47Z</time>
      </trkpt>
      <trkpt lat="44.11927" lon="3.13889">
        <ele>701</ele>
        <time>2015-10-24T14:10:52Z</time>
      </trkpt>
      <trkpt lat="44.11927" lon="3.13884">
        <ele>702</ele>
        <time>2015-10-24T14:10:58Z</time>
      </trkpt>
      <trkpt lat="44.11926" lon="3.13882">
        <ele>702</ele>
        <time>2015-10-24T14:11:02Z</time>
      </trkpt>
      <trkpt lat="44.11923" lon="3.13882">
        <ele>701</ele>
        <time>2015-10-24T14:11:06Z</time>
      </trkpt>
      <trkpt lat="44.11922" lon="3.1388">
        <ele>701</ele>
        <time>2015-10-24T14:11:10Z</time>
      </trkpt>
      <trkpt lat="44.11918" lon="3.13882">
        <ele>701</ele>
        <time>2015-10-24T14:11:13Z</time>
      </trkpt>
      <trkpt lat="44.11914" lon="3.13883">
        <ele>673</ele>
        <time>2015-10-24T14:11:18Z</time>
      </trkpt>
      <trkpt lat="44.11912" lon="3.13884">
        <ele>673</ele>
        <time>2015-10-24T14:11:20Z</time>
      </trkpt>
      <trkpt lat="44.11908" lon="3.13884">
        <ele>672</ele>
        <time>2015-10-24T14:11:24Z</time>
      </trkpt>
      <trkpt lat="44.11902" lon="3.13888">
        <ele>672</ele>
        <time>2015-10-24T14:11:30Z</time>
      </trkpt>
      <trkpt lat="44.119" lon="3.1389">
        <ele>672</ele>
        <time>2015-10-24T14:11:32Z</time>
      </trkpt>
      <trkpt lat="44.11896" lon="3.13892">
        <ele>671</ele>
        <time>2015-10-24T14:11:36Z</time>
      </trkpt>
      <trkpt lat="44.11895" lon="3.13886">
        <ele>670</ele>
        <time>2015-10-24T14:11:40Z</time>
      </trkpt>
      <trkpt lat="44.11896" lon="3.13878">
        <ele>670</ele>
        <time>2015-10-24T14:11:44Z</time>
      </trkpt>
      <trkpt lat="44.11897" lon="3.13876">
        <ele>670</ele>
        <time>2015-10-24T14:11:46Z</time>
      </trkpt>
      <trkpt lat="44.11897" lon="3.13868">
        <ele>670</ele>
        <time>2015-10-24T14:11:51Z</time>
      </trkpt>
      <trkpt lat="44.11894" lon="3.13854">
        <ele>670</ele>
        <time>2015-10-24T14:11:58Z</time>
      </trkpt>
      <trkpt lat="44.11891" lon="3.13845">
        <ele>670</ele>
        <time>2015-10-24T14:12:05Z</time>
      </trkpt>
      <trkpt lat="44.11889" lon="3.13844">
        <ele>669</ele>
        <time>2015-10-24T14:12:07Z</time>
      </trkpt>
      <trkpt lat="44.11888" lon="3.13841">
        <ele>669</ele>
        <time>2015-10-24T14:12:10Z</time>
      </trkpt>
      <trkpt lat="44.11885" lon="3.13834">
        <ele>668</ele>
        <time>2015-10-24T14:12:15Z</time>
      </trkpt>
      <trkpt lat="44.11885" lon="3.13833">
        <ele>676</ele>
        <time>2015-10-24T14:12:16Z</time>
      </trkpt>
      <trkpt lat="44.11884" lon="3.13834">
        <ele>667</ele>
        <time>2015-10-24T14:12:21Z</time>
      </trkpt>
      <trkpt lat="44.11884" lon="3.13838">
        <ele>667</ele>
        <time>2015-10-24T14:12:24Z</time>
      </trkpt>
      <trkpt lat="44.11882" lon="3.13842">
        <ele>667</ele>
        <time>2015-10-24T14:12:27Z</time>
      </trkpt>
      <trkpt lat="44.11877" lon="3.13838">
        <ele>665</ele>
        <time>2015-10-24T14:12:32Z</time>
      </trkpt>
      <trkpt lat="44.11877" lon="3.13842">
        <ele>665</ele>
        <time>2015-10-24T14:12:35Z</time>
      </trkpt>
      <trkpt lat="44.11874" lon="3.13847">
        <ele>664</ele>
        <time>2015-10-24T14:12:39Z</time>
      </trkpt>
      <trkpt lat="44.11873" lon="3.13847">
        <ele>664</ele>
        <time>2015-10-24T14:12:43Z</time>
      </trkpt>
      <trkpt lat="44.11871" lon="3.13845">
        <ele>663</ele>
        <time>2015-10-24T14:12:46Z</time>
      </trkpt>
      <trkpt lat="44.1187" lon="3.13835">
        <ele>662</ele>
        <time>2015-10-24T14:12:50Z</time>
      </trkpt>
      <trkpt lat="44.11869" lon="3.13834">
        <ele>662</ele>
        <time>2015-10-24T14:12:52Z</time>
      </trkpt>
      <trkpt lat="44.11866" lon="3.13833">
        <ele>669</ele>
        <time>2015-10-24T14:12:54Z</time>
      </trkpt>
      <trkpt lat="44.1186" lon="3.13828">
        <ele>667</ele>
        <time>2015-10-24T14:12:59Z</time>
      </trkpt>
      <trkpt lat="44.1186" lon="3.13826">
        <ele>666</ele>
        <time>2015-10-24T14:13:00Z</time>
      </trkpt>
      <trkpt lat="44.11852" lon="3.13819">
        <ele>664</ele>
        <time>2015-10-24T14:13:06Z</time>
      </trkpt>
      <trkpt lat="44.11849" lon="3.13813">
        <ele>665</ele>
        <time>2015-10-24T14:13:10Z</time>
      </trkpt>
      <trkpt lat="44.11846" lon="3.13809">
        <ele>666</ele>
        <time>2015-10-24T14:13:14Z</time>
      </trkpt>
      <trkpt lat="44.11837" lon="3.13809">
        <ele>664</ele>
        <time>2015-10-24T14:13:18Z</time>
      </trkpt>
      <trkpt lat="44.11832" lon="3.13809">
        <ele>644</ele>
        <time>2015-10-24T14:13:21Z</time>
      </trkpt>
      <trkpt lat="44.11825" lon="3.13804">
        <ele>644</ele>
        <time>2015-10-24T14:13:25Z</time>
      </trkpt>
      <trkpt lat="44.11824" lon="3.13804">
        <ele>644</ele>
        <time>2015-10-24T14:13:26Z</time>
      </trkpt>
      <trkpt lat="44.11819" lon="3.13792">
        <ele>646</ele>
        <time>2015-10-24T14:13:30Z</time>
      </trkpt>
      <trkpt lat="44.11814" lon="3.1379">
        <ele>646</ele>
        <time>2015-10-24T14:13:33Z</time>
      </trkpt>
      <trkpt lat="44.11804" lon="3.13795">
        <ele>643</ele>
        <time>2015-10-24T14:13:39Z</time>
      </trkpt>
      <trkpt lat="44.11801" lon="3.13794">
        <ele>643</ele>
        <time>2015-10-24T14:13:41Z</time>
      </trkpt>
      <trkpt lat="44.11798" lon="3.13794">
        <ele>642</ele>
        <time>2015-10-24T14:13:43Z</time>
      </trkpt>
      <trkpt lat="44.11795" lon="3.13796">
        <ele>641</ele>
        <time>2015-10-24T14:13:46Z</time>
      </trkpt>
      <trkpt lat="44.11788" lon="3.13796">
        <ele>640</ele>
        <time>2015-10-24T14:13:51Z</time>
      </trkpt>
      <trkpt lat="44.11782" lon="3.138">
        <ele>638</ele>
        <time>2015-10-24T14:13:54Z</time>
      </trkpt>
      <trkpt lat="44.11777" lon="3.13797">
        <ele>637</ele>
        <time>2015-10-24T14:13:57Z</time>
      </trkpt>
      <trkpt lat="44.11774" lon="3.13797">
        <ele>637</ele>
        <time>2015-10-24T14:14:01Z</time>
      </trkpt>
      <trkpt lat="44.11769" lon="3.13795">
        <ele>637</ele>
        <time>2015-10-24T14:14:06Z</time>
      </trkpt>
      <trkpt lat="44.11766" lon="3.13795">
        <ele>636</ele>
        <time>2015-10-24T14:14:08Z</time>
      </trkpt>
      <trkpt lat="44.11762" lon="3.13796">
        <ele>635</ele>
        <time>2015-10-24T14:14:15Z</time>
      </trkpt>
      <trkpt lat="44.11759" lon="3.13797">
        <ele>634</ele>
        <time>2015-10-24T14:14:23Z</time>
      </trkpt>
      <trkpt lat="44.11751" lon="3.13792">
        <ele>635</ele>
        <time>2015-10-24T14:14:28Z</time>
      </trkpt>
      <trkpt lat="44.11744" lon="3.13787">
        <ele>619</ele>
        <time>2015-10-24T14:14:31Z</time>
      </trkpt>
      <trkpt lat="44.1174" lon="3.13783">
        <ele>620</ele>
        <time>2015-10-24T14:14:34Z</time>
      </trkpt>
      <trkpt lat="44.11736" lon="3.13779">
        <ele>621</ele>
        <time>2015-10-24T14:14:38Z</time>
      </trkpt>
      <trkpt lat="44.11729" lon="3.13781">
        <ele>619</ele>
        <time>2015-10-24T14:14:43Z</time>
      </trkpt>
      <trkpt lat="44.11723" lon="3.13787">
        <ele>617</ele>
        <time>2015-10-24T14:14:47Z</time>
      </trkpt>
      <trkpt lat="44.11715" lon="3.13794">
        <ele>614</ele>
        <time>2015-10-24T14:14:53Z</time>
      </trkpt>
      <trkpt lat="44.11705" lon="3.13796">
        <ele>612</ele>
        <time>2015-10-24T14:14:58Z</time>
      </trkpt>
      <trkpt lat="44.11698" lon="3.13797">
        <ele>611</ele>
        <time>2015-10-24T14:15:02Z</time>
      </trkpt>
      <trkpt lat="44.11693" lon="3.13796">
        <ele>611</ele>
        <time>2015-10-24T14:15:06Z</time>
      </trkpt>
      <trkpt lat="44.11691" lon="3.13794">
        <ele>611</ele>
        <time>2015-10-24T14:15:09Z</time>
      </trkpt>
      <trkpt lat="44.11687" lon="3.13794">
        <ele>610</ele>
        <time>2015-10-24T14:15:13Z</time>
      </trkpt>
      <trkpt lat="44.11679" lon="3.13794">
        <ele>609</ele>
        <time>2015-10-24T14:15:19Z</time>
      </trkpt>
      <trkpt lat="44.11673" lon="3.13789">
        <ele>610</ele>
        <time>2015-10-24T14:15:23Z</time>
      </trkpt>
      <trkpt lat="44.11667" lon="3.13785">
        <ele>611</ele>
        <time>2015-10-24T14:15:26Z</time>
      </trkpt>
      <trkpt lat="44.11663" lon="3.13784">
        <ele>596</ele>
        <time>2015-10-24T14:15:28Z</time>
      </trkpt>
      <trkpt lat="44.1166" lon="3.13783">
        <ele>596</ele>
        <time>2015-10-24T14:15:30Z</time>
      </trkpt>
      <trkpt lat="44.11653" lon="3.13785">
        <ele>595</ele>
        <time>2015-10-24T14:15:34Z</time>
      </trkpt>
      <trkpt lat="44.11644" lon="3.1378">
        <ele>595</ele>
        <time>2015-10-24T14:15:40Z</time>
      </trkpt>
      <trkpt lat="44.11642" lon="3.1378">
        <ele>594</ele>
        <time>2015-10-24T14:15:41Z</time>
      </trkpt>
      <trkpt lat="44.11633" lon="3.13775">
        <ele>594</ele>
        <time>2015-10-24T14:15:46Z</time>
      </trkpt>
      <trkpt lat="44.11628" lon="3.13767">
        <ele>594</ele>
        <time>2015-10-24T14:15:50Z</time>
      </trkpt>
      <trkpt lat="44.11621" lon="3.13758">
        <ele>593</ele>
        <time>2015-10-24T14:15:55Z</time>
      </trkpt>
      <trkpt lat="44.11614" lon="3.13753">
        <ele>592</ele>
        <time>2015-10-24T14:15:59Z</time>
      </trkpt>
      <trkpt lat="44.11607" lon="3.13746">
        <ele>604</ele>
        <time>2015-10-24T14:16:03Z</time>
      </trkpt>
      <trkpt lat="44.11601" lon="3.13735">
        <ele>604</ele>
        <time>2015-10-24T14:16:07Z</time>
      </trkpt>
      <trkpt lat="44.11596" lon="3.13727">
        <ele>605</ele>
        <time>2015-10-24T14:16:11Z</time>
      </trkpt>
      <trkpt lat="44.1159" lon="3.1372">
        <ele>607</ele>
        <time>2015-10-24T14:16:15Z</time>
      </trkpt>
      <trkpt lat="44.11581" lon="3.13709">
        <ele>595</ele>
        <time>2015-10-24T14:16:21Z</time>
      </trkpt>
      <trkpt lat="44.11579" lon="3.13711">
        <ele>594</ele>
        <time>2015-10-24T14:16:25Z</time>
      </trkpt>
      <trkpt lat="44.11576" lon="3.13715">
        <ele>594</ele>
        <time>2015-10-24T14:16:30Z</time>
      </trkpt>
      <trkpt lat="44.11571" lon="3.1372">
        <ele>593</ele>
        <time>2015-10-24T14:16:34Z</time>
      </trkpt>
      <trkpt lat="44.11569" lon="3.13724">
        <ele>592</ele>
        <time>2015-10-24T14:16:37Z</time>
      </trkpt>
      <trkpt lat="44.11566" lon="3.13731">
        <ele>591</ele>
        <time>2015-10-24T14:16:41Z</time>
      </trkpt>
      <trkpt lat="44.11566" lon="3.13732">
        <ele>591</ele>
        <time>2015-10-24T14:16:42Z</time>
      </trkpt>
      <trkpt lat="44.1156" lon="3.13734">
        <ele>591</ele>
        <time>2015-10-24T14:16:47Z</time>
      </trkpt>
      <trkpt lat="44.11559" lon="3.13735">
        <ele>591</ele>
        <time>2015-10-24T14:16:48Z</time>
      </trkpt>
      <trkpt lat="44.11555" lon="3.13738">
        <ele>590</ele>
        <time>2015-10-24T14:16:51Z</time>
      </trkpt>
      <trkpt lat="44.11548" lon="3.13741">
        <ele>590</ele>
        <time>2015-10-24T14:16:55Z</time>
      </trkpt>
      <trkpt lat="44.1154" lon="3.1375">
        <ele>576</ele>
        <time>2015-10-24T14:16:59Z</time>
      </trkpt>
      <trkpt lat="44.11537" lon="3.13752">
        <ele>576</ele>
        <time>2015-10-24T14:17:01Z</time>
      </trkpt>
      <trkpt lat="44.11528" lon="3.13764">
        <ele>575</ele>
        <time>2015-10-24T14:17:07Z</time>
      </trkpt>
      <trkpt lat="44.11523" lon="3.13771">
        <ele>574</ele>
        <time>2015-10-24T14:17:10Z</time>
      </trkpt>
      <trkpt lat="44.11521" lon="3.13779">
        <ele>573</ele>
        <time>2015-10-24T14:17:13Z</time>
      </trkpt>
      <trkpt lat="44.11522" lon="3.13787">
        <ele>572</ele>
        <time>2015-10-24T14:17:16Z</time>
      </trkpt>
      <trkpt lat="44.11522" lon="3.13797">
        <ele>570</ele>
        <time>2015-10-24T14:17:19Z</time>
      </trkpt>
      <trkpt lat="44.11521" lon="3.1381">
        <ele>568</ele>
        <time>2015-10-24T14:17:22Z</time>
      </trkpt>
      <trkpt lat="44.11518" lon="3.13818">
        <ele>567</ele>
        <time>2015-10-24T14:17:25Z</time>
      </trkpt>
      <trkpt lat="44.11513" lon="3.13822">
        <ele>565</ele>
        <time>2015-10-24T14:17:28Z</time>
      </trkpt>
      <trkpt lat="44.11511" lon="3.13824">
        <ele>564</ele>
        <time>2015-10-24T14:17:29Z</time>
      </trkpt>
      <trkpt lat="44.11495" lon="3.13836">
        <ele>556</ele>
        <time>2015-10-24T14:17:35Z</time>
      </trkpt>
      <trkpt lat="44.1149" lon="3.13842">
        <ele>553</ele>
        <time>2015-10-24T14:17:38Z</time>
      </trkpt>
      <trkpt lat="44.11483" lon="3.13849">
        <ele>551</ele>
        <time>2015-10-24T14:17:42Z</time>
      </trkpt>
      <trkpt lat="44.11482" lon="3.13851">
        <ele>551</ele>
        <time>2015-10-24T14:17:43Z</time>
      </trkpt>
      <trkpt lat="44.1149" lon="3.13857">
        <ele>550</ele>
        <time>2015-10-24T14:17:48Z</time>
      </trkpt>
      <trkpt lat="44.11496" lon="3.13858">
        <ele>551</ele>
        <time>2015-10-24T14:17:52Z</time>
      </trkpt>
      <trkpt lat="44.11506" lon="3.13858">
        <ele>553</ele>
        <time>2015-10-24T14:17:56Z</time>
      </trkpt>
      <trkpt lat="44.1151" lon="3.1386">
        <ele>553</ele>
        <time>2015-10-24T14:17:58Z</time>
      </trkpt>
      <trkpt lat="44.11519" lon="3.13857">
        <ele>553</ele>
        <time>2015-10-24T14:18:02Z</time>
      </trkpt>
      <trkpt lat="44.11522" lon="3.13864">
        <ele>553</ele>
        <time>2015-10-24T14:18:06Z</time>
      </trkpt>
      <trkpt lat="44.11517" lon="3.13867">
        <ele>552</ele>
        <time>2015-10-24T14:18:09Z</time>
      </trkpt>
      <trkpt lat="44.11515" lon="3.13878">
        <ele>550</ele>
        <time>2015-10-24T14:18:13Z</time>
      </trkpt>
      <trkpt lat="44.11511" lon="3.13888">
        <ele>548</ele>
        <time>2015-10-24T14:18:17Z</time>
      </trkpt>
      <trkpt lat="44.11507" lon="3.13896">
        <ele>547</ele>
        <time>2015-10-24T14:18:21Z</time>
      </trkpt>
      <trkpt lat="44.11507" lon="3.13904">
        <ele>545</ele>
        <time>2015-10-24T14:18:24Z</time>
      </trkpt>
      <trkpt lat="44.11505" lon="3.13913">
        <ele>542</ele>
        <time>2015-10-24T14:18:28Z</time>
      </trkpt>
      <trkpt lat="44.11501" lon="3.13921">
        <ele>539</ele>
        <time>2015-10-24T14:18:32Z</time>
      </trkpt>
      <trkpt lat="44.11496" lon="3.1393">
        <ele>536</ele>
        <time>2015-10-24T14:18:35Z</time>
      </trkpt>
      <trkpt lat="44.11489" lon="3.13939">
        <ele>534</ele>
        <time>2015-10-24T14:18:39Z</time>
      </trkpt>
      <trkpt lat="44.11478" lon="3.13952">
        <ele>532</ele>
        <time>2015-10-24T14:18:43Z</time>
      </trkpt>
      <trkpt lat="44.11471" lon="3.13963">
        <ele>531</ele>
        <time>2015-10-24T14:18:47Z</time>
      </trkpt>
      <trkpt lat="44.11467" lon="3.13971">
        <ele>530</ele>
        <time>2015-10-24T14:18:50Z</time>
      </trkpt>
      <trkpt lat="44.11467" lon="3.13984">
        <ele>529</ele>
        <time>2015-10-24T14:18:54Z</time>
      </trkpt>
      <trkpt lat="44.11465" lon="3.1399">
        <ele>529</ele>
        <time>2015-10-24T14:18:56Z</time>
      </trkpt>
      <trkpt lat="44.11461" lon="3.13997">
        <ele>528</ele>
        <time>2015-10-24T14:18:59Z</time>
      </trkpt>
      <trkpt lat="44.1145" lon="3.14004">
        <ele>519</ele>
        <time>2015-10-24T14:19:05Z</time>
      </trkpt>
      <trkpt lat="44.11442" lon="3.14002">
        <ele>519</ele>
        <time>2015-10-24T14:19:09Z</time>
      </trkpt>
      <trkpt lat="44.11435" lon="3.13999">
        <ele>526</ele>
        <time>2015-10-24T14:19:12Z</time>
      </trkpt>
      <trkpt lat="44.11432" lon="3.13996">
        <ele>526</ele>
        <time>2015-10-24T14:19:14Z</time>
      </trkpt>
      <trkpt lat="44.11418" lon="3.13995">
        <ele>524</ele>
        <time>2015-10-24T14:19:20Z</time>
      </trkpt>
      <trkpt lat="44.11409" lon="3.14001">
        <ele>517</ele>
        <time>2015-10-24T14:19:25Z</time>
      </trkpt>
      <trkpt lat="44.11409" lon="3.14008">
        <ele>515</ele>
        <time>2015-10-24T14:19:28Z</time>
      </trkpt>
      <trkpt lat="44.11413" lon="3.14022">
        <ele>511</ele>
        <time>2015-10-24T14:19:32Z</time>
      </trkpt>
      <trkpt lat="44.11414" lon="3.14033">
        <ele>508</ele>
        <time>2015-10-24T14:19:35Z</time>
      </trkpt>
      <trkpt lat="44.11413" lon="3.14045">
        <ele>506</ele>
        <time>2015-10-24T14:19:39Z</time>
      </trkpt>
      <trkpt lat="44.1141" lon="3.14055">
        <ele>505</ele>
        <time>2015-10-24T14:19:43Z</time>
      </trkpt>
      <trkpt lat="44.11405" lon="3.14067">
        <ele>504</ele>
        <time>2015-10-24T14:19:46Z</time>
      </trkpt>
      <trkpt lat="44.11395" lon="3.14072">
        <ele>503</ele>
        <time>2015-10-24T14:19:50Z</time>
      </trkpt>
      <trkpt lat="44.11387" lon="3.14076">
        <ele>502</ele>
        <time>2015-10-24T14:19:53Z</time>
      </trkpt>
      <trkpt lat="44.11378" lon="3.14079">
        <ele>500</ele>
        <time>2015-10-24T14:19:57Z</time>
      </trkpt>
      <trkpt lat="44.11367" lon="3.14081">
        <ele>498</ele>
        <time>2015-10-24T14:20:02Z</time>
      </trkpt>
      <trkpt lat="44.1136" lon="3.1408">
        <ele>497</ele>
        <time>2015-10-24T14:20:06Z</time>
      </trkpt>
      <trkpt lat="44.11356" lon="3.14072">
        <ele>497</ele>
        <time>2015-10-24T14:20:09Z</time>
      </trkpt>
      <trkpt lat="44.11352" lon="3.14064">
        <ele>497</ele>
        <time>2015-10-24T14:20:13Z</time>
      </trkpt>
      <trkpt lat="44.11351" lon="3.14062">
        <ele>497</ele>
        <time>2015-10-24T14:20:14Z</time>
      </trkpt>
      <trkpt lat="44.1135" lon="3.14052">
        <ele>499</ele>
        <time>2015-10-24T14:20:20Z</time>
      </trkpt>
      <trkpt lat="44.11349" lon="3.14046">
        <ele>499</ele>
        <time>2015-10-24T14:20:25Z</time>
      </trkpt>
      <trkpt lat="44.11347" lon="3.14041">
        <ele>500</ele>
        <time>2015-10-24T14:20:33Z</time>
      </trkpt>
      <trkpt lat="44.11348" lon="3.14037">
        <ele>500</ele>
        <time>2015-10-24T14:20:38Z</time>
      </trkpt>
      <trkpt lat="44.11348" lon="3.14031">
        <ele>501</ele>
        <time>2015-10-24T14:20:43Z</time>
      </trkpt>
      <trkpt lat="44.11346" lon="3.14023">
        <ele>501</ele>
        <time>2015-10-24T14:20:51Z</time>
      </trkpt>
      <trkpt lat="44.11345" lon="3.14013">
        <ele>501</ele>
        <time>2015-10-24T14:20:58Z</time>
      </trkpt>
      <trkpt lat="44.11346" lon="3.14007">
        <ele>501</ele>
        <time>2015-10-24T14:21:03Z</time>
      </trkpt>
      <trkpt lat="44.11346" lon="3.14001">
        <ele>501</ele>
        <time>2015-10-24T14:21:08Z</time>
      </trkpt>
      <trkpt lat="44.11349" lon="3.13993">
        <ele>509</ele>
        <time>2015-10-24T14:21:15Z</time>
      </trkpt>
      <trkpt lat="44.11351" lon="3.13985">
        <ele>512</ele>
        <time>2015-10-24T14:21:24Z</time>
      </trkpt>
      <trkpt lat="44.11352" lon="3.1398">
        <ele>513</ele>
        <time>2015-10-24T14:21:30Z</time>
      </trkpt>
      <trkpt lat="44.11352" lon="3.1397">
        <ele>515</ele>
        <time>2015-10-24T14:21:39Z</time>
      </trkpt>
      <trkpt lat="44.11351" lon="3.13962">
        <ele>517</ele>
        <time>2015-10-24T14:21:46Z</time>
      </trkpt>
      <trkpt lat="44.1135" lon="3.13957">
        <ele>518</ele>
        <time>2015-10-24T14:21:53Z</time>
      </trkpt>
      <trkpt lat="44.1135" lon="3.13953">
        <ele>518</ele>
        <time>2015-10-24T14:22:00Z</time>
      </trkpt>
      <trkpt lat="44.11348" lon="3.13949">
        <ele>519</ele>
        <time>2015-10-24T14:22:06Z</time>
      </trkpt>
      <trkpt lat="44.11347" lon="3.13943">
        <ele>520</ele>
        <time>2015-10-24T14:22:13Z</time>
      </trkpt>
      <trkpt lat="44.11346" lon="3.13933">
        <ele>521</ele>
        <time>2015-10-24T14:22:21Z</time>
      </trkpt>
      <trkpt lat="44.11348" lon="3.13928">
        <ele>521</ele>
        <time>2015-10-24T14:22:26Z</time>
      </trkpt>
      <trkpt lat="44.11349" lon="3.13918">
        <ele>521</ele>
        <time>2015-10-24T14:22:34Z</time>
      </trkpt>
      <trkpt lat="44.11348" lon="3.13907">
        <ele>531</ele>
        <time>2015-10-24T14:22:41Z</time>
      </trkpt>
      <trkpt lat="44.11347" lon="3.13899">
        <ele>532</ele>
        <time>2015-10-24T14:22:47Z</time>
      </trkpt>
      <trkpt lat="44.11345" lon="3.13891">
        <ele>534</ele>
        <time>2015-10-24T14:22:54Z</time>
      </trkpt>
      <trkpt lat="44.11343" lon="3.13882">
        <ele>536</ele>
        <time>2015-10-24T14:23:01Z</time>
      </trkpt>
      <trkpt lat="44.11339" lon="3.13874">
        <ele>537</ele>
        <time>2015-10-24T14:23:09Z</time>
      </trkpt>
      <trkpt lat="44.11335" lon="3.13865">
        <ele>539</ele>
        <time>2015-10-24T14:23:16Z</time>
      </trkpt>
      <trkpt lat="44.11334" lon="3.13863">
        <ele>539</ele>
        <time>2015-10-24T14:23:17Z</time>
      </trkpt>
      <trkpt lat="44.11332" lon="3.13856">
        <ele>529</ele>
        <time>2015-10-24T14:23:24Z</time>
      </trkpt>
      <trkpt lat="44.11329" lon="3.13851">
        <ele>531</ele>
        <time>2015-10-24T14:23:31Z</time>
      </trkpt>
      <trkpt lat="44.11326" lon="3.13847">
        <ele>532</ele>
        <time>2015-10-24T14:23:35Z</time>
      </trkpt>
      <trkpt lat="44.11322" lon="3.13841">
        <ele>533</ele>
        <time>2015-10-24T14:23:42Z</time>
      </trkpt>
      <trkpt lat="44.11321" lon="3.13836">
        <ele>534</ele>
        <time>2015-10-24T14:23:49Z</time>
      </trkpt>
      <trkpt lat="44.1132" lon="3.1383">
        <ele>543</ele>
        <time>2015-10-24T14:23:55Z</time>
      </trkpt>
      <trkpt lat="44.11316" lon="3.13823">
        <ele>543</ele>
        <time>2015-10-24T14:24:03Z</time>
      </trkpt>
      <trkpt lat="44.1131" lon="3.13817">
        <ele>543</ele>
        <time>2015-10-24T14:24:08Z</time>
      </trkpt>
      <trkpt lat="44.11307" lon="3.13815">
        <ele>543</ele>
        <time>2015-10-24T14:24:11Z</time>
      </trkpt>
      <trkpt lat="44.11301" lon="3.13809">
        <ele>543</ele>
        <time>2015-10-24T14:24:17Z</time>
      </trkpt>
      <trkpt lat="44.11293" lon="3.13804">
        <ele>543</ele>
        <time>2015-10-24T14:24:24Z</time>
      </trkpt>
      <trkpt lat="44.11296" lon="3.13798">
        <ele>544</ele>
        <time>2015-10-24T14:24:29Z</time>
      </trkpt>
      <trkpt lat="44.113" lon="3.13796">
        <ele>545</ele>
        <time>2015-10-24T14:24:36Z</time>
      </trkpt>
      <trkpt lat="44.11301" lon="3.13793">
        <ele>545</ele>
        <time>2015-10-24T14:24:41Z</time>
      </trkpt>
      <trkpt lat="44.11298" lon="3.13788">
        <ele>546</ele>
        <time>2015-10-24T14:24:47Z</time>
      </trkpt>
      <trkpt lat="44.11294" lon="3.13778">
        <ele>547</ele>
        <time>2015-10-24T14:24:56Z</time>
      </trkpt>
      <trkpt lat="44.1129" lon="3.13774">
        <ele>547</ele>
        <time>2015-10-24T14:25:00Z</time>
      </trkpt>
      <trkpt lat="44.11282" lon="3.13764">
        <ele>548</ele>
        <time>2015-10-24T14:25:09Z</time>
      </trkpt>
      <trkpt lat="44.11275" lon="3.13756">
        <ele>549</ele>
        <time>2015-10-24T14:25:17Z</time>
      </trkpt>
      <trkpt lat="44.1127" lon="3.13749">
        <ele>560</ele>
        <time>2015-10-24T14:25:24Z</time>
      </trkpt>
      <trkpt lat="44.11264" lon="3.13743">
        <ele>559</ele>
        <time>2015-10-24T14:25:31Z</time>
      </trkpt>
      <trkpt lat="44.1126" lon="3.13739">
        <ele>559</ele>
        <time>2015-10-24T14:25:39Z</time>
      </trkpt>
      <trkpt lat="44.11258" lon="3.13733">
        <ele>560</ele>
        <time>2015-10-24T14:25:46Z</time>
      </trkpt>
      <trkpt lat="44.11255" lon="3.13729">
        <ele>561</ele>
        <time>2015-10-24T14:25:51Z</time>
      </trkpt>
      <trkpt lat="44.11253" lon="3.13722">
        <ele>562</ele>
        <time>2015-10-24T14:25:57Z</time>
      </trkpt>
      <trkpt lat="44.11248" lon="3.13714">
        <ele>544</ele>
        <time>2015-10-24T14:26:03Z</time>
      </trkpt>
      <trkpt lat="44.11244" lon="3.13701">
        <ele>545</ele>
        <time>2015-10-24T14:26:11Z</time>
      </trkpt>
      <trkpt lat="44.11243" lon="3.13691">
        <ele>548</ele>
        <time>2015-10-24T14:26:18Z</time>
      </trkpt>
      <trkpt lat="44.11249" lon="3.13682">
        <ele>552</ele>
        <time>2015-10-24T14:26:28Z</time>
      </trkpt>
      <trkpt lat="44.1125" lon="3.13676">
        <ele>565</ele>
        <time>2015-10-24T14:26:33Z</time>
      </trkpt>
      <trkpt lat="44.11252" lon="3.13671">
        <ele>565</ele>
        <time>2015-10-24T14:26:38Z</time>
      </trkpt>
      <trkpt lat="44.11256" lon="3.13667">
        <ele>565</ele>
        <time>2015-10-24T14:26:44Z</time>
      </trkpt>
      <trkpt lat="44.11258" lon="3.13665">
        <ele>567</ele>
        <time>2015-10-24T14:26:49Z</time>
      </trkpt>
      <trkpt lat="44.11262" lon="3.13661">
        <ele>569</ele>
        <time>2015-10-24T14:26:56Z</time>
      </trkpt>
      <trkpt lat="44.11265" lon="3.13656">
        <ele>570</ele>
        <time>2015-10-24T14:27:04Z</time>
      </trkpt>
      <trkpt lat="44.11268" lon="3.13655">
        <ele>571</ele>
        <time>2015-10-24T14:27:09Z</time>
      </trkpt>
      <trkpt lat="44.11271" lon="3.13652">
        <ele>572</ele>
        <time>2015-10-24T14:27:14Z</time>
      </trkpt>
      <trkpt lat="44.11274" lon="3.1365">
        <ele>572</ele>
        <time>2015-10-24T14:27:19Z</time>
      </trkpt>
      <trkpt lat="44.11277" lon="3.13649">
        <ele>573</ele>
        <time>2015-10-24T14:27:24Z</time>
      </trkpt>
      <trkpt lat="44.1128" lon="3.13647">
        <ele>574</ele>
        <time>2015-10-24T14:27:30Z</time>
      </trkpt>
      <trkpt lat="44.11283" lon="3.13645">
        <ele>574</ele>
        <time>2015-10-24T14:27:36Z</time>
      </trkpt>
      <trkpt lat="44.11286" lon="3.13642">
        <ele>575</ele>
        <time>2015-10-24T14:27:42Z</time>
      </trkpt>
      <trkpt lat="44.1129" lon="3.13639">
        <ele>576</ele>
        <time>2015-10-24T14:27:49Z</time>
      </trkpt>
      <trkpt lat="44.11292" lon="3.13639">
        <ele>576</ele>
        <time>2015-10-24T14:27:54Z</time>
      </trkpt>
      <trkpt lat="44.11295" lon="3.13635">
        <ele>577</ele>
        <time>2015-10-24T14:28:00Z</time>
      </trkpt>
      <trkpt lat="44.11298" lon="3.13634">
        <ele>577</ele>
        <time>2015-10-24T14:28:06Z</time>
      </trkpt>
      <trkpt lat="44.113" lon="3.13632">
        <ele>578</ele>
        <time>2015-10-24T14:28:12Z</time>
      </trkpt>
      <trkpt lat="44.11303" lon="3.13628">
        <ele>579</ele>
        <time>2015-10-24T14:28:18Z</time>
      </trkpt>
      <trkpt lat="44.11307" lon="3.13627">
        <ele>580</ele>
        <time>2015-10-24T14:28:25Z</time>
      </trkpt>
      <trkpt lat="44.11309" lon="3.13625">
        <ele>580</ele>
        <time>2015-10-24T14:28:31Z</time>
      </trkpt>
      <trkpt lat="44.11311" lon="3.13625">
        <ele>580</ele>
        <time>2015-10-24T14:28:37Z</time>
      </trkpt>
      <trkpt lat="44.11313" lon="3.13623">
        <ele>581</ele>
        <time>2015-10-24T14:28:45Z</time>
      </trkpt>
      <trkpt lat="44.11315" lon="3.13621">
        <ele>581</ele>
        <time>2015-10-24T14:28:52Z</time>
      </trkpt>
      <trkpt lat="44.11318" lon="3.13618">
        <ele>583</ele>
        <time>2015-10-24T14:28:59Z</time>
      </trkpt>
      <trkpt lat="44.11321" lon="3.13616">
        <ele>583</ele>
        <time>2015-10-24T14:29:06Z</time>
      </trkpt>
      <trkpt lat="44.11323" lon="3.13613">
        <ele>584</ele>
        <time>2015-10-24T14:29:14Z</time>
      </trkpt>
      <trkpt lat="44.11326" lon="3.13608">
        <ele>586</ele>
        <time>2015-10-24T14:29:21Z</time>
      </trkpt>
      <trkpt lat="44.11329" lon="3.13603">
        <ele>589</ele>
        <time>2015-10-24T14:29:29Z</time>
      </trkpt>
      <trkpt lat="44.1133" lon="3.136">
        <ele>590</ele>
        <time>2015-10-24T14:29:35Z</time>
      </trkpt>
      <trkpt lat="44.11332" lon="3.13601">
        <ele>590</ele>
        <time>2015-10-24T14:29:42Z</time>
      </trkpt>
      <trkpt lat="44.11332" lon="3.13601">
        <ele>590</ele>
        <time>2015-10-24T14:29:49Z</time>
      </trkpt>
      <trkpt lat="44.11335" lon="3.13598">
        <ele>603</ele>
        <time>2015-10-24T14:30:10Z</time>
      </trkpt>
      <trkpt lat="44.11337" lon="3.13593">
        <ele>603</ele>
        <time>2015-10-24T14:30:17Z</time>
      </trkpt>
      <trkpt lat="44.1134" lon="3.13588">
        <ele>603</ele>
        <time>2015-10-24T14:30:26Z</time>
      </trkpt>
      <trkpt lat="44.11344" lon="3.13586">
        <ele>604</ele>
        <time>2015-10-24T14:30:33Z</time>
      </trkpt>
      <trkpt lat="44.11346" lon="3.13582">
        <ele>609</ele>
        <time>2015-10-24T14:30:42Z</time>
      </trkpt>
      <trkpt lat="44.11347" lon="3.13578">
        <ele>609</ele>
        <time>2015-10-24T14:30:48Z</time>
      </trkpt>
      <trkpt lat="44.11349" lon="3.13575">
        <ele>610</ele>
        <time>2015-10-24T14:30:52Z</time>
      </trkpt>
      <trkpt lat="44.11351" lon="3.13572">
        <ele>611</ele>
        <time>2015-10-24T14:30:58Z</time>
      </trkpt>
      <trkpt lat="44.11353" lon="3.13568">
        <ele>612</ele>
        <time>2015-10-24T14:31:05Z</time>
      </trkpt>
      <trkpt lat="44.11356" lon="3.13567">
        <ele>613</ele>
        <time>2015-10-24T14:31:12Z</time>
      </trkpt>
      <trkpt lat="44.11358" lon="3.13567">
        <ele>613</ele>
        <time>2015-10-24T14:31:18Z</time>
      </trkpt>
      <trkpt lat="44.1136" lon="3.13566">
        <ele>614</ele>
        <time>2015-10-24T14:31:24Z</time>
      </trkpt>
      <trkpt lat="44.11362" lon="3.13564">
        <ele>614</ele>
        <time>2015-10-24T14:31:30Z</time>
      </trkpt>
      <trkpt lat="44.11366" lon="3.13562">
        <ele>615</ele>
        <time>2015-10-24T14:31:38Z</time>
      </trkpt>
      <trkpt lat="44.11367" lon="3.13558">
        <ele>615</ele>
        <time>2015-10-24T14:31:45Z</time>
      </trkpt>
      <trkpt lat="44.11367" lon="3.13551">
        <ele>616</ele>
        <time>2015-10-24T14:31:52Z</time>
      </trkpt>
      <trkpt lat="44.1137" lon="3.13548">
        <ele>616</ele>
        <time>2015-10-24T14:31:59Z</time>
      </trkpt>
      <trkpt lat="44.11371" lon="3.13546">
        <ele>617</ele>
        <time>2015-10-24T14:32:05Z</time>
      </trkpt>
      <trkpt lat="44.11374" lon="3.13543">
        <ele>617</ele>
        <time>2015-10-24T14:32:13Z</time>
      </trkpt>
      <trkpt lat="44.11376" lon="3.13539">
        <ele>618</ele>
        <time>2015-10-24T14:32:21Z</time>
      </trkpt>
      <trkpt lat="44.11379" lon="3.13534">
        <ele>619</ele>
        <time>2015-10-24T14:32:30Z</time>
      </trkpt>
      <trkpt lat="44.11381" lon="3.13532">
        <ele>619</ele>
        <time>2015-10-24T14:32:36Z</time>
      </trkpt>
      <trkpt lat="44.11383" lon="3.13532">
        <ele>620</ele>
        <time>2015-10-24T14:32:43Z</time>
      </trkpt>
      <trkpt lat="44.11386" lon="3.1353">
        <ele>621</ele>
        <time>2015-10-24T14:32:50Z</time>
      </trkpt>
      <trkpt lat="44.11386" lon="3.13527">
        <ele>621</ele>
        <time>2015-10-24T14:32:57Z</time>
      </trkpt>
      <trkpt lat="44.11389" lon="3.13523">
        <ele>622</ele>
        <time>2015-10-24T14:33:03Z</time>
      </trkpt>
      <trkpt lat="44.11392" lon="3.13519">
        <ele>624</ele>
        <time>2015-10-24T14:33:11Z</time>
      </trkpt>
      <trkpt lat="44.11394" lon="3.13514">
        <ele>625</ele>
        <time>2015-10-24T14:33:17Z</time>
      </trkpt>
      <trkpt lat="44.11397" lon="3.1351">
        <ele>627</ele>
        <time>2015-10-24T14:33:22Z</time>
      </trkpt>
      <trkpt lat="44.11399" lon="3.13505">
        <ele>629</ele>
        <time>2015-10-24T14:33:31Z</time>
      </trkpt>
      <trkpt lat="44.114" lon="3.13509">
        <ele>629</ele>
        <time>2015-10-24T14:33:39Z</time>
      </trkpt>
      <trkpt lat="44.11401" lon="3.13511">
        <ele>629</ele>
        <time>2015-10-24T14:33:44Z</time>
      </trkpt>
      <trkpt lat="44.11401" lon="3.13514">
        <ele>628</ele>
        <time>2015-10-24T14:33:51Z</time>
      </trkpt>
      <trkpt lat="44.11404" lon="3.13515">
        <ele>629</ele>
        <time>2015-10-24T14:33:57Z</time>
      </trkpt>
      <trkpt lat="44.11406" lon="3.1352">
        <ele>628</ele>
        <time>2015-10-24T14:34:03Z</time>
      </trkpt>
      <trkpt lat="44.11407" lon="3.13524">
        <ele>627</ele>
        <time>2015-10-24T14:34:09Z</time>
      </trkpt>
      <trkpt lat="44.11409" lon="3.13524">
        <ele>628</ele>
        <time>2015-10-24T14:34:22Z</time>
      </trkpt>
      <trkpt lat="44.1141" lon="3.13519">
        <ele>630</ele>
        <time>2015-10-24T14:34:29Z</time>
      </trkpt>
      <trkpt lat="44.11413" lon="3.13514">
        <ele>633</ele>
        <time>2015-10-24T14:34:35Z</time>
      </trkpt>
      <trkpt lat="44.11417" lon="3.13511">
        <ele>645</ele>
        <time>2015-10-24T14:34:42Z</time>
      </trkpt>
      <trkpt lat="44.11418" lon="3.13514">
        <ele>645</ele>
        <time>2015-10-24T14:34:47Z</time>
      </trkpt>
      <trkpt lat="44.11419" lon="3.1352">
        <ele>645</ele>
        <time>2015-10-24T14:34:55Z</time>
      </trkpt>
      <trkpt lat="44.1142" lon="3.13522">
        <ele>645</ele>
        <time>2015-10-24T14:35:03Z</time>
      </trkpt>
      <trkpt lat="44.1142" lon="3.13523">
        <ele>645</ele>
        <time>2015-10-24T14:35:14Z</time>
      </trkpt>
      <trkpt lat="44.1142" lon="3.13523">
        <ele>645</ele>
        <time>2015-10-24T14:35:30Z</time>
      </trkpt>
      <trkpt lat="44.11421" lon="3.13522">
        <ele>645</ele>
        <time>2015-10-24T14:35:42Z</time>
      </trkpt>
      <trkpt lat="44.11423" lon="3.13519">
        <ele>645</ele>
        <time>2015-10-24T14:35:50Z</time>
      </trkpt>
      <trkpt lat="44.11425" lon="3.13516">
        <ele>646</ele>
        <time>2015-10-24T14:35:57Z</time>
      </trkpt>
      <trkpt lat="44.11428" lon="3.13518">
        <ele>646</ele>
        <time>2015-10-24T14:36:04Z</time>
      </trkpt>
      <trkpt lat="44.11432" lon="3.13517">
        <ele>646</ele>
        <time>2015-10-24T14:36:09Z</time>
      </trkpt>
      <trkpt lat="44.11433" lon="3.13511">
        <ele>646</ele>
        <time>2015-10-24T14:36:17Z</time>
      </trkpt>
      <trkpt lat="44.11437" lon="3.13505">
        <ele>647</ele>
        <time>2015-10-24T14:36:25Z</time>
      </trkpt>
      <trkpt lat="44.11439" lon="3.13508">
        <ele>647</ele>
        <time>2015-10-24T14:36:33Z</time>
      </trkpt>
      <trkpt lat="44.11441" lon="3.13511">
        <ele>648</ele>
        <time>2015-10-24T14:36:39Z</time>
      </trkpt>
      <trkpt lat="44.11444" lon="3.13508">
        <ele>648</ele>
        <time>2015-10-24T14:36:46Z</time>
      </trkpt>
      <trkpt lat="44.11446" lon="3.13503">
        <ele>649</ele>
        <time>2015-10-24T14:36:52Z</time>
      </trkpt>
      <trkpt lat="44.1145" lon="3.13499">
        <ele>658</ele>
        <time>2015-10-24T14:36:58Z</time>
      </trkpt>
      <trkpt lat="44.11453" lon="3.13495">
        <ele>659</ele>
        <time>2015-10-24T14:37:05Z</time>
      </trkpt>
      <trkpt lat="44.11457" lon="3.13492">
        <ele>660</ele>
        <time>2015-10-24T14:37:13Z</time>
      </trkpt>
      <trkpt lat="44.1146" lon="3.1349">
        <ele>661</ele>
        <time>2015-10-24T14:37:20Z</time>
      </trkpt>
      <trkpt lat="44.11462" lon="3.13489">
        <ele>662</ele>
        <time>2015-10-24T14:37:26Z</time>
      </trkpt>
      <trkpt lat="44.11465" lon="3.13487">
        <ele>663</ele>
        <time>2015-10-24T14:37:34Z</time>
      </trkpt>
      <trkpt lat="44.11467" lon="3.13487">
        <ele>663</ele>
        <time>2015-10-24T14:37:39Z</time>
      </trkpt>
      <trkpt lat="44.11471" lon="3.13486">
        <ele>664</ele>
        <time>2015-10-24T14:37:46Z</time>
      </trkpt>
      <trkpt lat="44.11474" lon="3.13485">
        <ele>665</ele>
        <time>2015-10-24T14:37:54Z</time>
      </trkpt>
      <trkpt lat="44.11477" lon="3.13484">
        <ele>666</ele>
        <time>2015-10-24T14:38:01Z</time>
      </trkpt>
      <trkpt lat="44.1148" lon="3.13481">
        <ele>666</ele>
        <time>2015-10-24T14:38:07Z</time>
      </trkpt>
      <trkpt lat="44.11483" lon="3.13477">
        <ele>667</ele>
        <time>2015-10-24T14:38:13Z</time>
      </trkpt>
      <trkpt lat="44.11487" lon="3.13471">
        <ele>667</ele>
        <time>2015-10-24T14:38:19Z</time>
      </trkpt>
      <trkpt lat="44.11489" lon="3.13464">
        <ele>667</ele>
        <time>2015-10-24T14:38:25Z</time>
      </trkpt>
      <trkpt lat="44.11493" lon="3.13457">
        <ele>668</ele>
        <time>2015-10-24T14:38:31Z</time>
      </trkpt>
      <trkpt lat="44.11496" lon="3.13452">
        <ele>669</ele>
        <time>2015-10-24T14:38:39Z</time>
      </trkpt>
      <trkpt lat="44.11501" lon="3.13447">
        <ele>691</ele>
        <time>2015-10-24T14:38:48Z</time>
      </trkpt>
      <trkpt lat="44.11505" lon="3.13444">
        <ele>691</ele>
        <time>2015-10-24T14:38:54Z</time>
      </trkpt>
      <trkpt lat="44.11507" lon="3.13436">
        <ele>691</ele>
        <time>2015-10-24T14:39:00Z</time>
      </trkpt>
      <trkpt lat="44.11511" lon="3.1343">
        <ele>691</ele>
        <time>2015-10-24T14:39:07Z</time>
      </trkpt>
      <trkpt lat="44.11515" lon="3.13423">
        <ele>691</ele>
        <time>2015-10-24T14:39:14Z</time>
      </trkpt>
      <trkpt lat="44.11515" lon="3.13421">
        <ele>691</ele>
        <time>2015-10-24T14:39:15Z</time>
      </trkpt>
      <trkpt lat="44.1152" lon="3.13414">
        <ele>701</ele>
        <time>2015-10-24T14:39:24Z</time>
      </trkpt>
      <trkpt lat="44.11526" lon="3.13409">
        <ele>704</ele>
        <time>2015-10-24T14:39:31Z</time>
      </trkpt>
      <trkpt lat="44.11529" lon="3.13403">
        <ele>706</ele>
        <time>2015-10-24T14:39:37Z</time>
      </trkpt>
      <trkpt lat="44.1153" lon="3.13397">
        <ele>707</ele>
        <time>2015-10-24T14:39:41Z</time>
      </trkpt>
      <trkpt lat="44.1153" lon="3.13385">
        <ele>709</ele>
        <time>2015-10-24T14:39:49Z</time>
      </trkpt>
      <trkpt lat="44.1153" lon="3.13384">
        <ele>709</ele>
        <time>2015-10-24T14:39:50Z</time>
      </trkpt>
      <trkpt lat="44.11532" lon="3.13375">
        <ele>710</ele>
        <time>2015-10-24T14:39:57Z</time>
      </trkpt>
      <trkpt lat="44.11534" lon="3.13368">
        <ele>711</ele>
        <time>2015-10-24T14:40:04Z</time>
      </trkpt>
      <trkpt lat="44.11533" lon="3.13363">
        <ele>711</ele>
        <time>2015-10-24T14:40:09Z</time>
      </trkpt>
      <trkpt lat="44.11531" lon="3.13355">
        <ele>711</ele>
        <time>2015-10-24T14:40:14Z</time>
      </trkpt>
      <trkpt lat="44.1153" lon="3.13347">
        <ele>711</ele>
        <time>2015-10-24T14:40:20Z</time>
      </trkpt>
      <trkpt lat="44.11525" lon="3.13336">
        <ele>708</ele>
        <time>2015-10-24T14:40:29Z</time>
      </trkpt>
      <trkpt lat="44.11523" lon="3.13329">
        <ele>716</ele>
        <time>2015-10-24T14:40:36Z</time>
      </trkpt>
      <trkpt lat="44.11522" lon="3.13323">
        <ele>717</ele>
        <time>2015-10-24T14:40:43Z</time>
      </trkpt>
      <trkpt lat="44.11522" lon="3.13318">
        <ele>718</ele>
        <time>2015-10-24T14:40:50Z</time>
      </trkpt>
      <trkpt lat="44.11522" lon="3.13314">
        <ele>719</ele>
        <time>2015-10-24T14:40:57Z</time>
      </trkpt>
      <trkpt lat="44.11524" lon="3.1331">
        <ele>721</ele>
        <time>2015-10-24T14:41:04Z</time>
      </trkpt>
      <trkpt lat="44.11527" lon="3.13309">
        <ele>722</ele>
        <time>2015-10-24T14:41:08Z</time>
      </trkpt>
      <trkpt lat="44.11526" lon="3.13303">
        <ele>723</ele>
        <time>2015-10-24T14:41:14Z</time>
      </trkpt>
      <trkpt lat="44.11527" lon="3.13297">
        <ele>724</ele>
        <time>2015-10-24T14:41:20Z</time>
      </trkpt>
      <trkpt lat="44.11528" lon="3.1329">
        <ele>725</ele>
        <time>2015-10-24T14:41:27Z</time>
      </trkpt>
      <trkpt lat="44.11526" lon="3.13279">
        <ele>725</ele>
        <time>2015-10-24T14:41:34Z</time>
      </trkpt>
      <trkpt lat="44.11525" lon="3.13273">
        <ele>725</ele>
        <time>2015-10-24T14:41:38Z</time>
      </trkpt>
      <trkpt lat="44.11521" lon="3.13264">
        <ele>724</ele>
        <time>2015-10-24T14:41:45Z</time>
      </trkpt>
      <trkpt lat="44.11518" lon="3.13258">
        <ele>723</ele>
        <time>2015-10-24T14:41:49Z</time>
      </trkpt>
      <trkpt lat="44.11516" lon="3.13248">
        <ele>730</ele>
        <time>2015-10-24T14:41:58Z</time>
      </trkpt>
      <trkpt lat="44.11513" lon="3.13241">
        <ele>730</ele>
        <time>2015-10-24T14:42:05Z</time>
      </trkpt>
      <trkpt lat="44.1151" lon="3.13236">
        <ele>731</ele>
        <time>2015-10-24T14:42:09Z</time>
      </trkpt>
      <trkpt lat="44.11503" lon="3.13228">
        <ele>733</ele>
        <time>2015-10-24T14:42:16Z</time>
      </trkpt>
      <trkpt lat="44.11496" lon="3.1322">
        <ele>712</ele>
        <time>2015-10-24T14:42:27Z</time>
      </trkpt>
      <trkpt lat="44.11492" lon="3.13215">
        <ele>712</ele>
        <time>2015-10-24T14:42:36Z</time>
      </trkpt>
      <trkpt lat="44.11489" lon="3.13208">
        <ele>713</ele>
        <time>2015-10-24T14:42:44Z</time>
      </trkpt>
      <trkpt lat="44.11487" lon="3.13202">
        <ele>714</ele>
        <time>2015-10-24T14:42:52Z</time>
      </trkpt>
      <trkpt lat="44.11484" lon="3.13195">
        <ele>716</ele>
        <time>2015-10-24T14:42:58Z</time>
      </trkpt>
      <trkpt lat="44.11483" lon="3.13188">
        <ele>718</ele>
        <time>2015-10-24T14:43:04Z</time>
      </trkpt>
      <trkpt lat="44.11485" lon="3.13183">
        <ele>720</ele>
        <time>2015-10-24T14:43:11Z</time>
      </trkpt>
      <trkpt lat="44.11487" lon="3.1318">
        <ele>722</ele>
        <time>2015-10-24T14:43:18Z</time>
      </trkpt>
      <trkpt lat="44.11489" lon="3.13179">
        <ele>724</ele>
        <time>2015-10-24T14:43:23Z</time>
      </trkpt>
      <trkpt lat="44.11491" lon="3.13177">
        <ele>726</ele>
        <time>2015-10-24T14:43:30Z</time>
      </trkpt>
      <trkpt lat="44.11492" lon="3.13174">
        <ele>728</ele>
        <time>2015-10-24T14:43:36Z</time>
      </trkpt>
      <trkpt lat="44.11493" lon="3.13171">
        <ele>730</ele>
        <time>2015-10-24T14:43:43Z</time>
      </trkpt>
      <trkpt lat="44.11494" lon="3.13171">
        <ele>731</ele>
        <time>2015-10-24T14:43:50Z</time>
      </trkpt>
      <trkpt lat="44.11494" lon="3.13172">
        <ele>731</ele>
        <time>2015-10-24T14:43:58Z</time>
      </trkpt>
      <trkpt lat="44.11495" lon="3.13174">
        <ele>730</ele>
        <time>2015-10-24T14:44:04Z</time>
      </trkpt>
      <trkpt lat="44.11495" lon="3.13175">
        <ele>729</ele>
        <time>2015-10-24T14:44:12Z</time>
      </trkpt>
      <trkpt lat="44.11496" lon="3.13176">
        <ele>729</ele>
        <time>2015-10-24T14:44:41Z</time>
      </trkpt>
      <trkpt lat="44.11497" lon="3.13179">
        <ele>727</ele>
        <time>2015-10-24T14:44:47Z</time>
      </trkpt>
      <trkpt lat="44.11499" lon="3.13178">
        <ele>728</ele>
        <time>2015-10-24T14:44:53Z</time>
      </trkpt>
      <trkpt lat="44.11501" lon="3.13172">
        <ele>741</ele>
        <time>2015-10-24T14:45:01Z</time>
      </trkpt>
      <trkpt lat="44.11503" lon="3.13164">
        <ele>742</ele>
        <time>2015-10-24T14:45:09Z</time>
      </trkpt>
      <trkpt lat="44.11503" lon="3.13155">
        <ele>744</ele>
        <time>2015-10-24T14:45:17Z</time>
      </trkpt>
      <trkpt lat="44.11503" lon="3.1315">
        <ele>745</ele>
        <time>2015-10-24T14:45:24Z</time>
      </trkpt>
      <trkpt lat="44.11506" lon="3.13152">
        <ele>745</ele>
        <time>2015-10-24T14:45:30Z</time>
      </trkpt>
      <trkpt lat="44.11508" lon="3.13155">
        <ele>745</ele>
        <time>2015-10-24T14:45:36Z</time>
      </trkpt>
      <trkpt lat="44.11512" lon="3.13158">
        <ele>745</ele>
        <time>2015-10-24T14:45:45Z</time>
      </trkpt>
      <trkpt lat="44.11515" lon="3.13161">
        <ele>746</ele>
        <time>2015-10-24T14:45:52Z</time>
      </trkpt>
      <trkpt lat="44.11516" lon="3.13162">
        <ele>746</ele>
        <time>2015-10-24T14:46:02Z</time>
      </trkpt>
      <trkpt lat="44.11518" lon="3.13162">
        <ele>746</ele>
        <time>2015-10-24T14:46:20Z</time>
      </trkpt>
      <trkpt lat="44.1152" lon="3.13167">
        <ele>745</ele>
        <time>2015-10-24T14:46:29Z</time>
      </trkpt>
      <trkpt lat="44.11523" lon="3.13173">
        <ele>746</ele>
        <time>2015-10-24T14:46:37Z</time>
      </trkpt>
      <trkpt lat="44.11525" lon="3.13175">
        <ele>746</ele>
        <time>2015-10-24T14:46:43Z</time>
      </trkpt>
      <trkpt lat="44.11528" lon="3.13171">
        <ele>747</ele>
        <time>2015-10-24T14:46:50Z</time>
      </trkpt>
      <trkpt lat="44.11532" lon="3.13167">
        <ele>748</ele>
        <time>2015-10-24T14:46:56Z</time>
      </trkpt>
      <trkpt lat="44.11534" lon="3.13162">
        <ele>751</ele>
        <time>2015-10-24T14:47:02Z</time>
      </trkpt>
      <trkpt lat="44.11535" lon="3.13156">
        <ele>751</ele>
        <time>2015-10-24T14:47:08Z</time>
      </trkpt>
      <trkpt lat="44.11535" lon="3.13148">
        <ele>751</ele>
        <time>2015-10-24T14:47:16Z</time>
      </trkpt>
      <trkpt lat="44.11536" lon="3.13141">
        <ele>751</ele>
        <time>2015-10-24T14:47:24Z</time>
      </trkpt>
      <trkpt lat="44.11537" lon="3.13143">
        <ele>751</ele>
        <time>2015-10-24T14:47:29Z</time>
      </trkpt>
      <trkpt lat="44.11541" lon="3.13148">
        <ele>752</ele>
        <time>2015-10-24T14:47:38Z</time>
      </trkpt>
      <trkpt lat="44.11544" lon="3.13153">
        <ele>753</ele>
        <time>2015-10-24T14:47:44Z</time>
      </trkpt>
      <trkpt lat="44.11547" lon="3.13158">
        <ele>754</ele>
        <time>2015-10-24T14:47:52Z</time>
      </trkpt>
      <trkpt lat="44.11548" lon="3.13162">
        <ele>755</ele>
        <time>2015-10-24T14:47:59Z</time>
      </trkpt>
      <trkpt lat="44.1155" lon="3.13166">
        <ele>756</ele>
        <time>2015-10-24T14:48:05Z</time>
      </trkpt>
      <trkpt lat="44.11553" lon="3.13163">
        <ele>756</ele>
        <time>2015-10-24T14:48:11Z</time>
      </trkpt>
      <trkpt lat="44.11555" lon="3.1316">
        <ele>757</ele>
        <time>2015-10-24T14:48:16Z</time>
      </trkpt>
      <trkpt lat="44.11558" lon="3.13155">
        <ele>758</ele>
        <time>2015-10-24T14:48:24Z</time>
      </trkpt>
      <trkpt lat="44.11559" lon="3.1315">
        <ele>757</ele>
        <time>2015-10-24T14:48:31Z</time>
      </trkpt>
      <trkpt lat="44.1156" lon="3.13146">
        <ele>757</ele>
        <time>2015-10-24T14:48:37Z</time>
      </trkpt>
      <trkpt lat="44.11559" lon="3.1314">
        <ele>756</ele>
        <time>2015-10-24T14:48:44Z</time>
      </trkpt>
      <trkpt lat="44.11561" lon="3.13139">
        <ele>756</ele>
        <time>2015-10-24T14:48:49Z</time>
      </trkpt>
      <trkpt lat="44.11564" lon="3.13138">
        <ele>757</ele>
        <time>2015-10-24T14:48:55Z</time>
      </trkpt>
      <trkpt lat="44.11566" lon="3.1314">
        <ele>757</ele>
        <time>2015-10-24T14:48:59Z</time>
      </trkpt>
      <trkpt lat="44.11567" lon="3.13142">
        <ele>758</ele>
        <time>2015-10-24T14:49:04Z</time>
      </trkpt>
      <trkpt lat="44.11569" lon="3.13149">
        <ele>760</ele>
        <time>2015-10-24T14:49:12Z</time>
      </trkpt>
      <trkpt lat="44.11573" lon="3.13152">
        <ele>762</ele>
        <time>2015-10-24T14:49:19Z</time>
      </trkpt>
      <trkpt lat="44.11576" lon="3.13155">
        <ele>764</ele>
        <time>2015-10-24T14:49:25Z</time>
      </trkpt>
      <trkpt lat="44.11578" lon="3.1316">
        <ele>767</ele>
        <time>2015-10-24T14:49:32Z</time>
      </trkpt>
      <trkpt lat="44.1158" lon="3.13165">
        <ele>770</ele>
        <time>2015-10-24T14:49:38Z</time>
      </trkpt>
      <trkpt lat="44.11584" lon="3.13163">
        <ele>774</ele>
        <time>2015-10-24T14:49:44Z</time>
      </trkpt>
      <trkpt lat="44.11589" lon="3.1316">
        <ele>775</ele>
        <time>2015-10-24T14:49:51Z</time>
      </trkpt>
      <trkpt lat="44.11594" lon="3.13157">
        <ele>776</ele>
        <time>2015-10-24T14:49:58Z</time>
      </trkpt>
      <trkpt lat="44.11599" lon="3.13157">
        <ele>776</ele>
        <time>2015-10-24T14:50:04Z</time>
      </trkpt>
      <trkpt lat="44.11603" lon="3.13155">
        <ele>777</ele>
        <time>2015-10-24T14:50:09Z</time>
      </trkpt>
      <trkpt lat="44.11609" lon="3.13153">
        <ele>778</ele>
        <time>2015-10-24T14:50:16Z</time>
      </trkpt>
      <trkpt lat="44.11615" lon="3.13154">
        <ele>779</ele>
        <time>2015-10-24T14:50:23Z</time>
      </trkpt>
      <trkpt lat="44.11621" lon="3.13156">
        <ele>780</ele>
        <time>2015-10-24T14:50:30Z</time>
      </trkpt>
      <trkpt lat="44.11628" lon="3.13157">
        <ele>781</ele>
        <time>2015-10-24T14:50:37Z</time>
      </trkpt>
      <trkpt lat="44.11635" lon="3.13157">
        <ele>783</ele>
        <time>2015-10-24T14:50:43Z</time>
      </trkpt>
      <trkpt lat="44.11641" lon="3.13157">
        <ele>784</ele>
        <time>2015-10-24T14:50:48Z</time>
      </trkpt>
      <trkpt lat="44.11648" lon="3.13159">
        <ele>786</ele>
        <time>2015-10-24T14:50:54Z</time>
      </trkpt>
      <trkpt lat="44.11658" lon="3.13154">
        <ele>788</ele>
        <time>2015-10-24T14:51:02Z</time>
      </trkpt>
      <trkpt lat="44.11659" lon="3.13153">
        <ele>788</ele>
        <time>2015-10-24T14:51:03Z</time>
      </trkpt>
      <trkpt lat="44.11668" lon="3.13145">
        <ele>796</ele>
        <time>2015-10-24T14:51:10Z</time>
      </trkpt>
      <trkpt lat="44.11671" lon="3.13143">
        <ele>796</ele>
        <time>2015-10-24T14:51:12Z</time>
      </trkpt>
      <trkpt lat="44.11674" lon="3.13142">
        <ele>796</ele>
        <time>2015-10-24T14:51:14Z</time>
      </trkpt>
      <trkpt lat="44.11677" lon="3.1314">
        <ele>796</ele>
        <time>2015-10-24T14:51:16Z</time>
      </trkpt>
      <trkpt lat="44.11684" lon="3.13136">
        <ele>796</ele>
        <time>2015-10-24T14:51:21Z</time>
      </trkpt>
      <trkpt lat="44.11686" lon="3.13135">
        <ele>797</ele>
        <time>2015-10-24T14:51:23Z</time>
      </trkpt>
      <trkpt lat="44.11693" lon="3.13127">
        <ele>796</ele>
        <time>2015-10-24T14:51:29Z</time>
      </trkpt>
      <trkpt lat="44.11698" lon="3.13119">
        <ele>796</ele>
        <time>2015-10-24T14:51:34Z</time>
      </trkpt>
      <trkpt lat="44.117" lon="3.13117">
        <ele>796</ele>
        <time>2015-10-24T14:51:36Z</time>
      </trkpt>
      <trkpt lat="44.11706" lon="3.13112">
        <ele>797</ele>
        <time>2015-10-24T14:51:42Z</time>
      </trkpt>
      <trkpt lat="44.11716" lon="3.13109">
        <ele>798</ele>
        <time>2015-10-24T14:51:49Z</time>
      </trkpt>
      <trkpt lat="44.11724" lon="3.13107">
        <ele>799</ele>
        <time>2015-10-24T14:51:56Z</time>
      </trkpt>
      <trkpt lat="44.1173" lon="3.13102">
        <ele>799</ele>
        <time>2015-10-24T14:52:00Z</time>
      </trkpt>
      <trkpt lat="44.11735" lon="3.13094">
        <ele>800</ele>
        <time>2015-10-24T14:52:05Z</time>
      </trkpt>
      <trkpt lat="44.11737" lon="3.13089">
        <ele>800</ele>
        <time>2015-10-24T14:52:08Z</time>
      </trkpt>
      <trkpt lat="44.11742" lon="3.13087">
        <ele>801</ele>
        <time>2015-10-24T14:52:12Z</time>
      </trkpt>
      <trkpt lat="44.11748" lon="3.13079">
        <ele>801</ele>
        <time>2015-10-24T14:52:19Z</time>
      </trkpt>
      <trkpt lat="44.11757" lon="3.13067">
        <ele>805</ele>
        <time>2015-10-24T14:52:27Z</time>
      </trkpt>
      <trkpt lat="44.11761" lon="3.13063">
        <ele>805</ele>
        <time>2015-10-24T14:52:31Z</time>
      </trkpt>
      <trkpt lat="44.11765" lon="3.13057">
        <ele>805</ele>
        <time>2015-10-24T14:52:35Z</time>
      </trkpt>
      <trkpt lat="44.11771" lon="3.13045">
        <ele>806</ele>
        <time>2015-10-24T14:52:42Z</time>
      </trkpt>
      <trkpt lat="44.11777" lon="3.13035">
        <ele>805</ele>
        <time>2015-10-24T14:52:48Z</time>
      </trkpt>
      <trkpt lat="44.11782" lon="3.13025">
        <ele>805</ele>
        <time>2015-10-24T14:52:54Z</time>
      </trkpt>
      <trkpt lat="44.11787" lon="3.13014">
        <ele>806</ele>
        <time>2015-10-24T14:53:00Z</time>
      </trkpt>
      <trkpt lat="44.1179" lon="3.13008">
        <ele>806</ele>
        <time>2015-10-24T14:53:04Z</time>
      </trkpt>
      <trkpt lat="44.11795" lon="3.12998">
        <ele>800</ele>
        <time>2015-10-24T14:53:11Z</time>
      </trkpt>
      <trkpt lat="44.11799" lon="3.1299">
        <ele>801</ele>
        <time>2015-10-24T14:53:15Z</time>
      </trkpt>
      <trkpt lat="44.11806" lon="3.12979">
        <ele>801</ele>
        <time>2015-10-24T14:53:22Z</time>
      </trkpt>
      <trkpt lat="44.11813" lon="3.1297">
        <ele>801</ele>
        <time>2015-10-24T14:53:29Z</time>
      </trkpt>
      <trkpt lat="44.11815" lon="3.12966">
        <ele>801</ele>
        <time>2015-10-24T14:53:31Z</time>
      </trkpt>
      <trkpt lat="44.11817" lon="3.12964">
        <ele>801</ele>
        <time>2015-10-24T14:53:33Z</time>
      </trkpt>
      <trkpt lat="44.11824" lon="3.12958">
        <ele>801</ele>
        <time>2015-10-24T14:53:38Z</time>
      </trkpt>
      <trkpt lat="44.11832" lon="3.12953">
        <ele>801</ele>
        <time>2015-10-24T14:53:45Z</time>
      </trkpt>
      <trkpt lat="44.11838" lon="3.12946">
        <ele>811</ele>
        <time>2015-10-24T14:53:51Z</time>
      </trkpt>
      <trkpt lat="44.11842" lon="3.12939">
        <ele>811</ele>
        <time>2015-10-24T14:53:55Z</time>
      </trkpt>
      <trkpt lat="44.11844" lon="3.12934">
        <ele>810</ele>
        <time>2015-10-24T14:53:59Z</time>
      </trkpt>
      <trkpt lat="44.11846" lon="3.12926">
        <ele>809</ele>
        <time>2015-10-24T14:54:07Z</time>
      </trkpt>
      <trkpt lat="44.11849" lon="3.1292">
        <ele>809</ele>
        <time>2015-10-24T14:54:13Z</time>
      </trkpt>
      <trkpt lat="44.11851" lon="3.12912">
        <ele>811</ele>
        <time>2015-10-24T14:54:20Z</time>
      </trkpt>
      <trkpt lat="44.11855" lon="3.12901">
        <ele>812</ele>
        <time>2015-10-24T14:54:30Z</time>
      </trkpt>
      <trkpt lat="44.11858" lon="3.12896">
        <ele>814</ele>
        <time>2015-10-24T14:54:38Z</time>
      </trkpt>
      <trkpt lat="44.11862" lon="3.12887">
        <ele>815</ele>
        <time>2015-10-24T14:54:47Z</time>
      </trkpt>
      <trkpt lat="44.11864" lon="3.12878">
        <ele>816</ele>
        <time>2015-10-24T14:54:54Z</time>
      </trkpt>
      <trkpt lat="44.11865" lon="3.12871">
        <ele>816</ele>
        <time>2015-10-24T14:54:58Z</time>
      </trkpt>
      <trkpt lat="44.11864" lon="3.12858">
        <ele>816</ele>
        <time>2015-10-24T14:55:06Z</time>
      </trkpt>
      <trkpt lat="44.11864" lon="3.12856">
        <ele>816</ele>
        <time>2015-10-24T14:55:07Z</time>
      </trkpt>
      <trkpt lat="44.11863" lon="3.1285">
        <ele>816</ele>
        <time>2015-10-24T14:55:12Z</time>
      </trkpt>
      <trkpt lat="44.11864" lon="3.12838">
        <ele>816</ele>
        <time>2015-10-24T14:55:19Z</time>
      </trkpt>
      <trkpt lat="44.11864" lon="3.12828">
        <ele>821</ele>
        <time>2015-10-24T14:55:26Z</time>
      </trkpt>
      <trkpt lat="44.11864" lon="3.12816">
        <ele>821</ele>
        <time>2015-10-24T14:55:32Z</time>
      </trkpt>
      <trkpt lat="44.11863" lon="3.12808">
        <ele>822</ele>
        <time>2015-10-24T14:55:37Z</time>
      </trkpt>
      <trkpt lat="44.11863" lon="3.12804">
        <ele>822</ele>
        <time>2015-10-24T14:55:40Z</time>
      </trkpt>
      <trkpt lat="44.11856" lon="3.12801">
        <ele>821</ele>
        <time>2015-10-24T14:55:45Z</time>
      </trkpt>
      <trkpt lat="44.11851" lon="3.12797">
        <ele>821</ele>
        <time>2015-10-24T14:55:49Z</time>
      </trkpt>
      <trkpt lat="44.11851" lon="3.12791">
        <ele>822</ele>
        <time>2015-10-24T14:55:52Z</time>
      </trkpt>
      <trkpt lat="44.11846" lon="3.12782">
        <ele>822</ele>
        <time>2015-10-24T14:55:58Z</time>
      </trkpt>
      <trkpt lat="44.11843" lon="3.12774">
        <ele>821</ele>
        <time>2015-10-24T14:56:02Z</time>
      </trkpt>
      <trkpt lat="44.11837" lon="3.12769">
        <ele>821</ele>
        <time>2015-10-24T14:56:06Z</time>
      </trkpt>
      <trkpt lat="44.11828" lon="3.12763">
        <ele>807</ele>
        <time>2015-10-24T14:56:11Z</time>
      </trkpt>
      <trkpt lat="44.11823" lon="3.12754">
        <ele>808</ele>
        <time>2015-10-24T14:56:15Z</time>
      </trkpt>
      <trkpt lat="44.1182" lon="3.12742">
        <ele>810</ele>
        <time>2015-10-24T14:56:19Z</time>
      </trkpt>
      <trkpt lat="44.11813" lon="3.12736">
        <ele>807</ele>
        <time>2015-10-24T14:56:24Z</time>
      </trkpt>
      <trkpt lat="44.11812" lon="3.12733">
        <ele>806</ele>
        <time>2015-10-24T14:56:25Z</time>
      </trkpt>
      <trkpt lat="44.11806" lon="3.1272">
        <ele>805</ele>
        <time>2015-10-24T14:56:31Z</time>
      </trkpt>
      <trkpt lat="44.118" lon="3.12715">
        <ele>803</ele>
        <time>2015-10-24T14:56:37Z</time>
      </trkpt>
      <trkpt lat="44.11795" lon="3.12712">
        <ele>802</ele>
        <time>2015-10-24T14:56:39Z</time>
      </trkpt>
      <trkpt lat="44.11794" lon="3.12699">
        <ele>803</ele>
        <time>2015-10-24T14:56:43Z</time>
      </trkpt>
      <trkpt lat="44.11794" lon="3.12696">
        <ele>803</ele>
        <time>2015-10-24T14:56:44Z</time>
      </trkpt>
      <trkpt lat="44.11792" lon="3.12683">
        <ele>803</ele>
        <time>2015-10-24T14:56:48Z</time>
      </trkpt>
      <trkpt lat="44.1179" lon="3.12673">
        <ele>803</ele>
        <time>2015-10-24T14:56:52Z</time>
      </trkpt>
      <trkpt lat="44.11789" lon="3.12662">
        <ele>810</ele>
        <time>2015-10-24T14:56:57Z</time>
      </trkpt>
      <trkpt lat="44.11786" lon="3.12657">
        <ele>809</ele>
        <time>2015-10-24T14:57:00Z</time>
      </trkpt>
      <trkpt lat="44.11777" lon="3.12644">
        <ele>808</ele>
        <time>2015-10-24T14:57:05Z</time>
      </trkpt>
      <trkpt lat="44.11772" lon="3.12643">
        <ele>806</ele>
        <time>2015-10-24T14:57:07Z</time>
      </trkpt>
      <trkpt lat="44.11765" lon="3.12635">
        <ele>807</ele>
        <time>2015-10-24T14:57:11Z</time>
      </trkpt>
      <trkpt lat="44.11758" lon="3.12624">
        <ele>807</ele>
        <time>2015-10-24T14:57:16Z</time>
      </trkpt>
      <trkpt lat="44.11755" lon="3.12604">
        <ele>808</ele>
        <time>2015-10-24T14:57:23Z</time>
      </trkpt>
      <trkpt lat="44.11752" lon="3.12595">
        <ele>807</ele>
        <time>2015-10-24T14:57:27Z</time>
      </trkpt>
      <trkpt lat="44.11751" lon="3.12593">
        <ele>807</ele>
        <time>2015-10-24T14:57:28Z</time>
      </trkpt>
      <trkpt lat="44.1175" lon="3.12581">
        <ele>806</ele>
        <time>2015-10-24T14:57:34Z</time>
      </trkpt>
      <trkpt lat="44.11749" lon="3.12577">
        <ele>803</ele>
        <time>2015-10-24T14:57:36Z</time>
      </trkpt>
      <trkpt lat="44.11749" lon="3.12565">
        <ele>801</ele>
        <time>2015-10-24T14:57:41Z</time>
      </trkpt>
      <trkpt lat="44.11748" lon="3.12556">
        <ele>801</ele>
        <time>2015-10-24T14:57:46Z</time>
      </trkpt>
      <trkpt lat="44.11746" lon="3.12553">
        <ele>801</ele>
        <time>2015-10-24T14:57:48Z</time>
      </trkpt>
      <trkpt lat="44.11739" lon="3.12541">
        <ele>801</ele>
        <time>2015-10-24T14:57:56Z</time>
      </trkpt>
      <trkpt lat="44.11739" lon="3.12528">
        <ele>804</ele>
        <time>2015-10-24T14:58:04Z</time>
      </trkpt>
      <trkpt lat="44.11741" lon="3.12515">
        <ele>808</ele>
        <time>2015-10-24T14:58:11Z</time>
      </trkpt>
      <trkpt lat="44.11741" lon="3.12512">
        <ele>809</ele>
        <time>2015-10-24T14:58:13Z</time>
      </trkpt>
      <trkpt lat="44.11747" lon="3.125">
        <ele>816</ele>
        <time>2015-10-24T14:58:20Z</time>
      </trkpt>
      <trkpt lat="44.11755" lon="3.12492">
        <ele>821</ele>
        <time>2015-10-24T14:58:28Z</time>
      </trkpt>
      <trkpt lat="44.11764" lon="3.1248">
        <ele>824</ele>
        <time>2015-10-24T14:58:37Z</time>
      </trkpt>
      <trkpt lat="44.1177" lon="3.12466">
        <ele>826</ele>
        <time>2015-10-24T14:58:45Z</time>
      </trkpt>
      <trkpt lat="44.11767" lon="3.12456">
        <ele>826</ele>
        <time>2015-10-24T14:58:50Z</time>
      </trkpt>
      <trkpt lat="44.11759" lon="3.12448">
        <ele>827</ele>
        <time>2015-10-24T14:58:55Z</time>
      </trkpt>
      <trkpt lat="44.11748" lon="3.12442">
        <ele>821</ele>
        <time>2015-10-24T14:59:01Z</time>
      </trkpt>
      <trkpt lat="44.11738" lon="3.12438">
        <ele>821</ele>
        <time>2015-10-24T14:59:08Z</time>
      </trkpt>
      <trkpt lat="44.1173" lon="3.1243">
        <ele>821</ele>
        <time>2015-10-24T14:59:15Z</time>
      </trkpt>
      <trkpt lat="44.11727" lon="3.12425">
        <ele>821</ele>
        <time>2015-10-24T14:59:20Z</time>
      </trkpt>
      <trkpt lat="44.11721" lon="3.12419">
        <ele>820</ele>
        <time>2015-10-24T14:59:25Z</time>
      </trkpt>
      <trkpt lat="44.11715" lon="3.12413">
        <ele>826</ele>
        <time>2015-10-24T14:59:30Z</time>
      </trkpt>
      <trkpt lat="44.11713" lon="3.1241">
        <ele>826</ele>
        <time>2015-10-24T14:59:32Z</time>
      </trkpt>
      <trkpt lat="44.11707" lon="3.12402">
        <ele>826</ele>
        <time>2015-10-24T14:59:38Z</time>
      </trkpt>
      <trkpt lat="44.11702" lon="3.12396">
        <ele>826</ele>
        <time>2015-10-24T14:59:43Z</time>
      </trkpt>
      <trkpt lat="44.11692" lon="3.12383">
        <ele>826</ele>
        <time>2015-10-24T14:59:51Z</time>
      </trkpt>
      <trkpt lat="44.11685" lon="3.12374">
        <ele>826</ele>
        <time>2015-10-24T14:59:57Z</time>
      </trkpt>
      <trkpt lat="44.11679" lon="3.1236">
        <ele>827</ele>
        <time>2015-10-24T15:00:03Z</time>
      </trkpt>
      <trkpt lat="44.11673" lon="3.12344">
        <ele>827</ele>
        <time>2015-10-24T15:00:11Z</time>
      </trkpt>
      <trkpt lat="44.11669" lon="3.12335">
        <ele>827</ele>
        <time>2015-10-24T15:00:16Z</time>
      </trkpt>
      <trkpt lat="44.11664" lon="3.12325">
        <ele>825</ele>
        <time>2015-10-24T15:00:22Z</time>
      </trkpt>
      <trkpt lat="44.11658" lon="3.12315">
        <ele>824</ele>
        <time>2015-10-24T15:00:26Z</time>
      </trkpt>
      <trkpt lat="44.11654" lon="3.12299">
        <ele>823</ele>
        <time>2015-10-24T15:00:31Z</time>
      </trkpt>
      <trkpt lat="44.11649" lon="3.12274">
        <ele>823</ele>
        <time>2015-10-24T15:00:38Z</time>
      </trkpt>
      <trkpt lat="44.1165" lon="3.12266">
        <ele>823</ele>
        <time>2015-10-24T15:00:40Z</time>
      </trkpt>
      <trkpt lat="44.11652" lon="3.12245">
        <ele>823</ele>
        <time>2015-10-24T15:00:47Z</time>
      </trkpt>
      <trkpt lat="44.11654" lon="3.12226">
        <ele>822</ele>
        <time>2015-10-24T15:00:53Z</time>
      </trkpt>
      <trkpt lat="44.11657" lon="3.12208">
        <ele>821</ele>
        <time>2015-10-24T15:00:58Z</time>
      </trkpt>
      <trkpt lat="44.11659" lon="3.12191">
        <ele>821</ele>
        <time>2015-10-24T15:01:03Z</time>
      </trkpt>
      <trkpt lat="44.11659" lon="3.12188">
        <ele>821</ele>
        <time>2015-10-24T15:01:04Z</time>
      </trkpt>
      <trkpt lat="44.11663" lon="3.12174">
        <ele>822</ele>
        <time>2015-10-24T15:01:09Z</time>
      </trkpt>
      <trkpt lat="44.11668" lon="3.12161">
        <ele>824</ele>
        <time>2015-10-24T15:01:14Z</time>
      </trkpt>
      <trkpt lat="44.11672" lon="3.12151">
        <ele>826</ele>
        <time>2015-10-24T15:01:18Z</time>
      </trkpt>
      <trkpt lat="44.11677" lon="3.12134">
        <ele>827</ele>
        <time>2015-10-24T15:01:24Z</time>
      </trkpt>
      <trkpt lat="44.11681" lon="3.12122">
        <ele>827</ele>
        <time>2015-10-24T15:01:29Z</time>
      </trkpt>
      <trkpt lat="44.11688" lon="3.12106">
        <ele>827</ele>
        <time>2015-10-24T15:01:35Z</time>
      </trkpt>
      <trkpt lat="44.11688" lon="3.12098">
        <ele>827</ele>
        <time>2015-10-24T15:01:38Z</time>
      </trkpt>
      <trkpt lat="44.1169" lon="3.12094">
        <ele>827</ele>
        <time>2015-10-24T15:01:42Z</time>
      </trkpt>
      <trkpt lat="44.11693" lon="3.12082">
        <ele>828</ele>
        <time>2015-10-24T15:01:49Z</time>
      </trkpt>
      <trkpt lat="44.11699" lon="3.12073">
        <ele>829</ele>
        <time>2015-10-24T15:01:56Z</time>
      </trkpt>
      <trkpt lat="44.11707" lon="3.12067">
        <ele>829</ele>
        <time>2015-10-24T15:02:04Z</time>
      </trkpt>
      <trkpt lat="44.11711" lon="3.12063">
        <ele>830</ele>
        <time>2015-10-24T15:02:08Z</time>
      </trkpt>
      <trkpt lat="44.11718" lon="3.12058">
        <ele>830</ele>
        <time>2015-10-24T15:02:14Z</time>
      </trkpt>
      <trkpt lat="44.11729" lon="3.12054">
        <ele>831</ele>
        <time>2015-10-24T15:02:21Z</time>
      </trkpt>
      <trkpt lat="44.11736" lon="3.12052">
        <ele>831</ele>
        <time>2015-10-24T15:02:27Z</time>
      </trkpt>
      <trkpt lat="44.1174" lon="3.12053">
        <ele>831</ele>
        <time>2015-10-24T15:02:30Z</time>
      </trkpt>
      <trkpt lat="44.1175" lon="3.12054">
        <ele>831</ele>
        <time>2015-10-24T15:02:38Z</time>
      </trkpt>
      <trkpt lat="44.11753" lon="3.12054">
        <ele>835</ele>
        <time>2015-10-24T15:02:40Z</time>
      </trkpt>
      <trkpt lat="44.11761" lon="3.12055">
        <ele>835</ele>
        <time>2015-10-24T15:02:46Z</time>
      </trkpt>
      <trkpt lat="44.11772" lon="3.12054">
        <ele>835</ele>
        <time>2015-10-24T15:02:54Z</time>
      </trkpt>
      <trkpt lat="44.11778" lon="3.1205">
        <ele>835</ele>
        <time>2015-10-24T15:02:59Z</time>
      </trkpt>
      <trkpt lat="44.11783" lon="3.12046">
        <ele>836</ele>
        <time>2015-10-24T15:03:03Z</time>
      </trkpt>
      <trkpt lat="44.1179" lon="3.12036">
        <ele>836</ele>
        <time>2015-10-24T15:03:09Z</time>
      </trkpt>
      <trkpt lat="44.11796" lon="3.1203">
        <ele>836</ele>
        <time>2015-10-24T15:03:13Z</time>
      </trkpt>
      <trkpt lat="44.11808" lon="3.12024">
        <ele>836</ele>
        <time>2015-10-24T15:03:20Z</time>
      </trkpt>
      <trkpt lat="44.11811" lon="3.12023">
        <ele>836</ele>
        <time>2015-10-24T15:03:22Z</time>
      </trkpt>
      <trkpt lat="44.11819" lon="3.12017">
        <ele>836</ele>
        <time>2015-10-24T15:03:29Z</time>
      </trkpt>
      <trkpt lat="44.11829" lon="3.12003">
        <ele>837</ele>
        <time>2015-10-24T15:03:38Z</time>
      </trkpt>
      <trkpt lat="44.11836" lon="3.11996">
        <ele>837</ele>
        <time>2015-10-24T15:03:43Z</time>
      </trkpt>
      <trkpt lat="44.11838" lon="3.11995">
        <ele>838</ele>
        <time>2015-10-24T15:03:44Z</time>
      </trkpt>
      <trkpt lat="44.1185" lon="3.11989">
        <ele>838</ele>
        <time>2015-10-24T15:03:49Z</time>
      </trkpt>
      <trkpt lat="44.11858" lon="3.11984">
        <ele>839</ele>
        <time>2015-10-24T15:03:53Z</time>
      </trkpt>
      <trkpt lat="44.11866" lon="3.11977">
        <ele>839</ele>
        <time>2015-10-24T15:03:57Z</time>
      </trkpt>
      <trkpt lat="44.11869" lon="3.11976">
        <ele>839</ele>
        <time>2015-10-24T15:03:58Z</time>
      </trkpt>
      <trkpt lat="44.11883" lon="3.11966">
        <ele>839</ele>
        <time>2015-10-24T15:04:04Z</time>
      </trkpt>
      <trkpt lat="44.11888" lon="3.11965">
        <ele>839</ele>
        <time>2015-10-24T15:04:06Z</time>
      </trkpt>
      <trkpt lat="44.11896" lon="3.11969">
        <ele>840</ele>
        <time>2015-10-24T15:04:10Z</time>
      </trkpt>
      <trkpt lat="44.11907" lon="3.11975">
        <ele>840</ele>
        <time>2015-10-24T15:04:15Z</time>
      </trkpt>
      <trkpt lat="44.11919" lon="3.11974">
        <ele>841</ele>
        <time>2015-10-24T15:04:19Z</time>
      </trkpt>
      <trkpt lat="44.11931" lon="3.11968">
        <ele>840</ele>
        <time>2015-10-24T15:04:24Z</time>
      </trkpt>
      <trkpt lat="44.11941" lon="3.11956">
        <ele>840</ele>
        <time>2015-10-24T15:04:29Z</time>
      </trkpt>
      <trkpt lat="44.1195" lon="3.11941">
        <ele>840</ele>
        <time>2015-10-24T15:04:35Z</time>
      </trkpt>
      <trkpt lat="44.11966" lon="3.1193">
        <ele>839</ele>
        <time>2015-10-24T15:04:42Z</time>
      </trkpt>
      <trkpt lat="44.11976" lon="3.11926">
        <ele>839</ele>
        <time>2015-10-24T15:04:46Z</time>
      </trkpt>
      <trkpt lat="44.11986" lon="3.11923">
        <ele>839</ele>
        <time>2015-10-24T15:04:52Z</time>
      </trkpt>
      <trkpt lat="44.11999" lon="3.11919">
        <ele>838</ele>
        <time>2015-10-24T15:04:57Z</time>
      </trkpt>
      <trkpt lat="44.12011" lon="3.11913">
        <ele>837</ele>
        <time>2015-10-24T15:05:02Z</time>
      </trkpt>
      <trkpt lat="44.12025" lon="3.11907">
        <ele>837</ele>
        <time>2015-10-24T15:05:07Z</time>
      </trkpt>
      <trkpt lat="44.12038" lon="3.11901">
        <ele>837</ele>
        <time>2015-10-24T15:05:12Z</time>
      </trkpt>
      <trkpt lat="44.12044" lon="3.11896">
        <ele>837</ele>
        <time>2015-10-24T15:05:15Z</time>
      </trkpt>
      <trkpt lat="44.1205" lon="3.11882">
        <ele>837</ele>
        <time>2015-10-24T15:05:22Z</time>
      </trkpt>
      <trkpt lat="44.12053" lon="3.11878">
        <ele>837</ele>
        <time>2015-10-24T15:05:25Z</time>
      </trkpt>
      <trkpt lat="44.12062" lon="3.11877">
        <ele>837</ele>
        <time>2015-10-24T15:05:31Z</time>
      </trkpt>
      <trkpt lat="44.12068" lon="3.11878">
        <ele>837</ele>
        <time>2015-10-24T15:05:37Z</time>
      </trkpt>
      <trkpt lat="44.12073" lon="3.11878">
        <ele>837</ele>
        <time>2015-10-24T15:05:43Z</time>
      </trkpt>
      <trkpt lat="44.1208" lon="3.11878">
        <ele>837</ele>
        <time>2015-10-24T15:05:51Z</time>
      </trkpt>
      <trkpt lat="44.12082" lon="3.11879">
        <ele>837</ele>
        <time>2015-10-24T15:05:57Z</time>
      </trkpt>
      <trkpt lat="44.12086" lon="3.11879">
        <ele>837</ele>
        <time>2015-10-24T15:06:05Z</time>
      </trkpt>
      <trkpt lat="44.12091" lon="3.11877">
        <ele>837</ele>
        <time>2015-10-24T15:06:13Z</time>
      </trkpt>
      <trkpt lat="44.12095" lon="3.11876">
        <ele>837</ele>
        <time>2015-10-24T15:06:20Z</time>
      </trkpt>
      <trkpt lat="44.12098" lon="3.11875">
        <ele>838</ele>
        <time>2015-10-24T15:06:26Z</time>
      </trkpt>
      <trkpt lat="44.12098" lon="3.11879">
        <ele>837</ele>
        <time>2015-10-24T15:06:31Z</time>
      </trkpt>
      <trkpt lat="44.12097" lon="3.11879">
        <ele>837</ele>
        <time>2015-10-24T15:06:33Z</time>
      </trkpt>
      <trkpt lat="44.12096" lon="3.11885">
        <ele>837</ele>
        <time>2015-10-24T15:06:37Z</time>
      </trkpt>
      <trkpt lat="44.121" lon="3.11878">
        <ele>838</ele>
        <time>2015-10-24T15:06:46Z</time>
      </trkpt>
      <trkpt lat="44.12101" lon="3.11873">
        <ele>838</ele>
        <time>2015-10-24T15:06:56Z</time>
      </trkpt>
      <trkpt lat="44.12101" lon="3.11873">
        <ele>838</ele>
        <time>2015-10-24T15:07:02Z</time>
      </trkpt>
      <trkpt lat="44.12103" lon="3.11871">
        <ele>838</ele>
        <time>2015-10-24T15:07:15Z</time>
      </trkpt>
      <trkpt lat="44.12102" lon="3.11869">
        <ele>838</ele>
        <time>2015-10-24T15:07:26Z</time>
      </trkpt>
      <trkpt lat="44.12099" lon="3.11866">
        <ele>838</ele>
        <time>2015-10-24T15:08:00Z</time>
      </trkpt>
      <trkpt lat="44.121" lon="3.11865">
        <ele>838</ele>
        <time>2015-10-24T15:08:10Z</time>
      </trkpt>
      <trkpt lat="44.12105" lon="3.11866">
        <ele>838</ele>
        <time>2015-10-24T15:08:18Z</time>
      </trkpt>
      <trkpt lat="44.12105" lon="3.11865">
        <ele>838</ele>
        <time>2015-10-24T15:08:23Z</time>
      </trkpt>
      <trkpt lat="44.12103" lon="3.11868">
        <ele>838</ele>
        <time>2015-10-24T15:08:29Z</time>
      </trkpt>
      <trkpt lat="44.12099" lon="3.11865">
        <ele>838</ele>
        <time>2015-10-24T15:08:39Z</time>
      </trkpt>
      <trkpt lat="44.12089" lon="3.1186">
        <ele>838</ele>
        <time>2015-10-24T15:08:48Z</time>
      </trkpt>
      <trkpt lat="44.12086" lon="3.11859">
        <ele>838</ele>
        <time>2015-10-24T15:08:50Z</time>
      </trkpt>
      <trkpt lat="44.12082" lon="3.11859">
        <ele>837</ele>
        <time>2015-10-24T15:08:54Z</time>
      </trkpt>
      <trkpt lat="44.12078" lon="3.11858">
        <ele>837</ele>
        <time>2015-10-24T15:08:57Z</time>
      </trkpt>
      <trkpt lat="44.12076" lon="3.11856">
        <ele>837</ele>
        <time>2015-10-24T15:09:03Z</time>
      </trkpt>
      <trkpt lat="44.12074" lon="3.1186">
        <ele>837</ele>
        <time>2015-10-24T15:09:17Z</time>
      </trkpt>
      <trkpt lat="44.12072" lon="3.11861">
        <ele>837</ele>
        <time>2015-10-24T15:09:22Z</time>
      </trkpt>
      <trkpt lat="44.12062" lon="3.11857">
        <ele>837</ele>
        <time>2015-10-24T15:09:31Z</time>
      </trkpt>
      <trkpt lat="44.12057" lon="3.11846">
        <ele>837</ele>
        <time>2015-10-24T15:09:40Z</time>
      </trkpt>
      <trkpt lat="44.12053" lon="3.11838">
        <ele>837</ele>
        <time>2015-10-24T15:09:47Z</time>
      </trkpt>
      <trkpt lat="44.12048" lon="3.1183">
        <ele>840</ele>
        <time>2015-10-24T15:09:53Z</time>
      </trkpt>
      <trkpt lat="44.12043" lon="3.11823">
        <ele>840</ele>
        <time>2015-10-24T15:09:59Z</time>
      </trkpt>
      <trkpt lat="44.12036" lon="3.11816">
        <ele>840</ele>
        <time>2015-10-24T15:10:05Z</time>
      </trkpt>
      <trkpt lat="44.12029" lon="3.11807">
        <ele>841</ele>
        <time>2015-10-24T15:10:12Z</time>
      </trkpt>
      <trkpt lat="44.12022" lon="3.118">
        <ele>841</ele>
        <time>2015-10-24T15:10:17Z</time>
      </trkpt>
      <trkpt lat="44.12015" lon="3.11798">
        <ele>841</ele>
        <time>2015-10-24T15:10:20Z</time>
      </trkpt>
      <trkpt lat="44.12004" lon="3.11794">
        <ele>841</ele>
        <time>2015-10-24T15:10:26Z</time>
      </trkpt>
      <trkpt lat="44.11994" lon="3.11792">
        <ele>842</ele>
        <time>2015-10-24T15:10:30Z</time>
      </trkpt>
      <trkpt lat="44.11986" lon="3.11791">
        <ele>843</ele>
        <time>2015-10-24T15:10:34Z</time>
      </trkpt>
      <trkpt lat="44.11976" lon="3.1179">
        <ele>843</ele>
        <time>2015-10-24T15:10:39Z</time>
      </trkpt>
      <trkpt lat="44.11966" lon="3.11789">
        <ele>843</ele>
        <time>2015-10-24T15:10:43Z</time>
      </trkpt>
      <trkpt lat="44.11964" lon="3.1179">
        <ele>843</ele>
        <time>2015-10-24T15:10:44Z</time>
      </trkpt>
      <trkpt lat="44.11955" lon="3.11793">
        <ele>843</ele>
        <time>2015-10-24T15:10:48Z</time>
      </trkpt>
      <trkpt lat="44.1195" lon="3.11796">
        <ele>843</ele>
        <time>2015-10-24T15:10:51Z</time>
      </trkpt>
      <trkpt lat="44.1194" lon="3.118">
        <ele>843</ele>
        <time>2015-10-24T15:10:56Z</time>
      </trkpt>
      <trkpt lat="44.11925" lon="3.11811">
        <ele>843</ele>
        <time>2015-10-24T15:11:02Z</time>
      </trkpt>
      <trkpt lat="44.11921" lon="3.11813">
        <ele>843</ele>
        <time>2015-10-24T15:11:04Z</time>
      </trkpt>
      <trkpt lat="44.11906" lon="3.11822">
        <ele>845</ele>
        <time>2015-10-24T15:11:11Z</time>
      </trkpt>
      <trkpt lat="44.11899" lon="3.11822">
        <ele>845</ele>
        <time>2015-10-24T15:11:16Z</time>
      </trkpt>
      <trkpt lat="44.11891" lon="3.11826">
        <ele>846</ele>
        <time>2015-10-24T15:11:22Z</time>
      </trkpt>
      <trkpt lat="44.11884" lon="3.11832">
        <ele>846</ele>
        <time>2015-10-24T15:11:27Z</time>
      </trkpt>
      <trkpt lat="44.11881" lon="3.11834">
        <ele>842</ele>
        <time>2015-10-24T15:11:29Z</time>
      </trkpt>
      <trkpt lat="44.11871" lon="3.1184">
        <ele>842</ele>
        <time>2015-10-24T15:11:36Z</time>
      </trkpt>
      <trkpt lat="44.11865" lon="3.11841">
        <ele>843</ele>
        <time>2015-10-24T15:11:40Z</time>
      </trkpt>
      <trkpt lat="44.11858" lon="3.11841">
        <ele>843</ele>
        <time>2015-10-24T15:11:45Z</time>
      </trkpt>
      <trkpt lat="44.1185" lon="3.1184">
        <ele>843</ele>
        <time>2015-10-24T15:11:51Z</time>
      </trkpt>
      <trkpt lat="44.11848" lon="3.11839">
        <ele>844</ele>
        <time>2015-10-24T15:11:53Z</time>
      </trkpt>
      <trkpt lat="44.11843" lon="3.11834">
        <ele>844</ele>
        <time>2015-10-24T15:11:59Z</time>
      </trkpt>
      <trkpt lat="44.11838" lon="3.11829">
        <ele>846</ele>
        <time>2015-10-24T15:12:04Z</time>
      </trkpt>
      <trkpt lat="44.1183" lon="3.11821">
        <ele>848</ele>
        <time>2015-10-24T15:12:12Z</time>
      </trkpt>
      <trkpt lat="44.11827" lon="3.11814">
        <ele>849</ele>
        <time>2015-10-24T15:12:18Z</time>
      </trkpt>
      <trkpt lat="44.11825" lon="3.11809">
        <ele>849</ele>
        <time>2015-10-24T15:12:21Z</time>
      </trkpt>
      <trkpt lat="44.11817" lon="3.11799">
        <ele>850</ele>
        <time>2015-10-24T15:12:28Z</time>
      </trkpt>
      <trkpt lat="44.11811" lon="3.11792">
        <ele>851</ele>
        <time>2015-10-24T15:12:32Z</time>
      </trkpt>
      <trkpt lat="44.118" lon="3.11784">
        <ele>851</ele>
        <time>2015-10-24T15:12:40Z</time>
      </trkpt>
      <trkpt lat="44.11792" lon="3.11775">
        <ele>851</ele>
        <time>2015-10-24T15:12:47Z</time>
      </trkpt>
      <trkpt lat="44.11788" lon="3.11772">
        <ele>852</ele>
        <time>2015-10-24T15:12:50Z</time>
      </trkpt>
      <trkpt lat="44.11782" lon="3.11765">
        <ele>852</ele>
        <time>2015-10-24T15:12:56Z</time>
      </trkpt>
      <trkpt lat="44.11779" lon="3.1176">
        <ele>852</ele>
        <time>2015-10-24T15:12:59Z</time>
      </trkpt>
      <trkpt lat="44.11764" lon="3.11749">
        <ele>855</ele>
        <time>2015-10-24T15:13:08Z</time>
      </trkpt>
      <trkpt lat="44.11762" lon="3.11749">
        <ele>855</ele>
        <time>2015-10-24T15:13:09Z</time>
      </trkpt>
      <trkpt lat="44.11752" lon="3.11746">
        <ele>855</ele>
        <time>2015-10-24T15:13:15Z</time>
      </trkpt>
      <trkpt lat="44.11747" lon="3.11743">
        <ele>856</ele>
        <time>2015-10-24T15:13:20Z</time>
      </trkpt>
      <trkpt lat="44.11737" lon="3.11736">
        <ele>856</ele>
        <time>2015-10-24T15:13:27Z</time>
      </trkpt>
      <trkpt lat="44.11725" lon="3.1173">
        <ele>857</ele>
        <time>2015-10-24T15:13:34Z</time>
      </trkpt>
      <trkpt lat="44.11716" lon="3.11725">
        <ele>857</ele>
        <time>2015-10-24T15:13:40Z</time>
      </trkpt>
      <trkpt lat="44.11708" lon="3.11719">
        <ele>857</ele>
        <time>2015-10-24T15:13:45Z</time>
      </trkpt>
      <trkpt lat="44.11694" lon="3.11714">
        <ele>857</ele>
        <time>2015-10-24T15:13:52Z</time>
      </trkpt>
      <trkpt lat="44.11692" lon="3.11713">
        <ele>857</ele>
        <time>2015-10-24T15:13:53Z</time>
      </trkpt>
      <trkpt lat="44.11682" lon="3.11709">
        <ele>857</ele>
        <time>2015-10-24T15:13:58Z</time>
      </trkpt>
      <trkpt lat="44.11675" lon="3.11707">
        <ele>857</ele>
        <time>2015-10-24T15:14:01Z</time>
      </trkpt>
      <trkpt lat="44.11661" lon="3.11704">
        <ele>857</ele>
        <time>2015-10-24T15:14:06Z</time>
      </trkpt>
      <trkpt lat="44.11651" lon="3.11701">
        <ele>857</ele>
        <time>2015-10-24T15:14:10Z</time>
      </trkpt>
      <trkpt lat="44.11637" lon="3.11697">
        <ele>857</ele>
        <time>2015-10-24T15:14:15Z</time>
      </trkpt>
      <trkpt lat="44.11623" lon="3.11701">
        <ele>856</ele>
        <time>2015-10-24T15:14:20Z</time>
      </trkpt>
      <trkpt lat="44.11611" lon="3.11709">
        <ele>856</ele>
        <time>2015-10-24T15:14:25Z</time>
      </trkpt>
      <trkpt lat="44.11609" lon="3.11711">
        <ele>856</ele>
        <time>2015-10-24T15:14:26Z</time>
      </trkpt>
      <trkpt lat="44.11593" lon="3.11712">
        <ele>856</ele>
        <time>2015-10-24T15:14:32Z</time>
      </trkpt>
      <trkpt lat="44.1159" lon="3.11712">
        <ele>856</ele>
        <time>2015-10-24T15:14:33Z</time>
      </trkpt>
      <trkpt lat="44.11577" lon="3.11709">
        <ele>854</ele>
        <time>2015-10-24T15:14:38Z</time>
      </trkpt>
      <trkpt lat="44.11565" lon="3.11707">
        <ele>854</ele>
        <time>2015-10-24T15:14:43Z</time>
      </trkpt>
      <trkpt lat="44.11554" lon="3.11708">
        <ele>854</ele>
        <time>2015-10-24T15:14:47Z</time>
      </trkpt>
      <trkpt lat="44.11551" lon="3.11707">
        <ele>854</ele>
        <time>2015-10-24T15:14:48Z</time>
      </trkpt>
      <trkpt lat="44.11534" lon="3.117">
        <ele>854</ele>
        <time>2015-10-24T15:14:55Z</time>
      </trkpt>
      <trkpt lat="44.11527" lon="3.11694">
        <ele>854</ele>
        <time>2015-10-24T15:14:59Z</time>
      </trkpt>
      <trkpt lat="44.11516" lon="3.11687">
        <ele>854</ele>
        <time>2015-10-24T15:15:04Z</time>
      </trkpt>
      <trkpt lat="44.11504" lon="3.11682">
        <ele>853</ele>
        <time>2015-10-24T15:15:08Z</time>
      </trkpt>
      <trkpt lat="44.11496" lon="3.11676">
        <ele>853</ele>
        <time>2015-10-24T15:15:13Z</time>
      </trkpt>
      <trkpt lat="44.11484" lon="3.11676">
        <ele>853</ele>
        <time>2015-10-24T15:15:18Z</time>
      </trkpt>
      <trkpt lat="44.11479" lon="3.11675">
        <ele>852</ele>
        <time>2015-10-24T15:15:20Z</time>
      </trkpt>
      <trkpt lat="44.11466" lon="3.11671">
        <ele>852</ele>
        <time>2015-10-24T15:15:25Z</time>
      </trkpt>
      <trkpt lat="44.11459" lon="3.11667">
        <ele>852</ele>
        <time>2015-10-24T15:15:28Z</time>
      </trkpt>
      <trkpt lat="44.11448" lon="3.11662">
        <ele>851</ele>
        <time>2015-10-24T15:15:32Z</time>
      </trkpt>
      <trkpt lat="44.11436" lon="3.11657">
        <ele>851</ele>
        <time>2015-10-24T15:15:37Z</time>
      </trkpt>
      <trkpt lat="44.11424" lon="3.11647">
        <ele>851</ele>
        <time>2015-10-24T15:15:42Z</time>
      </trkpt>
      <trkpt lat="44.11412" lon="3.11643">
        <ele>849</ele>
        <time>2015-10-24T15:15:46Z</time>
      </trkpt>
      <trkpt lat="44.114" lon="3.11644">
        <ele>849</ele>
        <time>2015-10-24T15:15:50Z</time>
      </trkpt>
      <trkpt lat="44.11386" lon="3.11638">
        <ele>848</ele>
        <time>2015-10-24T15:15:55Z</time>
      </trkpt>
      <trkpt lat="44.11377" lon="3.11633">
        <ele>848</ele>
        <time>2015-10-24T15:15:59Z</time>
      </trkpt>
      <trkpt lat="44.11365" lon="3.11629">
        <ele>847</ele>
        <time>2015-10-24T15:16:03Z</time>
      </trkpt>
      <trkpt lat="44.11358" lon="3.11625">
        <ele>847</ele>
        <time>2015-10-24T15:16:05Z</time>
      </trkpt>
      <trkpt lat="44.11341" lon="3.11622">
        <ele>847</ele>
        <time>2015-10-24T15:16:11Z</time>
      </trkpt>
      <trkpt lat="44.11328" lon="3.11616">
        <ele>842</ele>
        <time>2015-10-24T15:16:15Z</time>
      </trkpt>
      <trkpt lat="44.11316" lon="3.11613">
        <ele>842</ele>
        <time>2015-10-24T15:16:20Z</time>
      </trkpt>
      <trkpt lat="44.11306" lon="3.11606">
        <ele>842</ele>
        <time>2015-10-24T15:16:24Z</time>
      </trkpt>
      <trkpt lat="44.11295" lon="3.11605">
        <ele>841</ele>
        <time>2015-10-24T15:16:28Z</time>
      </trkpt>
      <trkpt lat="44.11278" lon="3.11606">
        <ele>840</ele>
        <time>2015-10-24T15:16:33Z</time>
      </trkpt>
      <trkpt lat="44.11266" lon="3.11609">
        <ele>840</ele>
        <time>2015-10-24T15:16:37Z</time>
      </trkpt>
      <trkpt lat="44.11253" lon="3.11611">
        <ele>840</ele>
        <time>2015-10-24T15:16:42Z</time>
      </trkpt>
      <trkpt lat="44.1124" lon="3.11614">
        <ele>833</ele>
        <time>2015-10-24T15:16:47Z</time>
      </trkpt>
      <trkpt lat="44.11237" lon="3.11615">
        <ele>832</ele>
        <time>2015-10-24T15:16:48Z</time>
      </trkpt>
      <trkpt lat="44.11226" lon="3.11615">
        <ele>832</ele>
        <time>2015-10-24T15:16:52Z</time>
      </trkpt>
      <trkpt lat="44.11215" lon="3.11617">
        <ele>831</ele>
        <time>2015-10-24T15:16:56Z</time>
      </trkpt>
      <trkpt lat="44.11213" lon="3.11617">
        <ele>831</ele>
        <time>2015-10-24T15:16:57Z</time>
      </trkpt>
      <trkpt lat="44.11201" lon="3.11617">
        <ele>830</ele>
        <time>2015-10-24T15:17:01Z</time>
      </trkpt>
      <trkpt lat="44.11192" lon="3.11615">
        <ele>829</ele>
        <time>2015-10-24T15:17:05Z</time>
      </trkpt>
      <trkpt lat="44.11186" lon="3.11617">
        <ele>828</ele>
        <time>2015-10-24T15:17:07Z</time>
      </trkpt>
      <trkpt lat="44.11174" lon="3.11616">
        <ele>828</ele>
        <time>2015-10-24T15:17:12Z</time>
      </trkpt>
      <trkpt lat="44.11164" lon="3.11611">
        <ele>820</ele>
        <time>2015-10-24T15:17:16Z</time>
      </trkpt>
      <trkpt lat="44.11157" lon="3.11605">
        <ele>820</ele>
        <time>2015-10-24T15:17:20Z</time>
      </trkpt>
      <trkpt lat="44.11151" lon="3.11601">
        <ele>820</ele>
        <time>2015-10-24T15:17:23Z</time>
      </trkpt>
      <trkpt lat="44.11135" lon="3.11598">
        <ele>818</ele>
        <time>2015-10-24T15:17:29Z</time>
      </trkpt>
      <trkpt lat="44.11125" lon="3.11597">
        <ele>817</ele>
        <time>2015-10-24T15:17:33Z</time>
      </trkpt>
      <trkpt lat="44.11112" lon="3.11595">
        <ele>815</ele>
        <time>2015-10-24T15:17:38Z</time>
      </trkpt>
      <trkpt lat="44.11097" lon="3.11596">
        <ele>814</ele>
        <time>2015-10-24T15:17:44Z</time>
      </trkpt>
      <trkpt lat="44.11093" lon="3.11596">
        <ele>813</ele>
        <time>2015-10-24T15:17:46Z</time>
      </trkpt>
      <trkpt lat="44.1109" lon="3.11583">
        <ele>812</ele>
        <time>2015-10-24T15:17:51Z</time>
      </trkpt>
      <trkpt lat="44.11096" lon="3.11572">
        <ele>812</ele>
        <time>2015-10-24T15:17:56Z</time>
      </trkpt>
      <trkpt lat="44.111" lon="3.11568">
        <ele>812</ele>
        <time>2015-10-24T15:17:58Z</time>
      </trkpt>
      <trkpt lat="44.11107" lon="3.11557">
        <ele>813</ele>
        <time>2015-10-24T15:18:05Z</time>
      </trkpt>
      <trkpt lat="44.11116" lon="3.11544">
        <ele>813</ele>
        <time>2015-10-24T15:18:13Z</time>
      </trkpt>
      <trkpt lat="44.11123" lon="3.11534">
        <ele>813</ele>
        <time>2015-10-24T15:18:19Z</time>
      </trkpt>
      <trkpt lat="44.11127" lon="3.11529">
        <ele>813</ele>
        <time>2015-10-24T15:18:23Z</time>
      </trkpt>
      <trkpt lat="44.11137" lon="3.11514">
        <ele>814</ele>
        <time>2015-10-24T15:18:34Z</time>
      </trkpt>
      <trkpt lat="44.11139" lon="3.1151">
        <ele>815</ele>
        <time>2015-10-24T15:18:37Z</time>
      </trkpt>
      <trkpt lat="44.11139" lon="3.11508">
        <ele>815</ele>
        <time>2015-10-24T15:18:46Z</time>
      </trkpt>
      <trkpt lat="44.1114" lon="3.11506">
        <ele>815</ele>
        <time>2015-10-24T15:19:00Z</time>
      </trkpt>
      <trkpt lat="44.11142" lon="3.11504">
        <ele>815</ele>
        <time>2015-10-24T15:19:02Z</time>
      </trkpt>
      <trkpt lat="44.11144" lon="3.11501">
        <ele>815</ele>
        <time>2015-10-24T15:19:05Z</time>
      </trkpt>
      <trkpt lat="44.11151" lon="3.11492">
        <ele>810</ele>
        <time>2015-10-24T15:19:12Z</time>
      </trkpt>
      <trkpt lat="44.11155" lon="3.11485">
        <ele>809</ele>
        <time>2015-10-24T15:19:17Z</time>
      </trkpt>
      <trkpt lat="44.11163" lon="3.11475">
        <ele>808</ele>
        <time>2015-10-24T15:19:24Z</time>
      </trkpt>
      <trkpt lat="44.11174" lon="3.11469">
        <ele>817</ele>
        <time>2015-10-24T15:19:32Z</time>
      </trkpt>
      <trkpt lat="44.11183" lon="3.11464">
        <ele>817</ele>
        <time>2015-10-24T15:19:38Z</time>
      </trkpt>
      <trkpt lat="44.11191" lon="3.1146">
        <ele>817</ele>
        <time>2015-10-24T15:19:44Z</time>
      </trkpt>
      <trkpt lat="44.11196" lon="3.11459">
        <ele>817</ele>
        <time>2015-10-24T15:19:46Z</time>
      </trkpt>
      <trkpt lat="44.11209" lon="3.11454">
        <ele>818</ele>
        <time>2015-10-24T15:19:52Z</time>
      </trkpt>
      <trkpt lat="44.1122" lon="3.11451">
        <ele>818</ele>
        <time>2015-10-24T15:19:57Z</time>
      </trkpt>
      <trkpt lat="44.11228" lon="3.1145">
        <ele>819</ele>
        <time>2015-10-24T15:20:01Z</time>
      </trkpt>
      <trkpt lat="44.11243" lon="3.11447">
        <ele>819</ele>
        <time>2015-10-24T15:20:08Z</time>
      </trkpt>
      <trkpt lat="44.11255" lon="3.11448">
        <ele>824</ele>
        <time>2015-10-24T15:20:14Z</time>
      </trkpt>
      <trkpt lat="44.11262" lon="3.11448">
        <ele>824</ele>
        <time>2015-10-24T15:20:17Z</time>
      </trkpt>
      <trkpt lat="44.11272" lon="3.11447">
        <ele>824</ele>
        <time>2015-10-24T15:20:23Z</time>
      </trkpt>
      <trkpt lat="44.11285" lon="3.11449">
        <ele>825</ele>
        <time>2015-10-24T15:20:31Z</time>
      </trkpt>
      <trkpt lat="44.113" lon="3.11449">
        <ele>825</ele>
        <time>2015-10-24T15:20:39Z</time>
      </trkpt>
      <trkpt lat="44.11309" lon="3.11449">
        <ele>825</ele>
        <time>2015-10-24T15:20:44Z</time>
      </trkpt>
      <trkpt lat="44.11321" lon="3.11445">
        <ele>824</ele>
        <time>2015-10-24T15:20:50Z</time>
      </trkpt>
      <trkpt lat="44.11337" lon="3.11436">
        <ele>824</ele>
        <time>2015-10-24T15:20:56Z</time>
      </trkpt>
      <trkpt lat="44.11348" lon="3.11428">
        <ele>824</ele>
        <time>2015-10-24T15:21:00Z</time>
      </trkpt>
      <trkpt lat="44.11357" lon="3.11411">
        <ele>814</ele>
        <time>2015-10-24T15:21:05Z</time>
      </trkpt>
      <trkpt lat="44.1136" lon="3.11408">
        <ele>814</ele>
        <time>2015-10-24T15:21:06Z</time>
      </trkpt>
      <trkpt lat="44.11373" lon="3.11399">
        <ele>814</ele>
        <time>2015-10-24T15:21:11Z</time>
      </trkpt>
      <trkpt lat="44.11386" lon="3.11393">
        <ele>814</ele>
        <time>2015-10-24T15:21:17Z</time>
      </trkpt>
      <trkpt lat="44.114" lon="3.11381">
        <ele>813</ele>
        <time>2015-10-24T15:21:23Z</time>
      </trkpt>
      <trkpt lat="44.11408" lon="3.11373">
        <ele>812</ele>
        <time>2015-10-24T15:21:27Z</time>
      </trkpt>
      <trkpt lat="44.11421" lon="3.11361">
        <ele>816</ele>
        <time>2015-10-24T15:21:32Z</time>
      </trkpt>
      <trkpt lat="44.11434" lon="3.11358">
        <ele>816</ele>
        <time>2015-10-24T15:21:36Z</time>
      </trkpt>
      <trkpt lat="44.11443" lon="3.11353">
        <ele>816</ele>
        <time>2015-10-24T15:21:40Z</time>
      </trkpt>
      <trkpt lat="44.11454" lon="3.11346">
        <ele>817</ele>
        <time>2015-10-24T15:21:45Z</time>
      </trkpt>
      <trkpt lat="44.11463" lon="3.11341">
        <ele>818</ele>
        <time>2015-10-24T15:21:49Z</time>
      </trkpt>
      <trkpt lat="44.11476" lon="3.11337">
        <ele>818</ele>
        <time>2015-10-24T15:21:54Z</time>
      </trkpt>
      <trkpt lat="44.11487" lon="3.11331">
        <ele>812</ele>
        <time>2015-10-24T15:21:59Z</time>
      </trkpt>
      <trkpt lat="44.11499" lon="3.11321">
        <ele>812</ele>
        <time>2015-10-24T15:22:04Z</time>
      </trkpt>
      <trkpt lat="44.11508" lon="3.1131">
        <ele>814</ele>
        <time>2015-10-24T15:22:08Z</time>
      </trkpt>
      <trkpt lat="44.11515" lon="3.11295">
        <ele>812</ele>
        <time>2015-10-24T15:22:13Z</time>
      </trkpt>
      <trkpt lat="44.11516" lon="3.11292">
        <ele>812</ele>
        <time>2015-10-24T15:22:14Z</time>
      </trkpt>
      <trkpt lat="44.11511" lon="3.11271">
        <ele>809</ele>
        <time>2015-10-24T15:22:20Z</time>
      </trkpt>
      <trkpt lat="44.11508" lon="3.11263">
        <ele>808</ele>
        <time>2015-10-24T15:22:24Z</time>
      </trkpt>
      <trkpt lat="44.115" lon="3.11251">
        <ele>804</ele>
        <time>2015-10-24T15:22:30Z</time>
      </trkpt>
      <trkpt lat="44.11494" lon="3.11243">
        <ele>801</ele>
        <time>2015-10-24T15:22:34Z</time>
      </trkpt>
      <trkpt lat="44.11487" lon="3.11234">
        <ele>798</ele>
        <time>2015-10-24T15:22:39Z</time>
      </trkpt>
      <trkpt lat="44.11484" lon="3.11227">
        <ele>797</ele>
        <time>2015-10-24T15:22:43Z</time>
      </trkpt>
      <trkpt lat="44.11476" lon="3.11218">
        <ele>796</ele>
        <time>2015-10-24T15:22:48Z</time>
      </trkpt>
      <trkpt lat="44.11469" lon="3.11207">
        <ele>795</ele>
        <time>2015-10-24T15:22:53Z</time>
      </trkpt>
      <trkpt lat="44.11461" lon="3.11207">
        <ele>794</ele>
        <time>2015-10-24T15:22:56Z</time>
      </trkpt>
      <trkpt lat="44.1145" lon="3.11211">
        <ele>794</ele>
        <time>2015-10-24T15:23:01Z</time>
      </trkpt>
      <trkpt lat="44.11442" lon="3.11208">
        <ele>793</ele>
        <time>2015-10-24T15:23:05Z</time>
      </trkpt>
      <trkpt lat="44.11436" lon="3.11203">
        <ele>793</ele>
        <time>2015-10-24T15:23:09Z</time>
      </trkpt>
      <trkpt lat="44.11433" lon="3.11201">
        <ele>793</ele>
        <time>2015-10-24T15:23:11Z</time>
      </trkpt>
      <trkpt lat="44.11419" lon="3.11206">
        <ele>792</ele>
        <time>2015-10-24T15:23:17Z</time>
      </trkpt>
      <trkpt lat="44.11409" lon="3.11214">
        <ele>787</ele>
        <time>2015-10-24T15:23:21Z</time>
      </trkpt>
      <trkpt lat="44.11407" lon="3.11215">
        <ele>787</ele>
        <time>2015-10-24T15:23:22Z</time>
      </trkpt>
      <trkpt lat="44.11394" lon="3.11224">
        <ele>786</ele>
        <time>2015-10-24T15:23:28Z</time>
      </trkpt>
      <trkpt lat="44.11381" lon="3.1123">
        <ele>785</ele>
        <time>2015-10-24T15:23:33Z</time>
      </trkpt>
      <trkpt lat="44.11375" lon="3.11233">
        <ele>785</ele>
        <time>2015-10-24T15:23:35Z</time>
      </trkpt>
      <trkpt lat="44.11365" lon="3.11236">
        <ele>784</ele>
        <time>2015-10-24T15:23:39Z</time>
      </trkpt>
      <trkpt lat="44.11357" lon="3.11238">
        <ele>783</ele>
        <time>2015-10-24T15:23:43Z</time>
      </trkpt>
      <trkpt lat="44.11344" lon="3.11239">
        <ele>782</ele>
        <time>2015-10-24T15:23:49Z</time>
      </trkpt>
      <trkpt lat="44.11339" lon="3.11237">
        <ele>782</ele>
        <time>2015-10-24T15:23:51Z</time>
      </trkpt>
      <trkpt lat="44.11322" lon="3.11239">
        <ele>778</ele>
        <time>2015-10-24T15:23:57Z</time>
      </trkpt>
      <trkpt lat="44.11313" lon="3.11234">
        <ele>777</ele>
        <time>2015-10-24T15:24:01Z</time>
      </trkpt>
      <trkpt lat="44.11305" lon="3.11232">
        <ele>776</ele>
        <time>2015-10-24T15:24:05Z</time>
      </trkpt>
      <trkpt lat="44.11297" lon="3.11234">
        <ele>776</ele>
        <time>2015-10-24T15:24:08Z</time>
      </trkpt>
      <trkpt lat="44.1128" lon="3.11234">
        <ele>774</ele>
        <time>2015-10-24T15:24:14Z</time>
      </trkpt>
      <trkpt lat="44.11267" lon="3.11232">
        <ele>774</ele>
        <time>2015-10-24T15:24:19Z</time>
      </trkpt>
      <trkpt lat="44.11265" lon="3.11232">
        <ele>773</ele>
        <time>2015-10-24T15:24:20Z</time>
      </trkpt>
      <trkpt lat="44.11251" lon="3.1123">
        <ele>773</ele>
        <time>2015-10-24T15:24:26Z</time>
      </trkpt>
      <trkpt lat="44.11245" lon="3.11229">
        <ele>765</ele>
        <time>2015-10-24T15:24:29Z</time>
      </trkpt>
      <trkpt lat="44.11235" lon="3.11223">
        <ele>764</ele>
        <time>2015-10-24T15:24:34Z</time>
      </trkpt>
      <trkpt lat="44.11231" lon="3.11215">
        <ele>763</ele>
        <time>2015-10-24T15:24:39Z</time>
      </trkpt>
      <trkpt lat="44.11228" lon="3.11212">
        <ele>763</ele>
        <time>2015-10-24T15:24:42Z</time>
      </trkpt>
      <trkpt lat="44.11227" lon="3.11211">
        <ele>763</ele>
        <time>2015-10-24T15:24:45Z</time>
      </trkpt>
      <trkpt lat="44.11221" lon="3.11209">
        <ele>762</ele>
        <time>2015-10-24T15:24:49Z</time>
      </trkpt>
      <trkpt lat="44.11211" lon="3.11207">
        <ele>761</ele>
        <time>2015-10-24T15:24:54Z</time>
      </trkpt>
      <trkpt lat="44.11205" lon="3.11203">
        <ele>760</ele>
        <time>2015-10-24T15:24:58Z</time>
      </trkpt>
      <trkpt lat="44.11198" lon="3.11198">
        <ele>759</ele>
        <time>2015-10-24T15:25:03Z</time>
      </trkpt>
      <trkpt lat="44.1119" lon="3.11196">
        <ele>758</ele>
        <time>2015-10-24T15:25:08Z</time>
      </trkpt>
      <trkpt lat="44.11183" lon="3.11195">
        <ele>757</ele>
        <time>2015-10-24T15:25:13Z</time>
      </trkpt>
      <trkpt lat="44.11176" lon="3.11194">
        <ele>756</ele>
        <time>2015-10-24T15:25:17Z</time>
      </trkpt>
      <trkpt lat="44.11167" lon="3.11191">
        <ele>755</ele>
        <time>2015-10-24T15:25:22Z</time>
      </trkpt>
      <trkpt lat="44.11159" lon="3.11185">
        <ele>743</ele>
        <time>2015-10-24T15:25:26Z</time>
      </trkpt>
      <trkpt lat="44.11152" lon="3.11182">
        <ele>743</ele>
        <time>2015-10-24T15:25:31Z</time>
      </trkpt>
      <trkpt lat="44.11147" lon="3.11179">
        <ele>742</ele>
        <time>2015-10-24T15:25:34Z</time>
      </trkpt>
      <trkpt lat="44.1114" lon="3.11179">
        <ele>741</ele>
        <time>2015-10-24T15:25:38Z</time>
      </trkpt>
      <trkpt lat="44.11134" lon="3.11177">
        <ele>740</ele>
        <time>2015-10-24T15:25:42Z</time>
      </trkpt>
      <trkpt lat="44.11122" lon="3.11174">
        <ele>738</ele>
        <time>2015-10-24T15:25:49Z</time>
      </trkpt>
      <trkpt lat="44.11113" lon="3.11178">
        <ele>736</ele>
        <time>2015-10-24T15:25:54Z</time>
      </trkpt>
      <trkpt lat="44.11102" lon="3.11182">
        <ele>735</ele>
        <time>2015-10-24T15:25:59Z</time>
      </trkpt>
      <trkpt lat="44.11101" lon="3.11182">
        <ele>734</ele>
        <time>2015-10-24T15:26:00Z</time>
      </trkpt>
      <trkpt lat="44.11093" lon="3.11187">
        <ele>734</ele>
        <time>2015-10-24T15:26:05Z</time>
      </trkpt>
      <trkpt lat="44.11088" lon="3.11189">
        <ele>734</ele>
        <time>2015-10-24T15:26:08Z</time>
      </trkpt>
      <trkpt lat="44.11085" lon="3.11187">
        <ele>733</ele>
        <time>2015-10-24T15:26:10Z</time>
      </trkpt>
      <trkpt lat="44.11079" lon="3.11192">
        <ele>722</ele>
        <time>2015-10-24T15:26:14Z</time>
      </trkpt>
      <trkpt lat="44.11077" lon="3.11194">
        <ele>722</ele>
        <time>2015-10-24T15:26:16Z</time>
      </trkpt>
      <trkpt lat="44.11073" lon="3.11196">
        <ele>721</ele>
        <time>2015-10-24T15:26:19Z</time>
      </trkpt>
      <trkpt lat="44.11066" lon="3.11203">
        <ele>721</ele>
        <time>2015-10-24T15:26:23Z</time>
      </trkpt>
      <trkpt lat="44.11056" lon="3.11212">
        <ele>719</ele>
        <time>2015-10-24T15:26:28Z</time>
      </trkpt>
      <trkpt lat="44.11053" lon="3.11217">
        <ele>719</ele>
        <time>2015-10-24T15:26:30Z</time>
      </trkpt>
      <trkpt lat="44.1104" lon="3.11225">
        <ele>717</ele>
        <time>2015-10-24T15:26:36Z</time>
      </trkpt>
      <trkpt lat="44.11032" lon="3.11236">
        <ele>714</ele>
        <time>2015-10-24T15:26:41Z</time>
      </trkpt>
      <trkpt lat="44.11022" lon="3.11243">
        <ele>711</ele>
        <time>2015-10-24T15:26:46Z</time>
      </trkpt>
      <trkpt lat="44.11016" lon="3.11246">
        <ele>709</ele>
        <time>2015-10-24T15:26:50Z</time>
      </trkpt>
      <trkpt lat="44.11009" lon="3.11248">
        <ele>706</ele>
        <time>2015-10-24T15:26:53Z</time>
      </trkpt>
      <trkpt lat="44.10998" lon="3.11255">
        <ele>698</ele>
        <time>2015-10-24T15:26:59Z</time>
      </trkpt>
      <trkpt lat="44.1099" lon="3.11261">
        <ele>695</ele>
        <time>2015-10-24T15:27:04Z</time>
      </trkpt>
      <trkpt lat="44.10983" lon="3.11265">
        <ele>694</ele>
        <time>2015-10-24T15:27:09Z</time>
      </trkpt>
      <trkpt lat="44.10975" lon="3.11269">
        <ele>692</ele>
        <time>2015-10-24T15:27:14Z</time>
      </trkpt>
      <trkpt lat="44.10969" lon="3.1127">
        <ele>691</ele>
        <time>2015-10-24T15:27:18Z</time>
      </trkpt>
      <trkpt lat="44.1096" lon="3.11272">
        <ele>689</ele>
        <time>2015-10-24T15:27:23Z</time>
      </trkpt>
      <trkpt lat="44.1095" lon="3.11281">
        <ele>687</ele>
        <time>2015-10-24T15:27:29Z</time>
      </trkpt>
      <trkpt lat="44.10946" lon="3.11286">
        <ele>687</ele>
        <time>2015-10-24T15:27:33Z</time>
      </trkpt>
      <trkpt lat="44.1094" lon="3.1129">
        <ele>687</ele>
        <time>2015-10-24T15:27:38Z</time>
      </trkpt>
      <trkpt lat="44.10938" lon="3.11296">
        <ele>687</ele>
        <time>2015-10-24T15:27:44Z</time>
      </trkpt>
      <trkpt lat="44.10933" lon="3.11297">
        <ele>687</ele>
        <time>2015-10-24T15:27:49Z</time>
      </trkpt>
      <trkpt lat="44.10933" lon="3.113">
        <ele>687</ele>
        <time>2015-10-24T15:27:52Z</time>
      </trkpt>
      <trkpt lat="44.10931" lon="3.11303">
        <ele>687</ele>
        <time>2015-10-24T15:27:56Z</time>
      </trkpt>
      <trkpt lat="44.10929" lon="3.11302">
        <ele>687</ele>
        <time>2015-10-24T15:28:02Z</time>
      </trkpt>
      <trkpt lat="44.10926" lon="3.11304">
        <ele>687</ele>
        <time>2015-10-24T15:28:06Z</time>
      </trkpt>
      <trkpt lat="44.10924" lon="3.11299">
        <ele>686</ele>
        <time>2015-10-24T15:28:11Z</time>
      </trkpt>
      <trkpt lat="44.10925" lon="3.11299">
        <ele>686</ele>
        <time>2015-10-24T15:28:15Z</time>
      </trkpt>
      <trkpt lat="44.10923" lon="3.11297">
        <ele>685</ele>
        <time>2015-10-24T15:28:19Z</time>
      </trkpt>
      <trkpt lat="44.10919" lon="3.11297">
        <ele>685</ele>
        <time>2015-10-24T15:28:23Z</time>
      </trkpt>
      <trkpt lat="44.10916" lon="3.11296">
        <ele>663</ele>
        <time>2015-10-24T15:28:29Z</time>
      </trkpt>
      <trkpt lat="44.1091" lon="3.11294">
        <ele>662</ele>
        <time>2015-10-24T15:28:39Z</time>
      </trkpt>
      <trkpt lat="44.10905" lon="3.11289">
        <ele>660</ele>
        <time>2015-10-24T15:28:50Z</time>
      </trkpt>
      <trkpt lat="44.10901" lon="3.11285">
        <ele>659</ele>
        <time>2015-10-24T15:28:54Z</time>
      </trkpt>
      <trkpt lat="44.10898" lon="3.11275">
        <ele>657</ele>
        <time>2015-10-24T15:28:59Z</time>
      </trkpt>
      <trkpt lat="44.10893" lon="3.11267">
        <ele>656</ele>
        <time>2015-10-24T15:29:05Z</time>
      </trkpt>
      <trkpt lat="44.1089" lon="3.11269">
        <ele>655</ele>
        <time>2015-10-24T15:29:11Z</time>
      </trkpt>
      <trkpt lat="44.10889" lon="3.11272">
        <ele>655</ele>
        <time>2015-10-24T15:29:15Z</time>
      </trkpt>
      <trkpt lat="44.10885" lon="3.11271">
        <ele>654</ele>
        <time>2015-10-24T15:29:22Z</time>
      </trkpt>
      <trkpt lat="44.1088" lon="3.11266">
        <ele>652</ele>
        <time>2015-10-24T15:29:27Z</time>
      </trkpt>
      <trkpt lat="44.10868" lon="3.11257">
        <ele>647</ele>
        <time>2015-10-24T15:29:33Z</time>
      </trkpt>
      <trkpt lat="44.10867" lon="3.11254">
        <ele>646</ele>
        <time>2015-10-24T15:29:34Z</time>
      </trkpt>
      <trkpt lat="44.10863" lon="3.11248">
        <ele>639</ele>
        <time>2015-10-24T15:29:39Z</time>
      </trkpt>
      <trkpt lat="44.10862" lon="3.11248">
        <ele>639</ele>
        <time>2015-10-24T15:29:40Z</time>
      </trkpt>
      <trkpt lat="44.10861" lon="3.11247">
        <ele>638</ele>
        <time>2015-10-24T15:29:42Z</time>
      </trkpt>
      <trkpt lat="44.10857" lon="3.11247">
        <ele>636</ele>
        <time>2015-10-24T15:29:46Z</time>
      </trkpt>
      <trkpt lat="44.10852" lon="3.11247">
        <ele>634</ele>
        <time>2015-10-24T15:29:51Z</time>
      </trkpt>
      <trkpt lat="44.10849" lon="3.1125">
        <ele>631</ele>
        <time>2015-10-24T15:29:55Z</time>
      </trkpt>
      <trkpt lat="44.10841" lon="3.11249">
        <ele>626</ele>
        <time>2015-10-24T15:30:00Z</time>
      </trkpt>
      <trkpt lat="44.10838" lon="3.11247">
        <ele>624</ele>
        <time>2015-10-24T15:30:02Z</time>
      </trkpt>
      <trkpt lat="44.10831" lon="3.11238">
        <ele>614</ele>
        <time>2015-10-24T15:30:08Z</time>
      </trkpt>
      <trkpt lat="44.10828" lon="3.11236">
        <ele>613</ele>
        <time>2015-10-24T15:30:10Z</time>
      </trkpt>
      <trkpt lat="44.10821" lon="3.11233">
        <ele>612</ele>
        <time>2015-10-24T15:30:15Z</time>
      </trkpt>
      <trkpt lat="44.10817" lon="3.11232">
        <ele>611</ele>
        <time>2015-10-24T15:30:18Z</time>
      </trkpt>
      <trkpt lat="44.10811" lon="3.11237">
        <ele>610</ele>
        <time>2015-10-24T15:30:23Z</time>
      </trkpt>
      <trkpt lat="44.10809" lon="3.1124">
        <ele>610</ele>
        <time>2015-10-24T15:30:26Z</time>
      </trkpt>
      <trkpt lat="44.10798" lon="3.11243">
        <ele>606</ele>
        <time>2015-10-24T15:30:31Z</time>
      </trkpt>
      <trkpt lat="44.10789" lon="3.11242">
        <ele>604</ele>
        <time>2015-10-24T15:30:36Z</time>
      </trkpt>
      <trkpt lat="44.10784" lon="3.1124">
        <ele>602</ele>
        <time>2015-10-24T15:30:39Z</time>
      </trkpt>
      <trkpt lat="44.10779" lon="3.11238">
        <ele>601</ele>
        <time>2015-10-24T15:30:44Z</time>
      </trkpt>
      <trkpt lat="44.10774" lon="3.11236">
        <ele>600</ele>
        <time>2015-10-24T15:30:48Z</time>
      </trkpt>
      <trkpt lat="44.10767" lon="3.11234">
        <ele>598</ele>
        <time>2015-10-24T15:30:53Z</time>
      </trkpt>
      <trkpt lat="44.10763" lon="3.11235">
        <ele>596</ele>
        <time>2015-10-24T15:30:56Z</time>
      </trkpt>
      <trkpt lat="44.10761" lon="3.11238">
        <ele>595</ele>
        <time>2015-10-24T15:30:59Z</time>
      </trkpt>
      <trkpt lat="44.10757" lon="3.11238">
        <ele>593</ele>
        <time>2015-10-24T15:31:04Z</time>
      </trkpt>
      <trkpt lat="44.10755" lon="3.11239">
        <ele>593</ele>
        <time>2015-10-24T15:31:06Z</time>
      </trkpt>
      <trkpt lat="44.10751" lon="3.11237">
        <ele>593</ele>
        <time>2015-10-24T15:31:10Z</time>
      </trkpt>
      <trkpt lat="44.1075" lon="3.11238">
        <ele>592</ele>
        <time>2015-10-24T15:31:11Z</time>
      </trkpt>
      <trkpt lat="44.10747" lon="3.11236">
        <ele>580</ele>
        <time>2015-10-24T15:31:15Z</time>
      </trkpt>
      <trkpt lat="44.10741" lon="3.1124">
        <ele>580</ele>
        <time>2015-10-24T15:31:19Z</time>
      </trkpt>
      <trkpt lat="44.10734" lon="3.1124">
        <ele>578</ele>
        <time>2015-10-24T15:31:24Z</time>
      </trkpt>
      <trkpt lat="44.10725" lon="3.11243">
        <ele>576</ele>
        <time>2015-10-24T15:31:29Z</time>
      </trkpt>
      <trkpt lat="44.10723" lon="3.11244">
        <ele>576</ele>
        <time>2015-10-24T15:31:32Z</time>
      </trkpt>
      <trkpt lat="44.10722" lon="3.11242">
        <ele>576</ele>
        <time>2015-10-24T15:31:34Z</time>
      </trkpt>
      <trkpt lat="44.10717" lon="3.11239">
        <ele>574</ele>
        <time>2015-10-24T15:31:38Z</time>
      </trkpt>
      <trkpt lat="44.10712" lon="3.11238">
        <ele>573</ele>
        <time>2015-10-24T15:31:43Z</time>
      </trkpt>
      <trkpt lat="44.10711" lon="3.11237">
        <ele>573</ele>
        <time>2015-10-24T15:31:46Z</time>
      </trkpt>
      <trkpt lat="44.10708" lon="3.11238">
        <ele>572</ele>
        <time>2015-10-24T15:31:51Z</time>
      </trkpt>
      <trkpt lat="44.10708" lon="3.11234">
        <ele>572</ele>
        <time>2015-10-24T15:31:56Z</time>
      </trkpt>
      <trkpt lat="44.10706" lon="3.11231">
        <ele>572</ele>
        <time>2015-10-24T15:32:00Z</time>
      </trkpt>
      <trkpt lat="44.10702" lon="3.11232">
        <ele>571</ele>
        <time>2015-10-24T15:32:05Z</time>
      </trkpt>
      <trkpt lat="44.107" lon="3.11236">
        <ele>570</ele>
        <time>2015-10-24T15:32:09Z</time>
      </trkpt>
      <trkpt lat="44.10696" lon="3.11237">
        <ele>569</ele>
        <time>2015-10-24T15:32:14Z</time>
      </trkpt>
      <trkpt lat="44.10692" lon="3.1124">
        <ele>567</ele>
        <time>2015-10-24T15:32:19Z</time>
      </trkpt>
      <trkpt lat="44.10689" lon="3.11241">
        <ele>566</ele>
        <time>2015-10-24T15:32:22Z</time>
      </trkpt>
      <trkpt lat="44.10685" lon="3.11243">
        <ele>563</ele>
        <time>2015-10-24T15:32:27Z</time>
      </trkpt>
      <trkpt lat="44.10685" lon="3.11247">
        <ele>562</ele>
        <time>2015-10-24T15:32:29Z</time>
      </trkpt>
      <trkpt lat="44.1068" lon="3.11251">
        <ele>561</ele>
        <time>2015-10-24T15:32:33Z</time>
      </trkpt>
      <trkpt lat="44.10675" lon="3.11251">
        <ele>557</ele>
        <time>2015-10-24T15:32:38Z</time>
      </trkpt>
      <trkpt lat="44.10673" lon="3.11249">
        <ele>555</ele>
        <time>2015-10-24T15:32:41Z</time>
      </trkpt>
      <trkpt lat="44.10666" lon="3.11249">
        <ele>549</ele>
        <time>2015-10-24T15:32:46Z</time>
      </trkpt>
      <trkpt lat="44.10665" lon="3.1125">
        <ele>549</ele>
        <time>2015-10-24T15:32:47Z</time>
      </trkpt>
      <trkpt lat="44.1066" lon="3.11253">
        <ele>548</ele>
        <time>2015-10-24T15:32:53Z</time>
      </trkpt>
      <trkpt lat="44.10652" lon="3.11253">
        <ele>547</ele>
        <time>2015-10-24T15:32:59Z</time>
      </trkpt>
      <trkpt lat="44.10647" lon="3.11249">
        <ele>544</ele>
        <time>2015-10-24T15:33:04Z</time>
      </trkpt>
      <trkpt lat="44.10648" lon="3.11247">
        <ele>544</ele>
        <time>2015-10-24T15:33:05Z</time>
      </trkpt>
      <trkpt lat="44.10649" lon="3.11245">
        <ele>545</ele>
        <time>2015-10-24T15:33:07Z</time>
      </trkpt>
      <trkpt lat="44.1065" lon="3.1124">
        <ele>545</ele>
        <time>2015-10-24T15:33:11Z</time>
      </trkpt>
      <trkpt lat="44.1065" lon="3.11234">
        <ele>545</ele>
        <time>2015-10-24T15:33:17Z</time>
      </trkpt>
      <trkpt lat="44.10648" lon="3.11228">
        <ele>545</ele>
        <time>2015-10-24T15:33:24Z</time>
      </trkpt>
      <trkpt lat="44.10643" lon="3.11221">
        <ele>544</ele>
        <time>2015-10-24T15:33:32Z</time>
      </trkpt>
      <trkpt lat="44.10642" lon="3.11219">
        <ele>544</ele>
        <time>2015-10-24T15:33:37Z</time>
      </trkpt>
      <trkpt lat="44.1064" lon="3.11215">
        <ele>544</ele>
        <time>2015-10-24T15:33:41Z</time>
      </trkpt>
      <trkpt lat="44.10638" lon="3.11212">
        <ele>544</ele>
        <time>2015-10-24T15:33:45Z</time>
      </trkpt>
      <trkpt lat="44.10634" lon="3.11206">
        <ele>544</ele>
        <time>2015-10-24T15:33:53Z</time>
      </trkpt>
      <trkpt lat="44.10635" lon="3.11202">
        <ele>545</ele>
        <time>2015-10-24T15:34:00Z</time>
      </trkpt>
      <trkpt lat="44.10633" lon="3.11197">
        <ele>545</ele>
        <time>2015-10-24T15:34:06Z</time>
      </trkpt>
      <trkpt lat="44.10631" lon="3.11192">
        <ele>545</ele>
        <time>2015-10-24T15:34:13Z</time>
      </trkpt>
      <trkpt lat="44.10627" lon="3.11186">
        <ele>544</ele>
        <time>2015-10-24T15:34:19Z</time>
      </trkpt>
      <trkpt lat="44.10623" lon="3.11179">
        <ele>544</ele>
        <time>2015-10-24T15:34:26Z</time>
      </trkpt>
      <trkpt lat="44.1062" lon="3.11176">
        <ele>543</ele>
        <time>2015-10-24T15:34:31Z</time>
      </trkpt>
      <trkpt lat="44.10617" lon="3.1117">
        <ele>542</ele>
        <time>2015-10-24T15:34:38Z</time>
      </trkpt>
      <trkpt lat="44.10614" lon="3.11163">
        <ele>553</ele>
        <time>2015-10-24T15:34:45Z</time>
      </trkpt>
      <trkpt lat="44.10611" lon="3.1116">
        <ele>551</ele>
        <time>2015-10-24T15:34:48Z</time>
      </trkpt>
      <trkpt lat="44.10604" lon="3.11151">
        <ele>550</ele>
        <time>2015-10-24T15:34:55Z</time>
      </trkpt>
      <trkpt lat="44.10603" lon="3.1115">
        <ele>550</ele>
        <time>2015-10-24T15:34:56Z</time>
      </trkpt>
      <trkpt lat="44.10598" lon="3.11142">
        <ele>550</ele>
        <time>2015-10-24T15:35:01Z</time>
      </trkpt>
      <trkpt lat="44.10592" lon="3.11137">
        <ele>550</ele>
        <time>2015-10-24T15:35:05Z</time>
      </trkpt>
      <trkpt lat="44.10584" lon="3.11131">
        <ele>551</ele>
        <time>2015-10-24T15:35:11Z</time>
      </trkpt>
      <trkpt lat="44.10581" lon="3.11119">
        <ele>519</ele>
        <time>2015-10-24T15:35:19Z</time>
      </trkpt>
      <trkpt lat="44.10584" lon="3.11111">
        <ele>552</ele>
        <time>2015-10-24T15:35:27Z</time>
      </trkpt>
      <trkpt lat="44.10585" lon="3.11105">
        <ele>552</ele>
        <time>2015-10-24T15:35:35Z</time>
      </trkpt>
      <trkpt lat="44.10586" lon="3.11105">
        <ele>552</ele>
        <time>2015-10-24T15:35:44Z</time>
      </trkpt>
      <trkpt lat="44.10588" lon="3.11102">
        <ele>551</ele>
        <time>2015-10-24T15:35:49Z</time>
      </trkpt>
      <trkpt lat="44.1059" lon="3.11092">
        <ele>549</ele>
        <time>2015-10-24T15:35:56Z</time>
      </trkpt>
      <trkpt lat="44.10594" lon="3.11085">
        <ele>549</ele>
        <time>2015-10-24T15:36:03Z</time>
      </trkpt>
      <trkpt lat="44.10596" lon="3.11072">
        <ele>557</ele>
        <time>2015-10-24T15:36:12Z</time>
      </trkpt>
      <trkpt lat="44.10597" lon="3.11062">
        <ele>561</ele>
        <time>2015-10-24T15:36:18Z</time>
      </trkpt>
      <trkpt lat="44.10599" lon="3.11052">
        <ele>563</ele>
        <time>2015-10-24T15:36:25Z</time>
      </trkpt>
      <trkpt lat="44.106" lon="3.1105">
        <ele>564</ele>
        <time>2015-10-24T15:36:27Z</time>
      </trkpt>
      <trkpt lat="44.10605" lon="3.11045">
        <ele>565</ele>
        <time>2015-10-24T15:36:35Z</time>
      </trkpt>
      <trkpt lat="44.10607" lon="3.11041">
        <ele>566</ele>
        <time>2015-10-24T15:36:38Z</time>
      </trkpt>
      <trkpt lat="44.10611" lon="3.11031">
        <ele>567</ele>
        <time>2015-10-24T15:36:44Z</time>
      </trkpt>
      <trkpt lat="44.1061" lon="3.11019">
        <ele>564</ele>
        <time>2015-10-24T15:36:51Z</time>
      </trkpt>
      <trkpt lat="44.10608" lon="3.11011">
        <ele>562</ele>
        <time>2015-10-24T15:36:55Z</time>
      </trkpt>
      <trkpt lat="44.1061" lon="3.11006">
        <ele>563</ele>
        <time>2015-10-24T15:37:01Z</time>
      </trkpt>
      <trkpt lat="44.10614" lon="3.10995">
        <ele>566</ele>
        <time>2015-10-24T15:37:08Z</time>
      </trkpt>
      <trkpt lat="44.10612" lon="3.10984">
        <ele>566</ele>
        <time>2015-10-24T15:37:16Z</time>
      </trkpt>
      <trkpt lat="44.10612" lon="3.10981">
        <ele>566</ele>
        <time>2015-10-24T15:37:18Z</time>
      </trkpt>
      <trkpt lat="44.10613" lon="3.10968">
        <ele>568</ele>
        <time>2015-10-24T15:37:26Z</time>
      </trkpt>
      <trkpt lat="44.10615" lon="3.10958">
        <ele>570</ele>
        <time>2015-10-24T15:37:32Z</time>
      </trkpt>
      <trkpt lat="44.10612" lon="3.10944">
        <ele>567</ele>
        <time>2015-10-24T15:37:40Z</time>
      </trkpt>
      <trkpt lat="44.10612" lon="3.1093">
        <ele>566</ele>
        <time>2015-10-24T15:37:48Z</time>
      </trkpt>
      <trkpt lat="44.10616" lon="3.10918">
        <ele>568</ele>
        <time>2015-10-24T15:37:56Z</time>
      </trkpt>
      <trkpt lat="44.10619" lon="3.1091">
        <ele>565</ele>
        <time>2015-10-24T15:38:01Z</time>
      </trkpt>
      <trkpt lat="44.1062" lon="3.10901">
        <ele>565</ele>
        <time>2015-10-24T15:38:07Z</time>
      </trkpt>
      <trkpt lat="44.10622" lon="3.10894">
        <ele>566</ele>
        <time>2015-10-24T15:38:12Z</time>
      </trkpt>
      <trkpt lat="44.10631" lon="3.10884">
        <ele>570</ele>
        <time>2015-10-24T15:38:21Z</time>
      </trkpt>
      <trkpt lat="44.10635" lon="3.10877">
        <ele>571</ele>
        <time>2015-10-24T15:38:27Z</time>
      </trkpt>
      <trkpt lat="44.10636" lon="3.10876">
        <ele>571</ele>
        <time>2015-10-24T15:38:28Z</time>
      </trkpt>
      <trkpt lat="44.10636" lon="3.10874">
        <ele>571</ele>
        <time>2015-10-24T15:38:30Z</time>
      </trkpt>
      <trkpt lat="44.10636" lon="3.1087">
        <ele>570</ele>
        <time>2015-10-24T15:38:36Z</time>
      </trkpt>
      <trkpt lat="44.10638" lon="3.10864">
        <ele>571</ele>
        <time>2015-10-24T15:38:43Z</time>
      </trkpt>
      <trkpt lat="44.10639" lon="3.1086">
        <ele>571</ele>
        <time>2015-10-24T15:38:49Z</time>
      </trkpt>
      <trkpt lat="44.10641" lon="3.10856">
        <ele>572</ele>
        <time>2015-10-24T15:38:56Z</time>
      </trkpt>
      <trkpt lat="44.10641" lon="3.10852">
        <ele>572</ele>
        <time>2015-10-24T15:39:01Z</time>
      </trkpt>
      <trkpt lat="44.10642" lon="3.10844">
        <ele>573</ele>
        <time>2015-10-24T15:39:07Z</time>
      </trkpt>
      <trkpt lat="44.10649" lon="3.10834">
        <ele>578</ele>
        <time>2015-10-24T15:39:15Z</time>
      </trkpt>
      <trkpt lat="44.10654" lon="3.10829">
        <ele>574</ele>
        <time>2015-10-24T15:39:21Z</time>
      </trkpt>
      <trkpt lat="44.10655" lon="3.10827">
        <ele>575</ele>
        <time>2015-10-24T15:39:22Z</time>
      </trkpt>
      <trkpt lat="44.10657" lon="3.1082">
        <ele>572</ele>
        <time>2015-10-24T15:39:29Z</time>
      </trkpt>
      <trkpt lat="44.1066" lon="3.10815">
        <ele>570</ele>
        <time>2015-10-24T15:39:35Z</time>
      </trkpt>
      <trkpt lat="44.10661" lon="3.10808">
        <ele>567</ele>
        <time>2015-10-24T15:39:41Z</time>
      </trkpt>
      <trkpt lat="44.10663" lon="3.10799">
        <ele>565</ele>
        <time>2015-10-24T15:39:47Z</time>
      </trkpt>
      <trkpt lat="44.10665" lon="3.10786">
        <ele>563</ele>
        <time>2015-10-24T15:39:55Z</time>
      </trkpt>
      <trkpt lat="44.10671" lon="3.10772">
        <ele>605</ele>
        <time>2015-10-24T15:40:02Z</time>
      </trkpt>
      <trkpt lat="44.10674" lon="3.10769">
        <ele>604</ele>
        <time>2015-10-24T15:40:06Z</time>
      </trkpt>
      <trkpt lat="44.10675" lon="3.10762">
        <ele>600</ele>
        <time>2015-10-24T15:40:10Z</time>
      </trkpt>
      <trkpt lat="44.10678" lon="3.10754">
        <ele>597</ele>
        <time>2015-10-24T15:40:16Z</time>
      </trkpt>
      <trkpt lat="44.1068" lon="3.10745">
        <ele>593</ele>
        <time>2015-10-24T15:40:21Z</time>
      </trkpt>
      <trkpt lat="44.10683" lon="3.10729">
        <ele>599</ele>
        <time>2015-10-24T15:40:30Z</time>
      </trkpt>
      <trkpt lat="44.10684" lon="3.10723">
        <ele>600</ele>
        <time>2015-10-24T15:40:34Z</time>
      </trkpt>
      <trkpt lat="44.10682" lon="3.10712">
        <ele>599</ele>
        <time>2015-10-24T15:40:41Z</time>
      </trkpt>
      <trkpt lat="44.10679" lon="3.10705">
        <ele>598</ele>
        <time>2015-10-24T15:40:45Z</time>
      </trkpt>
      <trkpt lat="44.10676" lon="3.10695">
        <ele>594</ele>
        <time>2015-10-24T15:40:51Z</time>
      </trkpt>
      <trkpt lat="44.10677" lon="3.10685">
        <ele>590</ele>
        <time>2015-10-24T15:40:58Z</time>
      </trkpt>
      <trkpt lat="44.1068" lon="3.10672">
        <ele>585</ele>
        <time>2015-10-24T15:41:06Z</time>
      </trkpt>
      <trkpt lat="44.10687" lon="3.10663">
        <ele>585</ele>
        <time>2015-10-24T15:41:13Z</time>
      </trkpt>
      <trkpt lat="44.10693" lon="3.10655">
        <ele>590</ele>
        <time>2015-10-24T15:41:19Z</time>
      </trkpt>
      <trkpt lat="44.10697" lon="3.10645">
        <ele>593</ele>
        <time>2015-10-24T15:41:25Z</time>
      </trkpt>
      <trkpt lat="44.10697" lon="3.10637">
        <ele>593</ele>
        <time>2015-10-24T15:41:30Z</time>
      </trkpt>
      <trkpt lat="44.10691" lon="3.10624">
        <ele>590</ele>
        <time>2015-10-24T15:41:37Z</time>
      </trkpt>
      <trkpt lat="44.10688" lon="3.10611">
        <ele>587</ele>
        <time>2015-10-24T15:41:43Z</time>
      </trkpt>
      <trkpt lat="44.10688" lon="3.10603">
        <ele>584</ele>
        <time>2015-10-24T15:41:46Z</time>
      </trkpt>
      <trkpt lat="44.10693" lon="3.10585">
        <ele>584</ele>
        <time>2015-10-24T15:41:52Z</time>
      </trkpt>
      <trkpt lat="44.10694" lon="3.10576">
        <ele>583</ele>
        <time>2015-10-24T15:41:55Z</time>
      </trkpt>
      <trkpt lat="44.10696" lon="3.1056">
        <ele>586</ele>
        <time>2015-10-24T15:42:00Z</time>
      </trkpt>
      <trkpt lat="44.10695" lon="3.10545">
        <ele>587</ele>
        <time>2015-10-24T15:42:05Z</time>
      </trkpt>
      <trkpt lat="44.10694" lon="3.10542">
        <ele>587</ele>
        <time>2015-10-24T15:42:06Z</time>
      </trkpt>
      <trkpt lat="44.10695" lon="3.10533">
        <ele>587</ele>
        <time>2015-10-24T15:42:09Z</time>
      </trkpt>
      <trkpt lat="44.10693" lon="3.10522">
        <ele>585</ele>
        <time>2015-10-24T15:42:13Z</time>
      </trkpt>
      <trkpt lat="44.10689" lon="3.1051">
        <ele>581</ele>
        <time>2015-10-24T15:42:17Z</time>
      </trkpt>
      <trkpt lat="44.10686" lon="3.10497">
        <ele>579</ele>
        <time>2015-10-24T15:42:21Z</time>
      </trkpt>
      <trkpt lat="44.10685" lon="3.10488">
        <ele>581</ele>
        <time>2015-10-24T15:42:25Z</time>
      </trkpt>
      <trkpt lat="44.10683" lon="3.10477">
        <ele>583</ele>
        <time>2015-10-24T15:42:30Z</time>
      </trkpt>
      <trkpt lat="44.10682" lon="3.10475">
        <ele>584</ele>
        <time>2015-10-24T15:42:31Z</time>
      </trkpt>
      <trkpt lat="44.10681" lon="3.10465">
        <ele>586</ele>
        <time>2015-10-24T15:42:36Z</time>
      </trkpt>
      <trkpt lat="44.10679" lon="3.10456">
        <ele>586</ele>
        <time>2015-10-24T15:42:40Z</time>
      </trkpt>
      <trkpt lat="44.10677" lon="3.10447">
        <ele>586</ele>
        <time>2015-10-24T15:42:44Z</time>
      </trkpt>
      <trkpt lat="44.10674" lon="3.10439">
        <ele>583</ele>
        <time>2015-10-24T15:42:48Z</time>
      </trkpt>
      <trkpt lat="44.10674" lon="3.1043">
        <ele>581</ele>
        <time>2015-10-24T15:42:51Z</time>
      </trkpt>
      <trkpt lat="44.10677" lon="3.10425">
        <ele>580</ele>
        <time>2015-10-24T15:42:56Z</time>
      </trkpt>
      <trkpt lat="44.10679" lon="3.10421">
        <ele>580</ele>
        <time>2015-10-24T15:43:01Z</time>
      </trkpt>
      <trkpt lat="44.10682" lon="3.10415">
        <ele>583</ele>
        <time>2015-10-24T15:43:08Z</time>
      </trkpt>
      <trkpt lat="44.10684" lon="3.10408">
        <ele>586</ele>
        <time>2015-10-24T15:43:14Z</time>
      </trkpt>
      <trkpt lat="44.10686" lon="3.10402">
        <ele>589</ele>
        <time>2015-10-24T15:43:21Z</time>
      </trkpt>
      <trkpt lat="44.10688" lon="3.10395">
        <ele>591</ele>
        <time>2015-10-24T15:43:29Z</time>
      </trkpt>
      <trkpt lat="44.10691" lon="3.1039">
        <ele>593</ele>
        <time>2015-10-24T15:43:37Z</time>
      </trkpt>
      <trkpt lat="44.10692" lon="3.10383">
        <ele>594</ele>
        <time>2015-10-24T15:43:43Z</time>
      </trkpt>
      <trkpt lat="44.10694" lon="3.10373">
        <ele>595</ele>
        <time>2015-10-24T15:43:50Z</time>
      </trkpt>
      <trkpt lat="44.10696" lon="3.10362">
        <ele>595</ele>
        <time>2015-10-24T15:43:58Z</time>
      </trkpt>
      <trkpt lat="44.10698" lon="3.10353">
        <ele>595</ele>
        <time>2015-10-24T15:44:07Z</time>
      </trkpt>
      <trkpt lat="44.10699" lon="3.10347">
        <ele>595</ele>
        <time>2015-10-24T15:44:14Z</time>
      </trkpt>
      <trkpt lat="44.107" lon="3.10339">
        <ele>595</ele>
        <time>2015-10-24T15:44:21Z</time>
      </trkpt>
      <trkpt lat="44.10701" lon="3.10331">
        <ele>596</ele>
        <time>2015-10-24T15:44:28Z</time>
      </trkpt>
      <trkpt lat="44.10703" lon="3.10324">
        <ele>597</ele>
        <time>2015-10-24T15:44:35Z</time>
      </trkpt>
      <trkpt lat="44.10705" lon="3.10318">
        <ele>599</ele>
        <time>2015-10-24T15:44:42Z</time>
      </trkpt>
      <trkpt lat="44.10706" lon="3.10315">
        <ele>599</ele>
        <time>2015-10-24T15:44:48Z</time>
      </trkpt>
      <trkpt lat="44.10705" lon="3.10309">
        <ele>599</ele>
        <time>2015-10-24T15:44:54Z</time>
      </trkpt>
      <trkpt lat="44.10707" lon="3.10301">
        <ele>600</ele>
        <time>2015-10-24T15:45:00Z</time>
      </trkpt>
      <trkpt lat="44.10707" lon="3.10299">
        <ele>600</ele>
        <time>2015-10-24T15:45:05Z</time>
      </trkpt>
      <trkpt lat="44.10708" lon="3.10297">
        <ele>600</ele>
        <time>2015-10-24T15:45:14Z</time>
      </trkpt>
      <trkpt lat="44.10708" lon="3.1029">
        <ele>600</ele>
        <time>2015-10-24T15:45:19Z</time>
      </trkpt>
      <trkpt lat="44.10708" lon="3.10287">
        <ele>600</ele>
        <time>2015-10-24T15:45:21Z</time>
      </trkpt>
      <trkpt lat="44.10709" lon="3.10277">
        <ele>601</ele>
        <time>2015-10-24T15:45:27Z</time>
      </trkpt>
      <trkpt lat="44.1071" lon="3.1027">
        <ele>601</ele>
        <time>2015-10-24T15:45:33Z</time>
      </trkpt>
      <trkpt lat="44.10712" lon="3.10263">
        <ele>602</ele>
        <time>2015-10-24T15:45:42Z</time>
      </trkpt>
      <trkpt lat="44.10714" lon="3.10256">
        <ele>603</ele>
        <time>2015-10-24T15:45:49Z</time>
      </trkpt>
      <trkpt lat="44.10715" lon="3.1025">
        <ele>602</ele>
        <time>2015-10-24T15:45:55Z</time>
      </trkpt>
      <trkpt lat="44.10717" lon="3.10248">
        <ele>603</ele>
        <time>2015-10-24T15:46:00Z</time>
      </trkpt>
      <trkpt lat="44.1072" lon="3.10245">
        <ele>605</ele>
        <time>2015-10-24T15:46:07Z</time>
      </trkpt>
      <trkpt lat="44.10723" lon="3.10239">
        <ele>606</ele>
        <time>2015-10-24T15:46:15Z</time>
      </trkpt>
      <trkpt lat="44.10725" lon="3.10231">
        <ele>606</ele>
        <time>2015-10-24T15:46:23Z</time>
      </trkpt>
      <trkpt lat="44.10726" lon="3.10228">
        <ele>606</ele>
        <time>2015-10-24T15:46:29Z</time>
      </trkpt>
      <trkpt lat="44.10728" lon="3.1022">
        <ele>605</ele>
        <time>2015-10-24T15:46:36Z</time>
      </trkpt>
      <trkpt lat="44.10731" lon="3.10216">
        <ele>605</ele>
        <time>2015-10-24T15:46:43Z</time>
      </trkpt>
      <trkpt lat="44.10733" lon="3.10208">
        <ele>605</ele>
        <time>2015-10-24T15:46:50Z</time>
      </trkpt>
      <trkpt lat="44.10734" lon="3.10206">
        <ele>606</ele>
        <time>2015-10-24T15:46:55Z</time>
      </trkpt>
      <trkpt lat="44.10737" lon="3.10196">
        <ele>607</ele>
        <time>2015-10-24T15:47:02Z</time>
      </trkpt>
      <trkpt lat="44.1074" lon="3.10189">
        <ele>610</ele>
        <time>2015-10-24T15:47:11Z</time>
      </trkpt>
      <trkpt lat="44.10741" lon="3.10187">
        <ele>610</ele>
        <time>2015-10-24T15:47:18Z</time>
      </trkpt>
      <trkpt lat="44.10741" lon="3.10186">
        <ele>611</ele>
        <time>2015-10-24T15:47:22Z</time>
      </trkpt>
      <trkpt lat="44.10743" lon="3.10182">
        <ele>613</ele>
        <time>2015-10-24T15:47:28Z</time>
      </trkpt>
      <trkpt lat="44.10746" lon="3.10177">
        <ele>616</ele>
        <time>2015-10-24T15:47:35Z</time>
      </trkpt>
      <trkpt lat="44.10749" lon="3.10173">
        <ele>621</ele>
        <time>2015-10-24T15:47:42Z</time>
      </trkpt>
      <trkpt lat="44.10751" lon="3.10166">
        <ele>629</ele>
        <time>2015-10-24T15:47:50Z</time>
      </trkpt>
      <trkpt lat="44.10753" lon="3.10164">
        <ele>632</ele>
        <time>2015-10-24T15:47:56Z</time>
      </trkpt>
      <trkpt lat="44.10754" lon="3.10161">
        <ele>635</ele>
        <time>2015-10-24T15:48:01Z</time>
      </trkpt>
      <trkpt lat="44.10756" lon="3.10155">
        <ele>640</ele>
        <time>2015-10-24T15:48:08Z</time>
      </trkpt>
      <trkpt lat="44.10759" lon="3.10152">
        <ele>643</ele>
        <time>2015-10-24T15:48:15Z</time>
      </trkpt>
      <trkpt lat="44.10759" lon="3.10149">
        <ele>644</ele>
        <time>2015-10-24T15:48:21Z</time>
      </trkpt>
      <trkpt lat="44.10761" lon="3.10145">
        <ele>646</ele>
        <time>2015-10-24T15:48:28Z</time>
      </trkpt>
      <trkpt lat="44.10763" lon="3.10142">
        <ele>647</ele>
        <time>2015-10-24T15:48:36Z</time>
      </trkpt>
      <trkpt lat="44.10765" lon="3.10139">
        <ele>648</ele>
        <time>2015-10-24T15:48:43Z</time>
      </trkpt>
      <trkpt lat="44.10767" lon="3.10133">
        <ele>650</ele>
        <time>2015-10-24T15:48:51Z</time>
      </trkpt>
      <trkpt lat="44.10769" lon="3.10129">
        <ele>650</ele>
        <time>2015-10-24T15:48:58Z</time>
      </trkpt>
      <trkpt lat="44.1077" lon="3.10129">
        <ele>651</ele>
        <time>2015-10-24T15:49:03Z</time>
      </trkpt>
      <trkpt lat="44.10769" lon="3.10127">
        <ele>650</ele>
        <time>2015-10-24T15:49:18Z</time>
      </trkpt>
      <trkpt lat="44.10771" lon="3.10123">
        <ele>651</ele>
        <time>2015-10-24T15:49:26Z</time>
      </trkpt>
      <trkpt lat="44.10773" lon="3.10124">
        <ele>652</ele>
        <time>2015-10-24T15:49:33Z</time>
      </trkpt>
      <trkpt lat="44.10774" lon="3.10128">
        <ele>652</ele>
        <time>2015-10-24T15:49:41Z</time>
      </trkpt>
      <trkpt lat="44.10776" lon="3.10133">
        <ele>653</ele>
        <time>2015-10-24T15:49:50Z</time>
      </trkpt>
      <trkpt lat="44.10777" lon="3.10138">
        <ele>653</ele>
        <time>2015-10-24T15:49:59Z</time>
      </trkpt>
      <trkpt lat="44.10778" lon="3.10141">
        <ele>654</ele>
        <time>2015-10-24T15:50:05Z</time>
      </trkpt>
      <trkpt lat="44.1078" lon="3.10143">
        <ele>654</ele>
        <time>2015-10-24T15:50:12Z</time>
      </trkpt>
      <trkpt lat="44.10781" lon="3.10146">
        <ele>655</ele>
        <time>2015-10-24T15:50:21Z</time>
      </trkpt>
      <trkpt lat="44.10782" lon="3.10147">
        <ele>655</ele>
        <time>2015-10-24T15:50:25Z</time>
      </trkpt>
      <trkpt lat="44.10783" lon="3.10148">
        <ele>656</ele>
        <time>2015-10-24T15:50:33Z</time>
      </trkpt>
      <trkpt lat="44.10784" lon="3.1015">
        <ele>656</ele>
        <time>2015-10-24T15:50:41Z</time>
      </trkpt>
      <trkpt lat="44.10784" lon="3.10152">
        <ele>656</ele>
        <time>2015-10-24T15:50:49Z</time>
      </trkpt>
      <trkpt lat="44.10785" lon="3.10154">
        <ele>657</ele>
        <time>2015-10-24T15:50:56Z</time>
      </trkpt>
      <trkpt lat="44.10786" lon="3.10153">
        <ele>657</ele>
        <time>2015-10-24T15:51:09Z</time>
      </trkpt>
      <trkpt lat="44.10787" lon="3.10155">
        <ele>658</ele>
        <time>2015-10-24T15:51:16Z</time>
      </trkpt>
      <trkpt lat="44.10789" lon="3.1016">
        <ele>660</ele>
        <time>2015-10-24T15:51:24Z</time>
      </trkpt>
      <trkpt lat="44.10791" lon="3.10165">
        <ele>661</ele>
        <time>2015-10-24T15:51:33Z</time>
      </trkpt>
      <trkpt lat="44.10794" lon="3.10169">
        <ele>667</ele>
        <time>2015-10-24T15:51:40Z</time>
      </trkpt>
      <trkpt lat="44.10795" lon="3.10174">
        <ele>667</ele>
        <time>2015-10-24T15:51:45Z</time>
      </trkpt>
      <trkpt lat="44.10796" lon="3.10178">
        <ele>668</ele>
        <time>2015-10-24T15:51:52Z</time>
      </trkpt>
      <trkpt lat="44.10798" lon="3.10181">
        <ele>669</ele>
        <time>2015-10-24T15:51:59Z</time>
      </trkpt>
      <trkpt lat="44.10799" lon="3.10184">
        <ele>669</ele>
        <time>2015-10-24T15:52:05Z</time>
      </trkpt>
      <trkpt lat="44.10803" lon="3.10184">
        <ele>672</ele>
        <time>2015-10-24T15:52:17Z</time>
      </trkpt>
      <trkpt lat="44.10803" lon="3.10188">
        <ele>671</ele>
        <time>2015-10-24T15:52:23Z</time>
      </trkpt>
      <trkpt lat="44.10806" lon="3.10193">
        <ele>672</ele>
        <time>2015-10-24T15:52:33Z</time>
      </trkpt>
      <trkpt lat="44.1081" lon="3.10191">
        <ele>674</ele>
        <time>2015-10-24T15:52:40Z</time>
      </trkpt>
      <trkpt lat="44.10812" lon="3.10189">
        <ele>675</ele>
        <time>2015-10-24T15:52:45Z</time>
      </trkpt>
      <trkpt lat="44.10814" lon="3.10187">
        <ele>677</ele>
        <time>2015-10-24T15:52:53Z</time>
      </trkpt>
      <trkpt lat="44.10818" lon="3.10192">
        <ele>677</ele>
        <time>2015-10-24T15:53:05Z</time>
      </trkpt>
      <trkpt lat="44.10817" lon="3.10198">
        <ele>676</ele>
        <time>2015-10-24T15:53:15Z</time>
      </trkpt>
      <trkpt lat="44.10818" lon="3.10202">
        <ele>676</ele>
        <time>2015-10-24T15:53:21Z</time>
      </trkpt>
      <trkpt lat="44.1082" lon="3.10208">
        <ele>676</ele>
        <time>2015-10-24T15:53:28Z</time>
      </trkpt>
      <trkpt lat="44.10819" lon="3.10214">
        <ele>676</ele>
        <time>2015-10-24T15:53:36Z</time>
      </trkpt>
      <trkpt lat="44.10816" lon="3.10216">
        <ele>676</ele>
        <time>2015-10-24T15:53:44Z</time>
      </trkpt>
      <trkpt lat="44.10816" lon="3.10217">
        <ele>676</ele>
        <time>2015-10-24T15:53:50Z</time>
      </trkpt>
      <trkpt lat="44.10818" lon="3.10217">
        <ele>676</ele>
        <time>2015-10-24T15:53:56Z</time>
      </trkpt>
      <trkpt lat="44.1082" lon="3.10221">
        <ele>678</ele>
        <time>2015-10-24T15:54:01Z</time>
      </trkpt>
      <trkpt lat="44.10819" lon="3.10225">
        <ele>678</ele>
        <time>2015-10-24T15:54:06Z</time>
      </trkpt>
      <trkpt lat="44.1082" lon="3.10229">
        <ele>680</ele>
        <time>2015-10-24T15:54:13Z</time>
      </trkpt>
      <trkpt lat="44.10824" lon="3.10227">
        <ele>681</ele>
        <time>2015-10-24T15:54:25Z</time>
      </trkpt>
      <trkpt lat="44.10825" lon="3.10226">
        <ele>681</ele>
        <time>2015-10-24T15:54:31Z</time>
      </trkpt>
      <trkpt lat="44.10826" lon="3.10225">
        <ele>681</ele>
        <time>2015-10-24T15:54:43Z</time>
      </trkpt>
      <trkpt lat="44.10824" lon="3.10225">
        <ele>680</ele>
        <time>2015-10-24T15:54:50Z</time>
      </trkpt>
      <trkpt lat="44.10824" lon="3.10224">
        <ele>680</ele>
        <time>2015-10-24T15:54:59Z</time>
      </trkpt>
      <trkpt lat="44.10825" lon="3.10223">
        <ele>680</ele>
        <time>2015-10-24T15:55:08Z</time>
      </trkpt>
      <trkpt lat="44.10827" lon="3.10215">
        <ele>679</ele>
        <time>2015-10-24T15:55:23Z</time>
      </trkpt>
      <trkpt lat="44.10828" lon="3.10211">
        <ele>678</ele>
        <time>2015-10-24T15:55:32Z</time>
      </trkpt>
      <trkpt lat="44.10826" lon="3.10211">
        <ele>678</ele>
        <time>2015-10-24T15:55:39Z</time>
      </trkpt>
      <trkpt lat="44.10828" lon="3.1021">
        <ele>678</ele>
        <time>2015-10-24T15:55:53Z</time>
      </trkpt>
      <trkpt lat="44.10829" lon="3.10209">
        <ele>678</ele>
        <time>2015-10-24T15:56:01Z</time>
      </trkpt>
      <trkpt lat="44.10827" lon="3.10206">
        <ele>678</ele>
        <time>2015-10-24T15:56:12Z</time>
      </trkpt>
      <trkpt lat="44.10829" lon="3.10206">
        <ele>678</ele>
        <time>2015-10-24T15:56:18Z</time>
      </trkpt>
      <trkpt lat="44.10828" lon="3.1021">
        <ele>678</ele>
        <time>2015-10-24T15:56:27Z</time>
      </trkpt>
      <trkpt lat="44.10831" lon="3.10213">
        <ele>679</ele>
        <time>2015-10-24T15:56:36Z</time>
      </trkpt>
      <trkpt lat="44.10833" lon="3.10212">
        <ele>722</ele>
        <time>2015-10-24T15:56:43Z</time>
      </trkpt>
      <trkpt lat="44.10833" lon="3.10212">
        <ele>722</ele>
        <time>2015-10-24T15:56:53Z</time>
      </trkpt>
      <trkpt lat="44.10835" lon="3.10207">
        <ele>723</ele>
        <time>2015-10-24T15:57:00Z</time>
      </trkpt>
      <trkpt lat="44.10835" lon="3.10206">
        <ele>723</ele>
        <time>2015-10-24T15:57:06Z</time>
      </trkpt>
      <trkpt lat="44.10837" lon="3.10205">
        <ele>723</ele>
        <time>2015-10-24T15:57:14Z</time>
      </trkpt>
      <trkpt lat="44.1084" lon="3.10205">
        <ele>723</ele>
        <time>2015-10-24T15:57:22Z</time>
      </trkpt>
      <trkpt lat="44.10845" lon="3.10203">
        <ele>724</ele>
        <time>2015-10-24T15:57:29Z</time>
      </trkpt>
      <trkpt lat="44.10849" lon="3.10204">
        <ele>726</ele>
        <time>2015-10-24T15:57:35Z</time>
      </trkpt>
      <trkpt lat="44.10851" lon="3.10202">
        <ele>726</ele>
        <time>2015-10-24T15:57:41Z</time>
      </trkpt>
      <trkpt lat="44.10851" lon="3.10199">
        <ele>726</ele>
        <time>2015-10-24T15:57:48Z</time>
      </trkpt>
      <trkpt lat="44.10852" lon="3.10193">
        <ele>725</ele>
        <time>2015-10-24T15:57:56Z</time>
      </trkpt>
      <trkpt lat="44.10851" lon="3.10192">
        <ele>725</ele>
        <time>2015-10-24T15:58:05Z</time>
      </trkpt>
      <trkpt lat="44.10851" lon="3.10189">
        <ele>724</ele>
        <time>2015-10-24T15:58:10Z</time>
      </trkpt>
      <trkpt lat="44.1085" lon="3.10186">
        <ele>723</ele>
        <time>2015-10-24T15:58:15Z</time>
      </trkpt>
      <trkpt lat="44.10849" lon="3.10183">
        <ele>722</ele>
        <time>2015-10-24T15:58:27Z</time>
      </trkpt>
      <trkpt lat="44.10845" lon="3.10176">
        <ele>716</ele>
        <time>2015-10-24T15:58:34Z</time>
      </trkpt>
      <trkpt lat="44.10844" lon="3.10169">
        <ele>714</ele>
        <time>2015-10-24T15:58:40Z</time>
      </trkpt>
      <trkpt lat="44.10845" lon="3.10162">
        <ele>713</ele>
        <time>2015-10-24T15:58:48Z</time>
      </trkpt>
      <trkpt lat="44.10847" lon="3.10152">
        <ele>717</ele>
        <time>2015-10-24T15:58:55Z</time>
      </trkpt>
      <trkpt lat="44.10845" lon="3.10147">
        <ele>718</ele>
        <time>2015-10-24T15:59:02Z</time>
      </trkpt>
      <trkpt lat="44.10843" lon="3.10142">
        <ele>719</ele>
        <time>2015-10-24T15:59:09Z</time>
      </trkpt>
      <trkpt lat="44.10845" lon="3.10138">
        <ele>720</ele>
        <time>2015-10-24T15:59:15Z</time>
      </trkpt>
      <trkpt lat="44.10849" lon="3.10128">
        <ele>721</ele>
        <time>2015-10-24T15:59:24Z</time>
      </trkpt>
      <trkpt lat="44.10849" lon="3.10124">
        <ele>721</ele>
        <time>2015-10-24T15:59:26Z</time>
      </trkpt>
      <trkpt lat="44.1085" lon="3.10116">
        <ele>720</ele>
        <time>2015-10-24T15:59:31Z</time>
      </trkpt>
      <trkpt lat="44.1085" lon="3.10109">
        <ele>718</ele>
        <time>2015-10-24T15:59:36Z</time>
      </trkpt>
      <trkpt lat="44.10852" lon="3.10106">
        <ele>718</ele>
        <time>2015-10-24T15:59:38Z</time>
      </trkpt>
      <trkpt lat="44.10855" lon="3.101">
        <ele>718</ele>
        <time>2015-10-24T15:59:44Z</time>
      </trkpt>
      <trkpt lat="44.10858" lon="3.10098">
        <ele>720</ele>
        <time>2015-10-24T15:59:49Z</time>
      </trkpt>
      <trkpt lat="44.10862" lon="3.10093">
        <ele>721</ele>
        <time>2015-10-24T15:59:55Z</time>
      </trkpt>
      <trkpt lat="44.10865" lon="3.10086">
        <ele>722</ele>
        <time>2015-10-24T16:00:00Z</time>
      </trkpt>
      <trkpt lat="44.10866" lon="3.10083">
        <ele>716</ele>
        <time>2015-10-24T16:00:02Z</time>
      </trkpt>
      <trkpt lat="44.10868" lon="3.10068">
        <ele>717</ele>
        <time>2015-10-24T16:00:10Z</time>
      </trkpt>
      <trkpt lat="44.10869" lon="3.10056">
        <ele>717</ele>
        <time>2015-10-24T16:00:17Z</time>
      </trkpt>
      <trkpt lat="44.10864" lon="3.1005">
        <ele>715</ele>
        <time>2015-10-24T16:00:22Z</time>
      </trkpt>
      <trkpt lat="44.10862" lon="3.10045">
        <ele>714</ele>
        <time>2015-10-24T16:00:26Z</time>
      </trkpt>
      <trkpt lat="44.10862" lon="3.10037">
        <ele>713</ele>
        <time>2015-10-24T16:00:31Z</time>
      </trkpt>
      <trkpt lat="44.10866" lon="3.10029">
        <ele>714</ele>
        <time>2015-10-24T16:00:38Z</time>
      </trkpt>
      <trkpt lat="44.1087" lon="3.10021">
        <ele>715</ele>
        <time>2015-10-24T16:00:43Z</time>
      </trkpt>
      <trkpt lat="44.10873" lon="3.10014">
        <ele>716</ele>
        <time>2015-10-24T16:00:47Z</time>
      </trkpt>
      <trkpt lat="44.10875" lon="3.10007">
        <ele>717</ele>
        <time>2015-10-24T16:00:51Z</time>
      </trkpt>
      <trkpt lat="44.10879" lon="3.09991">
        <ele>701</ele>
        <time>2015-10-24T16:00:59Z</time>
      </trkpt>
      <trkpt lat="44.10879" lon="3.0999">
        <ele>701</ele>
        <time>2015-10-24T16:01:00Z</time>
      </trkpt>
      <trkpt lat="44.10879" lon="3.09979">
        <ele>699</ele>
        <time>2015-10-24T16:01:06Z</time>
      </trkpt>
      <trkpt lat="44.10877" lon="3.0997">
        <ele>696</ele>
        <time>2015-10-24T16:01:12Z</time>
      </trkpt>
      <trkpt lat="44.10873" lon="3.09959">
        <ele>692</ele>
        <time>2015-10-24T16:01:19Z</time>
      </trkpt>
      <trkpt lat="44.10873" lon="3.09947">
        <ele>690</ele>
        <time>2015-10-24T16:01:26Z</time>
      </trkpt>
      <trkpt lat="44.10877" lon="3.09939">
        <ele>689</ele>
        <time>2015-10-24T16:01:32Z</time>
      </trkpt>
      <trkpt lat="44.10879" lon="3.09936">
        <ele>689</ele>
        <time>2015-10-24T16:01:35Z</time>
      </trkpt>
      <trkpt lat="44.10886" lon="3.09939">
        <ele>692</ele>
        <time>2015-10-24T16:01:42Z</time>
      </trkpt>
      <trkpt lat="44.10887" lon="3.09938">
        <ele>692</ele>
        <time>2015-10-24T16:01:43Z</time>
      </trkpt>
      <trkpt lat="44.10894" lon="3.09939">
        <ele>693</ele>
        <time>2015-10-24T16:01:50Z</time>
      </trkpt>
      <trkpt lat="44.10895" lon="3.0994">
        <ele>694</ele>
        <time>2015-10-24T16:01:51Z</time>
      </trkpt>
      <trkpt lat="44.10902" lon="3.09943">
        <ele>695</ele>
        <time>2015-10-24T16:01:58Z</time>
      </trkpt>
      <trkpt lat="44.10905" lon="3.09949">
        <ele>697</ele>
        <time>2015-10-24T16:02:04Z</time>
      </trkpt>
      <trkpt lat="44.10907" lon="3.09955">
        <ele>700</ele>
        <time>2015-10-24T16:02:10Z</time>
      </trkpt>
      <trkpt lat="44.1091" lon="3.0996">
        <ele>702</ele>
        <time>2015-10-24T16:02:15Z</time>
      </trkpt>
      <trkpt lat="44.10914" lon="3.09964">
        <ele>705</ele>
        <time>2015-10-24T16:02:23Z</time>
      </trkpt>
      <trkpt lat="44.1092" lon="3.09963">
        <ele>725</ele>
        <time>2015-10-24T16:02:28Z</time>
      </trkpt>
      <trkpt lat="44.10925" lon="3.09962">
        <ele>724</ele>
        <time>2015-10-24T16:02:32Z</time>
      </trkpt>
      <trkpt lat="44.10928" lon="3.09963">
        <ele>725</ele>
        <time>2015-10-24T16:02:35Z</time>
      </trkpt>
      <trkpt lat="44.10934" lon="3.09968">
        <ele>727</ele>
        <time>2015-10-24T16:02:42Z</time>
      </trkpt>
      <trkpt lat="44.10941" lon="3.09975">
        <ele>730</ele>
        <time>2015-10-24T16:02:49Z</time>
      </trkpt>
      <trkpt lat="44.10947" lon="3.09976">
        <ele>730</ele>
        <time>2015-10-24T16:02:54Z</time>
      </trkpt>
      <trkpt lat="44.10955" lon="3.09972">
        <ele>730</ele>
        <time>2015-10-24T16:03:01Z</time>
      </trkpt>
      <trkpt lat="44.10957" lon="3.09971">
        <ele>729</ele>
        <time>2015-10-24T16:03:03Z</time>
      </trkpt>
      <trkpt lat="44.10963" lon="3.09967">
        <ele>729</ele>
        <time>2015-10-24T16:03:09Z</time>
      </trkpt>
      <trkpt lat="44.10967" lon="3.0996">
        <ele>727</ele>
        <time>2015-10-24T16:03:15Z</time>
      </trkpt>
      <trkpt lat="44.10968" lon="3.09958">
        <ele>726</ele>
        <time>2015-10-24T16:03:17Z</time>
      </trkpt>
      <trkpt lat="44.10969" lon="3.09956">
        <ele>726</ele>
        <time>2015-10-24T16:03:19Z</time>
      </trkpt>
      <trkpt lat="44.10973" lon="3.09952">
        <ele>724</ele>
        <time>2015-10-24T16:03:26Z</time>
      </trkpt>
      <trkpt lat="44.10978" lon="3.09954">
        <ele>725</ele>
        <time>2015-10-24T16:03:31Z</time>
      </trkpt>
      <trkpt lat="44.1098" lon="3.09957">
        <ele>727</ele>
        <time>2015-10-24T16:03:34Z</time>
      </trkpt>
      <trkpt lat="44.10983" lon="3.09959">
        <ele>728</ele>
        <time>2015-10-24T16:03:38Z</time>
      </trkpt>
      <trkpt lat="44.10985" lon="3.0996">
        <ele>728</ele>
        <time>2015-10-24T16:03:40Z</time>
      </trkpt>
      <trkpt lat="44.10988" lon="3.09963">
        <ele>730</ele>
        <time>2015-10-24T16:03:43Z</time>
      </trkpt>
      <trkpt lat="44.11" lon="3.09964">
        <ele>734</ele>
        <time>2015-10-24T16:03:51Z</time>
      </trkpt>
      <trkpt lat="44.1101" lon="3.09966">
        <ele>735</ele>
        <time>2015-10-24T16:03:58Z</time>
      </trkpt>
      <trkpt lat="44.11013" lon="3.09967">
        <ele>735</ele>
        <time>2015-10-24T16:04:00Z</time>
      </trkpt>
      <trkpt lat="44.11019" lon="3.09967">
        <ele>735</ele>
        <time>2015-10-24T16:04:04Z</time>
      </trkpt>
      <trkpt lat="44.11025" lon="3.09968">
        <ele>734</ele>
        <time>2015-10-24T16:04:08Z</time>
      </trkpt>
      <trkpt lat="44.11028" lon="3.09968">
        <ele>734</ele>
        <time>2015-10-24T16:04:11Z</time>
      </trkpt>
      <trkpt lat="44.11035" lon="3.09963">
        <ele>732</ele>
        <time>2015-10-24T16:04:16Z</time>
      </trkpt>
      <trkpt lat="44.11038" lon="3.09959">
        <ele>730</ele>
        <time>2015-10-24T16:04:20Z</time>
      </trkpt>
      <trkpt lat="44.11042" lon="3.09955">
        <ele>729</ele>
        <time>2015-10-24T16:04:24Z</time>
      </trkpt>
      <trkpt lat="44.11044" lon="3.09954">
        <ele>728</ele>
        <time>2015-10-24T16:04:25Z</time>
      </trkpt>
      <trkpt lat="44.11051" lon="3.09956">
        <ele>729</ele>
        <time>2015-10-24T16:04:33Z</time>
      </trkpt>
      <trkpt lat="44.11057" lon="3.09957">
        <ele>728</ele>
        <time>2015-10-24T16:04:38Z</time>
      </trkpt>
      <trkpt lat="44.11059" lon="3.09956">
        <ele>728</ele>
        <time>2015-10-24T16:04:39Z</time>
      </trkpt>
      <trkpt lat="44.11068" lon="3.09958">
        <ele>729</ele>
        <time>2015-10-24T16:04:46Z</time>
      </trkpt>
      <trkpt lat="44.11073" lon="3.09956">
        <ele>728</ele>
        <time>2015-10-24T16:04:55Z</time>
      </trkpt>
      <trkpt lat="44.11075" lon="3.09959">
        <ele>729</ele>
        <time>2015-10-24T16:04:59Z</time>
      </trkpt>
      <trkpt lat="44.11076" lon="3.09963">
        <ele>731</ele>
        <time>2015-10-24T16:05:03Z</time>
      </trkpt>
      <trkpt lat="44.11078" lon="3.0997">
        <ele>734</ele>
        <time>2015-10-24T16:05:10Z</time>
      </trkpt>
      <trkpt lat="44.11083" lon="3.09975">
        <ele>730</ele>
        <time>2015-10-24T16:05:15Z</time>
      </trkpt>
      <trkpt lat="44.11088" lon="3.09981">
        <ele>734</ele>
        <time>2015-10-24T16:05:19Z</time>
      </trkpt>
      <trkpt lat="44.11095" lon="3.09985">
        <ele>735</ele>
        <time>2015-10-24T16:05:24Z</time>
      </trkpt>
      <trkpt lat="44.11096" lon="3.09986">
        <ele>735</ele>
        <time>2015-10-24T16:05:25Z</time>
      </trkpt>
      <trkpt lat="44.11106" lon="3.09977">
        <ele>727</ele>
        <time>2015-10-24T16:05:32Z</time>
      </trkpt>
      <trkpt lat="44.11108" lon="3.09975">
        <ele>726</ele>
        <time>2015-10-24T16:05:36Z</time>
      </trkpt>
      <trkpt lat="44.1111" lon="3.0997">
        <ele>723</ele>
        <time>2015-10-24T16:05:40Z</time>
      </trkpt>
      <trkpt lat="44.11109" lon="3.09967">
        <ele>722</ele>
        <time>2015-10-24T16:05:44Z</time>
      </trkpt>
      <trkpt lat="44.11112" lon="3.0996">
        <ele>719</ele>
        <time>2015-10-24T16:05:49Z</time>
      </trkpt>
      <trkpt lat="44.11114" lon="3.09956">
        <ele>717</ele>
        <time>2015-10-24T16:05:51Z</time>
      </trkpt>
      <trkpt lat="44.11119" lon="3.09956">
        <ele>717</ele>
        <time>2015-10-24T16:05:55Z</time>
      </trkpt>
      <trkpt lat="44.11129" lon="3.0996">
        <ele>717</ele>
        <time>2015-10-24T16:06:03Z</time>
      </trkpt>
      <trkpt lat="44.11134" lon="3.09963">
        <ele>718</ele>
        <time>2015-10-24T16:06:07Z</time>
      </trkpt>
      <trkpt lat="44.11137" lon="3.09967">
        <ele>720</ele>
        <time>2015-10-24T16:06:11Z</time>
      </trkpt>
      <trkpt lat="44.11145" lon="3.0997">
        <ele>720</ele>
        <time>2015-10-24T16:06:16Z</time>
      </trkpt>
      <trkpt lat="44.11149" lon="3.09973">
        <ele>722</ele>
        <time>2015-10-24T16:06:21Z</time>
      </trkpt>
      <trkpt lat="44.11151" lon="3.09976">
        <ele>723</ele>
        <time>2015-10-24T16:06:23Z</time>
      </trkpt>
      <trkpt lat="44.11153" lon="3.09979">
        <ele>725</ele>
        <time>2015-10-24T16:06:26Z</time>
      </trkpt>
      <trkpt lat="44.11161" lon="3.09983">
        <ele>728</ele>
        <time>2015-10-24T16:06:32Z</time>
      </trkpt>
      <trkpt lat="44.11162" lon="3.09986">
        <ele>729</ele>
        <time>2015-10-24T16:06:34Z</time>
      </trkpt>
      <trkpt lat="44.11164" lon="3.09987">
        <ele>730</ele>
        <time>2015-10-24T16:06:36Z</time>
      </trkpt>
      <trkpt lat="44.11173" lon="3.09987">
        <ele>718</ele>
        <time>2015-10-24T16:06:43Z</time>
      </trkpt>
      <trkpt lat="44.11178" lon="3.09986">
        <ele>713</ele>
        <time>2015-10-24T16:06:47Z</time>
      </trkpt>
      <trkpt lat="44.11184" lon="3.09989">
        <ele>711</ele>
        <time>2015-10-24T16:06:52Z</time>
      </trkpt>
      <trkpt lat="44.11185" lon="3.09992">
        <ele>712</ele>
        <time>2015-10-24T16:06:54Z</time>
      </trkpt>
      <trkpt lat="44.11188" lon="3.09995">
        <ele>710</ele>
        <time>2015-10-24T16:06:59Z</time>
      </trkpt>
      <trkpt lat="44.11189" lon="3.09994">
        <ele>709</ele>
        <time>2015-10-24T16:07:00Z</time>
      </trkpt>
      <trkpt lat="44.11197" lon="3.09993">
        <ele>704</ele>
        <time>2015-10-24T16:07:06Z</time>
      </trkpt>
      <trkpt lat="44.11203" lon="3.09996">
        <ele>701</ele>
        <time>2015-10-24T16:07:12Z</time>
      </trkpt>
      <trkpt lat="44.11205" lon="3.09997">
        <ele>700</ele>
        <time>2015-10-24T16:07:13Z</time>
      </trkpt>
      <trkpt lat="44.11209" lon="3.10001">
        <ele>725</ele>
        <time>2015-10-24T16:07:17Z</time>
      </trkpt>
      <trkpt lat="44.11212" lon="3.1001">
        <ele>724</ele>
        <time>2015-10-24T16:07:23Z</time>
      </trkpt>
      <trkpt lat="44.11214" lon="3.10016">
        <ele>724</ele>
        <time>2015-10-24T16:07:27Z</time>
      </trkpt>
      <trkpt lat="44.11219" lon="3.10019">
        <ele>723</ele>
        <time>2015-10-24T16:07:31Z</time>
      </trkpt>
      <trkpt lat="44.11224" lon="3.10029">
        <ele>724</ele>
        <time>2015-10-24T16:07:40Z</time>
      </trkpt>
      <trkpt lat="44.11228" lon="3.10034">
        <ele>724</ele>
        <time>2015-10-24T16:07:45Z</time>
      </trkpt>
      <trkpt lat="44.11234" lon="3.1004">
        <ele>724</ele>
        <time>2015-10-24T16:07:52Z</time>
      </trkpt>
      <trkpt lat="44.11235" lon="3.1004">
        <ele>724</ele>
        <time>2015-10-24T16:07:53Z</time>
      </trkpt>
      <trkpt lat="44.11237" lon="3.10044">
        <ele>725</ele>
        <time>2015-10-24T16:07:56Z</time>
      </trkpt>
      <trkpt lat="44.11239" lon="3.10048">
        <ele>725</ele>
        <time>2015-10-24T16:07:59Z</time>
      </trkpt>
      <trkpt lat="44.11237" lon="3.10054">
        <ele>727</ele>
        <time>2015-10-24T16:08:04Z</time>
      </trkpt>
      <trkpt lat="44.11235" lon="3.10059">
        <ele>728</ele>
        <time>2015-10-24T16:08:08Z</time>
      </trkpt>
      <trkpt lat="44.11235" lon="3.10062">
        <ele>728</ele>
        <time>2015-10-24T16:08:10Z</time>
      </trkpt>
      <trkpt lat="44.11238" lon="3.10071">
        <ele>727</ele>
        <time>2015-10-24T16:08:15Z</time>
      </trkpt>
      <trkpt lat="44.11247" lon="3.10083">
        <ele>724</ele>
        <time>2015-10-24T16:08:22Z</time>
      </trkpt>
      <trkpt lat="44.11249" lon="3.10086">
        <ele>727</ele>
        <time>2015-10-24T16:08:24Z</time>
      </trkpt>
      <trkpt lat="44.11257" lon="3.10096">
        <ele>718</ele>
        <time>2015-10-24T16:08:31Z</time>
      </trkpt>
      <trkpt lat="44.11258" lon="3.10104">
        <ele>717</ele>
        <time>2015-10-24T16:08:36Z</time>
      </trkpt>
      <trkpt lat="44.11258" lon="3.10109">
        <ele>717</ele>
        <time>2015-10-24T16:08:41Z</time>
      </trkpt>
      <trkpt lat="44.11258" lon="3.10114">
        <ele>717</ele>
        <time>2015-10-24T16:08:47Z</time>
      </trkpt>
      <trkpt lat="44.11258" lon="3.10117">
        <ele>718</ele>
        <time>2015-10-24T16:08:53Z</time>
      </trkpt>
      <trkpt lat="44.11261" lon="3.10117">
        <ele>717</ele>
        <time>2015-10-24T16:09:00Z</time>
      </trkpt>
      <trkpt lat="44.11263" lon="3.10116">
        <ele>717</ele>
        <time>2015-10-24T16:09:04Z</time>
      </trkpt>
      <trkpt lat="44.11266" lon="3.10113">
        <ele>716</ele>
        <time>2015-10-24T16:09:08Z</time>
      </trkpt>
      <trkpt lat="44.11268" lon="3.10109">
        <ele>715</ele>
        <time>2015-10-24T16:09:13Z</time>
      </trkpt>
      <trkpt lat="44.11269" lon="3.10112">
        <ele>715</ele>
        <time>2015-10-24T16:09:18Z</time>
      </trkpt>
      <trkpt lat="44.1127" lon="3.10118">
        <ele>716</ele>
        <time>2015-10-24T16:09:22Z</time>
      </trkpt>
      <trkpt lat="44.11272" lon="3.10122">
        <ele>716</ele>
        <time>2015-10-24T16:09:27Z</time>
      </trkpt>
      <trkpt lat="44.11273" lon="3.10129">
        <ele>717</ele>
        <time>2015-10-24T16:09:32Z</time>
      </trkpt>
      <trkpt lat="44.11274" lon="3.10132">
        <ele>717</ele>
        <time>2015-10-24T16:09:34Z</time>
      </trkpt>
      <trkpt lat="44.11277" lon="3.10141">
        <ele>718</ele>
        <time>2015-10-24T16:09:40Z</time>
      </trkpt>
      <trkpt lat="44.11279" lon="3.10146">
        <ele>719</ele>
        <time>2015-10-24T16:09:44Z</time>
      </trkpt>
      <trkpt lat="44.11284" lon="3.10147">
        <ele>718</ele>
        <time>2015-10-24T16:09:52Z</time>
      </trkpt>
      <trkpt lat="44.11286" lon="3.10144">
        <ele>717</ele>
        <time>2015-10-24T16:09:57Z</time>
      </trkpt>
      <trkpt lat="44.11287" lon="3.10142">
        <ele>716</ele>
        <time>2015-10-24T16:10:01Z</time>
      </trkpt>
      <trkpt lat="44.11287" lon="3.10138">
        <ele>715</ele>
        <time>2015-10-24T16:10:06Z</time>
      </trkpt>
      <trkpt lat="44.11289" lon="3.10135">
        <ele>714</ele>
        <time>2015-10-24T16:10:13Z</time>
      </trkpt>
      <trkpt lat="44.11293" lon="3.10134">
        <ele>713</ele>
        <time>2015-10-24T16:10:20Z</time>
      </trkpt>
      <trkpt lat="44.11295" lon="3.10132">
        <ele>712</ele>
        <time>2015-10-24T16:10:24Z</time>
      </trkpt>
      <trkpt lat="44.11295" lon="3.1013">
        <ele>712</ele>
        <time>2015-10-24T16:10:29Z</time>
      </trkpt>
      <trkpt lat="44.11303" lon="3.10125">
        <ele>709</ele>
        <time>2015-10-24T16:10:41Z</time>
      </trkpt>
      <trkpt lat="44.11306" lon="3.10126">
        <ele>708</ele>
        <time>2015-10-24T16:10:46Z</time>
      </trkpt>
      <trkpt lat="44.11306" lon="3.10121">
        <ele>707</ele>
        <time>2015-10-24T16:10:55Z</time>
      </trkpt>
      <trkpt lat="44.11306" lon="3.10118">
        <ele>706</ele>
        <time>2015-10-24T16:11:01Z</time>
      </trkpt>
      <trkpt lat="44.11309" lon="3.10116">
        <ele>705</ele>
        <time>2015-10-24T16:11:09Z</time>
      </trkpt>
      <trkpt lat="44.11312" lon="3.10112">
        <ele>703</ele>
        <time>2015-10-24T16:11:16Z</time>
      </trkpt>
      <trkpt lat="44.11311" lon="3.10109">
        <ele>702</ele>
        <time>2015-10-24T16:11:20Z</time>
      </trkpt>
      <trkpt lat="44.11311" lon="3.10105">
        <ele>701</ele>
        <time>2015-10-24T16:11:24Z</time>
      </trkpt>
      <trkpt lat="44.11312" lon="3.101">
        <ele>699</ele>
        <time>2015-10-24T16:11:28Z</time>
      </trkpt>
      <trkpt lat="44.11312" lon="3.10093">
        <ele>696</ele>
        <time>2015-10-24T16:11:34Z</time>
      </trkpt>
      <trkpt lat="44.11313" lon="3.10085">
        <ele>694</ele>
        <time>2015-10-24T16:11:40Z</time>
      </trkpt>
      <trkpt lat="44.11314" lon="3.1008">
        <ele>679</ele>
        <time>2015-10-24T16:11:44Z</time>
      </trkpt>
      <trkpt lat="44.11315" lon="3.10078">
        <ele>679</ele>
        <time>2015-10-24T16:11:45Z</time>
      </trkpt>
      <trkpt lat="44.11313" lon="3.10072">
        <ele>679</ele>
        <time>2015-10-24T16:11:49Z</time>
      </trkpt>
      <trkpt lat="44.11314" lon="3.10067">
        <ele>679</ele>
        <time>2015-10-24T16:11:52Z</time>
      </trkpt>
      <trkpt lat="44.11314" lon="3.10055">
        <ele>678</ele>
        <time>2015-10-24T16:11:58Z</time>
      </trkpt>
      <trkpt lat="44.11314" lon="3.1005">
        <ele>678</ele>
        <time>2015-10-24T16:12:01Z</time>
      </trkpt>
      <trkpt lat="44.11316" lon="3.10041">
        <ele>676</ele>
        <time>2015-10-24T16:12:08Z</time>
      </trkpt>
      <trkpt lat="44.11318" lon="3.10033">
        <ele>673</ele>
        <time>2015-10-24T16:12:13Z</time>
      </trkpt>
      <trkpt lat="44.11319" lon="3.10025">
        <ele>670</ele>
        <time>2015-10-24T16:12:18Z</time>
      </trkpt>
      <trkpt lat="44.11321" lon="3.10015">
        <ele>666</ele>
        <time>2015-10-24T16:12:22Z</time>
      </trkpt>
      <trkpt lat="44.1132" lon="3.1001">
        <ele>663</ele>
        <time>2015-10-24T16:12:26Z</time>
      </trkpt>
      <trkpt lat="44.1132" lon="3.10001">
        <ele>660</ele>
        <time>2015-10-24T16:12:32Z</time>
      </trkpt>
      <trkpt lat="44.11322" lon="3.09992">
        <ele>649</ele>
        <time>2015-10-24T16:12:39Z</time>
      </trkpt>
      <trkpt lat="44.11322" lon="3.09986">
        <ele>649</ele>
        <time>2015-10-24T16:12:42Z</time>
      </trkpt>
      <trkpt lat="44.11326" lon="3.09984">
        <ele>649</ele>
        <time>2015-10-24T16:12:48Z</time>
      </trkpt>
      <trkpt lat="44.11327" lon="3.09984">
        <ele>649</ele>
        <time>2015-10-24T16:12:49Z</time>
      </trkpt>
      <trkpt lat="44.11327" lon="3.09974">
        <ele>648</ele>
        <time>2015-10-24T16:12:55Z</time>
      </trkpt>
      <trkpt lat="44.11327" lon="3.09971">
        <ele>648</ele>
        <time>2015-10-24T16:12:57Z</time>
      </trkpt>
      <trkpt lat="44.11329" lon="3.09968">
        <ele>648</ele>
        <time>2015-10-24T16:12:59Z</time>
      </trkpt>
      <trkpt lat="44.11332" lon="3.09965">
        <ele>647</ele>
        <time>2015-10-24T16:13:03Z</time>
      </trkpt>
      <trkpt lat="44.11336" lon="3.09964">
        <ele>627</ele>
        <time>2015-10-24T16:13:07Z</time>
      </trkpt>
      <trkpt lat="44.11339" lon="3.09955">
        <ele>625</ele>
        <time>2015-10-24T16:13:12Z</time>
      </trkpt>
      <trkpt lat="44.11345" lon="3.09955">
        <ele>625</ele>
        <time>2015-10-24T16:13:19Z</time>
      </trkpt>
      <trkpt lat="44.11348" lon="3.09951">
        <ele>624</ele>
        <time>2015-10-24T16:13:24Z</time>
      </trkpt>
      <trkpt lat="44.11351" lon="3.09949">
        <ele>623</ele>
        <time>2015-10-24T16:13:29Z</time>
      </trkpt>
      <trkpt lat="44.11354" lon="3.09946">
        <ele>622</ele>
        <time>2015-10-24T16:13:33Z</time>
      </trkpt>
      <trkpt lat="44.11358" lon="3.09945">
        <ele>622</ele>
        <time>2015-10-24T16:13:37Z</time>
      </trkpt>
      <trkpt lat="44.11363" lon="3.0995">
        <ele>622</ele>
        <time>2015-10-24T16:13:42Z</time>
      </trkpt>
      <trkpt lat="44.11367" lon="3.09947">
        <ele>621</ele>
        <time>2015-10-24T16:13:49Z</time>
      </trkpt>
      <trkpt lat="44.11368" lon="3.09943">
        <ele>620</ele>
        <time>2015-10-24T16:13:52Z</time>
      </trkpt>
      <trkpt lat="44.11374" lon="3.09944">
        <ele>619</ele>
        <time>2015-10-24T16:13:57Z</time>
      </trkpt>
      <trkpt lat="44.11376" lon="3.09946">
        <ele>619</ele>
        <time>2015-10-24T16:13:59Z</time>
      </trkpt>
      <trkpt lat="44.11383" lon="3.09953">
        <ele>619</ele>
        <time>2015-10-24T16:14:05Z</time>
      </trkpt>
      <trkpt lat="44.11389" lon="3.09956">
        <ele>618</ele>
        <time>2015-10-24T16:14:09Z</time>
      </trkpt>
      <trkpt lat="44.11389" lon="3.09961">
        <ele>619</ele>
        <time>2015-10-24T16:14:12Z</time>
      </trkpt>
      <trkpt lat="44.1139" lon="3.0997">
        <ele>620</ele>
        <time>2015-10-24T16:14:16Z</time>
      </trkpt>
      <trkpt lat="44.11392" lon="3.09974">
        <ele>620</ele>
        <time>2015-10-24T16:14:20Z</time>
      </trkpt>
      <trkpt lat="44.11396" lon="3.09974">
        <ele>620</ele>
        <time>2015-10-24T16:14:24Z</time>
      </trkpt>
      <trkpt lat="44.11401" lon="3.09973">
        <ele>619</ele>
        <time>2015-10-24T16:14:30Z</time>
      </trkpt>
      <trkpt lat="44.11402" lon="3.09974">
        <ele>619</ele>
        <time>2015-10-24T16:14:31Z</time>
      </trkpt>
      <trkpt lat="44.11405" lon="3.09973">
        <ele>619</ele>
        <time>2015-10-24T16:14:35Z</time>
      </trkpt>
      <trkpt lat="44.11406" lon="3.09965">
        <ele>617</ele>
        <time>2015-10-24T16:14:41Z</time>
      </trkpt>
      <trkpt lat="44.11407" lon="3.09962">
        <ele>617</ele>
        <time>2015-10-24T16:14:45Z</time>
      </trkpt>
      <trkpt lat="44.11413" lon="3.09964">
        <ele>617</ele>
        <time>2015-10-24T16:14:51Z</time>
      </trkpt>
      <trkpt lat="44.11416" lon="3.09964">
        <ele>616</ele>
        <time>2015-10-24T16:14:53Z</time>
      </trkpt>
      <trkpt lat="44.11421" lon="3.09964">
        <ele>599</ele>
        <time>2015-10-24T16:14:57Z</time>
      </trkpt>
      <trkpt lat="44.11426" lon="3.09962">
        <ele>597</ele>
        <time>2015-10-24T16:15:01Z</time>
      </trkpt>
      <trkpt lat="44.11431" lon="3.0996">
        <ele>596</ele>
        <time>2015-10-24T16:15:05Z</time>
      </trkpt>
      <trkpt lat="44.11436" lon="3.09957">
        <ele>595</ele>
        <time>2015-10-24T16:15:09Z</time>
      </trkpt>
      <trkpt lat="44.11438" lon="3.09956">
        <ele>595</ele>
        <time>2015-10-24T16:15:11Z</time>
      </trkpt>
      <trkpt lat="44.11441" lon="3.09952">
        <ele>594</ele>
        <time>2015-10-24T16:15:15Z</time>
      </trkpt>
      <trkpt lat="44.1144" lon="3.09944">
        <ele>593</ele>
        <time>2015-10-24T16:15:21Z</time>
      </trkpt>
      <trkpt lat="44.11441" lon="3.09935">
        <ele>592</ele>
        <time>2015-10-24T16:15:26Z</time>
      </trkpt>
      <trkpt lat="44.11441" lon="3.0993">
        <ele>591</ele>
        <time>2015-10-24T16:15:30Z</time>
      </trkpt>
      <trkpt lat="44.11443" lon="3.09926">
        <ele>591</ele>
        <time>2015-10-24T16:15:36Z</time>
      </trkpt>
      <trkpt lat="44.11445" lon="3.09926">
        <ele>591</ele>
        <time>2015-10-24T16:15:41Z</time>
      </trkpt>
      <trkpt lat="44.11447" lon="3.09929">
        <ele>590</ele>
        <time>2015-10-24T16:15:44Z</time>
      </trkpt>
      <trkpt lat="44.1145" lon="3.09932">
        <ele>590</ele>
        <time>2015-10-24T16:15:49Z</time>
      </trkpt>
      <trkpt lat="44.11453" lon="3.09934">
        <ele>590</ele>
        <time>2015-10-24T16:15:54Z</time>
      </trkpt>
      <trkpt lat="44.11456" lon="3.09931">
        <ele>589</ele>
        <time>2015-10-24T16:15:56Z</time>
      </trkpt>
      <trkpt lat="44.11457" lon="3.09925">
        <ele>588</ele>
        <time>2015-10-24T16:15:59Z</time>
      </trkpt>
      <trkpt lat="44.11461" lon="3.09925">
        <ele>587</ele>
        <time>2015-10-24T16:16:05Z</time>
      </trkpt>
      <trkpt lat="44.11464" lon="3.09925">
        <ele>586</ele>
        <time>2015-10-24T16:16:10Z</time>
      </trkpt>
      <trkpt lat="44.11468" lon="3.09924">
        <ele>585</ele>
        <time>2015-10-24T16:16:15Z</time>
      </trkpt>
      <trkpt lat="44.11471" lon="3.09923">
        <ele>584</ele>
        <time>2015-10-24T16:16:21Z</time>
      </trkpt>
      <trkpt lat="44.11476" lon="3.09922">
        <ele>582</ele>
        <time>2015-10-24T16:16:26Z</time>
      </trkpt>
      <trkpt lat="44.11478" lon="3.0991">
        <ele>569</ele>
        <time>2015-10-24T16:16:32Z</time>
      </trkpt>
      <trkpt lat="44.11479" lon="3.09905">
        <ele>569</ele>
        <time>2015-10-24T16:16:34Z</time>
      </trkpt>
      <trkpt lat="44.11483" lon="3.09894">
        <ele>568</ele>
        <time>2015-10-24T16:16:40Z</time>
      </trkpt>
      <trkpt lat="44.11487" lon="3.0988">
        <ele>566</ele>
        <time>2015-10-24T16:16:45Z</time>
      </trkpt>
      <trkpt lat="44.11488" lon="3.09878">
        <ele>566</ele>
        <time>2015-10-24T16:16:46Z</time>
      </trkpt>
      <trkpt lat="44.11491" lon="3.09867">
        <ele>564</ele>
        <time>2015-10-24T16:16:52Z</time>
      </trkpt>
      <trkpt lat="44.11493" lon="3.09863">
        <ele>563</ele>
        <time>2015-10-24T16:16:58Z</time>
      </trkpt>
      <trkpt lat="44.11495" lon="3.09859">
        <ele>562</ele>
        <time>2015-10-24T16:17:02Z</time>
      </trkpt>
      <trkpt lat="44.11496" lon="3.09854">
        <ele>561</ele>
        <time>2015-10-24T16:17:04Z</time>
      </trkpt>
      <trkpt lat="44.115" lon="3.09841">
        <ele>551</ele>
        <time>2015-10-24T16:17:10Z</time>
      </trkpt>
      <trkpt lat="44.11503" lon="3.09837">
        <ele>551</ele>
        <time>2015-10-24T16:17:12Z</time>
      </trkpt>
      <trkpt lat="44.11509" lon="3.09823">
        <ele>545</ele>
        <time>2015-10-24T16:17:18Z</time>
      </trkpt>
      <trkpt lat="44.11512" lon="3.09818">
        <ele>543</ele>
        <time>2015-10-24T16:17:22Z</time>
      </trkpt>
      <trkpt lat="44.11515" lon="3.09814">
        <ele>542</ele>
        <time>2015-10-24T16:17:24Z</time>
      </trkpt>
      <trkpt lat="44.11516" lon="3.09802">
        <ele>540</ele>
        <time>2015-10-24T16:17:29Z</time>
      </trkpt>
      <trkpt lat="44.11516" lon="3.09792">
        <ele>539</ele>
        <time>2015-10-24T16:17:34Z</time>
      </trkpt>
      <trkpt lat="44.11516" lon="3.09787">
        <ele>538</ele>
        <time>2015-10-24T16:17:36Z</time>
      </trkpt>
      <trkpt lat="44.11518" lon="3.09775">
        <ele>537</ele>
        <time>2015-10-24T16:17:41Z</time>
      </trkpt>
      <trkpt lat="44.11517" lon="3.09763">
        <ele>536</ele>
        <time>2015-10-24T16:17:46Z</time>
      </trkpt>
      <trkpt lat="44.11518" lon="3.09753">
        <ele>536</ele>
        <time>2015-10-24T16:17:51Z</time>
      </trkpt>
      <trkpt lat="44.11517" lon="3.0974">
        <ele>530</ele>
        <time>2015-10-24T16:17:56Z</time>
      </trkpt>
      <trkpt lat="44.11517" lon="3.09729">
        <ele>529</ele>
        <time>2015-10-24T16:18:00Z</time>
      </trkpt>
      <trkpt lat="44.11517" lon="3.09718">
        <ele>528</ele>
        <time>2015-10-24T16:18:03Z</time>
      </trkpt>
      <trkpt lat="44.11516" lon="3.09715">
        <ele>527</ele>
        <time>2015-10-24T16:18:04Z</time>
      </trkpt>
      <trkpt lat="44.11518" lon="3.09702">
        <ele>526</ele>
        <time>2015-10-24T16:18:10Z</time>
      </trkpt>
      <trkpt lat="44.11519" lon="3.09701">
        <ele>526</ele>
        <time>2015-10-24T16:18:11Z</time>
      </trkpt>
      <trkpt lat="44.11518" lon="3.0969">
        <ele>525</ele>
        <time>2015-10-24T16:18:16Z</time>
      </trkpt>
      <trkpt lat="44.11518" lon="3.0968">
        <ele>524</ele>
        <time>2015-10-24T16:18:20Z</time>
      </trkpt>
      <trkpt lat="44.11515" lon="3.09671">
        <ele>523</ele>
        <time>2015-10-24T16:18:24Z</time>
      </trkpt>
      <trkpt lat="44.11515" lon="3.09665">
        <ele>519</ele>
        <time>2015-10-24T16:18:26Z</time>
      </trkpt>
      <trkpt lat="44.11511" lon="3.0965">
        <ele>518</ele>
        <time>2015-10-24T16:18:31Z</time>
      </trkpt>
      <trkpt lat="44.1151" lon="3.09635">
        <ele>517</ele>
        <time>2015-10-24T16:18:36Z</time>
      </trkpt>
      <trkpt lat="44.11506" lon="3.09618">
        <ele>516</ele>
        <time>2015-10-24T16:18:41Z</time>
      </trkpt>
      <trkpt lat="44.11505" lon="3.09615">
        <ele>515</ele>
        <time>2015-10-24T16:18:42Z</time>
      </trkpt>
      <trkpt lat="44.11502" lon="3.09605">
        <ele>514</ele>
        <time>2015-10-24T16:18:46Z</time>
      </trkpt>
      <trkpt lat="44.115" lon="3.09594">
        <ele>512</ele>
        <time>2015-10-24T16:18:49Z</time>
      </trkpt>
      <trkpt lat="44.11496" lon="3.09575">
        <ele>510</ele>
        <time>2015-10-24T16:18:54Z</time>
      </trkpt>
      <trkpt lat="44.11496" lon="3.09572">
        <ele>509</ele>
        <time>2015-10-24T16:18:55Z</time>
      </trkpt>
      <trkpt lat="44.11494" lon="3.09559">
        <ele>508</ele>
        <time>2015-10-24T16:19:00Z</time>
      </trkpt>
      <trkpt lat="44.11492" lon="3.09546">
        <ele>507</ele>
        <time>2015-10-24T16:19:04Z</time>
      </trkpt>
      <trkpt lat="44.11488" lon="3.09537">
        <ele>507</ele>
        <time>2015-10-24T16:19:08Z</time>
      </trkpt>
      <trkpt lat="44.11483" lon="3.09527">
        <ele>506</ele>
        <time>2015-10-24T16:19:12Z</time>
      </trkpt>
      <trkpt lat="44.11481" lon="3.09517">
        <ele>506</ele>
        <time>2015-10-24T16:19:15Z</time>
      </trkpt>
      <trkpt lat="44.1148" lon="3.095">
        <ele>501</ele>
        <time>2015-10-24T16:19:20Z</time>
      </trkpt>
      <trkpt lat="44.11477" lon="3.09491">
        <ele>500</ele>
        <time>2015-10-24T16:19:23Z</time>
      </trkpt>
      <trkpt lat="44.11477" lon="3.09486">
        <ele>500</ele>
        <time>2015-10-24T16:19:25Z</time>
      </trkpt>
      <trkpt lat="44.11474" lon="3.09474">
        <ele>499</ele>
        <time>2015-10-24T16:19:30Z</time>
      </trkpt>
      <trkpt lat="44.11474" lon="3.09459">
        <ele>497</ele>
        <time>2015-10-24T16:19:35Z</time>
      </trkpt>
      <trkpt lat="44.11479" lon="3.0944">
        <ele>496</ele>
        <time>2015-10-24T16:19:41Z</time>
      </trkpt>
      <trkpt lat="44.11482" lon="3.09429">
        <ele>495</ele>
        <time>2015-10-24T16:19:44Z</time>
      </trkpt>
      <trkpt lat="44.11485" lon="3.09414">
        <ele>487</ele>
        <time>2015-10-24T16:19:49Z</time>
      </trkpt>
      <trkpt lat="44.11483" lon="3.09409">
        <ele>487</ele>
        <time>2015-10-24T16:19:51Z</time>
      </trkpt>
      <trkpt lat="44.11474" lon="3.09403">
        <ele>485</ele>
        <time>2015-10-24T16:19:57Z</time>
      </trkpt>
      <trkpt lat="44.11463" lon="3.09399">
        <ele>485</ele>
        <time>2015-10-24T16:20:01Z</time>
      </trkpt>
      <trkpt lat="44.11455" lon="3.09393">
        <ele>484</ele>
        <time>2015-10-24T16:20:06Z</time>
      </trkpt>
      <trkpt lat="44.11447" lon="3.09389">
        <ele>484</ele>
        <time>2015-10-24T16:20:10Z</time>
      </trkpt>
      <trkpt lat="44.11445" lon="3.09381">
        <ele>483</ele>
        <time>2015-10-24T16:20:13Z</time>
      </trkpt>
      <trkpt lat="44.11444" lon="3.09379">
        <ele>483</ele>
        <time>2015-10-24T16:20:14Z</time>
      </trkpt>
      <trkpt lat="44.11438" lon="3.09372">
        <ele>483</ele>
        <time>2015-10-24T16:20:19Z</time>
      </trkpt>
      <trkpt lat="44.11437" lon="3.0937">
        <ele>482</ele>
        <time>2015-10-24T16:20:21Z</time>
      </trkpt>
      <trkpt lat="44.11428" lon="3.09362">
        <ele>481</ele>
        <time>2015-10-24T16:20:27Z</time>
      </trkpt>
      <trkpt lat="44.11429" lon="3.09352">
        <ele>480</ele>
        <time>2015-10-24T16:20:31Z</time>
      </trkpt>
      <trkpt lat="44.11431" lon="3.09351">
        <ele>480</ele>
        <time>2015-10-24T16:20:32Z</time>
      </trkpt>
      <trkpt lat="44.11444" lon="3.09351">
        <ele>480</ele>
        <time>2015-10-24T16:20:38Z</time>
      </trkpt>
      <trkpt lat="44.11456" lon="3.09354">
        <ele>480</ele>
        <time>2015-10-24T16:20:43Z</time>
      </trkpt>
      <trkpt lat="44.11469" lon="3.09353">
        <ele>480</ele>
        <time>2015-10-24T16:20:48Z</time>
      </trkpt>
      <trkpt lat="44.11483" lon="3.09351">
        <ele>478</ele>
        <time>2015-10-24T16:20:53Z</time>
      </trkpt>
      <trkpt lat="44.11493" lon="3.0935">
        <ele>477</ele>
        <time>2015-10-24T16:20:57Z</time>
      </trkpt>
      <trkpt lat="44.11507" lon="3.09347">
        <ele>475</ele>
        <time>2015-10-24T16:21:02Z</time>
      </trkpt>
      <trkpt lat="44.11518" lon="3.09344">
        <ele>476</ele>
        <time>2015-10-24T16:21:06Z</time>
      </trkpt>
      <trkpt lat="44.1153" lon="3.09341">
        <ele>477</ele>
        <time>2015-10-24T16:21:10Z</time>
      </trkpt>
      <trkpt lat="44.11541" lon="3.0934">
        <ele>477</ele>
        <time>2015-10-24T16:21:14Z</time>
      </trkpt>
      <trkpt lat="44.11551" lon="3.09337">
        <ele>476</ele>
        <time>2015-10-24T16:21:18Z</time>
      </trkpt>
      <trkpt lat="44.11564" lon="3.09329">
        <ele>465</ele>
        <time>2015-10-24T16:21:23Z</time>
      </trkpt>
      <trkpt lat="44.11579" lon="3.09324">
        <ele>467</ele>
        <time>2015-10-24T16:21:28Z</time>
      </trkpt>
      <trkpt lat="44.1159" lon="3.09322">
        <ele>463</ele>
        <time>2015-10-24T16:21:32Z</time>
      </trkpt>
      <trkpt lat="44.11604" lon="3.09322">
        <ele>460</ele>
        <time>2015-10-24T16:21:37Z</time>
      </trkpt>
      <trkpt lat="44.11616" lon="3.09322">
        <ele>457</ele>
        <time>2015-10-24T16:21:42Z</time>
      </trkpt>
      <trkpt lat="44.11625" lon="3.09314">
        <ele>455</ele>
        <time>2015-10-24T16:21:46Z</time>
      </trkpt>
      <trkpt lat="44.11626" lon="3.0931">
        <ele>455</ele>
        <time>2015-10-24T16:21:47Z</time>
      </trkpt>
      <trkpt lat="44.11625" lon="3.09288">
        <ele>452</ele>
        <time>2015-10-24T16:21:52Z</time>
      </trkpt>
      <trkpt lat="44.11622" lon="3.09277">
        <ele>451</ele>
        <time>2015-10-24T16:21:55Z</time>
      </trkpt>
      <trkpt lat="44.11615" lon="3.0926">
        <ele>450</ele>
        <time>2015-10-24T16:22:00Z</time>
      </trkpt>
      <trkpt lat="44.11606" lon="3.09244">
        <ele>439</ele>
        <time>2015-10-24T16:22:05Z</time>
      </trkpt>
      <trkpt lat="44.11594" lon="3.09232">
        <ele>440</ele>
        <time>2015-10-24T16:22:10Z</time>
      </trkpt>
      <trkpt lat="44.11583" lon="3.09222">
        <ele>444</ele>
        <time>2015-10-24T16:22:15Z</time>
      </trkpt>
      <trkpt lat="44.11574" lon="3.09213">
        <ele>443</ele>
        <time>2015-10-24T16:22:19Z</time>
      </trkpt>
      <trkpt lat="44.11571" lon="3.09211">
        <ele>442</ele>
        <time>2015-10-24T16:22:20Z</time>
      </trkpt>
      <trkpt lat="44.11565" lon="3.09212">
        <ele>443</ele>
        <time>2015-10-24T16:22:22Z</time>
      </trkpt>
      <trkpt lat="44.11552" lon="3.09211">
        <ele>443</ele>
        <time>2015-10-24T16:22:27Z</time>
      </trkpt>
      <trkpt lat="44.1155" lon="3.0921">
        <ele>443</ele>
        <time>2015-10-24T16:22:28Z</time>
      </trkpt>
      <trkpt lat="44.11545" lon="3.09207">
        <ele>442</ele>
        <time>2015-10-24T16:22:30Z</time>
      </trkpt>
      <trkpt lat="44.11547" lon="3.09196">
        <ele>441</ele>
        <time>2015-10-24T16:22:34Z</time>
      </trkpt>
      <trkpt lat="44.11547" lon="3.09188">
        <ele>440</ele>
        <time>2015-10-24T16:22:38Z</time>
      </trkpt>
      <trkpt lat="44.11539" lon="3.09182">
        <ele>440</ele>
        <time>2015-10-24T16:22:42Z</time>
      </trkpt>
      <trkpt lat="44.11527" lon="3.0917">
        <ele>440</ele>
        <time>2015-10-24T16:22:48Z</time>
      </trkpt>
      <trkpt lat="44.11522" lon="3.09165">
        <ele>428</ele>
        <time>2015-10-24T16:22:51Z</time>
      </trkpt>
      <trkpt lat="44.11516" lon="3.09158">
        <ele>429</ele>
        <time>2015-10-24T16:22:57Z</time>
      </trkpt>
      <trkpt lat="44.11506" lon="3.09142">
        <ele>426</ele>
        <time>2015-10-24T16:23:03Z</time>
      </trkpt>
      <trkpt lat="44.11499" lon="3.0913">
        <ele>430</ele>
        <time>2015-10-24T16:23:07Z</time>
      </trkpt>
      <trkpt lat="44.11488" lon="3.09116">
        <ele>427</ele>
        <time>2015-10-24T16:23:12Z</time>
      </trkpt>
      <trkpt lat="44.1148" lon="3.09108">
        <ele>427</ele>
        <time>2015-10-24T16:23:16Z</time>
      </trkpt>
      <trkpt lat="44.11474" lon="3.09104">
        <ele>427</ele>
        <time>2015-10-24T16:23:20Z</time>
      </trkpt>
      <trkpt lat="44.11468" lon="3.09095">
        <ele>427</ele>
        <time>2015-10-24T16:23:23Z</time>
      </trkpt>
      <trkpt lat="44.11466" lon="3.09094">
        <ele>427</ele>
        <time>2015-10-24T16:23:24Z</time>
      </trkpt>
      <trkpt lat="44.11458" lon="3.09081">
        <ele>416</ele>
        <time>2015-10-24T16:23:29Z</time>
      </trkpt>
      <trkpt lat="44.1145" lon="3.09078">
        <ele>417</ele>
        <time>2015-10-24T16:23:33Z</time>
      </trkpt>
      <trkpt lat="44.1144" lon="3.09069">
        <ele>418</ele>
        <time>2015-10-24T16:23:38Z</time>
      </trkpt>
      <trkpt lat="44.11433" lon="3.09059">
        <ele>418</ele>
        <time>2015-10-24T16:23:42Z</time>
      </trkpt>
      <trkpt lat="44.1143" lon="3.09054">
        <ele>417</ele>
        <time>2015-10-24T16:23:44Z</time>
      </trkpt>
      <trkpt lat="44.11424" lon="3.0904">
        <ele>415</ele>
        <time>2015-10-24T16:23:49Z</time>
      </trkpt>
      <trkpt lat="44.11421" lon="3.09031">
        <ele>413</ele>
        <time>2015-10-24T16:23:52Z</time>
      </trkpt>
      <trkpt lat="44.11416" lon="3.09018">
        <ele>417</ele>
        <time>2015-10-24T16:23:57Z</time>
      </trkpt>
      <trkpt lat="44.11414" lon="3.09006">
        <ele>413</ele>
        <time>2015-10-24T16:24:02Z</time>
      </trkpt>
      <trkpt lat="44.11414" lon="3.09003">
        <ele>412</ele>
        <time>2015-10-24T16:24:05Z</time>
      </trkpt>
      <trkpt lat="44.11411" lon="3.0899">
        <ele>408</ele>
        <time>2015-10-24T16:24:10Z</time>
      </trkpt>
      <trkpt lat="44.11405" lon="3.08982">
        <ele>406</ele>
        <time>2015-10-24T16:24:15Z</time>
      </trkpt>
      <trkpt lat="44.11401" lon="3.08969">
        <ele>404</ele>
        <time>2015-10-24T16:24:22Z</time>
      </trkpt>
      <trkpt lat="44.114" lon="3.08967">
        <ele>404</ele>
        <time>2015-10-24T16:24:28Z</time>
      </trkpt>
      <trkpt lat="44.11395" lon="3.0896">
        <ele>403</ele>
        <time>2015-10-24T16:24:32Z</time>
      </trkpt>
      <trkpt lat="44.114" lon="3.08952">
        <ele>401</ele>
        <time>2015-10-24T16:24:37Z</time>
      </trkpt>
      <trkpt lat="44.11409" lon="3.08946">
        <ele>400</ele>
        <time>2015-10-24T16:24:41Z</time>
      </trkpt>
      <trkpt lat="44.11413" lon="3.08937">
        <ele>397</ele>
        <time>2015-10-24T16:24:47Z</time>
      </trkpt>
      <trkpt lat="44.11419" lon="3.08935">
        <ele>391</ele>
        <time>2015-10-24T16:24:50Z</time>
      </trkpt>
      <trkpt lat="44.1142" lon="3.08934">
        <ele>391</ele>
        <time>2015-10-24T16:24:52Z</time>
      </trkpt>
      <trkpt lat="44.11421" lon="3.08923">
        <ele>389</ele>
        <time>2015-10-24T16:24:58Z</time>
      </trkpt>
      <trkpt lat="44.11432" lon="3.08917">
        <ele>390</ele>
        <time>2015-10-24T16:25:03Z</time>
      </trkpt>
      <trkpt lat="44.11446" lon="3.08921">
        <ele>390</ele>
        <time>2015-10-24T16:25:08Z</time>
      </trkpt>
      <trkpt lat="44.11455" lon="3.08931">
        <ele>390</ele>
        <time>2015-10-24T16:25:13Z</time>
      </trkpt>
      <trkpt lat="44.11466" lon="3.08938">
        <ele>390</ele>
        <time>2015-10-24T16:25:18Z</time>
      </trkpt>
      <trkpt lat="44.1148" lon="3.08947">
        <ele>390</ele>
        <time>2015-10-24T16:25:24Z</time>
      </trkpt>
      <trkpt lat="44.11484" lon="3.08951">
        <ele>390</ele>
        <time>2015-10-24T16:25:26Z</time>
      </trkpt>
      <trkpt lat="44.1148" lon="3.08952">
        <ele>391</ele>
        <time>2015-10-24T16:25:30Z</time>
      </trkpt>
      <trkpt lat="44.1147" lon="3.08949">
        <ele>391</ele>
        <time>2015-10-24T16:25:34Z</time>
      </trkpt>
      <trkpt lat="44.11466" lon="3.0895">
        <ele>391</ele>
        <time>2015-10-24T16:25:38Z</time>
      </trkpt>
      <trkpt lat="44.11462" lon="3.08951">
        <ele>392</ele>
        <time>2015-10-24T16:25:44Z</time>
      </trkpt>
      <trkpt lat="44.1146" lon="3.08951">
        <ele>392</ele>
        <time>2015-10-24T16:25:45Z</time>
      </trkpt>
      <trkpt lat="44.11448" lon="3.08949">
        <ele>393</ele>
        <time>2015-10-24T16:25:51Z</time>
      </trkpt>
      <trkpt lat="44.11436" lon="3.08948">
        <ele>393</ele>
        <time>2015-10-24T16:25:55Z</time>
      </trkpt>
    </trkseg>
  </trk>
</gpx>